<?xml version="1.0" encoding="UTF-8" standalone="no" ?>
<gpx xmlns="http://www.topografix.com/GPX/1/1" xmlns:xsi="http://www.w3.org/2001/XMLSchema-instance" xsi:schemaLocation="http://www.topografix.com/GPX/1/1 http://www.topografix.com/GPX/1/1/gpx.xsd" version="1.1" creator="VisuGPX - https://www.visugpx.com">
  <metadata>
    <name>Les Marais-Bellefontaine-Morbier....</name>
  </metadata>
  <trk>
    <name><![CDATA[Les Marais-Bellefontaine-Morbier...._1]]></name>
    <extensions>
      <line xmlns="http://www.topografix.com/GPX/gpx_style/0/2">
        <color>0000FF</color>
        <width>4</width>
      </line>
    </extensions>
    <trkseg>
      <trkpt lat="46.55721" lon="6.02191">
        <ele>916.6</ele>
        <time>2021-11-18T07:31:13Z</time>
      </trkpt>
      <trkpt lat="46.55718" lon="6.02186">
        <ele>922.1</ele>
        <time>2021-11-18T07:31:54Z</time>
      </trkpt>
      <trkpt lat="46.5572" lon="6.0218">
        <ele>925.6</ele>
        <time>2021-11-18T07:32:27Z</time>
      </trkpt>
      <trkpt lat="46.55724" lon="6.02176">
        <ele>924.6</ele>
        <time>2021-11-18T07:32:44Z</time>
      </trkpt>
      <trkpt lat="46.5572" lon="6.0218">
        <ele>925.8</ele>
        <time>2021-11-18T07:33:06Z</time>
      </trkpt>
      <trkpt lat="46.55719" lon="6.02187">
        <ele>924.6</ele>
        <time>2021-11-18T07:33:22Z</time>
      </trkpt>
      <trkpt lat="46.55717" lon="6.02192">
        <ele>923.5</ele>
        <time>2021-11-18T07:33:27Z</time>
      </trkpt>
      <trkpt lat="46.55713" lon="6.02197">
        <ele>922.3</ele>
        <time>2021-11-18T07:33:32Z</time>
      </trkpt>
      <trkpt lat="46.55711" lon="6.02204">
        <ele>921.4</ele>
        <time>2021-11-18T07:33:37Z</time>
      </trkpt>
      <trkpt lat="46.55709" lon="6.0221">
        <ele>920.6</ele>
        <time>2021-11-18T07:33:43Z</time>
      </trkpt>
      <trkpt lat="46.55706" lon="6.02216">
        <ele>919.7</ele>
        <time>2021-11-18T07:33:49Z</time>
      </trkpt>
      <trkpt lat="46.55703" lon="6.02221">
        <ele>919.3</ele>
        <time>2021-11-18T07:33:54Z</time>
      </trkpt>
      <trkpt lat="46.55701" lon="6.02227">
        <ele>919.2</ele>
        <time>2021-11-18T07:33:59Z</time>
      </trkpt>
      <trkpt lat="46.557" lon="6.02234">
        <ele>919.1</ele>
        <time>2021-11-18T07:34:03Z</time>
      </trkpt>
      <trkpt lat="46.55698" lon="6.0224">
        <ele>919</ele>
        <time>2021-11-18T07:34:08Z</time>
      </trkpt>
      <trkpt lat="46.55695" lon="6.02247">
        <ele>919.1</ele>
        <time>2021-11-18T07:34:14Z</time>
      </trkpt>
      <trkpt lat="46.55692" lon="6.02252">
        <ele>919.5</ele>
        <time>2021-11-18T07:34:20Z</time>
      </trkpt>
      <trkpt lat="46.55689" lon="6.02259">
        <ele>919.2</ele>
        <time>2021-11-18T07:34:25Z</time>
      </trkpt>
      <trkpt lat="46.55686" lon="6.02266">
        <ele>918.5</ele>
        <time>2021-11-18T07:34:30Z</time>
      </trkpt>
      <trkpt lat="46.55684" lon="6.02272">
        <ele>918.3</ele>
        <time>2021-11-18T07:34:35Z</time>
      </trkpt>
      <trkpt lat="46.55681" lon="6.02278">
        <ele>918.1</ele>
        <time>2021-11-18T07:34:40Z</time>
      </trkpt>
      <trkpt lat="46.55679" lon="6.02285">
        <ele>917.8</ele>
        <time>2021-11-18T07:34:45Z</time>
      </trkpt>
      <trkpt lat="46.55677" lon="6.02291">
        <ele>917.9</ele>
        <time>2021-11-18T07:34:49Z</time>
      </trkpt>
      <trkpt lat="46.55676" lon="6.02298">
        <ele>918</ele>
        <time>2021-11-18T07:34:54Z</time>
      </trkpt>
      <trkpt lat="46.55674" lon="6.02304">
        <ele>918.5</ele>
        <time>2021-11-18T07:34:58Z</time>
      </trkpt>
      <trkpt lat="46.55672" lon="6.02311">
        <ele>919.4</ele>
        <time>2021-11-18T07:35:03Z</time>
      </trkpt>
      <trkpt lat="46.5567" lon="6.02319">
        <ele>920.2</ele>
        <time>2021-11-18T07:35:08Z</time>
      </trkpt>
      <trkpt lat="46.55667" lon="6.02325">
        <ele>921.3</ele>
        <time>2021-11-18T07:35:13Z</time>
      </trkpt>
      <trkpt lat="46.55665" lon="6.0233">
        <ele>922</ele>
        <time>2021-11-18T07:35:18Z</time>
      </trkpt>
      <trkpt lat="46.55663" lon="6.02337">
        <ele>922.1</ele>
        <time>2021-11-18T07:35:23Z</time>
      </trkpt>
      <trkpt lat="46.55661" lon="6.02344">
        <ele>922.1</ele>
        <time>2021-11-18T07:35:27Z</time>
      </trkpt>
      <trkpt lat="46.55659" lon="6.0235">
        <ele>922.5</ele>
        <time>2021-11-18T07:35:31Z</time>
      </trkpt>
      <trkpt lat="46.55657" lon="6.02357">
        <ele>923</ele>
        <time>2021-11-18T07:35:36Z</time>
      </trkpt>
      <trkpt lat="46.55655" lon="6.02363">
        <ele>923.4</ele>
        <time>2021-11-18T07:35:41Z</time>
      </trkpt>
      <trkpt lat="46.55654" lon="6.0237">
        <ele>923.1</ele>
        <time>2021-11-18T07:35:46Z</time>
      </trkpt>
      <trkpt lat="46.55651" lon="6.02376">
        <ele>921.7</ele>
        <time>2021-11-18T07:35:52Z</time>
      </trkpt>
      <trkpt lat="46.55648" lon="6.02382">
        <ele>921.7</ele>
        <time>2021-11-18T07:35:56Z</time>
      </trkpt>
      <trkpt lat="46.55646" lon="6.02388">
        <ele>921.1</ele>
        <time>2021-11-18T07:36:04Z</time>
      </trkpt>
      <trkpt lat="46.55642" lon="6.02394">
        <ele>919.8</ele>
        <time>2021-11-18T07:36:09Z</time>
      </trkpt>
      <trkpt lat="46.55638" lon="6.02399">
        <ele>919</ele>
        <time>2021-11-18T07:36:12Z</time>
      </trkpt>
      <trkpt lat="46.55636" lon="6.02407">
        <ele>918.4</ele>
        <time>2021-11-18T07:36:15Z</time>
      </trkpt>
      <trkpt lat="46.55633" lon="6.02413">
        <ele>917.8</ele>
        <time>2021-11-18T07:36:18Z</time>
      </trkpt>
      <trkpt lat="46.55632" lon="6.0242">
        <ele>917.8</ele>
        <time>2021-11-18T07:36:24Z</time>
      </trkpt>
      <trkpt lat="46.55631" lon="6.02426">
        <ele>918.6</ele>
        <time>2021-11-18T07:36:29Z</time>
      </trkpt>
      <trkpt lat="46.55628" lon="6.02432">
        <ele>919.9</ele>
        <time>2021-11-18T07:36:34Z</time>
      </trkpt>
      <trkpt lat="46.55623" lon="6.02432">
        <ele>921</ele>
        <time>2021-11-18T07:36:40Z</time>
      </trkpt>
      <trkpt lat="46.55619" lon="6.02434">
        <ele>922.5</ele>
        <time>2021-11-18T07:36:47Z</time>
      </trkpt>
      <trkpt lat="46.55616" lon="6.02441">
        <ele>923</ele>
        <time>2021-11-18T07:36:51Z</time>
      </trkpt>
      <trkpt lat="46.55613" lon="6.02447">
        <ele>923.5</ele>
        <time>2021-11-18T07:36:55Z</time>
      </trkpt>
      <trkpt lat="46.55611" lon="6.02455">
        <ele>923.6</ele>
        <time>2021-11-18T07:37:00Z</time>
      </trkpt>
      <trkpt lat="46.55608" lon="6.0246">
        <ele>923.8</ele>
        <time>2021-11-18T07:37:04Z</time>
      </trkpt>
      <trkpt lat="46.55605" lon="6.02466">
        <ele>923.3</ele>
        <time>2021-11-18T07:37:09Z</time>
      </trkpt>
      <trkpt lat="46.55602" lon="6.02473">
        <ele>922.7</ele>
        <time>2021-11-18T07:37:14Z</time>
      </trkpt>
      <trkpt lat="46.556" lon="6.02479">
        <ele>922.5</ele>
        <time>2021-11-18T07:37:19Z</time>
      </trkpt>
      <trkpt lat="46.55598" lon="6.02486">
        <ele>922.4</ele>
        <time>2021-11-18T07:37:24Z</time>
      </trkpt>
      <trkpt lat="46.55597" lon="6.02493">
        <ele>922.8</ele>
        <time>2021-11-18T07:37:29Z</time>
      </trkpt>
      <trkpt lat="46.55593" lon="6.02498">
        <ele>923.7</ele>
        <time>2021-11-18T07:37:34Z</time>
      </trkpt>
      <trkpt lat="46.55591" lon="6.02505">
        <ele>923.9</ele>
        <time>2021-11-18T07:37:38Z</time>
      </trkpt>
      <trkpt lat="46.55588" lon="6.02512">
        <ele>923.4</ele>
        <time>2021-11-18T07:37:42Z</time>
      </trkpt>
      <trkpt lat="46.55585" lon="6.02517">
        <ele>922.7</ele>
        <time>2021-11-18T07:37:47Z</time>
      </trkpt>
      <trkpt lat="46.55584" lon="6.02524">
        <ele>921.9</ele>
        <time>2021-11-18T07:37:54Z</time>
      </trkpt>
      <trkpt lat="46.55582" lon="6.0253">
        <ele>921.2</ele>
        <time>2021-11-18T07:37:58Z</time>
      </trkpt>
      <trkpt lat="46.55579" lon="6.02536">
        <ele>920.6</ele>
        <time>2021-11-18T07:38:02Z</time>
      </trkpt>
      <trkpt lat="46.55576" lon="6.02543">
        <ele>920.2</ele>
        <time>2021-11-18T07:38:07Z</time>
      </trkpt>
      <trkpt lat="46.55574" lon="6.0255">
        <ele>920.3</ele>
        <time>2021-11-18T07:38:12Z</time>
      </trkpt>
      <trkpt lat="46.55572" lon="6.02557">
        <ele>920.5</ele>
        <time>2021-11-18T07:38:16Z</time>
      </trkpt>
      <trkpt lat="46.55572" lon="6.02565">
        <ele>921.7</ele>
        <time>2021-11-18T07:38:21Z</time>
      </trkpt>
      <trkpt lat="46.55574" lon="6.02571">
        <ele>923</ele>
        <time>2021-11-18T07:38:25Z</time>
      </trkpt>
      <trkpt lat="46.55578" lon="6.02576">
        <ele>924.9</ele>
        <time>2021-11-18T07:38:30Z</time>
      </trkpt>
      <trkpt lat="46.5558" lon="6.02582">
        <ele>926.7</ele>
        <time>2021-11-18T07:38:35Z</time>
      </trkpt>
      <trkpt lat="46.55583" lon="6.02588">
        <ele>927.5</ele>
        <time>2021-11-18T07:38:40Z</time>
      </trkpt>
      <trkpt lat="46.55586" lon="6.02595">
        <ele>927.6</ele>
        <time>2021-11-18T07:38:45Z</time>
      </trkpt>
      <trkpt lat="46.55589" lon="6.02601">
        <ele>927.4</ele>
        <time>2021-11-18T07:38:51Z</time>
      </trkpt>
      <trkpt lat="46.55591" lon="6.02607">
        <ele>926.5</ele>
        <time>2021-11-18T07:38:56Z</time>
      </trkpt>
      <trkpt lat="46.55593" lon="6.02614">
        <ele>925.9</ele>
        <time>2021-11-18T07:39:01Z</time>
      </trkpt>
      <trkpt lat="46.55596" lon="6.0262">
        <ele>925.8</ele>
        <time>2021-11-18T07:39:08Z</time>
      </trkpt>
      <trkpt lat="46.55598" lon="6.02614">
        <ele>926.1</ele>
        <time>2021-11-18T07:39:15Z</time>
      </trkpt>
      <trkpt lat="46.55602" lon="6.02609">
        <ele>926.6</ele>
        <time>2021-11-18T07:39:19Z</time>
      </trkpt>
      <trkpt lat="46.55607" lon="6.02606">
        <ele>928.2</ele>
        <time>2021-11-18T07:39:24Z</time>
      </trkpt>
      <trkpt lat="46.55612" lon="6.02606">
        <ele>930.9</ele>
        <time>2021-11-18T07:39:29Z</time>
      </trkpt>
      <trkpt lat="46.55616" lon="6.02604">
        <ele>933.3</ele>
        <time>2021-11-18T07:39:34Z</time>
      </trkpt>
      <trkpt lat="46.55621" lon="6.02604">
        <ele>930.3</ele>
        <time>2021-11-18T07:40:15Z</time>
      </trkpt>
      <trkpt lat="46.55626" lon="6.02606">
        <ele>931.2</ele>
        <time>2021-11-18T07:40:19Z</time>
      </trkpt>
      <trkpt lat="46.5563" lon="6.02607">
        <ele>931.2</ele>
        <time>2021-11-18T07:40:25Z</time>
      </trkpt>
      <trkpt lat="46.55632" lon="6.02613">
        <ele>930.5</ele>
        <time>2021-11-18T07:40:36Z</time>
      </trkpt>
      <trkpt lat="46.55637" lon="6.02618">
        <ele>930</ele>
        <time>2021-11-18T07:40:40Z</time>
      </trkpt>
      <trkpt lat="46.55642" lon="6.02619">
        <ele>929.9</ele>
        <time>2021-11-18T07:40:43Z</time>
      </trkpt>
      <trkpt lat="46.55647" lon="6.02621">
        <ele>930.1</ele>
        <time>2021-11-18T07:40:47Z</time>
      </trkpt>
      <trkpt lat="46.55652" lon="6.02622">
        <ele>930.4</ele>
        <time>2021-11-18T07:40:52Z</time>
      </trkpt>
      <trkpt lat="46.55656" lon="6.02623">
        <ele>931.2</ele>
        <time>2021-11-18T07:40:58Z</time>
      </trkpt>
      <trkpt lat="46.55661" lon="6.02624">
        <ele>931.7</ele>
        <time>2021-11-18T07:41:04Z</time>
      </trkpt>
      <trkpt lat="46.55665" lon="6.02627">
        <ele>932.4</ele>
        <time>2021-11-18T07:41:10Z</time>
      </trkpt>
      <trkpt lat="46.55669" lon="6.02632">
        <ele>933.1</ele>
        <time>2021-11-18T07:41:16Z</time>
      </trkpt>
      <trkpt lat="46.55673" lon="6.02636">
        <ele>933.6</ele>
        <time>2021-11-18T07:41:22Z</time>
      </trkpt>
      <trkpt lat="46.55677" lon="6.02638">
        <ele>934</ele>
        <time>2021-11-18T07:41:27Z</time>
      </trkpt>
      <trkpt lat="46.55681" lon="6.02642">
        <ele>934.8</ele>
        <time>2021-11-18T07:41:34Z</time>
      </trkpt>
      <trkpt lat="46.55686" lon="6.02645">
        <ele>935.1</ele>
        <time>2021-11-18T07:41:42Z</time>
      </trkpt>
      <trkpt lat="46.55691" lon="6.02647">
        <ele>935.2</ele>
        <time>2021-11-18T07:41:49Z</time>
      </trkpt>
      <trkpt lat="46.55696" lon="6.02649">
        <ele>935.8</ele>
        <time>2021-11-18T07:41:55Z</time>
      </trkpt>
      <trkpt lat="46.557" lon="6.02651">
        <ele>937.2</ele>
        <time>2021-11-18T07:42:03Z</time>
      </trkpt>
      <trkpt lat="46.55706" lon="6.02651">
        <ele>938.5</ele>
        <time>2021-11-18T07:42:09Z</time>
      </trkpt>
      <trkpt lat="46.5571" lon="6.02654">
        <ele>940.4</ele>
        <time>2021-11-18T07:42:18Z</time>
      </trkpt>
      <trkpt lat="46.55715" lon="6.02657">
        <ele>941.8</ele>
        <time>2021-11-18T07:42:26Z</time>
      </trkpt>
      <trkpt lat="46.55719" lon="6.02661">
        <ele>943.1</ele>
        <time>2021-11-18T07:42:31Z</time>
      </trkpt>
      <trkpt lat="46.55722" lon="6.02665">
        <ele>944.5</ele>
        <time>2021-11-18T07:42:36Z</time>
      </trkpt>
      <trkpt lat="46.55727" lon="6.02669">
        <ele>945.6</ele>
        <time>2021-11-18T07:42:41Z</time>
      </trkpt>
      <trkpt lat="46.55731" lon="6.02672">
        <ele>945.7</ele>
        <time>2021-11-18T07:42:45Z</time>
      </trkpt>
      <trkpt lat="46.55735" lon="6.02674">
        <ele>945.3</ele>
        <time>2021-11-18T07:42:49Z</time>
      </trkpt>
      <trkpt lat="46.55739" lon="6.02679">
        <ele>944.3</ele>
        <time>2021-11-18T07:42:55Z</time>
      </trkpt>
      <trkpt lat="46.55743" lon="6.02684">
        <ele>942.9</ele>
        <time>2021-11-18T07:43:00Z</time>
      </trkpt>
      <trkpt lat="46.55746" lon="6.02691">
        <ele>942.3</ele>
        <time>2021-11-18T07:43:05Z</time>
      </trkpt>
      <trkpt lat="46.5575" lon="6.02695">
        <ele>942.2</ele>
        <time>2021-11-18T07:43:10Z</time>
      </trkpt>
      <trkpt lat="46.55754" lon="6.02699">
        <ele>942.3</ele>
        <time>2021-11-18T07:43:16Z</time>
      </trkpt>
      <trkpt lat="46.55758" lon="6.02703">
        <ele>942.5</ele>
        <time>2021-11-18T07:43:22Z</time>
      </trkpt>
      <trkpt lat="46.55763" lon="6.02702">
        <ele>944.1</ele>
        <time>2021-11-18T07:43:52Z</time>
      </trkpt>
      <trkpt lat="46.55767" lon="6.02704">
        <ele>944.5</ele>
        <time>2021-11-18T07:43:57Z</time>
      </trkpt>
      <trkpt lat="46.55773" lon="6.02706">
        <ele>945.3</ele>
        <time>2021-11-18T07:44:01Z</time>
      </trkpt>
      <trkpt lat="46.55777" lon="6.02709">
        <ele>946.6</ele>
        <time>2021-11-18T07:44:05Z</time>
      </trkpt>
      <trkpt lat="46.55781" lon="6.02713">
        <ele>948.2</ele>
        <time>2021-11-18T07:44:10Z</time>
      </trkpt>
      <trkpt lat="46.55786" lon="6.02716">
        <ele>952.3</ele>
        <time>2021-11-18T07:44:22Z</time>
      </trkpt>
      <trkpt lat="46.55791" lon="6.02716">
        <ele>953.3</ele>
        <time>2021-11-18T07:44:27Z</time>
      </trkpt>
      <trkpt lat="46.55795" lon="6.0272">
        <ele>954.2</ele>
        <time>2021-11-18T07:44:32Z</time>
      </trkpt>
      <trkpt lat="46.55799" lon="6.02724">
        <ele>955.4</ele>
        <time>2021-11-18T07:44:38Z</time>
      </trkpt>
      <trkpt lat="46.55803" lon="6.02727">
        <ele>957.6</ele>
        <time>2021-11-18T07:44:51Z</time>
      </trkpt>
      <trkpt lat="46.55808" lon="6.02728">
        <ele>958.4</ele>
        <time>2021-11-18T07:44:57Z</time>
      </trkpt>
      <trkpt lat="46.55812" lon="6.02733">
        <ele>958.7</ele>
        <time>2021-11-18T07:45:03Z</time>
      </trkpt>
      <trkpt lat="46.55816" lon="6.02738">
        <ele>960</ele>
        <time>2021-11-18T07:45:10Z</time>
      </trkpt>
      <trkpt lat="46.5582" lon="6.02742">
        <ele>961.1</ele>
        <time>2021-11-18T07:45:15Z</time>
      </trkpt>
      <trkpt lat="46.55825" lon="6.02744">
        <ele>961.6</ele>
        <time>2021-11-18T07:45:19Z</time>
      </trkpt>
      <trkpt lat="46.55829" lon="6.0274">
        <ele>961.9</ele>
        <time>2021-11-18T07:45:24Z</time>
      </trkpt>
      <trkpt lat="46.55834" lon="6.02743">
        <ele>959.9</ele>
        <time>2021-11-18T07:45:32Z</time>
      </trkpt>
      <trkpt lat="46.55837" lon="6.02748">
        <ele>956.4</ele>
        <time>2021-11-18T07:45:38Z</time>
      </trkpt>
      <trkpt lat="46.55841" lon="6.02752">
        <ele>952.9</ele>
        <time>2021-11-18T07:45:46Z</time>
      </trkpt>
      <trkpt lat="46.55846" lon="6.02752">
        <ele>952</ele>
        <time>2021-11-18T07:45:51Z</time>
      </trkpt>
      <trkpt lat="46.5585" lon="6.02754">
        <ele>951.2</ele>
        <time>2021-11-18T07:45:57Z</time>
      </trkpt>
      <trkpt lat="46.55857" lon="6.02752">
        <ele>951.6</ele>
        <time>2021-11-18T07:46:17Z</time>
      </trkpt>
      <trkpt lat="46.55863" lon="6.02753">
        <ele>952.2</ele>
        <time>2021-11-18T07:46:20Z</time>
      </trkpt>
      <trkpt lat="46.5587" lon="6.02753">
        <ele>953.3</ele>
        <time>2021-11-18T07:46:29Z</time>
      </trkpt>
      <trkpt lat="46.55875" lon="6.02755">
        <ele>953.6</ele>
        <time>2021-11-18T07:46:33Z</time>
      </trkpt>
      <trkpt lat="46.55882" lon="6.02753">
        <ele>954.4</ele>
        <time>2021-11-18T07:46:46Z</time>
      </trkpt>
      <trkpt lat="46.55887" lon="6.0275">
        <ele>954.9</ele>
        <time>2021-11-18T07:46:49Z</time>
      </trkpt>
      <trkpt lat="46.55893" lon="6.02749">
        <ele>956</ele>
        <time>2021-11-18T07:47:00Z</time>
      </trkpt>
      <trkpt lat="46.559" lon="6.02748">
        <ele>956.4</ele>
        <time>2021-11-18T07:47:03Z</time>
      </trkpt>
      <trkpt lat="46.55904" lon="6.02745">
        <ele>956.9</ele>
        <time>2021-11-18T07:47:07Z</time>
      </trkpt>
      <trkpt lat="46.55909" lon="6.02739">
        <ele>957.5</ele>
        <time>2021-11-18T07:47:10Z</time>
      </trkpt>
      <trkpt lat="46.55913" lon="6.02734">
        <ele>958.2</ele>
        <time>2021-11-18T07:47:13Z</time>
      </trkpt>
      <trkpt lat="46.55916" lon="6.02728">
        <ele>959</ele>
        <time>2021-11-18T07:47:17Z</time>
      </trkpt>
      <trkpt lat="46.55921" lon="6.02725">
        <ele>960.2</ele>
        <time>2021-11-18T07:47:22Z</time>
      </trkpt>
      <trkpt lat="46.55926" lon="6.02725">
        <ele>960.8</ele>
        <time>2021-11-18T07:47:26Z</time>
      </trkpt>
      <trkpt lat="46.55931" lon="6.02725">
        <ele>961.1</ele>
        <time>2021-11-18T07:47:30Z</time>
      </trkpt>
      <trkpt lat="46.55936" lon="6.02727">
        <ele>961.8</ele>
        <time>2021-11-18T07:47:43Z</time>
      </trkpt>
      <trkpt lat="46.55941" lon="6.02725">
        <ele>961.3</ele>
        <time>2021-11-18T07:47:49Z</time>
      </trkpt>
      <trkpt lat="46.55944" lon="6.0272">
        <ele>960.9</ele>
        <time>2021-11-18T07:47:58Z</time>
      </trkpt>
      <trkpt lat="46.5595" lon="6.0272">
        <ele>961.2</ele>
        <time>2021-11-18T07:48:05Z</time>
      </trkpt>
      <trkpt lat="46.55954" lon="6.02722">
        <ele>961.5</ele>
        <time>2021-11-18T07:48:11Z</time>
      </trkpt>
      <trkpt lat="46.55959" lon="6.02723">
        <ele>961.6</ele>
        <time>2021-11-18T07:48:15Z</time>
      </trkpt>
      <trkpt lat="46.55963" lon="6.02725">
        <ele>961.6</ele>
        <time>2021-11-18T07:48:22Z</time>
      </trkpt>
      <trkpt lat="46.55968" lon="6.02727">
        <ele>960.1</ele>
        <time>2021-11-18T07:48:28Z</time>
      </trkpt>
      <trkpt lat="46.55973" lon="6.02726">
        <ele>962.6</ele>
        <time>2021-11-18T07:49:16Z</time>
      </trkpt>
      <trkpt lat="46.55978" lon="6.02725">
        <ele>965</ele>
        <time>2021-11-18T07:49:23Z</time>
      </trkpt>
      <trkpt lat="46.55982" lon="6.02728">
        <ele>965.9</ele>
        <time>2021-11-18T07:50:13Z</time>
      </trkpt>
      <trkpt lat="46.55986" lon="6.02732">
        <ele>965.5</ele>
        <time>2021-11-18T07:50:17Z</time>
      </trkpt>
      <trkpt lat="46.5599" lon="6.02735">
        <ele>965.3</ele>
        <time>2021-11-18T07:50:21Z</time>
      </trkpt>
      <trkpt lat="46.55995" lon="6.02736">
        <ele>965.1</ele>
        <time>2021-11-18T07:50:26Z</time>
      </trkpt>
      <trkpt lat="46.55999" lon="6.0274">
        <ele>965</ele>
        <time>2021-11-18T07:50:31Z</time>
      </trkpt>
      <trkpt lat="46.56004" lon="6.02743">
        <ele>964.9</ele>
        <time>2021-11-18T07:50:36Z</time>
      </trkpt>
      <trkpt lat="46.56008" lon="6.02746">
        <ele>964.6</ele>
        <time>2021-11-18T07:50:40Z</time>
      </trkpt>
      <trkpt lat="46.56013" lon="6.0275">
        <ele>964.5</ele>
        <time>2021-11-18T07:50:45Z</time>
      </trkpt>
      <trkpt lat="46.56017" lon="6.02753">
        <ele>964.9</ele>
        <time>2021-11-18T07:50:52Z</time>
      </trkpt>
      <trkpt lat="46.56022" lon="6.02757">
        <ele>965.7</ele>
        <time>2021-11-18T07:50:57Z</time>
      </trkpt>
      <trkpt lat="46.56026" lon="6.0276">
        <ele>967.1</ele>
        <time>2021-11-18T07:51:02Z</time>
      </trkpt>
      <trkpt lat="46.5603" lon="6.02763">
        <ele>969.4</ele>
        <time>2021-11-18T07:51:08Z</time>
      </trkpt>
      <trkpt lat="46.56035" lon="6.02767">
        <ele>971.4</ele>
        <time>2021-11-18T07:51:13Z</time>
      </trkpt>
      <trkpt lat="46.56039" lon="6.02769">
        <ele>974</ele>
        <time>2021-11-18T07:51:19Z</time>
      </trkpt>
      <trkpt lat="46.56042" lon="6.02775">
        <ele>976.1</ele>
        <time>2021-11-18T07:51:26Z</time>
      </trkpt>
      <trkpt lat="46.56043" lon="6.02782">
        <ele>976</ele>
        <time>2021-11-18T07:51:31Z</time>
      </trkpt>
      <trkpt lat="46.56045" lon="6.02789">
        <ele>975.7</ele>
        <time>2021-11-18T07:51:35Z</time>
      </trkpt>
      <trkpt lat="46.56048" lon="6.02794">
        <ele>975.5</ele>
        <time>2021-11-18T07:51:40Z</time>
      </trkpt>
      <trkpt lat="46.5605" lon="6.02799">
        <ele>976.1</ele>
        <time>2021-11-18T07:51:48Z</time>
      </trkpt>
      <trkpt lat="46.56052" lon="6.02806">
        <ele>977</ele>
        <time>2021-11-18T07:51:53Z</time>
      </trkpt>
      <trkpt lat="46.56053" lon="6.02814">
        <ele>979.4</ele>
        <time>2021-11-18T07:51:58Z</time>
      </trkpt>
      <trkpt lat="46.56054" lon="6.0282">
        <ele>982.4</ele>
        <time>2021-11-18T07:52:05Z</time>
      </trkpt>
      <trkpt lat="46.56055" lon="6.02827">
        <ele>983.4</ele>
        <time>2021-11-18T07:52:10Z</time>
      </trkpt>
      <trkpt lat="46.56056" lon="6.02835">
        <ele>984.5</ele>
        <time>2021-11-18T07:52:16Z</time>
      </trkpt>
      <trkpt lat="46.56058" lon="6.02841">
        <ele>986.3</ele>
        <time>2021-11-18T07:52:22Z</time>
      </trkpt>
      <trkpt lat="46.56064" lon="6.02849">
        <ele>989.8</ele>
        <time>2021-11-18T07:52:39Z</time>
      </trkpt>
      <trkpt lat="46.56068" lon="6.02855">
        <ele>990.8</ele>
        <time>2021-11-18T07:52:42Z</time>
      </trkpt>
      <trkpt lat="46.56071" lon="6.02861">
        <ele>992.4</ele>
        <time>2021-11-18T07:52:47Z</time>
      </trkpt>
      <trkpt lat="46.56074" lon="6.02866">
        <ele>994</ele>
        <time>2021-11-18T07:52:53Z</time>
      </trkpt>
      <trkpt lat="46.5608" lon="6.02871">
        <ele>994.6</ele>
        <time>2021-11-18T07:53:06Z</time>
      </trkpt>
      <trkpt lat="46.56085" lon="6.02875">
        <ele>994</ele>
        <time>2021-11-18T07:53:09Z</time>
      </trkpt>
      <trkpt lat="46.56089" lon="6.02879">
        <ele>993.3</ele>
        <time>2021-11-18T07:53:13Z</time>
      </trkpt>
      <trkpt lat="46.56094" lon="6.02883">
        <ele>992.3</ele>
        <time>2021-11-18T07:53:18Z</time>
      </trkpt>
      <trkpt lat="46.56097" lon="6.02888">
        <ele>991.1</ele>
        <time>2021-11-18T07:53:24Z</time>
      </trkpt>
      <trkpt lat="46.561" lon="6.02893">
        <ele>990.6</ele>
        <time>2021-11-18T07:53:28Z</time>
      </trkpt>
      <trkpt lat="46.56104" lon="6.02898">
        <ele>989.9</ele>
        <time>2021-11-18T07:53:33Z</time>
      </trkpt>
      <trkpt lat="46.56107" lon="6.02903">
        <ele>989.8</ele>
        <time>2021-11-18T07:53:39Z</time>
      </trkpt>
      <trkpt lat="46.5611" lon="6.0291">
        <ele>989.7</ele>
        <time>2021-11-18T07:53:44Z</time>
      </trkpt>
      <trkpt lat="46.56112" lon="6.02917">
        <ele>989.1</ele>
        <time>2021-11-18T07:53:50Z</time>
      </trkpt>
      <trkpt lat="46.56114" lon="6.02923">
        <ele>988.8</ele>
        <time>2021-11-18T07:53:55Z</time>
      </trkpt>
      <trkpt lat="46.56117" lon="6.02929">
        <ele>988.5</ele>
        <time>2021-11-18T07:54:00Z</time>
      </trkpt>
      <trkpt lat="46.5612" lon="6.02934">
        <ele>987.9</ele>
        <time>2021-11-18T07:54:05Z</time>
      </trkpt>
      <trkpt lat="46.56124" lon="6.02939">
        <ele>987</ele>
        <time>2021-11-18T07:54:10Z</time>
      </trkpt>
      <trkpt lat="46.56127" lon="6.02945">
        <ele>986.4</ele>
        <time>2021-11-18T07:54:15Z</time>
      </trkpt>
      <trkpt lat="46.5613" lon="6.02949">
        <ele>986.4</ele>
        <time>2021-11-18T07:54:20Z</time>
      </trkpt>
      <trkpt lat="46.56134" lon="6.02954">
        <ele>985.8</ele>
        <time>2021-11-18T07:54:27Z</time>
      </trkpt>
      <trkpt lat="46.56136" lon="6.02959">
        <ele>984.2</ele>
        <time>2021-11-18T07:54:34Z</time>
      </trkpt>
      <trkpt lat="46.5614" lon="6.02966">
        <ele>983.8</ele>
        <time>2021-11-18T07:54:42Z</time>
      </trkpt>
      <trkpt lat="46.56142" lon="6.02972">
        <ele>984.1</ele>
        <time>2021-11-18T07:54:50Z</time>
      </trkpt>
      <trkpt lat="46.56143" lon="6.02981">
        <ele>983.9</ele>
        <time>2021-11-18T07:54:57Z</time>
      </trkpt>
      <trkpt lat="46.56145" lon="6.02987">
        <ele>983.5</ele>
        <time>2021-11-18T07:55:04Z</time>
      </trkpt>
      <trkpt lat="46.5615" lon="6.0299">
        <ele>983.2</ele>
        <time>2021-11-18T07:55:08Z</time>
      </trkpt>
      <trkpt lat="46.56154" lon="6.02994">
        <ele>983.5</ele>
        <time>2021-11-18T07:55:12Z</time>
      </trkpt>
      <trkpt lat="46.56157" lon="6.03">
        <ele>983.8</ele>
        <time>2021-11-18T07:55:18Z</time>
      </trkpt>
      <trkpt lat="46.56158" lon="6.03006">
        <ele>983.8</ele>
        <time>2021-11-18T07:55:24Z</time>
      </trkpt>
      <trkpt lat="46.56158" lon="6.03014">
        <ele>984.3</ele>
        <time>2021-11-18T07:55:32Z</time>
      </trkpt>
      <trkpt lat="46.56158" lon="6.03021">
        <ele>985</ele>
        <time>2021-11-18T07:55:36Z</time>
      </trkpt>
      <trkpt lat="46.56159" lon="6.03029">
        <ele>985.9</ele>
        <time>2021-11-18T07:55:42Z</time>
      </trkpt>
      <trkpt lat="46.5616" lon="6.03036">
        <ele>986.3</ele>
        <time>2021-11-18T07:55:49Z</time>
      </trkpt>
      <trkpt lat="46.56157" lon="6.03042">
        <ele>986.5</ele>
        <time>2021-11-18T07:55:55Z</time>
      </trkpt>
      <trkpt lat="46.56155" lon="6.03048">
        <ele>986.6</ele>
        <time>2021-11-18T07:56:00Z</time>
      </trkpt>
      <trkpt lat="46.56153" lon="6.03055">
        <ele>986.7</ele>
        <time>2021-11-18T07:56:05Z</time>
      </trkpt>
      <trkpt lat="46.56152" lon="6.03061">
        <ele>986.5</ele>
        <time>2021-11-18T07:56:12Z</time>
      </trkpt>
      <trkpt lat="46.56153" lon="6.0307">
        <ele>985.5</ele>
        <time>2021-11-18T07:56:22Z</time>
      </trkpt>
      <trkpt lat="46.56153" lon="6.03077">
        <ele>985.2</ele>
        <time>2021-11-18T07:56:25Z</time>
      </trkpt>
      <trkpt lat="46.56152" lon="6.03085">
        <ele>984.9</ele>
        <time>2021-11-18T07:56:29Z</time>
      </trkpt>
      <trkpt lat="46.5615" lon="6.03093">
        <ele>984.6</ele>
        <time>2021-11-18T07:56:34Z</time>
      </trkpt>
      <trkpt lat="46.5615" lon="6.031">
        <ele>984.8</ele>
        <time>2021-11-18T07:56:39Z</time>
      </trkpt>
      <trkpt lat="46.56149" lon="6.03106">
        <ele>985</ele>
        <time>2021-11-18T07:56:45Z</time>
      </trkpt>
      <trkpt lat="46.56147" lon="6.03112">
        <ele>984.7</ele>
        <time>2021-11-18T07:56:51Z</time>
      </trkpt>
      <trkpt lat="46.56146" lon="6.03119">
        <ele>983.7</ele>
        <time>2021-11-18T07:56:58Z</time>
      </trkpt>
      <trkpt lat="46.56146" lon="6.03126">
        <ele>983.6</ele>
        <time>2021-11-18T07:57:02Z</time>
      </trkpt>
      <trkpt lat="46.56145" lon="6.03133">
        <ele>983.2</ele>
        <time>2021-11-18T07:57:07Z</time>
      </trkpt>
      <trkpt lat="46.56143" lon="6.03139">
        <ele>982.4</ele>
        <time>2021-11-18T07:57:14Z</time>
      </trkpt>
      <trkpt lat="46.5614" lon="6.03147">
        <ele>981.4</ele>
        <time>2021-11-18T07:57:20Z</time>
      </trkpt>
      <trkpt lat="46.56138" lon="6.03152">
        <ele>981.2</ele>
        <time>2021-11-18T07:57:25Z</time>
      </trkpt>
      <trkpt lat="46.56135" lon="6.03159">
        <ele>981.4</ele>
        <time>2021-11-18T07:57:29Z</time>
      </trkpt>
      <trkpt lat="46.56134" lon="6.03166">
        <ele>981.6</ele>
        <time>2021-11-18T07:57:33Z</time>
      </trkpt>
      <trkpt lat="46.56132" lon="6.03172">
        <ele>981.8</ele>
        <time>2021-11-18T07:57:38Z</time>
      </trkpt>
      <trkpt lat="46.56128" lon="6.03178">
        <ele>982</ele>
        <time>2021-11-18T07:57:43Z</time>
      </trkpt>
      <trkpt lat="46.56124" lon="6.03184">
        <ele>981.8</ele>
        <time>2021-11-18T07:57:47Z</time>
      </trkpt>
      <trkpt lat="46.56122" lon="6.0319">
        <ele>981.5</ele>
        <time>2021-11-18T07:57:52Z</time>
      </trkpt>
      <trkpt lat="46.56119" lon="6.03195">
        <ele>981.4</ele>
        <time>2021-11-18T07:57:58Z</time>
      </trkpt>
      <trkpt lat="46.56117" lon="6.03202">
        <ele>981.9</ele>
        <time>2021-11-18T07:58:06Z</time>
      </trkpt>
      <trkpt lat="46.56117" lon="6.03209">
        <ele>982.8</ele>
        <time>2021-11-18T07:58:12Z</time>
      </trkpt>
      <trkpt lat="46.56118" lon="6.03215">
        <ele>983.1</ele>
        <time>2021-11-18T07:58:16Z</time>
      </trkpt>
      <trkpt lat="46.5612" lon="6.03222">
        <ele>983.7</ele>
        <time>2021-11-18T07:58:22Z</time>
      </trkpt>
      <trkpt lat="46.56122" lon="6.03229">
        <ele>984.3</ele>
        <time>2021-11-18T07:58:27Z</time>
      </trkpt>
      <trkpt lat="46.56125" lon="6.03235">
        <ele>984</ele>
        <time>2021-11-18T07:58:33Z</time>
      </trkpt>
      <trkpt lat="46.56129" lon="6.03239">
        <ele>983.7</ele>
        <time>2021-11-18T07:58:39Z</time>
      </trkpt>
      <trkpt lat="46.56134" lon="6.03239">
        <ele>983.2</ele>
        <time>2021-11-18T07:58:49Z</time>
      </trkpt>
      <trkpt lat="46.56139" lon="6.0324">
        <ele>982.2</ele>
        <time>2021-11-18T07:58:55Z</time>
      </trkpt>
      <trkpt lat="46.56144" lon="6.0324">
        <ele>981.1</ele>
        <time>2021-11-18T07:59:00Z</time>
      </trkpt>
      <trkpt lat="46.5615" lon="6.03238">
        <ele>980</ele>
        <time>2021-11-18T07:59:04Z</time>
      </trkpt>
      <trkpt lat="46.56155" lon="6.03236">
        <ele>978.9</ele>
        <time>2021-11-18T07:59:08Z</time>
      </trkpt>
      <trkpt lat="46.56159" lon="6.03235">
        <ele>977.9</ele>
        <time>2021-11-18T07:59:13Z</time>
      </trkpt>
      <trkpt lat="46.56164" lon="6.03234">
        <ele>977.6</ele>
        <time>2021-11-18T07:59:20Z</time>
      </trkpt>
      <trkpt lat="46.5617" lon="6.03234">
        <ele>977.3</ele>
        <time>2021-11-18T07:59:27Z</time>
      </trkpt>
      <trkpt lat="46.56174" lon="6.03232">
        <ele>977.1</ele>
        <time>2021-11-18T07:59:31Z</time>
      </trkpt>
      <trkpt lat="46.56179" lon="6.0323">
        <ele>977.2</ele>
        <time>2021-11-18T07:59:37Z</time>
      </trkpt>
      <trkpt lat="46.56183" lon="6.03226">
        <ele>979.2</ele>
        <time>2021-11-18T07:59:53Z</time>
      </trkpt>
      <trkpt lat="46.56187" lon="6.03221">
        <ele>980.5</ele>
        <time>2021-11-18T07:59:59Z</time>
      </trkpt>
      <trkpt lat="46.56192" lon="6.03219">
        <ele>981.8</ele>
        <time>2021-11-18T08:00:05Z</time>
      </trkpt>
      <trkpt lat="46.56196" lon="6.03219">
        <ele>982.9</ele>
        <time>2021-11-18T08:00:09Z</time>
      </trkpt>
      <trkpt lat="46.56201" lon="6.03222">
        <ele>985.5</ele>
        <time>2021-11-18T08:00:18Z</time>
      </trkpt>
      <trkpt lat="46.56203" lon="6.03227">
        <ele>986.3</ele>
        <time>2021-11-18T08:00:27Z</time>
      </trkpt>
      <trkpt lat="46.56207" lon="6.03232">
        <ele>986.3</ele>
        <time>2021-11-18T08:00:30Z</time>
      </trkpt>
      <trkpt lat="46.56211" lon="6.03238">
        <ele>986.2</ele>
        <time>2021-11-18T08:00:34Z</time>
      </trkpt>
      <trkpt lat="46.56214" lon="6.03243">
        <ele>986.3</ele>
        <time>2021-11-18T08:00:37Z</time>
      </trkpt>
      <trkpt lat="46.56217" lon="6.03248">
        <ele>986.2</ele>
        <time>2021-11-18T08:00:40Z</time>
      </trkpt>
      <trkpt lat="46.56222" lon="6.0325">
        <ele>986.1</ele>
        <time>2021-11-18T08:00:45Z</time>
      </trkpt>
      <trkpt lat="46.56227" lon="6.03249">
        <ele>985.9</ele>
        <time>2021-11-18T08:00:50Z</time>
      </trkpt>
      <trkpt lat="46.56231" lon="6.03244">
        <ele>985.6</ele>
        <time>2021-11-18T08:00:54Z</time>
      </trkpt>
      <trkpt lat="46.56235" lon="6.03241">
        <ele>985</ele>
        <time>2021-11-18T08:01:07Z</time>
      </trkpt>
      <trkpt lat="46.56241" lon="6.03244">
        <ele>986</ele>
        <time>2021-11-18T08:01:15Z</time>
      </trkpt>
      <trkpt lat="46.56245" lon="6.03248">
        <ele>987.2</ele>
        <time>2021-11-18T08:01:19Z</time>
      </trkpt>
      <trkpt lat="46.5625" lon="6.0325">
        <ele>988.4</ele>
        <time>2021-11-18T08:01:24Z</time>
      </trkpt>
      <trkpt lat="46.56254" lon="6.03248">
        <ele>989.8</ele>
        <time>2021-11-18T08:01:30Z</time>
      </trkpt>
      <trkpt lat="46.56257" lon="6.03242">
        <ele>991.3</ele>
        <time>2021-11-18T08:01:38Z</time>
      </trkpt>
      <trkpt lat="46.56261" lon="6.03239">
        <ele>991.4</ele>
        <time>2021-11-18T08:01:48Z</time>
      </trkpt>
      <trkpt lat="46.56266" lon="6.03236">
        <ele>990.7</ele>
        <time>2021-11-18T08:01:52Z</time>
      </trkpt>
      <trkpt lat="46.56271" lon="6.03235">
        <ele>990.3</ele>
        <time>2021-11-18T08:01:57Z</time>
      </trkpt>
      <trkpt lat="46.56275" lon="6.03236">
        <ele>990.5</ele>
        <time>2021-11-18T08:02:02Z</time>
      </trkpt>
      <trkpt lat="46.56279" lon="6.03239">
        <ele>991.2</ele>
        <time>2021-11-18T08:02:10Z</time>
      </trkpt>
      <trkpt lat="46.56282" lon="6.03245">
        <ele>991.9</ele>
        <time>2021-11-18T08:02:18Z</time>
      </trkpt>
      <trkpt lat="46.5628" lon="6.03251">
        <ele>992.7</ele>
        <time>2021-11-18T08:02:24Z</time>
      </trkpt>
      <trkpt lat="46.56276" lon="6.03256">
        <ele>993.1</ele>
        <time>2021-11-18T08:02:28Z</time>
      </trkpt>
      <trkpt lat="46.56272" lon="6.0326">
        <ele>993.7</ele>
        <time>2021-11-18T08:02:32Z</time>
      </trkpt>
      <trkpt lat="46.5627" lon="6.03267">
        <ele>994.1</ele>
        <time>2021-11-18T08:02:39Z</time>
      </trkpt>
      <trkpt lat="46.56267" lon="6.03272">
        <ele>994.3</ele>
        <time>2021-11-18T08:02:43Z</time>
      </trkpt>
      <trkpt lat="46.56264" lon="6.03279">
        <ele>994.7</ele>
        <time>2021-11-18T08:02:47Z</time>
      </trkpt>
      <trkpt lat="46.56264" lon="6.03286">
        <ele>995</ele>
        <time>2021-11-18T08:02:52Z</time>
      </trkpt>
      <trkpt lat="46.56267" lon="6.03291">
        <ele>995.1</ele>
        <time>2021-11-18T08:02:59Z</time>
      </trkpt>
      <trkpt lat="46.56271" lon="6.03295">
        <ele>995</ele>
        <time>2021-11-18T08:03:04Z</time>
      </trkpt>
      <trkpt lat="46.56274" lon="6.033">
        <ele>994.6</ele>
        <time>2021-11-18T08:03:09Z</time>
      </trkpt>
      <trkpt lat="46.56279" lon="6.03304">
        <ele>993.6</ele>
        <time>2021-11-18T08:03:14Z</time>
      </trkpt>
      <trkpt lat="46.56284" lon="6.03304">
        <ele>992.3</ele>
        <time>2021-11-18T08:03:19Z</time>
      </trkpt>
      <trkpt lat="46.56289" lon="6.03302">
        <ele>991</ele>
        <time>2021-11-18T08:03:26Z</time>
      </trkpt>
      <trkpt lat="46.56293" lon="6.03301">
        <ele>989.8</ele>
        <time>2021-11-18T08:03:35Z</time>
      </trkpt>
      <trkpt lat="46.56299" lon="6.03301">
        <ele>989.1</ele>
        <time>2021-11-18T08:03:39Z</time>
      </trkpt>
      <trkpt lat="46.56303" lon="6.03301">
        <ele>988.6</ele>
        <time>2021-11-18T08:03:42Z</time>
      </trkpt>
      <trkpt lat="46.56308" lon="6.03302">
        <ele>988.7</ele>
        <time>2021-11-18T08:03:47Z</time>
      </trkpt>
      <trkpt lat="46.5631" lon="6.03308">
        <ele>990</ele>
        <time>2021-11-18T08:03:55Z</time>
      </trkpt>
      <trkpt lat="46.56307" lon="6.03313">
        <ele>990.6</ele>
        <time>2021-11-18T08:04:00Z</time>
      </trkpt>
      <trkpt lat="46.56304" lon="6.03319">
        <ele>990.9</ele>
        <time>2021-11-18T08:04:05Z</time>
      </trkpt>
      <trkpt lat="46.56301" lon="6.03324">
        <ele>991.1</ele>
        <time>2021-11-18T08:04:10Z</time>
      </trkpt>
      <trkpt lat="46.56299" lon="6.0333">
        <ele>991.9</ele>
        <time>2021-11-18T08:04:22Z</time>
      </trkpt>
      <trkpt lat="46.56304" lon="6.03329">
        <ele>994.3</ele>
        <time>2021-11-18T08:04:56Z</time>
      </trkpt>
      <trkpt lat="46.56309" lon="6.03333">
        <ele>994.9</ele>
        <time>2021-11-18T08:05:02Z</time>
      </trkpt>
      <trkpt lat="46.56312" lon="6.03339">
        <ele>995</ele>
        <time>2021-11-18T08:05:07Z</time>
      </trkpt>
      <trkpt lat="46.56318" lon="6.03339">
        <ele>996</ele>
        <time>2021-11-18T08:05:24Z</time>
      </trkpt>
      <trkpt lat="46.56322" lon="6.03335">
        <ele>996.3</ele>
        <time>2021-11-18T08:05:27Z</time>
      </trkpt>
      <trkpt lat="46.56326" lon="6.03332">
        <ele>996.4</ele>
        <time>2021-11-18T08:05:31Z</time>
      </trkpt>
      <trkpt lat="46.5633" lon="6.03334">
        <ele>996.7</ele>
        <time>2021-11-18T08:05:39Z</time>
      </trkpt>
      <trkpt lat="46.56333" lon="6.0334">
        <ele>996.4</ele>
        <time>2021-11-18T08:05:44Z</time>
      </trkpt>
      <trkpt lat="46.56333" lon="6.03347">
        <ele>995.9</ele>
        <time>2021-11-18T08:05:49Z</time>
      </trkpt>
      <trkpt lat="46.56332" lon="6.03355">
        <ele>995.3</ele>
        <time>2021-11-18T08:05:53Z</time>
      </trkpt>
      <trkpt lat="46.56333" lon="6.03362">
        <ele>995</ele>
        <time>2021-11-18T08:05:58Z</time>
      </trkpt>
      <trkpt lat="46.56331" lon="6.03368">
        <ele>994.9</ele>
        <time>2021-11-18T08:06:04Z</time>
      </trkpt>
      <trkpt lat="46.56333" lon="6.03375">
        <ele>994.6</ele>
        <time>2021-11-18T08:06:11Z</time>
      </trkpt>
      <trkpt lat="46.56335" lon="6.03381">
        <ele>993.8</ele>
        <time>2021-11-18T08:06:19Z</time>
      </trkpt>
      <trkpt lat="46.56339" lon="6.03382">
        <ele>993.5</ele>
        <time>2021-11-18T08:06:26Z</time>
      </trkpt>
      <trkpt lat="46.56344" lon="6.03386">
        <ele>994.3</ele>
        <time>2021-11-18T08:06:33Z</time>
      </trkpt>
      <trkpt lat="46.56349" lon="6.03387">
        <ele>995.1</ele>
        <time>2021-11-18T08:06:39Z</time>
      </trkpt>
      <trkpt lat="46.56355" lon="6.03388">
        <ele>996.7</ele>
        <time>2021-11-18T08:06:55Z</time>
      </trkpt>
      <trkpt lat="46.56359" lon="6.0339">
        <ele>997.4</ele>
        <time>2021-11-18T08:06:58Z</time>
      </trkpt>
      <trkpt lat="46.56364" lon="6.03394">
        <ele>998.4</ele>
        <time>2021-11-18T08:07:03Z</time>
      </trkpt>
      <trkpt lat="46.56368" lon="6.03399">
        <ele>999.2</ele>
        <time>2021-11-18T08:07:08Z</time>
      </trkpt>
      <trkpt lat="46.56371" lon="6.03404">
        <ele>999.9</ele>
        <time>2021-11-18T08:07:13Z</time>
      </trkpt>
      <trkpt lat="46.56374" lon="6.03409">
        <ele>1000.8</ele>
        <time>2021-11-18T08:07:21Z</time>
      </trkpt>
      <trkpt lat="46.56377" lon="6.03415">
        <ele>1001.3</ele>
        <time>2021-11-18T08:07:28Z</time>
      </trkpt>
      <trkpt lat="46.56382" lon="6.03418">
        <ele>1001.7</ele>
        <time>2021-11-18T08:07:34Z</time>
      </trkpt>
      <trkpt lat="46.56385" lon="6.03422">
        <ele>1001.6</ele>
        <time>2021-11-18T08:07:39Z</time>
      </trkpt>
      <trkpt lat="46.56388" lon="6.03428">
        <ele>1001.2</ele>
        <time>2021-11-18T08:07:45Z</time>
      </trkpt>
      <trkpt lat="46.56392" lon="6.03432">
        <ele>1001</ele>
        <time>2021-11-18T08:07:51Z</time>
      </trkpt>
      <trkpt lat="46.56397" lon="6.03433">
        <ele>1000.1</ele>
        <time>2021-11-18T08:07:59Z</time>
      </trkpt>
      <trkpt lat="46.56402" lon="6.03435">
        <ele>999.2</ele>
        <time>2021-11-18T08:08:08Z</time>
      </trkpt>
      <trkpt lat="46.56406" lon="6.03437">
        <ele>998.8</ele>
        <time>2021-11-18T08:08:14Z</time>
      </trkpt>
      <trkpt lat="46.5641" lon="6.03441">
        <ele>998.2</ele>
        <time>2021-11-18T08:08:21Z</time>
      </trkpt>
      <trkpt lat="46.56414" lon="6.03446">
        <ele>998</ele>
        <time>2021-11-18T08:08:29Z</time>
      </trkpt>
      <trkpt lat="46.56416" lon="6.03452">
        <ele>997.9</ele>
        <time>2021-11-18T08:08:35Z</time>
      </trkpt>
      <trkpt lat="46.56416" lon="6.03459">
        <ele>998.5</ele>
        <time>2021-11-18T08:08:43Z</time>
      </trkpt>
      <trkpt lat="46.56419" lon="6.03465">
        <ele>999</ele>
        <time>2021-11-18T08:08:52Z</time>
      </trkpt>
      <trkpt lat="46.56422" lon="6.0347">
        <ele>999.3</ele>
        <time>2021-11-18T08:08:59Z</time>
      </trkpt>
      <trkpt lat="46.56425" lon="6.03477">
        <ele>999.1</ele>
        <time>2021-11-18T08:09:04Z</time>
      </trkpt>
      <trkpt lat="46.56427" lon="6.03483">
        <ele>998.6</ele>
        <time>2021-11-18T08:09:09Z</time>
      </trkpt>
      <trkpt lat="46.56429" lon="6.03491">
        <ele>998.3</ele>
        <time>2021-11-18T08:09:14Z</time>
      </trkpt>
      <trkpt lat="46.56429" lon="6.03498">
        <ele>998.3</ele>
        <time>2021-11-18T08:09:18Z</time>
      </trkpt>
      <trkpt lat="46.56429" lon="6.03506">
        <ele>998.1</ele>
        <time>2021-11-18T08:09:23Z</time>
      </trkpt>
      <trkpt lat="46.5643" lon="6.03512">
        <ele>997.8</ele>
        <time>2021-11-18T08:09:28Z</time>
      </trkpt>
      <trkpt lat="46.56434" lon="6.03516">
        <ele>997.2</ele>
        <time>2021-11-18T08:09:36Z</time>
      </trkpt>
      <trkpt lat="46.56437" lon="6.03522">
        <ele>996.9</ele>
        <time>2021-11-18T08:09:43Z</time>
      </trkpt>
      <trkpt lat="46.5644" lon="6.03529">
        <ele>997</ele>
        <time>2021-11-18T08:09:51Z</time>
      </trkpt>
      <trkpt lat="46.56445" lon="6.03531">
        <ele>996.8</ele>
        <time>2021-11-18T08:09:57Z</time>
      </trkpt>
      <trkpt lat="46.56449" lon="6.0353">
        <ele>996.4</ele>
        <time>2021-11-18T08:10:03Z</time>
      </trkpt>
      <trkpt lat="46.56453" lon="6.03527">
        <ele>996.3</ele>
        <time>2021-11-18T08:10:08Z</time>
      </trkpt>
      <trkpt lat="46.56456" lon="6.0352">
        <ele>996.6</ele>
        <time>2021-11-18T08:10:14Z</time>
      </trkpt>
      <trkpt lat="46.56459" lon="6.03513">
        <ele>996.8</ele>
        <time>2021-11-18T08:10:18Z</time>
      </trkpt>
      <trkpt lat="46.5646" lon="6.03506">
        <ele>997.1</ele>
        <time>2021-11-18T08:10:22Z</time>
      </trkpt>
      <trkpt lat="46.56459" lon="6.03499">
        <ele>997.1</ele>
        <time>2021-11-18T08:10:27Z</time>
      </trkpt>
      <trkpt lat="46.56457" lon="6.03492">
        <ele>997.1</ele>
        <time>2021-11-18T08:10:33Z</time>
      </trkpt>
      <trkpt lat="46.56457" lon="6.03485">
        <ele>997.2</ele>
        <time>2021-11-18T08:10:40Z</time>
      </trkpt>
      <trkpt lat="46.56459" lon="6.03479">
        <ele>997.3</ele>
        <time>2021-11-18T08:10:46Z</time>
      </trkpt>
      <trkpt lat="46.56461" lon="6.03473">
        <ele>997.1</ele>
        <time>2021-11-18T08:10:51Z</time>
      </trkpt>
      <trkpt lat="46.56463" lon="6.03467">
        <ele>997</ele>
        <time>2021-11-18T08:10:55Z</time>
      </trkpt>
      <trkpt lat="46.56465" lon="6.0346">
        <ele>997.4</ele>
        <time>2021-11-18T08:10:59Z</time>
      </trkpt>
      <trkpt lat="46.56467" lon="6.03452">
        <ele>998</ele>
        <time>2021-11-18T08:11:03Z</time>
      </trkpt>
      <trkpt lat="46.56467" lon="6.03445">
        <ele>998.3</ele>
        <time>2021-11-18T08:11:08Z</time>
      </trkpt>
      <trkpt lat="46.56469" lon="6.03439">
        <ele>998.8</ele>
        <time>2021-11-18T08:11:15Z</time>
      </trkpt>
      <trkpt lat="46.5647" lon="6.03432">
        <ele>999.1</ele>
        <time>2021-11-18T08:11:21Z</time>
      </trkpt>
      <trkpt lat="46.56471" lon="6.03425">
        <ele>999.6</ele>
        <time>2021-11-18T08:11:26Z</time>
      </trkpt>
      <trkpt lat="46.56473" lon="6.03419">
        <ele>998.7</ele>
        <time>2021-11-18T08:11:34Z</time>
      </trkpt>
      <trkpt lat="46.56478" lon="6.03421">
        <ele>997.4</ele>
        <time>2021-11-18T08:11:45Z</time>
      </trkpt>
      <trkpt lat="46.56478" lon="6.03428">
        <ele>994.1</ele>
        <time>2021-11-18T08:11:52Z</time>
      </trkpt>
      <trkpt lat="46.56475" lon="6.03424">
        <ele>990.8</ele>
        <time>2021-11-18T08:12:29Z</time>
      </trkpt>
      <trkpt lat="46.56478" lon="6.03429">
        <ele>990.4</ele>
        <time>2021-11-18T08:13:20Z</time>
      </trkpt>
      <trkpt lat="46.56474" lon="6.03424">
        <ele>993.1</ele>
        <time>2021-11-18T08:13:37Z</time>
      </trkpt>
      <trkpt lat="46.56471" lon="6.03429">
        <ele>995.8</ele>
        <time>2021-11-18T08:13:44Z</time>
      </trkpt>
      <trkpt lat="46.56476" lon="6.03434">
        <ele>998.4</ele>
        <time>2021-11-18T08:14:11Z</time>
      </trkpt>
      <trkpt lat="46.5648" lon="6.03436">
        <ele>999.1</ele>
        <time>2021-11-18T08:14:15Z</time>
      </trkpt>
      <trkpt lat="46.56478" lon="6.0343">
        <ele>1000.2</ele>
        <time>2021-11-18T08:15:36Z</time>
      </trkpt>
      <trkpt lat="46.56482" lon="6.03427">
        <ele>1000</ele>
        <time>2021-11-18T08:16:19Z</time>
      </trkpt>
      <trkpt lat="46.56479" lon="6.03432">
        <ele>1003.1</ele>
        <time>2021-11-18T08:16:58Z</time>
      </trkpt>
      <trkpt lat="46.56476" lon="6.03437">
        <ele>1002.1</ele>
        <time>2021-11-18T08:17:05Z</time>
      </trkpt>
      <trkpt lat="46.56472" lon="6.03434">
        <ele>1002.4</ele>
        <time>2021-11-18T08:17:30Z</time>
      </trkpt>
      <trkpt lat="46.56472" lon="6.03427">
        <ele>1004</ele>
        <time>2021-11-18T08:18:04Z</time>
      </trkpt>
      <trkpt lat="46.56475" lon="6.03422">
        <ele>1004</ele>
        <time>2021-11-18T08:18:08Z</time>
      </trkpt>
      <trkpt lat="46.56476" lon="6.03429">
        <ele>1002.6</ele>
        <time>2021-11-18T08:18:35Z</time>
      </trkpt>
      <trkpt lat="46.56473" lon="6.03434">
        <ele>1003.3</ele>
        <time>2021-11-18T08:18:41Z</time>
      </trkpt>
      <trkpt lat="46.56473" lon="6.03426">
        <ele>1002.6</ele>
        <time>2021-11-18T08:18:51Z</time>
      </trkpt>
      <trkpt lat="46.56473" lon="6.03419">
        <ele>1001.5</ele>
        <time>2021-11-18T08:18:55Z</time>
      </trkpt>
      <trkpt lat="46.56474" lon="6.03413">
        <ele>1000.4</ele>
        <time>2021-11-18T08:19:00Z</time>
      </trkpt>
      <trkpt lat="46.56477" lon="6.03406">
        <ele>999.6</ele>
        <time>2021-11-18T08:19:05Z</time>
      </trkpt>
      <trkpt lat="46.56479" lon="6.034">
        <ele>998.7</ele>
        <time>2021-11-18T08:19:10Z</time>
      </trkpt>
      <trkpt lat="46.56482" lon="6.03393">
        <ele>998.9</ele>
        <time>2021-11-18T08:19:14Z</time>
      </trkpt>
      <trkpt lat="46.56484" lon="6.03387">
        <ele>999.7</ele>
        <time>2021-11-18T08:19:19Z</time>
      </trkpt>
      <trkpt lat="46.56485" lon="6.0338">
        <ele>998.6</ele>
        <time>2021-11-18T08:19:30Z</time>
      </trkpt>
      <trkpt lat="46.56487" lon="6.03374">
        <ele>997.9</ele>
        <time>2021-11-18T08:19:37Z</time>
      </trkpt>
      <trkpt lat="46.5649" lon="6.03368">
        <ele>997.2</ele>
        <time>2021-11-18T08:19:44Z</time>
      </trkpt>
      <trkpt lat="46.56493" lon="6.03362">
        <ele>996.3</ele>
        <time>2021-11-18T08:19:49Z</time>
      </trkpt>
      <trkpt lat="46.56496" lon="6.03355">
        <ele>996.3</ele>
        <time>2021-11-18T08:19:52Z</time>
      </trkpt>
      <trkpt lat="46.56499" lon="6.03349">
        <ele>996.7</ele>
        <time>2021-11-18T08:19:56Z</time>
      </trkpt>
      <trkpt lat="46.56502" lon="6.03343">
        <ele>997.1</ele>
        <time>2021-11-18T08:20:02Z</time>
      </trkpt>
      <trkpt lat="46.56503" lon="6.03337">
        <ele>997.3</ele>
        <time>2021-11-18T08:20:09Z</time>
      </trkpt>
      <trkpt lat="46.56506" lon="6.03331">
        <ele>996.7</ele>
        <time>2021-11-18T08:20:13Z</time>
      </trkpt>
      <trkpt lat="46.56509" lon="6.03325">
        <ele>995.9</ele>
        <time>2021-11-18T08:20:18Z</time>
      </trkpt>
      <trkpt lat="46.56512" lon="6.03319">
        <ele>995</ele>
        <time>2021-11-18T08:20:24Z</time>
      </trkpt>
      <trkpt lat="46.56515" lon="6.03315">
        <ele>994.8</ele>
        <time>2021-11-18T08:20:29Z</time>
      </trkpt>
      <trkpt lat="46.56519" lon="6.0331">
        <ele>994.4</ele>
        <time>2021-11-18T08:20:33Z</time>
      </trkpt>
      <trkpt lat="46.56521" lon="6.03304">
        <ele>994.6</ele>
        <time>2021-11-18T08:20:36Z</time>
      </trkpt>
      <trkpt lat="46.56523" lon="6.03298">
        <ele>995.1</ele>
        <time>2021-11-18T08:20:40Z</time>
      </trkpt>
      <trkpt lat="46.56524" lon="6.0329">
        <ele>995.9</ele>
        <time>2021-11-18T08:20:45Z</time>
      </trkpt>
      <trkpt lat="46.56525" lon="6.03283">
        <ele>996.8</ele>
        <time>2021-11-18T08:20:51Z</time>
      </trkpt>
      <trkpt lat="46.56527" lon="6.03277">
        <ele>997.4</ele>
        <time>2021-11-18T08:20:57Z</time>
      </trkpt>
      <trkpt lat="46.56529" lon="6.0327">
        <ele>998.2</ele>
        <time>2021-11-18T08:21:03Z</time>
      </trkpt>
      <trkpt lat="46.56531" lon="6.03263">
        <ele>998.7</ele>
        <time>2021-11-18T08:21:08Z</time>
      </trkpt>
      <trkpt lat="46.56532" lon="6.03256">
        <ele>999.1</ele>
        <time>2021-11-18T08:21:13Z</time>
      </trkpt>
      <trkpt lat="46.56534" lon="6.03249">
        <ele>998.6</ele>
        <time>2021-11-18T08:21:18Z</time>
      </trkpt>
      <trkpt lat="46.56538" lon="6.03247">
        <ele>998.8</ele>
        <time>2021-11-18T08:21:25Z</time>
      </trkpt>
      <trkpt lat="46.56541" lon="6.03253">
        <ele>998.7</ele>
        <time>2021-11-18T08:21:30Z</time>
      </trkpt>
      <trkpt lat="46.56545" lon="6.03258">
        <ele>998.3</ele>
        <time>2021-11-18T08:21:34Z</time>
      </trkpt>
      <trkpt lat="46.56547" lon="6.03264">
        <ele>997.6</ele>
        <time>2021-11-18T08:21:38Z</time>
      </trkpt>
      <trkpt lat="46.5655" lon="6.0327">
        <ele>996.3</ele>
        <time>2021-11-18T08:21:43Z</time>
      </trkpt>
      <trkpt lat="46.56554" lon="6.03273">
        <ele>995</ele>
        <time>2021-11-18T08:21:48Z</time>
      </trkpt>
      <trkpt lat="46.56558" lon="6.03278">
        <ele>993.9</ele>
        <time>2021-11-18T08:21:54Z</time>
      </trkpt>
      <trkpt lat="46.56561" lon="6.03284">
        <ele>992.8</ele>
        <time>2021-11-18T08:22:00Z</time>
      </trkpt>
      <trkpt lat="46.56563" lon="6.03291">
        <ele>992.3</ele>
        <time>2021-11-18T08:22:06Z</time>
      </trkpt>
      <trkpt lat="46.56566" lon="6.03296">
        <ele>992.3</ele>
        <time>2021-11-18T08:22:13Z</time>
      </trkpt>
      <trkpt lat="46.5657" lon="6.03301">
        <ele>992.5</ele>
        <time>2021-11-18T08:22:19Z</time>
      </trkpt>
      <trkpt lat="46.56574" lon="6.03305">
        <ele>993</ele>
        <time>2021-11-18T08:22:25Z</time>
      </trkpt>
      <trkpt lat="46.56578" lon="6.03311">
        <ele>993.5</ele>
        <time>2021-11-18T08:22:31Z</time>
      </trkpt>
      <trkpt lat="46.56582" lon="6.03312">
        <ele>994.3</ele>
        <time>2021-11-18T08:22:39Z</time>
      </trkpt>
      <trkpt lat="46.56587" lon="6.03314">
        <ele>995</ele>
        <time>2021-11-18T08:22:45Z</time>
      </trkpt>
      <trkpt lat="46.56592" lon="6.03316">
        <ele>996</ele>
        <time>2021-11-18T08:22:51Z</time>
      </trkpt>
      <trkpt lat="46.56597" lon="6.03318">
        <ele>996.9</ele>
        <time>2021-11-18T08:22:56Z</time>
      </trkpt>
      <trkpt lat="46.56601" lon="6.0332">
        <ele>998.3</ele>
        <time>2021-11-18T08:23:03Z</time>
      </trkpt>
      <trkpt lat="46.56606" lon="6.03321">
        <ele>998.1</ele>
        <time>2021-11-18T08:23:14Z</time>
      </trkpt>
      <trkpt lat="46.56611" lon="6.03324">
        <ele>997.1</ele>
        <time>2021-11-18T08:23:20Z</time>
      </trkpt>
      <trkpt lat="46.56616" lon="6.03321">
        <ele>997</ele>
        <time>2021-11-18T08:23:26Z</time>
      </trkpt>
      <trkpt lat="46.56621" lon="6.03319">
        <ele>996.8</ele>
        <time>2021-11-18T08:23:31Z</time>
      </trkpt>
      <trkpt lat="46.56626" lon="6.03319">
        <ele>996.2</ele>
        <time>2021-11-18T08:23:35Z</time>
      </trkpt>
      <trkpt lat="46.56631" lon="6.03319">
        <ele>995.4</ele>
        <time>2021-11-18T08:23:40Z</time>
      </trkpt>
      <trkpt lat="46.56636" lon="6.03321">
        <ele>994.5</ele>
        <time>2021-11-18T08:23:47Z</time>
      </trkpt>
      <trkpt lat="46.56639" lon="6.03326">
        <ele>993.4</ele>
        <time>2021-11-18T08:23:59Z</time>
      </trkpt>
      <trkpt lat="46.56642" lon="6.03332">
        <ele>992.1</ele>
        <time>2021-11-18T08:24:04Z</time>
      </trkpt>
      <trkpt lat="46.56645" lon="6.0334">
        <ele>991</ele>
        <time>2021-11-18T08:24:09Z</time>
      </trkpt>
      <trkpt lat="46.56647" lon="6.03346">
        <ele>990</ele>
        <time>2021-11-18T08:24:14Z</time>
      </trkpt>
      <trkpt lat="46.56651" lon="6.0335">
        <ele>989.5</ele>
        <time>2021-11-18T08:24:20Z</time>
      </trkpt>
      <trkpt lat="46.56655" lon="6.03354">
        <ele>990</ele>
        <time>2021-11-18T08:24:27Z</time>
      </trkpt>
      <trkpt lat="46.56658" lon="6.03359">
        <ele>990.6</ele>
        <time>2021-11-18T08:24:34Z</time>
      </trkpt>
      <trkpt lat="46.56663" lon="6.03364">
        <ele>991.2</ele>
        <time>2021-11-18T08:24:38Z</time>
      </trkpt>
      <trkpt lat="46.56667" lon="6.03369">
        <ele>991.7</ele>
        <time>2021-11-18T08:24:42Z</time>
      </trkpt>
      <trkpt lat="46.56671" lon="6.03372">
        <ele>992.2</ele>
        <time>2021-11-18T08:24:45Z</time>
      </trkpt>
      <trkpt lat="46.56676" lon="6.03374">
        <ele>993</ele>
        <time>2021-11-18T08:24:48Z</time>
      </trkpt>
      <trkpt lat="46.5668" lon="6.03377">
        <ele>993.9</ele>
        <time>2021-11-18T08:24:51Z</time>
      </trkpt>
      <trkpt lat="46.56686" lon="6.0338">
        <ele>995.7</ele>
        <time>2021-11-18T08:24:56Z</time>
      </trkpt>
      <trkpt lat="46.5669" lon="6.03382">
        <ele>996.5</ele>
        <time>2021-11-18T08:25:00Z</time>
      </trkpt>
      <trkpt lat="46.56694" lon="6.03385">
        <ele>996.5</ele>
        <time>2021-11-18T08:25:05Z</time>
      </trkpt>
      <trkpt lat="46.56698" lon="6.0339">
        <ele>996.3</ele>
        <time>2021-11-18T08:25:11Z</time>
      </trkpt>
      <trkpt lat="46.56702" lon="6.03394">
        <ele>996.2</ele>
        <time>2021-11-18T08:25:16Z</time>
      </trkpt>
      <trkpt lat="46.56705" lon="6.03399">
        <ele>996.2</ele>
        <time>2021-11-18T08:25:22Z</time>
      </trkpt>
      <trkpt lat="46.56708" lon="6.03404">
        <ele>997</ele>
        <time>2021-11-18T08:25:28Z</time>
      </trkpt>
      <trkpt lat="46.56713" lon="6.03409">
        <ele>997.7</ele>
        <time>2021-11-18T08:25:33Z</time>
      </trkpt>
      <trkpt lat="46.56717" lon="6.03413">
        <ele>998.6</ele>
        <time>2021-11-18T08:25:40Z</time>
      </trkpt>
      <trkpt lat="46.56721" lon="6.03415">
        <ele>999.4</ele>
        <time>2021-11-18T08:25:47Z</time>
      </trkpt>
      <trkpt lat="46.56725" lon="6.03418">
        <ele>1001.2</ele>
        <time>2021-11-18T08:25:58Z</time>
      </trkpt>
      <trkpt lat="46.5673" lon="6.03421">
        <ele>1001.6</ele>
        <time>2021-11-18T08:26:03Z</time>
      </trkpt>
      <trkpt lat="46.56736" lon="6.03423">
        <ele>1001.7</ele>
        <time>2021-11-18T08:26:08Z</time>
      </trkpt>
      <trkpt lat="46.56741" lon="6.03425">
        <ele>1001.6</ele>
        <time>2021-11-18T08:26:13Z</time>
      </trkpt>
      <trkpt lat="46.56743" lon="6.03432">
        <ele>1001.5</ele>
        <time>2021-11-18T08:26:20Z</time>
      </trkpt>
      <trkpt lat="46.56744" lon="6.03438">
        <ele>1001.9</ele>
        <time>2021-11-18T08:26:26Z</time>
      </trkpt>
      <trkpt lat="46.56744" lon="6.03446">
        <ele>1002.6</ele>
        <time>2021-11-18T08:26:32Z</time>
      </trkpt>
      <trkpt lat="46.56744" lon="6.03453">
        <ele>1003.6</ele>
        <time>2021-11-18T08:26:37Z</time>
      </trkpt>
      <trkpt lat="46.56742" lon="6.03459">
        <ele>1004.4</ele>
        <time>2021-11-18T08:26:42Z</time>
      </trkpt>
      <trkpt lat="46.56741" lon="6.03466">
        <ele>1005.6</ele>
        <time>2021-11-18T08:26:47Z</time>
      </trkpt>
      <trkpt lat="46.5674" lon="6.03473">
        <ele>1006.4</ele>
        <time>2021-11-18T08:26:53Z</time>
      </trkpt>
      <trkpt lat="46.56738" lon="6.03479">
        <ele>1007.6</ele>
        <time>2021-11-18T08:26:58Z</time>
      </trkpt>
      <trkpt lat="46.56736" lon="6.03486">
        <ele>1009.2</ele>
        <time>2021-11-18T08:27:07Z</time>
      </trkpt>
      <trkpt lat="46.56733" lon="6.03493">
        <ele>1009.8</ele>
        <time>2021-11-18T08:27:10Z</time>
      </trkpt>
      <trkpt lat="46.5673" lon="6.03498">
        <ele>1010.3</ele>
        <time>2021-11-18T08:27:16Z</time>
      </trkpt>
      <trkpt lat="46.56726" lon="6.03502">
        <ele>1010.5</ele>
        <time>2021-11-18T08:27:22Z</time>
      </trkpt>
      <trkpt lat="46.56722" lon="6.03507">
        <ele>1010.6</ele>
        <time>2021-11-18T08:27:28Z</time>
      </trkpt>
      <trkpt lat="46.56718" lon="6.03511">
        <ele>1010.9</ele>
        <time>2021-11-18T08:27:33Z</time>
      </trkpt>
      <trkpt lat="46.56715" lon="6.03517">
        <ele>1010.8</ele>
        <time>2021-11-18T08:27:39Z</time>
      </trkpt>
      <trkpt lat="46.56712" lon="6.03521">
        <ele>1010.9</ele>
        <time>2021-11-18T08:27:47Z</time>
      </trkpt>
      <trkpt lat="46.56708" lon="6.03525">
        <ele>1011.3</ele>
        <time>2021-11-18T08:27:53Z</time>
      </trkpt>
      <trkpt lat="46.56705" lon="6.0353">
        <ele>1011.5</ele>
        <time>2021-11-18T08:28:00Z</time>
      </trkpt>
      <trkpt lat="46.56702" lon="6.03536">
        <ele>1011.1</ele>
        <time>2021-11-18T08:28:05Z</time>
      </trkpt>
      <trkpt lat="46.56699" lon="6.03543">
        <ele>1011.1</ele>
        <time>2021-11-18T08:28:11Z</time>
      </trkpt>
      <trkpt lat="46.56696" lon="6.03549">
        <ele>1011.8</ele>
        <time>2021-11-18T08:28:16Z</time>
      </trkpt>
      <trkpt lat="46.56693" lon="6.03555">
        <ele>1012.5</ele>
        <time>2021-11-18T08:28:20Z</time>
      </trkpt>
      <trkpt lat="46.5669" lon="6.03562">
        <ele>1013.1</ele>
        <time>2021-11-18T08:28:25Z</time>
      </trkpt>
      <trkpt lat="46.56687" lon="6.03567">
        <ele>1013.5</ele>
        <time>2021-11-18T08:28:31Z</time>
      </trkpt>
      <trkpt lat="46.56687" lon="6.03574">
        <ele>1013.6</ele>
        <time>2021-11-18T08:28:38Z</time>
      </trkpt>
      <trkpt lat="46.56686" lon="6.03581">
        <ele>1013.4</ele>
        <time>2021-11-18T08:28:44Z</time>
      </trkpt>
      <trkpt lat="46.56684" lon="6.03588">
        <ele>1013</ele>
        <time>2021-11-18T08:28:50Z</time>
      </trkpt>
      <trkpt lat="46.56682" lon="6.03595">
        <ele>1013.3</ele>
        <time>2021-11-18T08:28:57Z</time>
      </trkpt>
      <trkpt lat="46.56681" lon="6.03602">
        <ele>1013.6</ele>
        <time>2021-11-18T08:29:02Z</time>
      </trkpt>
      <trkpt lat="46.5668" lon="6.03609">
        <ele>1014.2</ele>
        <time>2021-11-18T08:29:07Z</time>
      </trkpt>
      <trkpt lat="46.56679" lon="6.03616">
        <ele>1014.6</ele>
        <time>2021-11-18T08:29:12Z</time>
      </trkpt>
      <trkpt lat="46.56679" lon="6.03623">
        <ele>1014.4</ele>
        <time>2021-11-18T08:29:20Z</time>
      </trkpt>
      <trkpt lat="46.5668" lon="6.0363">
        <ele>1013.5</ele>
        <time>2021-11-18T08:29:26Z</time>
      </trkpt>
      <trkpt lat="46.56682" lon="6.03636">
        <ele>1012.9</ele>
        <time>2021-11-18T08:29:30Z</time>
      </trkpt>
      <trkpt lat="46.56684" lon="6.03643">
        <ele>1012.2</ele>
        <time>2021-11-18T08:29:36Z</time>
      </trkpt>
      <trkpt lat="46.56684" lon="6.0365">
        <ele>1011.4</ele>
        <time>2021-11-18T08:29:43Z</time>
      </trkpt>
      <trkpt lat="46.56686" lon="6.03656">
        <ele>1010.4</ele>
        <time>2021-11-18T08:29:48Z</time>
      </trkpt>
      <trkpt lat="46.56689" lon="6.03662">
        <ele>1009.2</ele>
        <time>2021-11-18T08:29:52Z</time>
      </trkpt>
      <trkpt lat="46.5669" lon="6.03668">
        <ele>1008.1</ele>
        <time>2021-11-18T08:29:57Z</time>
      </trkpt>
      <trkpt lat="46.56691" lon="6.03675">
        <ele>1007.4</ele>
        <time>2021-11-18T08:30:02Z</time>
      </trkpt>
      <trkpt lat="46.56692" lon="6.03682">
        <ele>1006.8</ele>
        <time>2021-11-18T08:30:08Z</time>
      </trkpt>
      <trkpt lat="46.56694" lon="6.03689">
        <ele>1006.6</ele>
        <time>2021-11-18T08:30:13Z</time>
      </trkpt>
      <trkpt lat="46.56696" lon="6.03695">
        <ele>1005.8</ele>
        <time>2021-11-18T08:30:18Z</time>
      </trkpt>
      <trkpt lat="46.56696" lon="6.03702">
        <ele>1005</ele>
        <time>2021-11-18T08:30:24Z</time>
      </trkpt>
      <trkpt lat="46.56696" lon="6.03709">
        <ele>1004.3</ele>
        <time>2021-11-18T08:30:30Z</time>
      </trkpt>
      <trkpt lat="46.56696" lon="6.03717">
        <ele>1004.2</ele>
        <time>2021-11-18T08:30:35Z</time>
      </trkpt>
      <trkpt lat="46.56696" lon="6.03725">
        <ele>1004.2</ele>
        <time>2021-11-18T08:30:40Z</time>
      </trkpt>
      <trkpt lat="46.56698" lon="6.03732">
        <ele>1004</ele>
        <time>2021-11-18T08:30:45Z</time>
      </trkpt>
      <trkpt lat="46.56699" lon="6.03739">
        <ele>1004.1</ele>
        <time>2021-11-18T08:30:50Z</time>
      </trkpt>
      <trkpt lat="46.56701" lon="6.03746">
        <ele>1004</ele>
        <time>2021-11-18T08:30:56Z</time>
      </trkpt>
      <trkpt lat="46.56702" lon="6.03754">
        <ele>1004</ele>
        <time>2021-11-18T08:31:02Z</time>
      </trkpt>
      <trkpt lat="46.56702" lon="6.03761">
        <ele>1004.3</ele>
        <time>2021-11-18T08:31:07Z</time>
      </trkpt>
      <trkpt lat="46.56703" lon="6.03769">
        <ele>1004.5</ele>
        <time>2021-11-18T08:31:13Z</time>
      </trkpt>
      <trkpt lat="46.56704" lon="6.03775">
        <ele>1004.8</ele>
        <time>2021-11-18T08:31:17Z</time>
      </trkpt>
      <trkpt lat="46.56707" lon="6.03781">
        <ele>1005.4</ele>
        <time>2021-11-18T08:31:21Z</time>
      </trkpt>
      <trkpt lat="46.5671" lon="6.03786">
        <ele>1006.6</ele>
        <time>2021-11-18T08:31:26Z</time>
      </trkpt>
      <trkpt lat="46.56713" lon="6.03792">
        <ele>1008.1</ele>
        <time>2021-11-18T08:31:33Z</time>
      </trkpt>
      <trkpt lat="46.56715" lon="6.03798">
        <ele>1008.4</ele>
        <time>2021-11-18T08:31:39Z</time>
      </trkpt>
      <trkpt lat="46.56717" lon="6.03804">
        <ele>1008.3</ele>
        <time>2021-11-18T08:31:44Z</time>
      </trkpt>
      <trkpt lat="46.5672" lon="6.03809">
        <ele>1008.7</ele>
        <time>2021-11-18T08:31:51Z</time>
      </trkpt>
      <trkpt lat="46.56721" lon="6.03816">
        <ele>1009.2</ele>
        <time>2021-11-18T08:31:56Z</time>
      </trkpt>
      <trkpt lat="46.56724" lon="6.03822">
        <ele>1009.6</ele>
        <time>2021-11-18T08:32:00Z</time>
      </trkpt>
      <trkpt lat="46.56727" lon="6.03827">
        <ele>1010.3</ele>
        <time>2021-11-18T08:32:04Z</time>
      </trkpt>
      <trkpt lat="46.56729" lon="6.03834">
        <ele>1011</ele>
        <time>2021-11-18T08:32:09Z</time>
      </trkpt>
      <trkpt lat="46.56732" lon="6.0384">
        <ele>1011.9</ele>
        <time>2021-11-18T08:32:15Z</time>
      </trkpt>
      <trkpt lat="46.56735" lon="6.03846">
        <ele>1012.9</ele>
        <time>2021-11-18T08:32:23Z</time>
      </trkpt>
      <trkpt lat="46.56736" lon="6.03853">
        <ele>1013.4</ele>
        <time>2021-11-18T08:32:28Z</time>
      </trkpt>
      <trkpt lat="46.56739" lon="6.03859">
        <ele>1013.4</ele>
        <time>2021-11-18T08:32:35Z</time>
      </trkpt>
      <trkpt lat="46.56739" lon="6.03866">
        <ele>1013.5</ele>
        <time>2021-11-18T08:32:41Z</time>
      </trkpt>
      <trkpt lat="46.56738" lon="6.03872">
        <ele>1013.7</ele>
        <time>2021-11-18T08:32:45Z</time>
      </trkpt>
      <trkpt lat="46.56739" lon="6.0388">
        <ele>1014.3</ele>
        <time>2021-11-18T08:32:49Z</time>
      </trkpt>
      <trkpt lat="46.56741" lon="6.03887">
        <ele>1014.9</ele>
        <time>2021-11-18T08:32:55Z</time>
      </trkpt>
      <trkpt lat="46.56741" lon="6.03895">
        <ele>1015.4</ele>
        <time>2021-11-18T08:33:00Z</time>
      </trkpt>
      <trkpt lat="46.56744" lon="6.03902">
        <ele>1015.9</ele>
        <time>2021-11-18T08:33:04Z</time>
      </trkpt>
      <trkpt lat="46.56747" lon="6.03907">
        <ele>1016.3</ele>
        <time>2021-11-18T08:33:07Z</time>
      </trkpt>
      <trkpt lat="46.56749" lon="6.03914">
        <ele>1016.7</ele>
        <time>2021-11-18T08:33:12Z</time>
      </trkpt>
      <trkpt lat="46.56751" lon="6.03921">
        <ele>1017.6</ele>
        <time>2021-11-18T08:33:18Z</time>
      </trkpt>
      <trkpt lat="46.56752" lon="6.03928">
        <ele>1018.6</ele>
        <time>2021-11-18T08:33:25Z</time>
      </trkpt>
      <trkpt lat="46.56754" lon="6.03935">
        <ele>1019.3</ele>
        <time>2021-11-18T08:33:30Z</time>
      </trkpt>
      <trkpt lat="46.56758" lon="6.0394">
        <ele>1020.2</ele>
        <time>2021-11-18T08:33:35Z</time>
      </trkpt>
      <trkpt lat="46.56761" lon="6.03946">
        <ele>1021.4</ele>
        <time>2021-11-18T08:33:42Z</time>
      </trkpt>
      <trkpt lat="46.56762" lon="6.03953">
        <ele>1022.5</ele>
        <time>2021-11-18T08:33:50Z</time>
      </trkpt>
      <trkpt lat="46.56763" lon="6.03959">
        <ele>1022.7</ele>
        <time>2021-11-18T08:33:57Z</time>
      </trkpt>
      <trkpt lat="46.56764" lon="6.03966">
        <ele>1023.1</ele>
        <time>2021-11-18T08:34:03Z</time>
      </trkpt>
      <trkpt lat="46.56767" lon="6.03972">
        <ele>1023.4</ele>
        <time>2021-11-18T08:34:11Z</time>
      </trkpt>
      <trkpt lat="46.5677" lon="6.03978">
        <ele>1023.8</ele>
        <time>2021-11-18T08:34:17Z</time>
      </trkpt>
      <trkpt lat="46.5677" lon="6.03984">
        <ele>1024.3</ele>
        <time>2021-11-18T08:34:22Z</time>
      </trkpt>
      <trkpt lat="46.56772" lon="6.03991">
        <ele>1025</ele>
        <time>2021-11-18T08:34:27Z</time>
      </trkpt>
      <trkpt lat="46.56772" lon="6.03998">
        <ele>1025.9</ele>
        <time>2021-11-18T08:34:33Z</time>
      </trkpt>
      <trkpt lat="46.56773" lon="6.04005">
        <ele>1027.1</ele>
        <time>2021-11-18T08:34:38Z</time>
      </trkpt>
      <trkpt lat="46.56775" lon="6.04012">
        <ele>1028.4</ele>
        <time>2021-11-18T08:34:45Z</time>
      </trkpt>
      <trkpt lat="46.56777" lon="6.04019">
        <ele>1029.3</ele>
        <time>2021-11-18T08:34:49Z</time>
      </trkpt>
      <trkpt lat="46.56778" lon="6.04025">
        <ele>1029.4</ele>
        <time>2021-11-18T08:34:54Z</time>
      </trkpt>
      <trkpt lat="46.56778" lon="6.04033">
        <ele>1029.3</ele>
        <time>2021-11-18T08:35:00Z</time>
      </trkpt>
      <trkpt lat="46.56777" lon="6.0404">
        <ele>1029.1</ele>
        <time>2021-11-18T08:35:05Z</time>
      </trkpt>
      <trkpt lat="46.56776" lon="6.04047">
        <ele>1028.8</ele>
        <time>2021-11-18T08:35:10Z</time>
      </trkpt>
      <trkpt lat="46.56776" lon="6.04054">
        <ele>1028.8</ele>
        <time>2021-11-18T08:35:15Z</time>
      </trkpt>
      <trkpt lat="46.56774" lon="6.04061">
        <ele>1028.9</ele>
        <time>2021-11-18T08:35:19Z</time>
      </trkpt>
      <trkpt lat="46.56771" lon="6.04067">
        <ele>1029</ele>
        <time>2021-11-18T08:35:24Z</time>
      </trkpt>
      <trkpt lat="46.56773" lon="6.04076">
        <ele>1029.3</ele>
        <time>2021-11-18T08:35:34Z</time>
      </trkpt>
      <trkpt lat="46.56775" lon="6.04083">
        <ele>1029.3</ele>
        <time>2021-11-18T08:35:38Z</time>
      </trkpt>
      <trkpt lat="46.56776" lon="6.04091">
        <ele>1029.4</ele>
        <time>2021-11-18T08:35:43Z</time>
      </trkpt>
      <trkpt lat="46.56777" lon="6.04099">
        <ele>1029.5</ele>
        <time>2021-11-18T08:35:48Z</time>
      </trkpt>
      <trkpt lat="46.56776" lon="6.04106">
        <ele>1029.7</ele>
        <time>2021-11-18T08:35:53Z</time>
      </trkpt>
      <trkpt lat="46.56776" lon="6.04114">
        <ele>1030.3</ele>
        <time>2021-11-18T08:35:59Z</time>
      </trkpt>
      <trkpt lat="46.56776" lon="6.0412">
        <ele>1030.6</ele>
        <time>2021-11-18T08:36:04Z</time>
      </trkpt>
      <trkpt lat="46.56779" lon="6.04126">
        <ele>1030.6</ele>
        <time>2021-11-18T08:36:08Z</time>
      </trkpt>
      <trkpt lat="46.56781" lon="6.04133">
        <ele>1030.8</ele>
        <time>2021-11-18T08:36:13Z</time>
      </trkpt>
      <trkpt lat="46.56781" lon="6.0414">
        <ele>1030.8</ele>
        <time>2021-11-18T08:36:17Z</time>
      </trkpt>
      <trkpt lat="46.56783" lon="6.04146">
        <ele>1031.5</ele>
        <time>2021-11-18T08:36:22Z</time>
      </trkpt>
      <trkpt lat="46.56787" lon="6.04151">
        <ele>1032.8</ele>
        <time>2021-11-18T08:36:29Z</time>
      </trkpt>
      <trkpt lat="46.56792" lon="6.04155">
        <ele>1033.8</ele>
        <time>2021-11-18T08:36:35Z</time>
      </trkpt>
      <trkpt lat="46.56795" lon="6.0416">
        <ele>1036.4</ele>
        <time>2021-11-18T08:37:14Z</time>
      </trkpt>
      <trkpt lat="46.568" lon="6.04161">
        <ele>1037.5</ele>
        <time>2021-11-18T08:37:18Z</time>
      </trkpt>
      <trkpt lat="46.56804" lon="6.04164">
        <ele>1038.4</ele>
        <time>2021-11-18T08:37:23Z</time>
      </trkpt>
      <trkpt lat="46.56808" lon="6.04168">
        <ele>1038.8</ele>
        <time>2021-11-18T08:37:29Z</time>
      </trkpt>
      <trkpt lat="46.56811" lon="6.04174">
        <ele>1039.1</ele>
        <time>2021-11-18T08:37:35Z</time>
      </trkpt>
      <trkpt lat="46.56815" lon="6.04179">
        <ele>1039.2</ele>
        <time>2021-11-18T08:37:40Z</time>
      </trkpt>
      <trkpt lat="46.5682" lon="6.04181">
        <ele>1039.6</ele>
        <time>2021-11-18T08:37:46Z</time>
      </trkpt>
      <trkpt lat="46.56825" lon="6.04181">
        <ele>1039.7</ele>
        <time>2021-11-18T08:37:53Z</time>
      </trkpt>
      <trkpt lat="46.56829" lon="6.04185">
        <ele>1040.1</ele>
        <time>2021-11-18T08:38:01Z</time>
      </trkpt>
      <trkpt lat="46.56834" lon="6.04187">
        <ele>1040.2</ele>
        <time>2021-11-18T08:38:08Z</time>
      </trkpt>
      <trkpt lat="46.56838" lon="6.0419">
        <ele>1039.1</ele>
        <time>2021-11-18T08:38:18Z</time>
      </trkpt>
      <trkpt lat="46.56843" lon="6.04192">
        <ele>1038.5</ele>
        <time>2021-11-18T08:38:23Z</time>
      </trkpt>
      <trkpt lat="46.56848" lon="6.04196">
        <ele>1038.1</ele>
        <time>2021-11-18T08:38:28Z</time>
      </trkpt>
      <trkpt lat="46.56853" lon="6.042">
        <ele>1037.7</ele>
        <time>2021-11-18T08:38:32Z</time>
      </trkpt>
      <trkpt lat="46.56857" lon="6.04205">
        <ele>1037</ele>
        <time>2021-11-18T08:38:37Z</time>
      </trkpt>
      <trkpt lat="46.5686" lon="6.0421">
        <ele>1036</ele>
        <time>2021-11-18T08:38:43Z</time>
      </trkpt>
      <trkpt lat="46.56864" lon="6.04216">
        <ele>1035.4</ele>
        <time>2021-11-18T08:38:49Z</time>
      </trkpt>
      <trkpt lat="46.56867" lon="6.04221">
        <ele>1035.2</ele>
        <time>2021-11-18T08:38:55Z</time>
      </trkpt>
      <trkpt lat="46.56869" lon="6.04227">
        <ele>1034.9</ele>
        <time>2021-11-18T08:39:00Z</time>
      </trkpt>
      <trkpt lat="46.56871" lon="6.04234">
        <ele>1034.5</ele>
        <time>2021-11-18T08:39:06Z</time>
      </trkpt>
      <trkpt lat="46.56873" lon="6.0424">
        <ele>1034.2</ele>
        <time>2021-11-18T08:39:12Z</time>
      </trkpt>
      <trkpt lat="46.56872" lon="6.04247">
        <ele>1034</ele>
        <time>2021-11-18T08:39:18Z</time>
      </trkpt>
      <trkpt lat="46.56874" lon="6.04254">
        <ele>1034.1</ele>
        <time>2021-11-18T08:39:24Z</time>
      </trkpt>
      <trkpt lat="46.56877" lon="6.04258">
        <ele>1034.5</ele>
        <time>2021-11-18T08:39:29Z</time>
      </trkpt>
      <trkpt lat="46.5688" lon="6.04263">
        <ele>1035.6</ele>
        <time>2021-11-18T08:39:37Z</time>
      </trkpt>
      <trkpt lat="46.56883" lon="6.0427">
        <ele>1037</ele>
        <time>2021-11-18T08:40:01Z</time>
      </trkpt>
      <trkpt lat="46.56887" lon="6.04275">
        <ele>1037.9</ele>
        <time>2021-11-18T08:40:06Z</time>
      </trkpt>
      <trkpt lat="46.5689" lon="6.04279">
        <ele>1038.4</ele>
        <time>2021-11-18T08:40:12Z</time>
      </trkpt>
      <trkpt lat="46.56894" lon="6.04284">
        <ele>1038.9</ele>
        <time>2021-11-18T08:40:18Z</time>
      </trkpt>
      <trkpt lat="46.56896" lon="6.0429">
        <ele>1039.1</ele>
        <time>2021-11-18T08:40:24Z</time>
      </trkpt>
      <trkpt lat="46.56899" lon="6.04295">
        <ele>1038.8</ele>
        <time>2021-11-18T08:40:32Z</time>
      </trkpt>
      <trkpt lat="46.56903" lon="6.04299">
        <ele>1039.1</ele>
        <time>2021-11-18T08:40:37Z</time>
      </trkpt>
      <trkpt lat="46.56907" lon="6.04304">
        <ele>1039.5</ele>
        <time>2021-11-18T08:40:43Z</time>
      </trkpt>
      <trkpt lat="46.56911" lon="6.04307">
        <ele>1039.8</ele>
        <time>2021-11-18T08:40:48Z</time>
      </trkpt>
      <trkpt lat="46.56915" lon="6.04312">
        <ele>1040.2</ele>
        <time>2021-11-18T08:40:56Z</time>
      </trkpt>
      <trkpt lat="46.56918" lon="6.04318">
        <ele>1040.4</ele>
        <time>2021-11-18T08:41:03Z</time>
      </trkpt>
      <trkpt lat="46.56922" lon="6.04324">
        <ele>1040.3</ele>
        <time>2021-11-18T08:41:08Z</time>
      </trkpt>
      <trkpt lat="46.56925" lon="6.0433">
        <ele>1040.1</ele>
        <time>2021-11-18T08:41:13Z</time>
      </trkpt>
      <trkpt lat="46.56927" lon="6.04337">
        <ele>1039.8</ele>
        <time>2021-11-18T08:41:19Z</time>
      </trkpt>
      <trkpt lat="46.5693" lon="6.04342">
        <ele>1039.6</ele>
        <time>2021-11-18T08:41:26Z</time>
      </trkpt>
      <trkpt lat="46.56932" lon="6.04349">
        <ele>1039.3</ele>
        <time>2021-11-18T08:41:32Z</time>
      </trkpt>
      <trkpt lat="46.56936" lon="6.04354">
        <ele>1039.2</ele>
        <time>2021-11-18T08:41:36Z</time>
      </trkpt>
      <trkpt lat="46.56938" lon="6.04361">
        <ele>1039</ele>
        <time>2021-11-18T08:41:41Z</time>
      </trkpt>
      <trkpt lat="46.5694" lon="6.04368">
        <ele>1038.9</ele>
        <time>2021-11-18T08:41:46Z</time>
      </trkpt>
      <trkpt lat="46.56942" lon="6.04375">
        <ele>1038.6</ele>
        <time>2021-11-18T08:41:51Z</time>
      </trkpt>
      <trkpt lat="46.56945" lon="6.04382">
        <ele>1038.4</ele>
        <time>2021-11-18T08:41:56Z</time>
      </trkpt>
      <trkpt lat="46.56946" lon="6.04389">
        <ele>1038.2</ele>
        <time>2021-11-18T08:42:02Z</time>
      </trkpt>
      <trkpt lat="46.56947" lon="6.04396">
        <ele>1038.3</ele>
        <time>2021-11-18T08:42:08Z</time>
      </trkpt>
      <trkpt lat="46.5695" lon="6.04403">
        <ele>1038.4</ele>
        <time>2021-11-18T08:42:13Z</time>
      </trkpt>
      <trkpt lat="46.56953" lon="6.04408">
        <ele>1038.6</ele>
        <time>2021-11-18T08:42:19Z</time>
      </trkpt>
      <trkpt lat="46.56957" lon="6.04414">
        <ele>1038.7</ele>
        <time>2021-11-18T08:42:24Z</time>
      </trkpt>
      <trkpt lat="46.56961" lon="6.04419">
        <ele>1038.7</ele>
        <time>2021-11-18T08:42:28Z</time>
      </trkpt>
      <trkpt lat="46.56965" lon="6.04423">
        <ele>1038.8</ele>
        <time>2021-11-18T08:42:33Z</time>
      </trkpt>
      <trkpt lat="46.5697" lon="6.04428">
        <ele>1038.7</ele>
        <time>2021-11-18T08:42:37Z</time>
      </trkpt>
      <trkpt lat="46.56974" lon="6.04432">
        <ele>1038.5</ele>
        <time>2021-11-18T08:42:41Z</time>
      </trkpt>
      <trkpt lat="46.56978" lon="6.04434">
        <ele>1038.3</ele>
        <time>2021-11-18T08:42:45Z</time>
      </trkpt>
      <trkpt lat="46.56983" lon="6.04435">
        <ele>1038.2</ele>
        <time>2021-11-18T08:42:51Z</time>
      </trkpt>
      <trkpt lat="46.56989" lon="6.04435">
        <ele>1038</ele>
        <time>2021-11-18T08:42:57Z</time>
      </trkpt>
      <trkpt lat="46.56992" lon="6.04439">
        <ele>1037.1</ele>
        <time>2021-11-18T08:43:21Z</time>
      </trkpt>
      <trkpt lat="46.56997" lon="6.04442">
        <ele>1036.6</ele>
        <time>2021-11-18T08:43:28Z</time>
      </trkpt>
      <trkpt lat="46.57003" lon="6.04442">
        <ele>1036.3</ele>
        <time>2021-11-18T08:43:33Z</time>
      </trkpt>
      <trkpt lat="46.57008" lon="6.04443">
        <ele>1036</ele>
        <time>2021-11-18T08:43:37Z</time>
      </trkpt>
      <trkpt lat="46.57013" lon="6.04444">
        <ele>1035.6</ele>
        <time>2021-11-18T08:43:43Z</time>
      </trkpt>
      <trkpt lat="46.57017" lon="6.04444">
        <ele>1035</ele>
        <time>2021-11-18T08:43:48Z</time>
      </trkpt>
      <trkpt lat="46.57023" lon="6.04444">
        <ele>1034.8</ele>
        <time>2021-11-18T08:43:52Z</time>
      </trkpt>
      <trkpt lat="46.57028" lon="6.04443">
        <ele>1034.8</ele>
        <time>2021-11-18T08:43:56Z</time>
      </trkpt>
      <trkpt lat="46.57032" lon="6.04442">
        <ele>1034.7</ele>
        <time>2021-11-18T08:44:01Z</time>
      </trkpt>
      <trkpt lat="46.57037" lon="6.04443">
        <ele>1034.8</ele>
        <time>2021-11-18T08:44:06Z</time>
      </trkpt>
      <trkpt lat="46.57041" lon="6.04447">
        <ele>1034.4</ele>
        <time>2021-11-18T08:44:13Z</time>
      </trkpt>
      <trkpt lat="46.57044" lon="6.04453">
        <ele>1034.3</ele>
        <time>2021-11-18T08:44:18Z</time>
      </trkpt>
      <trkpt lat="46.57046" lon="6.04459">
        <ele>1034.1</ele>
        <time>2021-11-18T08:44:22Z</time>
      </trkpt>
      <trkpt lat="46.57049" lon="6.04466">
        <ele>1033.9</ele>
        <time>2021-11-18T08:44:26Z</time>
      </trkpt>
      <trkpt lat="46.57051" lon="6.04473">
        <ele>1033.8</ele>
        <time>2021-11-18T08:44:30Z</time>
      </trkpt>
      <trkpt lat="46.57052" lon="6.04481">
        <ele>1033.5</ele>
        <time>2021-11-18T08:44:34Z</time>
      </trkpt>
      <trkpt lat="46.57052" lon="6.04488">
        <ele>1033.2</ele>
        <time>2021-11-18T08:44:39Z</time>
      </trkpt>
      <trkpt lat="46.57055" lon="6.04494">
        <ele>1033</ele>
        <time>2021-11-18T08:44:44Z</time>
      </trkpt>
      <trkpt lat="46.57056" lon="6.045">
        <ele>1032.6</ele>
        <time>2021-11-18T08:44:49Z</time>
      </trkpt>
      <trkpt lat="46.57056" lon="6.04507">
        <ele>1032.1</ele>
        <time>2021-11-18T08:44:54Z</time>
      </trkpt>
      <trkpt lat="46.57058" lon="6.04513">
        <ele>1030.9</ele>
        <time>2021-11-18T08:45:01Z</time>
      </trkpt>
      <trkpt lat="46.57061" lon="6.04519">
        <ele>1029.9</ele>
        <time>2021-11-18T08:45:06Z</time>
      </trkpt>
      <trkpt lat="46.57063" lon="6.04525">
        <ele>1029.3</ele>
        <time>2021-11-18T08:45:11Z</time>
      </trkpt>
      <trkpt lat="46.57065" lon="6.04531">
        <ele>1028.6</ele>
        <time>2021-11-18T08:45:17Z</time>
      </trkpt>
      <trkpt lat="46.57068" lon="6.04537">
        <ele>1027.7</ele>
        <time>2021-11-18T08:45:22Z</time>
      </trkpt>
      <trkpt lat="46.57071" lon="6.04542">
        <ele>1026.8</ele>
        <time>2021-11-18T08:45:27Z</time>
      </trkpt>
      <trkpt lat="46.57074" lon="6.04548">
        <ele>1026.2</ele>
        <time>2021-11-18T08:45:31Z</time>
      </trkpt>
      <trkpt lat="46.57077" lon="6.04554">
        <ele>1025.8</ele>
        <time>2021-11-18T08:45:34Z</time>
      </trkpt>
      <trkpt lat="46.5708" lon="6.04561">
        <ele>1025.2</ele>
        <time>2021-11-18T08:45:38Z</time>
      </trkpt>
      <trkpt lat="46.57082" lon="6.04567">
        <ele>1024.8</ele>
        <time>2021-11-18T08:45:42Z</time>
      </trkpt>
      <trkpt lat="46.57084" lon="6.04573">
        <ele>1024.4</ele>
        <time>2021-11-18T08:45:46Z</time>
      </trkpt>
      <trkpt lat="46.57087" lon="6.04579">
        <ele>1024.1</ele>
        <time>2021-11-18T08:45:51Z</time>
      </trkpt>
      <trkpt lat="46.57091" lon="6.04584">
        <ele>1024</ele>
        <time>2021-11-18T08:45:55Z</time>
      </trkpt>
      <trkpt lat="46.57094" lon="6.04591">
        <ele>1023.9</ele>
        <time>2021-11-18T08:45:59Z</time>
      </trkpt>
      <trkpt lat="46.57098" lon="6.04595">
        <ele>1024.1</ele>
        <time>2021-11-18T08:46:03Z</time>
      </trkpt>
      <trkpt lat="46.57102" lon="6.046">
        <ele>1024.3</ele>
        <time>2021-11-18T08:46:07Z</time>
      </trkpt>
      <trkpt lat="46.57106" lon="6.04604">
        <ele>1024.8</ele>
        <time>2021-11-18T08:46:10Z</time>
      </trkpt>
      <trkpt lat="46.57109" lon="6.04609">
        <ele>1025.5</ele>
        <time>2021-11-18T08:46:14Z</time>
      </trkpt>
      <trkpt lat="46.57111" lon="6.04615">
        <ele>1026.4</ele>
        <time>2021-11-18T08:46:18Z</time>
      </trkpt>
      <trkpt lat="46.57114" lon="6.04621">
        <ele>1027.3</ele>
        <time>2021-11-18T08:46:23Z</time>
      </trkpt>
      <trkpt lat="46.57118" lon="6.04627">
        <ele>1028.1</ele>
        <time>2021-11-18T08:46:28Z</time>
      </trkpt>
      <trkpt lat="46.57122" lon="6.04632">
        <ele>1028.4</ele>
        <time>2021-11-18T08:46:33Z</time>
      </trkpt>
      <trkpt lat="46.57125" lon="6.04637">
        <ele>1028.8</ele>
        <time>2021-11-18T08:46:37Z</time>
      </trkpt>
      <trkpt lat="46.57128" lon="6.04643">
        <ele>1028.8</ele>
        <time>2021-11-18T08:46:42Z</time>
      </trkpt>
      <trkpt lat="46.57132" lon="6.04646">
        <ele>1029</ele>
        <time>2021-11-18T08:46:47Z</time>
      </trkpt>
      <trkpt lat="46.57136" lon="6.04651">
        <ele>1029.2</ele>
        <time>2021-11-18T08:46:52Z</time>
      </trkpt>
      <trkpt lat="46.5714" lon="6.04654">
        <ele>1029.2</ele>
        <time>2021-11-18T08:46:57Z</time>
      </trkpt>
      <trkpt lat="46.57144" lon="6.04659">
        <ele>1029</ele>
        <time>2021-11-18T08:47:02Z</time>
      </trkpt>
      <trkpt lat="46.57149" lon="6.04662">
        <ele>1028.8</ele>
        <time>2021-11-18T08:47:07Z</time>
      </trkpt>
      <trkpt lat="46.57153" lon="6.04664">
        <ele>1028.7</ele>
        <time>2021-11-18T08:47:12Z</time>
      </trkpt>
      <trkpt lat="46.57157" lon="6.0467">
        <ele>1028.7</ele>
        <time>2021-11-18T08:47:17Z</time>
      </trkpt>
      <trkpt lat="46.57161" lon="6.04675">
        <ele>1028.3</ele>
        <time>2021-11-18T08:47:22Z</time>
      </trkpt>
      <trkpt lat="46.57164" lon="6.04682">
        <ele>1027.6</ele>
        <time>2021-11-18T08:47:27Z</time>
      </trkpt>
      <trkpt lat="46.57168" lon="6.04687">
        <ele>1026.5</ele>
        <time>2021-11-18T08:47:32Z</time>
      </trkpt>
      <trkpt lat="46.57172" lon="6.04691">
        <ele>1025.7</ele>
        <time>2021-11-18T08:47:37Z</time>
      </trkpt>
      <trkpt lat="46.57177" lon="6.04693">
        <ele>1025.4</ele>
        <time>2021-11-18T08:47:42Z</time>
      </trkpt>
      <trkpt lat="46.57182" lon="6.04696">
        <ele>1025.2</ele>
        <time>2021-11-18T08:47:46Z</time>
      </trkpt>
      <trkpt lat="46.57186" lon="6.04701">
        <ele>1024.9</ele>
        <time>2021-11-18T08:47:50Z</time>
      </trkpt>
      <trkpt lat="46.5719" lon="6.04706">
        <ele>1024.4</ele>
        <time>2021-11-18T08:47:55Z</time>
      </trkpt>
      <trkpt lat="46.57194" lon="6.04711">
        <ele>1023.7</ele>
        <time>2021-11-18T08:48:01Z</time>
      </trkpt>
      <trkpt lat="46.57198" lon="6.04714">
        <ele>1023.2</ele>
        <time>2021-11-18T08:48:06Z</time>
      </trkpt>
      <trkpt lat="46.57202" lon="6.04718">
        <ele>1023</ele>
        <time>2021-11-18T08:48:10Z</time>
      </trkpt>
      <trkpt lat="46.57206" lon="6.04723">
        <ele>1023.2</ele>
        <time>2021-11-18T08:48:15Z</time>
      </trkpt>
      <trkpt lat="46.5721" lon="6.04727">
        <ele>1023.8</ele>
        <time>2021-11-18T08:48:19Z</time>
      </trkpt>
      <trkpt lat="46.57214" lon="6.0473">
        <ele>1024.1</ele>
        <time>2021-11-18T08:48:24Z</time>
      </trkpt>
      <trkpt lat="46.57219" lon="6.04735">
        <ele>1024.1</ele>
        <time>2021-11-18T08:48:30Z</time>
      </trkpt>
      <trkpt lat="46.57223" lon="6.04739">
        <ele>1024.2</ele>
        <time>2021-11-18T08:48:35Z</time>
      </trkpt>
      <trkpt lat="46.57227" lon="6.04745">
        <ele>1024.1</ele>
        <time>2021-11-18T08:48:40Z</time>
      </trkpt>
      <trkpt lat="46.57232" lon="6.04749">
        <ele>1024.2</ele>
        <time>2021-11-18T08:48:45Z</time>
      </trkpt>
      <trkpt lat="46.57235" lon="6.04754">
        <ele>1024.4</ele>
        <time>2021-11-18T08:48:49Z</time>
      </trkpt>
      <trkpt lat="46.57239" lon="6.04759">
        <ele>1024.4</ele>
        <time>2021-11-18T08:48:54Z</time>
      </trkpt>
      <trkpt lat="46.57244" lon="6.04762">
        <ele>1024.3</ele>
        <time>2021-11-18T08:48:58Z</time>
      </trkpt>
      <trkpt lat="46.57248" lon="6.04767">
        <ele>1024.6</ele>
        <time>2021-11-18T08:49:03Z</time>
      </trkpt>
      <trkpt lat="46.57252" lon="6.04771">
        <ele>1024.9</ele>
        <time>2021-11-18T08:49:07Z</time>
      </trkpt>
      <trkpt lat="46.57256" lon="6.04775">
        <ele>1024.8</ele>
        <time>2021-11-18T08:49:12Z</time>
      </trkpt>
      <trkpt lat="46.57261" lon="6.04779">
        <ele>1024.2</ele>
        <time>2021-11-18T08:49:17Z</time>
      </trkpt>
      <trkpt lat="46.57265" lon="6.04783">
        <ele>1023.8</ele>
        <time>2021-11-18T08:49:22Z</time>
      </trkpt>
      <trkpt lat="46.57268" lon="6.04787">
        <ele>1022.8</ele>
        <time>2021-11-18T08:49:27Z</time>
      </trkpt>
      <trkpt lat="46.57273" lon="6.04791">
        <ele>1021.8</ele>
        <time>2021-11-18T08:49:32Z</time>
      </trkpt>
      <trkpt lat="46.57277" lon="6.04796">
        <ele>1022</ele>
        <time>2021-11-18T08:49:36Z</time>
      </trkpt>
      <trkpt lat="46.5728" lon="6.04799">
        <ele>1022.6</ele>
        <time>2021-11-18T08:49:40Z</time>
      </trkpt>
      <trkpt lat="46.57285" lon="6.04803">
        <ele>1023.1</ele>
        <time>2021-11-18T08:49:45Z</time>
      </trkpt>
      <trkpt lat="46.57289" lon="6.04807">
        <ele>1023.2</ele>
        <time>2021-11-18T08:49:50Z</time>
      </trkpt>
      <trkpt lat="46.57294" lon="6.04811">
        <ele>1022.9</ele>
        <time>2021-11-18T08:49:55Z</time>
      </trkpt>
      <trkpt lat="46.57298" lon="6.04816">
        <ele>1022.8</ele>
        <time>2021-11-18T08:50:00Z</time>
      </trkpt>
      <trkpt lat="46.57302" lon="6.0482">
        <ele>1022.1</ele>
        <time>2021-11-18T08:50:06Z</time>
      </trkpt>
      <trkpt lat="46.57306" lon="6.04825">
        <ele>1021.1</ele>
        <time>2021-11-18T08:50:11Z</time>
      </trkpt>
      <trkpt lat="46.5731" lon="6.04828">
        <ele>1020.3</ele>
        <time>2021-11-18T08:50:15Z</time>
      </trkpt>
      <trkpt lat="46.57315" lon="6.0483">
        <ele>1019.8</ele>
        <time>2021-11-18T08:50:18Z</time>
      </trkpt>
      <trkpt lat="46.5732" lon="6.04832">
        <ele>1019.3</ele>
        <time>2021-11-18T08:50:22Z</time>
      </trkpt>
      <trkpt lat="46.57325" lon="6.04833">
        <ele>1019.1</ele>
        <time>2021-11-18T08:50:26Z</time>
      </trkpt>
      <trkpt lat="46.5733" lon="6.04834">
        <ele>1019.5</ele>
        <time>2021-11-18T08:50:30Z</time>
      </trkpt>
      <trkpt lat="46.57335" lon="6.04834">
        <ele>1019.8</ele>
        <time>2021-11-18T08:50:34Z</time>
      </trkpt>
      <trkpt lat="46.5734" lon="6.04835">
        <ele>1019.9</ele>
        <time>2021-11-18T08:50:39Z</time>
      </trkpt>
      <trkpt lat="46.57345" lon="6.04834">
        <ele>1019.8</ele>
        <time>2021-11-18T08:50:44Z</time>
      </trkpt>
      <trkpt lat="46.5735" lon="6.04834">
        <ele>1019.7</ele>
        <time>2021-11-18T08:50:49Z</time>
      </trkpt>
      <trkpt lat="46.57355" lon="6.04834">
        <ele>1019.7</ele>
        <time>2021-11-18T08:50:54Z</time>
      </trkpt>
      <trkpt lat="46.57359" lon="6.04832">
        <ele>1019.6</ele>
        <time>2021-11-18T08:50:58Z</time>
      </trkpt>
      <trkpt lat="46.57364" lon="6.04833">
        <ele>1019.9</ele>
        <time>2021-11-18T08:51:03Z</time>
      </trkpt>
      <trkpt lat="46.57369" lon="6.04836">
        <ele>1019.8</ele>
        <time>2021-11-18T08:51:09Z</time>
      </trkpt>
      <trkpt lat="46.57374" lon="6.04836">
        <ele>1019.2</ele>
        <time>2021-11-18T08:51:14Z</time>
      </trkpt>
      <trkpt lat="46.57379" lon="6.04837">
        <ele>1018.5</ele>
        <time>2021-11-18T08:51:19Z</time>
      </trkpt>
      <trkpt lat="46.57384" lon="6.04838">
        <ele>1018.5</ele>
        <time>2021-11-18T08:51:23Z</time>
      </trkpt>
      <trkpt lat="46.57388" lon="6.04839">
        <ele>1018.9</ele>
        <time>2021-11-18T08:51:27Z</time>
      </trkpt>
      <trkpt lat="46.57393" lon="6.0484">
        <ele>1019.4</ele>
        <time>2021-11-18T08:51:32Z</time>
      </trkpt>
      <trkpt lat="46.57398" lon="6.04841">
        <ele>1019.9</ele>
        <time>2021-11-18T08:51:37Z</time>
      </trkpt>
      <trkpt lat="46.57402" lon="6.04842">
        <ele>1019.6</ele>
        <time>2021-11-18T08:51:42Z</time>
      </trkpt>
      <trkpt lat="46.57407" lon="6.04843">
        <ele>1019.1</ele>
        <time>2021-11-18T08:51:46Z</time>
      </trkpt>
      <trkpt lat="46.57412" lon="6.04846">
        <ele>1018.3</ele>
        <time>2021-11-18T08:51:51Z</time>
      </trkpt>
      <trkpt lat="46.57415" lon="6.04851">
        <ele>1017.4</ele>
        <time>2021-11-18T08:51:56Z</time>
      </trkpt>
      <trkpt lat="46.5742" lon="6.04854">
        <ele>1016.5</ele>
        <time>2021-11-18T08:52:01Z</time>
      </trkpt>
      <trkpt lat="46.57424" lon="6.04857">
        <ele>1016</ele>
        <time>2021-11-18T08:52:06Z</time>
      </trkpt>
      <trkpt lat="46.57428" lon="6.04862">
        <ele>1015.4</ele>
        <time>2021-11-18T08:52:11Z</time>
      </trkpt>
      <trkpt lat="46.57432" lon="6.04868">
        <ele>1015.1</ele>
        <time>2021-11-18T08:52:16Z</time>
      </trkpt>
      <trkpt lat="46.57435" lon="6.04873">
        <ele>1015</ele>
        <time>2021-11-18T08:52:20Z</time>
      </trkpt>
      <trkpt lat="46.57439" lon="6.04878">
        <ele>1014.3</ele>
        <time>2021-11-18T08:52:28Z</time>
      </trkpt>
      <trkpt lat="46.57443" lon="6.04882">
        <ele>1013.5</ele>
        <time>2021-11-18T08:52:33Z</time>
      </trkpt>
      <trkpt lat="46.57447" lon="6.04886">
        <ele>1012.5</ele>
        <time>2021-11-18T08:52:37Z</time>
      </trkpt>
      <trkpt lat="46.5745" lon="6.04892">
        <ele>1011.3</ele>
        <time>2021-11-18T08:52:42Z</time>
      </trkpt>
      <trkpt lat="46.57454" lon="6.04897">
        <ele>1010.5</ele>
        <time>2021-11-18T08:52:47Z</time>
      </trkpt>
      <trkpt lat="46.57459" lon="6.049">
        <ele>1009.9</ele>
        <time>2021-11-18T08:52:52Z</time>
      </trkpt>
      <trkpt lat="46.57463" lon="6.04903">
        <ele>1009.6</ele>
        <time>2021-11-18T08:52:56Z</time>
      </trkpt>
      <trkpt lat="46.57468" lon="6.04907">
        <ele>1009.1</ele>
        <time>2021-11-18T08:53:01Z</time>
      </trkpt>
      <trkpt lat="46.57472" lon="6.04911">
        <ele>1008.2</ele>
        <time>2021-11-18T08:53:06Z</time>
      </trkpt>
      <trkpt lat="46.57476" lon="6.04914">
        <ele>1006.9</ele>
        <time>2021-11-18T08:53:11Z</time>
      </trkpt>
      <trkpt lat="46.57481" lon="6.04918">
        <ele>1006</ele>
        <time>2021-11-18T08:53:16Z</time>
      </trkpt>
      <trkpt lat="46.57485" lon="6.04921">
        <ele>1006.1</ele>
        <time>2021-11-18T08:53:20Z</time>
      </trkpt>
      <trkpt lat="46.5749" lon="6.04924">
        <ele>1006.7</ele>
        <time>2021-11-18T08:53:25Z</time>
      </trkpt>
      <trkpt lat="46.57494" lon="6.04928">
        <ele>1006.2</ele>
        <time>2021-11-18T08:53:30Z</time>
      </trkpt>
      <trkpt lat="46.57498" lon="6.04931">
        <ele>1005.5</ele>
        <time>2021-11-18T08:53:34Z</time>
      </trkpt>
      <trkpt lat="46.57503" lon="6.04933">
        <ele>1004.8</ele>
        <time>2021-11-18T08:53:38Z</time>
      </trkpt>
      <trkpt lat="46.57508" lon="6.04935">
        <ele>1004.4</ele>
        <time>2021-11-18T08:53:42Z</time>
      </trkpt>
      <trkpt lat="46.57512" lon="6.04937">
        <ele>1004.1</ele>
        <time>2021-11-18T08:53:47Z</time>
      </trkpt>
      <trkpt lat="46.57517" lon="6.0494">
        <ele>1003.8</ele>
        <time>2021-11-18T08:53:52Z</time>
      </trkpt>
      <trkpt lat="46.57521" lon="6.04945">
        <ele>1004.7</ele>
        <time>2021-11-18T08:53:57Z</time>
      </trkpt>
      <trkpt lat="46.57526" lon="6.04948">
        <ele>1006.8</ele>
        <time>2021-11-18T08:54:02Z</time>
      </trkpt>
      <trkpt lat="46.5753" lon="6.04952">
        <ele>1008.1</ele>
        <time>2021-11-18T08:54:06Z</time>
      </trkpt>
      <trkpt lat="46.57533" lon="6.04958">
        <ele>1009</ele>
        <time>2021-11-18T08:54:11Z</time>
      </trkpt>
      <trkpt lat="46.57537" lon="6.04962">
        <ele>1008.8</ele>
        <time>2021-11-18T08:54:16Z</time>
      </trkpt>
      <trkpt lat="46.57541" lon="6.04966">
        <ele>1008</ele>
        <time>2021-11-18T08:54:21Z</time>
      </trkpt>
      <trkpt lat="46.57543" lon="6.04971">
        <ele>1007.5</ele>
        <time>2021-11-18T08:54:26Z</time>
      </trkpt>
      <trkpt lat="46.57547" lon="6.04976">
        <ele>1007.4</ele>
        <time>2021-11-18T08:54:31Z</time>
      </trkpt>
      <trkpt lat="46.57551" lon="6.04979">
        <ele>1007.5</ele>
        <time>2021-11-18T08:54:35Z</time>
      </trkpt>
      <trkpt lat="46.57555" lon="6.04983">
        <ele>1007.6</ele>
        <time>2021-11-18T08:54:40Z</time>
      </trkpt>
      <trkpt lat="46.57559" lon="6.04987">
        <ele>1007.8</ele>
        <time>2021-11-18T08:54:45Z</time>
      </trkpt>
      <trkpt lat="46.57563" lon="6.04991">
        <ele>1008.3</ele>
        <time>2021-11-18T08:54:49Z</time>
      </trkpt>
      <trkpt lat="46.57567" lon="6.04996">
        <ele>1009</ele>
        <time>2021-11-18T08:54:54Z</time>
      </trkpt>
      <trkpt lat="46.57571" lon="6.05">
        <ele>1009.4</ele>
        <time>2021-11-18T08:54:59Z</time>
      </trkpt>
      <trkpt lat="46.57574" lon="6.05005">
        <ele>1009.5</ele>
        <time>2021-11-18T08:55:03Z</time>
      </trkpt>
      <trkpt lat="46.57578" lon="6.0501">
        <ele>1009.6</ele>
        <time>2021-11-18T08:55:08Z</time>
      </trkpt>
      <trkpt lat="46.57581" lon="6.05016">
        <ele>1009.9</ele>
        <time>2021-11-18T08:55:13Z</time>
      </trkpt>
      <trkpt lat="46.57584" lon="6.05021">
        <ele>1010.3</ele>
        <time>2021-11-18T08:55:18Z</time>
      </trkpt>
      <trkpt lat="46.57587" lon="6.05027">
        <ele>1010.8</ele>
        <time>2021-11-18T08:55:23Z</time>
      </trkpt>
      <trkpt lat="46.57591" lon="6.05031">
        <ele>1011.4</ele>
        <time>2021-11-18T08:55:27Z</time>
      </trkpt>
      <trkpt lat="46.57594" lon="6.05036">
        <ele>1012.3</ele>
        <time>2021-11-18T08:55:31Z</time>
      </trkpt>
      <trkpt lat="46.57598" lon="6.05041">
        <ele>1013.5</ele>
        <time>2021-11-18T08:55:36Z</time>
      </trkpt>
      <trkpt lat="46.57602" lon="6.05046">
        <ele>1014.1</ele>
        <time>2021-11-18T08:55:41Z</time>
      </trkpt>
      <trkpt lat="46.57605" lon="6.0505">
        <ele>1014.1</ele>
        <time>2021-11-18T08:55:45Z</time>
      </trkpt>
      <trkpt lat="46.57609" lon="6.05055">
        <ele>1014.7</ele>
        <time>2021-11-18T08:55:50Z</time>
      </trkpt>
      <trkpt lat="46.57613" lon="6.0506">
        <ele>1016</ele>
        <time>2021-11-18T08:55:55Z</time>
      </trkpt>
      <trkpt lat="46.57618" lon="6.05065">
        <ele>1016.7</ele>
        <time>2021-11-18T08:56:00Z</time>
      </trkpt>
      <trkpt lat="46.57622" lon="6.05069">
        <ele>1016.7</ele>
        <time>2021-11-18T08:56:05Z</time>
      </trkpt>
      <trkpt lat="46.57626" lon="6.05073">
        <ele>1016.3</ele>
        <time>2021-11-18T08:56:10Z</time>
      </trkpt>
      <trkpt lat="46.57631" lon="6.05076">
        <ele>1016.1</ele>
        <time>2021-11-18T08:56:15Z</time>
      </trkpt>
      <trkpt lat="46.57636" lon="6.05079">
        <ele>1015.3</ele>
        <time>2021-11-18T08:56:20Z</time>
      </trkpt>
      <trkpt lat="46.5764" lon="6.05082">
        <ele>1014.5</ele>
        <time>2021-11-18T08:56:24Z</time>
      </trkpt>
      <trkpt lat="46.57645" lon="6.05084">
        <ele>1013.9</ele>
        <time>2021-11-18T08:56:28Z</time>
      </trkpt>
      <trkpt lat="46.57649" lon="6.05087">
        <ele>1013.7</ele>
        <time>2021-11-18T08:56:34Z</time>
      </trkpt>
      <trkpt lat="46.57654" lon="6.05091">
        <ele>1014.5</ele>
        <time>2021-11-18T08:56:40Z</time>
      </trkpt>
      <trkpt lat="46.57659" lon="6.05095">
        <ele>1015.7</ele>
        <time>2021-11-18T08:56:45Z</time>
      </trkpt>
      <trkpt lat="46.57664" lon="6.05098">
        <ele>1017</ele>
        <time>2021-11-18T08:56:51Z</time>
      </trkpt>
      <trkpt lat="46.57668" lon="6.05103">
        <ele>1018</ele>
        <time>2021-11-18T08:56:57Z</time>
      </trkpt>
      <trkpt lat="46.57671" lon="6.05108">
        <ele>1019.1</ele>
        <time>2021-11-18T08:57:02Z</time>
      </trkpt>
      <trkpt lat="46.57674" lon="6.05115">
        <ele>1019.9</ele>
        <time>2021-11-18T08:57:07Z</time>
      </trkpt>
      <trkpt lat="46.57677" lon="6.0512">
        <ele>1020.6</ele>
        <time>2021-11-18T08:57:12Z</time>
      </trkpt>
      <trkpt lat="46.57679" lon="6.05127">
        <ele>1021.2</ele>
        <time>2021-11-18T08:57:17Z</time>
      </trkpt>
      <trkpt lat="46.57681" lon="6.05133">
        <ele>1021.7</ele>
        <time>2021-11-18T08:57:22Z</time>
      </trkpt>
      <trkpt lat="46.57684" lon="6.05138">
        <ele>1022.1</ele>
        <time>2021-11-18T08:57:27Z</time>
      </trkpt>
      <trkpt lat="46.57688" lon="6.05142">
        <ele>1022.5</ele>
        <time>2021-11-18T08:57:32Z</time>
      </trkpt>
      <trkpt lat="46.57691" lon="6.05147">
        <ele>1023.1</ele>
        <time>2021-11-18T08:57:37Z</time>
      </trkpt>
      <trkpt lat="46.57695" lon="6.05152">
        <ele>1023.6</ele>
        <time>2021-11-18T08:57:42Z</time>
      </trkpt>
      <trkpt lat="46.57698" lon="6.05157">
        <ele>1024.2</ele>
        <time>2021-11-18T08:57:49Z</time>
      </trkpt>
      <trkpt lat="46.57702" lon="6.05161">
        <ele>1025.1</ele>
        <time>2021-11-18T08:57:55Z</time>
      </trkpt>
      <trkpt lat="46.57706" lon="6.05162">
        <ele>1025.8</ele>
        <time>2021-11-18T08:57:59Z</time>
      </trkpt>
      <trkpt lat="46.57711" lon="6.05163">
        <ele>1026.7</ele>
        <time>2021-11-18T08:58:05Z</time>
      </trkpt>
      <trkpt lat="46.57716" lon="6.05164">
        <ele>1027.9</ele>
        <time>2021-11-18T08:58:12Z</time>
      </trkpt>
      <trkpt lat="46.57721" lon="6.05165">
        <ele>1028.9</ele>
        <time>2021-11-18T08:58:19Z</time>
      </trkpt>
      <trkpt lat="46.57726" lon="6.05169">
        <ele>1028.1</ele>
        <time>2021-11-18T08:58:26Z</time>
      </trkpt>
      <trkpt lat="46.5773" lon="6.05172">
        <ele>1025.7</ele>
        <time>2021-11-18T08:58:33Z</time>
      </trkpt>
      <trkpt lat="46.57735" lon="6.05174">
        <ele>1024.5</ele>
        <time>2021-11-18T08:58:38Z</time>
      </trkpt>
      <trkpt lat="46.57739" lon="6.05177">
        <ele>1023</ele>
        <time>2021-11-18T08:58:44Z</time>
      </trkpt>
      <trkpt lat="46.57743" lon="6.05182">
        <ele>1021.4</ele>
        <time>2021-11-18T08:58:50Z</time>
      </trkpt>
      <trkpt lat="46.57747" lon="6.05186">
        <ele>1020.6</ele>
        <time>2021-11-18T08:58:55Z</time>
      </trkpt>
      <trkpt lat="46.57751" lon="6.0519">
        <ele>1020.7</ele>
        <time>2021-11-18T08:59:00Z</time>
      </trkpt>
      <trkpt lat="46.57755" lon="6.05194">
        <ele>1021.2</ele>
        <time>2021-11-18T08:59:05Z</time>
      </trkpt>
      <trkpt lat="46.5776" lon="6.05197">
        <ele>1022.3</ele>
        <time>2021-11-18T08:59:10Z</time>
      </trkpt>
      <trkpt lat="46.57764" lon="6.05201">
        <ele>1024</ele>
        <time>2021-11-18T08:59:15Z</time>
      </trkpt>
      <trkpt lat="46.57768" lon="6.05204">
        <ele>1025.7</ele>
        <time>2021-11-18T08:59:19Z</time>
      </trkpt>
      <trkpt lat="46.57772" lon="6.05208">
        <ele>1027.7</ele>
        <time>2021-11-18T08:59:24Z</time>
      </trkpt>
      <trkpt lat="46.57776" lon="6.05212">
        <ele>1029.8</ele>
        <time>2021-11-18T08:59:30Z</time>
      </trkpt>
      <trkpt lat="46.57779" lon="6.05206">
        <ele>1033.7</ele>
        <time>2021-11-18T08:59:52Z</time>
      </trkpt>
      <trkpt lat="46.57782" lon="6.052">
        <ele>1034.7</ele>
        <time>2021-11-18T08:59:57Z</time>
      </trkpt>
      <trkpt lat="46.57783" lon="6.05207">
        <ele>1035.4</ele>
        <time>2021-11-18T09:00:16Z</time>
      </trkpt>
      <trkpt lat="46.57786" lon="6.05213">
        <ele>1035.1</ele>
        <time>2021-11-18T09:00:20Z</time>
      </trkpt>
      <trkpt lat="46.5779" lon="6.05219">
        <ele>1034.8</ele>
        <time>2021-11-18T09:00:25Z</time>
      </trkpt>
      <trkpt lat="46.57794" lon="6.05222">
        <ele>1034.3</ele>
        <time>2021-11-18T09:00:30Z</time>
      </trkpt>
      <trkpt lat="46.57799" lon="6.05224">
        <ele>1034.2</ele>
        <time>2021-11-18T09:00:35Z</time>
      </trkpt>
      <trkpt lat="46.57803" lon="6.05227">
        <ele>1034</ele>
        <time>2021-11-18T09:00:40Z</time>
      </trkpt>
      <trkpt lat="46.57808" lon="6.0523">
        <ele>1034.6</ele>
        <time>2021-11-18T09:00:44Z</time>
      </trkpt>
      <trkpt lat="46.57812" lon="6.05232">
        <ele>1035.7</ele>
        <time>2021-11-18T09:00:49Z</time>
      </trkpt>
      <trkpt lat="46.57817" lon="6.05235">
        <ele>1036.2</ele>
        <time>2021-11-18T09:00:54Z</time>
      </trkpt>
      <trkpt lat="46.57822" lon="6.05235">
        <ele>1036.3</ele>
        <time>2021-11-18T09:00:58Z</time>
      </trkpt>
      <trkpt lat="46.57827" lon="6.05236">
        <ele>1036.4</ele>
        <time>2021-11-18T09:01:03Z</time>
      </trkpt>
      <trkpt lat="46.57832" lon="6.05238">
        <ele>1036.3</ele>
        <time>2021-11-18T09:01:09Z</time>
      </trkpt>
      <trkpt lat="46.57837" lon="6.05239">
        <ele>1036.3</ele>
        <time>2021-11-18T09:01:15Z</time>
      </trkpt>
      <trkpt lat="46.57842" lon="6.0524">
        <ele>1036.8</ele>
        <time>2021-11-18T09:01:20Z</time>
      </trkpt>
      <trkpt lat="46.57847" lon="6.0524">
        <ele>1037.1</ele>
        <time>2021-11-18T09:01:24Z</time>
      </trkpt>
      <trkpt lat="46.57851" lon="6.05242">
        <ele>1037.3</ele>
        <time>2021-11-18T09:01:30Z</time>
      </trkpt>
      <trkpt lat="46.57856" lon="6.05244">
        <ele>1036.5</ele>
        <time>2021-11-18T09:01:36Z</time>
      </trkpt>
      <trkpt lat="46.5786" lon="6.05246">
        <ele>1035.5</ele>
        <time>2021-11-18T09:01:40Z</time>
      </trkpt>
      <trkpt lat="46.57865" lon="6.05249">
        <ele>1034.7</ele>
        <time>2021-11-18T09:01:45Z</time>
      </trkpt>
      <trkpt lat="46.5787" lon="6.05253">
        <ele>1035.4</ele>
        <time>2021-11-18T09:01:50Z</time>
      </trkpt>
      <trkpt lat="46.57875" lon="6.05256">
        <ele>1036</ele>
        <time>2021-11-18T09:01:54Z</time>
      </trkpt>
      <trkpt lat="46.57878" lon="6.05261">
        <ele>1036.6</ele>
        <time>2021-11-18T09:01:58Z</time>
      </trkpt>
      <trkpt lat="46.57882" lon="6.05265">
        <ele>1037</ele>
        <time>2021-11-18T09:02:02Z</time>
      </trkpt>
      <trkpt lat="46.57885" lon="6.05271">
        <ele>1037.1</ele>
        <time>2021-11-18T09:02:07Z</time>
      </trkpt>
      <trkpt lat="46.57889" lon="6.05276">
        <ele>1036.7</ele>
        <time>2021-11-18T09:02:14Z</time>
      </trkpt>
      <trkpt lat="46.57892" lon="6.05281">
        <ele>1036.6</ele>
        <time>2021-11-18T09:02:20Z</time>
      </trkpt>
      <trkpt lat="46.57892" lon="6.05287">
        <ele>1036.9</ele>
        <time>2021-11-18T09:02:29Z</time>
      </trkpt>
      <trkpt lat="46.57892" lon="6.05294">
        <ele>1036.9</ele>
        <time>2021-11-18T09:02:34Z</time>
      </trkpt>
      <trkpt lat="46.57893" lon="6.053">
        <ele>1036.5</ele>
        <time>2021-11-18T09:02:46Z</time>
      </trkpt>
      <trkpt lat="46.57892" lon="6.05307">
        <ele>1036.2</ele>
        <time>2021-11-18T09:03:06Z</time>
      </trkpt>
      <trkpt lat="46.57889" lon="6.05311">
        <ele>1036.1</ele>
        <time>2021-11-18T09:03:11Z</time>
      </trkpt>
      <trkpt lat="46.57889" lon="6.05318">
        <ele>1035.7</ele>
        <time>2021-11-18T09:03:18Z</time>
      </trkpt>
      <trkpt lat="46.57889" lon="6.05326">
        <ele>1035.4</ele>
        <time>2021-11-18T09:03:22Z</time>
      </trkpt>
      <trkpt lat="46.57888" lon="6.05333">
        <ele>1035.7</ele>
        <time>2021-11-18T09:03:27Z</time>
      </trkpt>
      <trkpt lat="46.57887" lon="6.0534">
        <ele>1036.7</ele>
        <time>2021-11-18T09:03:33Z</time>
      </trkpt>
      <trkpt lat="46.57887" lon="6.05348">
        <ele>1037.4</ele>
        <time>2021-11-18T09:03:39Z</time>
      </trkpt>
      <trkpt lat="46.57888" lon="6.05355">
        <ele>1037.8</ele>
        <time>2021-11-18T09:03:45Z</time>
      </trkpt>
      <trkpt lat="46.57886" lon="6.05361">
        <ele>1037.9</ele>
        <time>2021-11-18T09:03:52Z</time>
      </trkpt>
      <trkpt lat="46.57886" lon="6.05368">
        <ele>1037.5</ele>
        <time>2021-11-18T09:03:59Z</time>
      </trkpt>
      <trkpt lat="46.57886" lon="6.05375">
        <ele>1036.9</ele>
        <time>2021-11-18T09:04:05Z</time>
      </trkpt>
      <trkpt lat="46.57887" lon="6.05382">
        <ele>1036.7</ele>
        <time>2021-11-18T09:04:11Z</time>
      </trkpt>
      <trkpt lat="46.5789" lon="6.05387">
        <ele>1036.7</ele>
        <time>2021-11-18T09:04:14Z</time>
      </trkpt>
      <trkpt lat="46.57893" lon="6.05392">
        <ele>1036.8</ele>
        <time>2021-11-18T09:04:18Z</time>
      </trkpt>
      <trkpt lat="46.57895" lon="6.05398">
        <ele>1037</ele>
        <time>2021-11-18T09:04:23Z</time>
      </trkpt>
      <trkpt lat="46.57895" lon="6.05406">
        <ele>1037.2</ele>
        <time>2021-11-18T09:04:28Z</time>
      </trkpt>
      <trkpt lat="46.57892" lon="6.05412">
        <ele>1037.8</ele>
        <time>2021-11-18T09:04:35Z</time>
      </trkpt>
      <trkpt lat="46.57889" lon="6.05417">
        <ele>1037.7</ele>
        <time>2021-11-18T09:04:40Z</time>
      </trkpt>
      <trkpt lat="46.5789" lon="6.05423">
        <ele>1036.7</ele>
        <time>2021-11-18T09:04:46Z</time>
      </trkpt>
      <trkpt lat="46.57893" lon="6.05428">
        <ele>1035</ele>
        <time>2021-11-18T09:04:52Z</time>
      </trkpt>
      <trkpt lat="46.57888" lon="6.05426">
        <ele>1033.3</ele>
        <time>2021-11-18T09:05:03Z</time>
      </trkpt>
      <trkpt lat="46.57883" lon="6.05429">
        <ele>1033.1</ele>
        <time>2021-11-18T09:05:11Z</time>
      </trkpt>
      <trkpt lat="46.57879" lon="6.05425">
        <ele>1033.2</ele>
        <time>2021-11-18T09:05:17Z</time>
      </trkpt>
      <trkpt lat="46.57877" lon="6.05419">
        <ele>1033.2</ele>
        <time>2021-11-18T09:05:24Z</time>
      </trkpt>
      <trkpt lat="46.57878" lon="6.05413">
        <ele>1033.3</ele>
        <time>2021-11-18T09:05:32Z</time>
      </trkpt>
      <trkpt lat="46.57882" lon="6.05416">
        <ele>1032.9</ele>
        <time>2021-11-18T09:05:37Z</time>
      </trkpt>
      <trkpt lat="46.57885" lon="6.05423">
        <ele>1032.7</ele>
        <time>2021-11-18T09:05:45Z</time>
      </trkpt>
      <trkpt lat="46.57885" lon="6.05431">
        <ele>1032.7</ele>
        <time>2021-11-18T09:05:49Z</time>
      </trkpt>
      <trkpt lat="46.57884" lon="6.05438">
        <ele>1032.6</ele>
        <time>2021-11-18T09:05:52Z</time>
      </trkpt>
      <trkpt lat="46.57884" lon="6.05446">
        <ele>1032.3</ele>
        <time>2021-11-18T09:05:55Z</time>
      </trkpt>
      <trkpt lat="46.57884" lon="6.05454">
        <ele>1032.1</ele>
        <time>2021-11-18T09:05:59Z</time>
      </trkpt>
      <trkpt lat="46.57886" lon="6.05461">
        <ele>1031.8</ele>
        <time>2021-11-18T09:06:03Z</time>
      </trkpt>
      <trkpt lat="46.57887" lon="6.05468">
        <ele>1032</ele>
        <time>2021-11-18T09:06:08Z</time>
      </trkpt>
      <trkpt lat="46.57891" lon="6.05474">
        <ele>1032.1</ele>
        <time>2021-11-18T09:06:12Z</time>
      </trkpt>
      <trkpt lat="46.57895" lon="6.05477">
        <ele>1032.2</ele>
        <time>2021-11-18T09:06:15Z</time>
      </trkpt>
      <trkpt lat="46.57899" lon="6.0548">
        <ele>1032.5</ele>
        <time>2021-11-18T09:06:18Z</time>
      </trkpt>
      <trkpt lat="46.57903" lon="6.05485">
        <ele>1032.8</ele>
        <time>2021-11-18T09:06:22Z</time>
      </trkpt>
      <trkpt lat="46.57906" lon="6.05491">
        <ele>1033.2</ele>
        <time>2021-11-18T09:06:27Z</time>
      </trkpt>
      <trkpt lat="46.5791" lon="6.05497">
        <ele>1033.2</ele>
        <time>2021-11-18T09:06:31Z</time>
      </trkpt>
      <trkpt lat="46.57914" lon="6.05502">
        <ele>1033</ele>
        <time>2021-11-18T09:06:34Z</time>
      </trkpt>
      <trkpt lat="46.57919" lon="6.05506">
        <ele>1033.2</ele>
        <time>2021-11-18T09:06:37Z</time>
      </trkpt>
      <trkpt lat="46.57924" lon="6.0551">
        <ele>1033.4</ele>
        <time>2021-11-18T09:06:41Z</time>
      </trkpt>
      <trkpt lat="46.57928" lon="6.05514">
        <ele>1033.7</ele>
        <time>2021-11-18T09:06:46Z</time>
      </trkpt>
      <trkpt lat="46.57931" lon="6.05519">
        <ele>1034</ele>
        <time>2021-11-18T09:06:52Z</time>
      </trkpt>
      <trkpt lat="46.57934" lon="6.05525">
        <ele>1033.8</ele>
        <time>2021-11-18T09:06:57Z</time>
      </trkpt>
      <trkpt lat="46.57939" lon="6.0553">
        <ele>1033.1</ele>
        <time>2021-11-18T09:07:02Z</time>
      </trkpt>
      <trkpt lat="46.57943" lon="6.05534">
        <ele>1032.6</ele>
        <time>2021-11-18T09:07:06Z</time>
      </trkpt>
      <trkpt lat="46.57948" lon="6.05537">
        <ele>1032.4</ele>
        <time>2021-11-18T09:07:09Z</time>
      </trkpt>
      <trkpt lat="46.57951" lon="6.05542">
        <ele>1032.2</ele>
        <time>2021-11-18T09:07:13Z</time>
      </trkpt>
      <trkpt lat="46.57954" lon="6.05549">
        <ele>1032.2</ele>
        <time>2021-11-18T09:07:17Z</time>
      </trkpt>
      <trkpt lat="46.57956" lon="6.05555">
        <ele>1032</ele>
        <time>2021-11-18T09:07:21Z</time>
      </trkpt>
      <trkpt lat="46.57958" lon="6.05562">
        <ele>1031.9</ele>
        <time>2021-11-18T09:07:26Z</time>
      </trkpt>
      <trkpt lat="46.57959" lon="6.05569">
        <ele>1032.6</ele>
        <time>2021-11-18T09:07:29Z</time>
      </trkpt>
      <trkpt lat="46.57961" lon="6.05576">
        <ele>1033.4</ele>
        <time>2021-11-18T09:07:32Z</time>
      </trkpt>
      <trkpt lat="46.57962" lon="6.05582">
        <ele>1034</ele>
        <time>2021-11-18T09:07:36Z</time>
      </trkpt>
      <trkpt lat="46.57963" lon="6.05589">
        <ele>1034.9</ele>
        <time>2021-11-18T09:07:41Z</time>
      </trkpt>
      <trkpt lat="46.57965" lon="6.05596">
        <ele>1035.7</ele>
        <time>2021-11-18T09:07:46Z</time>
      </trkpt>
      <trkpt lat="46.57966" lon="6.05604">
        <ele>1035.9</ele>
        <time>2021-11-18T09:07:52Z</time>
      </trkpt>
      <trkpt lat="46.5797" lon="6.0561">
        <ele>1035.9</ele>
        <time>2021-11-18T09:07:56Z</time>
      </trkpt>
      <trkpt lat="46.57973" lon="6.05615">
        <ele>1036.2</ele>
        <time>2021-11-18T09:07:59Z</time>
      </trkpt>
      <trkpt lat="46.57976" lon="6.05622">
        <ele>1036.3</ele>
        <time>2021-11-18T09:08:03Z</time>
      </trkpt>
      <trkpt lat="46.57976" lon="6.05629">
        <ele>1035.9</ele>
        <time>2021-11-18T09:08:07Z</time>
      </trkpt>
      <trkpt lat="46.57978" lon="6.05636">
        <ele>1035.6</ele>
        <time>2021-11-18T09:08:11Z</time>
      </trkpt>
      <trkpt lat="46.57981" lon="6.05644">
        <ele>1035.8</ele>
        <time>2021-11-18T09:08:14Z</time>
      </trkpt>
      <trkpt lat="46.57984" lon="6.05652">
        <ele>1036.2</ele>
        <time>2021-11-18T09:08:17Z</time>
      </trkpt>
      <trkpt lat="46.57986" lon="6.05657">
        <ele>1036.6</ele>
        <time>2021-11-18T09:08:20Z</time>
      </trkpt>
      <trkpt lat="46.57988" lon="6.05663">
        <ele>1037.5</ele>
        <time>2021-11-18T09:08:24Z</time>
      </trkpt>
      <trkpt lat="46.5799" lon="6.0567">
        <ele>1038.8</ele>
        <time>2021-11-18T09:08:30Z</time>
      </trkpt>
      <trkpt lat="46.57992" lon="6.05678">
        <ele>1039.7</ele>
        <time>2021-11-18T09:08:35Z</time>
      </trkpt>
      <trkpt lat="46.57992" lon="6.05685">
        <ele>1040.2</ele>
        <time>2021-11-18T09:08:40Z</time>
      </trkpt>
      <trkpt lat="46.57994" lon="6.05692">
        <ele>1040.5</ele>
        <time>2021-11-18T09:08:44Z</time>
      </trkpt>
      <trkpt lat="46.57996" lon="6.05699">
        <ele>1041.7</ele>
        <time>2021-11-18T09:08:48Z</time>
      </trkpt>
      <trkpt lat="46.57998" lon="6.05705">
        <ele>1043</ele>
        <time>2021-11-18T09:08:53Z</time>
      </trkpt>
      <trkpt lat="46.58001" lon="6.05711">
        <ele>1044</ele>
        <time>2021-11-18T09:09:00Z</time>
      </trkpt>
      <trkpt lat="46.58001" lon="6.05718">
        <ele>1044.2</ele>
        <time>2021-11-18T09:09:05Z</time>
      </trkpt>
      <trkpt lat="46.58" lon="6.05724">
        <ele>1043.4</ele>
        <time>2021-11-18T09:09:10Z</time>
      </trkpt>
      <trkpt lat="46.58001" lon="6.05731">
        <ele>1043.2</ele>
        <time>2021-11-18T09:09:14Z</time>
      </trkpt>
      <trkpt lat="46.58001" lon="6.05739">
        <ele>1043.3</ele>
        <time>2021-11-18T09:09:18Z</time>
      </trkpt>
      <trkpt lat="46.58002" lon="6.05747">
        <ele>1043.4</ele>
        <time>2021-11-18T09:09:22Z</time>
      </trkpt>
      <trkpt lat="46.58002" lon="6.05754">
        <ele>1043.7</ele>
        <time>2021-11-18T09:09:27Z</time>
      </trkpt>
      <trkpt lat="46.58" lon="6.0576">
        <ele>1043.9</ele>
        <time>2021-11-18T09:09:32Z</time>
      </trkpt>
      <trkpt lat="46.57996" lon="6.05766">
        <ele>1044.1</ele>
        <time>2021-11-18T09:09:37Z</time>
      </trkpt>
      <trkpt lat="46.57994" lon="6.05772">
        <ele>1044.1</ele>
        <time>2021-11-18T09:09:41Z</time>
      </trkpt>
      <trkpt lat="46.57992" lon="6.05779">
        <ele>1043.2</ele>
        <time>2021-11-18T09:09:48Z</time>
      </trkpt>
      <trkpt lat="46.57991" lon="6.05786">
        <ele>1042.8</ele>
        <time>2021-11-18T09:09:52Z</time>
      </trkpt>
      <trkpt lat="46.57991" lon="6.05793">
        <ele>1042.3</ele>
        <time>2021-11-18T09:09:57Z</time>
      </trkpt>
      <trkpt lat="46.5799" lon="6.058">
        <ele>1041.8</ele>
        <time>2021-11-18T09:10:03Z</time>
      </trkpt>
      <trkpt lat="46.57991" lon="6.05807">
        <ele>1041.6</ele>
        <time>2021-11-18T09:10:07Z</time>
      </trkpt>
      <trkpt lat="46.57992" lon="6.05814">
        <ele>1041.3</ele>
        <time>2021-11-18T09:10:12Z</time>
      </trkpt>
      <trkpt lat="46.57993" lon="6.05821">
        <ele>1041.1</ele>
        <time>2021-11-18T09:10:18Z</time>
      </trkpt>
      <trkpt lat="46.57994" lon="6.05828">
        <ele>1041.2</ele>
        <time>2021-11-18T09:10:23Z</time>
      </trkpt>
      <trkpt lat="46.57994" lon="6.05835">
        <ele>1041.2</ele>
        <time>2021-11-18T09:10:28Z</time>
      </trkpt>
      <trkpt lat="46.57994" lon="6.05842">
        <ele>1040.8</ele>
        <time>2021-11-18T09:10:33Z</time>
      </trkpt>
      <trkpt lat="46.57994" lon="6.05848">
        <ele>1040.4</ele>
        <time>2021-11-18T09:10:38Z</time>
      </trkpt>
      <trkpt lat="46.57994" lon="6.05856">
        <ele>1039.1</ele>
        <time>2021-11-18T09:10:45Z</time>
      </trkpt>
      <trkpt lat="46.57993" lon="6.05862">
        <ele>1038.3</ele>
        <time>2021-11-18T09:10:50Z</time>
      </trkpt>
      <trkpt lat="46.57991" lon="6.05869">
        <ele>1037.6</ele>
        <time>2021-11-18T09:10:54Z</time>
      </trkpt>
      <trkpt lat="46.57992" lon="6.05877">
        <ele>1037.2</ele>
        <time>2021-11-18T09:10:58Z</time>
      </trkpt>
      <trkpt lat="46.57992" lon="6.05883">
        <ele>1037.1</ele>
        <time>2021-11-18T09:11:01Z</time>
      </trkpt>
      <trkpt lat="46.57991" lon="6.0589">
        <ele>1037.2</ele>
        <time>2021-11-18T09:11:05Z</time>
      </trkpt>
      <trkpt lat="46.57989" lon="6.05896">
        <ele>1037</ele>
        <time>2021-11-18T09:11:09Z</time>
      </trkpt>
      <trkpt lat="46.57989" lon="6.05904">
        <ele>1037.2</ele>
        <time>2021-11-18T09:11:13Z</time>
      </trkpt>
      <trkpt lat="46.5799" lon="6.05912">
        <ele>1038.2</ele>
        <time>2021-11-18T09:11:17Z</time>
      </trkpt>
      <trkpt lat="46.57988" lon="6.05919">
        <ele>1039.6</ele>
        <time>2021-11-18T09:11:22Z</time>
      </trkpt>
      <trkpt lat="46.57986" lon="6.05925">
        <ele>1040.8</ele>
        <time>2021-11-18T09:11:28Z</time>
      </trkpt>
      <trkpt lat="46.57983" lon="6.05931">
        <ele>1041.5</ele>
        <time>2021-11-18T09:11:34Z</time>
      </trkpt>
      <trkpt lat="46.5798" lon="6.05937">
        <ele>1042.3</ele>
        <time>2021-11-18T09:11:39Z</time>
      </trkpt>
      <trkpt lat="46.57978" lon="6.05944">
        <ele>1043.1</ele>
        <time>2021-11-18T09:11:43Z</time>
      </trkpt>
      <trkpt lat="46.57976" lon="6.0595">
        <ele>1044.1</ele>
        <time>2021-11-18T09:11:47Z</time>
      </trkpt>
      <trkpt lat="46.57976" lon="6.05957">
        <ele>1045.2</ele>
        <time>2021-11-18T09:11:52Z</time>
      </trkpt>
      <trkpt lat="46.57974" lon="6.05965">
        <ele>1046</ele>
        <time>2021-11-18T09:11:58Z</time>
      </trkpt>
      <trkpt lat="46.57975" lon="6.05971">
        <ele>1046.7</ele>
        <time>2021-11-18T09:12:03Z</time>
      </trkpt>
      <trkpt lat="46.57975" lon="6.05979">
        <ele>1047.1</ele>
        <time>2021-11-18T09:12:09Z</time>
      </trkpt>
      <trkpt lat="46.57974" lon="6.05986">
        <ele>1047.9</ele>
        <time>2021-11-18T09:12:14Z</time>
      </trkpt>
      <trkpt lat="46.57974" lon="6.05992">
        <ele>1048.6</ele>
        <time>2021-11-18T09:12:19Z</time>
      </trkpt>
      <trkpt lat="46.57973" lon="6.05999">
        <ele>1048.6</ele>
        <time>2021-11-18T09:12:26Z</time>
      </trkpt>
      <trkpt lat="46.57975" lon="6.06006">
        <ele>1048.3</ele>
        <time>2021-11-18T09:12:33Z</time>
      </trkpt>
      <trkpt lat="46.57975" lon="6.06013">
        <ele>1048.8</ele>
        <time>2021-11-18T09:12:38Z</time>
      </trkpt>
      <trkpt lat="46.57977" lon="6.06021">
        <ele>1049.3</ele>
        <time>2021-11-18T09:12:44Z</time>
      </trkpt>
      <trkpt lat="46.5798" lon="6.06027">
        <ele>1049.9</ele>
        <time>2021-11-18T09:12:51Z</time>
      </trkpt>
      <trkpt lat="46.57981" lon="6.06034">
        <ele>1050.9</ele>
        <time>2021-11-18T09:12:56Z</time>
      </trkpt>
      <trkpt lat="46.57982" lon="6.06042">
        <ele>1052.3</ele>
        <time>2021-11-18T09:13:01Z</time>
      </trkpt>
      <trkpt lat="46.57984" lon="6.06049">
        <ele>1054.4</ele>
        <time>2021-11-18T09:13:08Z</time>
      </trkpt>
      <trkpt lat="46.57986" lon="6.06055">
        <ele>1055.9</ele>
        <time>2021-11-18T09:13:12Z</time>
      </trkpt>
      <trkpt lat="46.57987" lon="6.06062">
        <ele>1056.8</ele>
        <time>2021-11-18T09:13:17Z</time>
      </trkpt>
      <trkpt lat="46.57986" lon="6.0607">
        <ele>1057.9</ele>
        <time>2021-11-18T09:13:22Z</time>
      </trkpt>
      <trkpt lat="46.57987" lon="6.06077">
        <ele>1059.2</ele>
        <time>2021-11-18T09:13:26Z</time>
      </trkpt>
      <trkpt lat="46.57989" lon="6.06083">
        <ele>1061</ele>
        <time>2021-11-18T09:13:32Z</time>
      </trkpt>
      <trkpt lat="46.57991" lon="6.06091">
        <ele>1062.5</ele>
        <time>2021-11-18T09:13:37Z</time>
      </trkpt>
      <trkpt lat="46.57994" lon="6.06098">
        <ele>1064</ele>
        <time>2021-11-18T09:13:40Z</time>
      </trkpt>
      <trkpt lat="46.57994" lon="6.06105">
        <ele>1067.9</ele>
        <time>2021-11-18T09:13:53Z</time>
      </trkpt>
      <trkpt lat="46.57992" lon="6.06111">
        <ele>1068.7</ele>
        <time>2021-11-18T09:13:58Z</time>
      </trkpt>
      <trkpt lat="46.57992" lon="6.06118">
        <ele>1069.3</ele>
        <time>2021-11-18T09:14:04Z</time>
      </trkpt>
      <trkpt lat="46.57991" lon="6.06125">
        <ele>1069.5</ele>
        <time>2021-11-18T09:14:13Z</time>
      </trkpt>
      <trkpt lat="46.57992" lon="6.06132">
        <ele>1068.7</ele>
        <time>2021-11-18T09:14:22Z</time>
      </trkpt>
      <trkpt lat="46.57994" lon="6.06138">
        <ele>1068</ele>
        <time>2021-11-18T09:14:27Z</time>
      </trkpt>
      <trkpt lat="46.57995" lon="6.06146">
        <ele>1067.3</ele>
        <time>2021-11-18T09:14:35Z</time>
      </trkpt>
      <trkpt lat="46.57995" lon="6.06153">
        <ele>1066.6</ele>
        <time>2021-11-18T09:14:41Z</time>
      </trkpt>
      <trkpt lat="46.57997" lon="6.0616">
        <ele>1066.3</ele>
        <time>2021-11-18T09:14:45Z</time>
      </trkpt>
      <trkpt lat="46.57998" lon="6.06168">
        <ele>1066</ele>
        <time>2021-11-18T09:14:49Z</time>
      </trkpt>
      <trkpt lat="46.57998" lon="6.06175">
        <ele>1065.7</ele>
        <time>2021-11-18T09:14:57Z</time>
      </trkpt>
      <trkpt lat="46.57996" lon="6.06182">
        <ele>1065.9</ele>
        <time>2021-11-18T09:15:03Z</time>
      </trkpt>
      <trkpt lat="46.57992" lon="6.06186">
        <ele>1066.1</ele>
        <time>2021-11-18T09:15:09Z</time>
      </trkpt>
      <trkpt lat="46.57989" lon="6.06193">
        <ele>1065.9</ele>
        <time>2021-11-18T09:15:15Z</time>
      </trkpt>
      <trkpt lat="46.57986" lon="6.06197">
        <ele>1065.8</ele>
        <time>2021-11-18T09:15:19Z</time>
      </trkpt>
      <trkpt lat="46.57981" lon="6.06201">
        <ele>1066</ele>
        <time>2021-11-18T09:15:23Z</time>
      </trkpt>
      <trkpt lat="46.57979" lon="6.06208">
        <ele>1066.4</ele>
        <time>2021-11-18T09:15:28Z</time>
      </trkpt>
      <trkpt lat="46.57976" lon="6.06214">
        <ele>1066.6</ele>
        <time>2021-11-18T09:15:32Z</time>
      </trkpt>
      <trkpt lat="46.57972" lon="6.06219">
        <ele>1066.3</ele>
        <time>2021-11-18T09:15:36Z</time>
      </trkpt>
      <trkpt lat="46.57968" lon="6.06224">
        <ele>1066.4</ele>
        <time>2021-11-18T09:15:40Z</time>
      </trkpt>
      <trkpt lat="46.57966" lon="6.06231">
        <ele>1066.8</ele>
        <time>2021-11-18T09:15:44Z</time>
      </trkpt>
      <trkpt lat="46.57967" lon="6.06238">
        <ele>1067.5</ele>
        <time>2021-11-18T09:15:48Z</time>
      </trkpt>
      <trkpt lat="46.57964" lon="6.06243">
        <ele>1068.4</ele>
        <time>2021-11-18T09:15:52Z</time>
      </trkpt>
      <trkpt lat="46.5796" lon="6.06249">
        <ele>1069.4</ele>
        <time>2021-11-18T09:15:56Z</time>
      </trkpt>
      <trkpt lat="46.57955" lon="6.06253">
        <ele>1070.4</ele>
        <time>2021-11-18T09:16:00Z</time>
      </trkpt>
      <trkpt lat="46.57952" lon="6.06258">
        <ele>1071.2</ele>
        <time>2021-11-18T09:16:05Z</time>
      </trkpt>
      <trkpt lat="46.57951" lon="6.06266">
        <ele>1072.2</ele>
        <time>2021-11-18T09:16:12Z</time>
      </trkpt>
      <trkpt lat="46.57952" lon="6.06273">
        <ele>1073</ele>
        <time>2021-11-18T09:16:17Z</time>
      </trkpt>
      <trkpt lat="46.57954" lon="6.06279">
        <ele>1073.1</ele>
        <time>2021-11-18T09:16:22Z</time>
      </trkpt>
      <trkpt lat="46.57956" lon="6.06286">
        <ele>1073</ele>
        <time>2021-11-18T09:16:27Z</time>
      </trkpt>
      <trkpt lat="46.57959" lon="6.06291">
        <ele>1073.2</ele>
        <time>2021-11-18T09:16:30Z</time>
      </trkpt>
      <trkpt lat="46.57961" lon="6.06297">
        <ele>1073.6</ele>
        <time>2021-11-18T09:16:33Z</time>
      </trkpt>
      <trkpt lat="46.57963" lon="6.06306">
        <ele>1074.2</ele>
        <time>2021-11-18T09:16:37Z</time>
      </trkpt>
      <trkpt lat="46.57962" lon="6.06313">
        <ele>1075.2</ele>
        <time>2021-11-18T09:16:41Z</time>
      </trkpt>
      <trkpt lat="46.57961" lon="6.0632">
        <ele>1076.1</ele>
        <time>2021-11-18T09:16:45Z</time>
      </trkpt>
      <trkpt lat="46.57964" lon="6.06326">
        <ele>1077.2</ele>
        <time>2021-11-18T09:16:49Z</time>
      </trkpt>
      <trkpt lat="46.57968" lon="6.06332">
        <ele>1078.3</ele>
        <time>2021-11-18T09:16:54Z</time>
      </trkpt>
      <trkpt lat="46.5797" lon="6.06338">
        <ele>1078.6</ele>
        <time>2021-11-18T09:17:00Z</time>
      </trkpt>
      <trkpt lat="46.57972" lon="6.06344">
        <ele>1078.9</ele>
        <time>2021-11-18T09:17:06Z</time>
      </trkpt>
      <trkpt lat="46.57975" lon="6.0635">
        <ele>1079.3</ele>
        <time>2021-11-18T09:17:12Z</time>
      </trkpt>
      <trkpt lat="46.57979" lon="6.06357">
        <ele>1079.8</ele>
        <time>2021-11-18T09:17:16Z</time>
      </trkpt>
      <trkpt lat="46.57982" lon="6.06362">
        <ele>1080.4</ele>
        <time>2021-11-18T09:17:20Z</time>
      </trkpt>
      <trkpt lat="46.57986" lon="6.06366">
        <ele>1081</ele>
        <time>2021-11-18T09:17:24Z</time>
      </trkpt>
      <trkpt lat="46.57991" lon="6.06368">
        <ele>1081.2</ele>
        <time>2021-11-18T09:17:27Z</time>
      </trkpt>
      <trkpt lat="46.57995" lon="6.06371">
        <ele>1081.6</ele>
        <time>2021-11-18T09:17:30Z</time>
      </trkpt>
      <trkpt lat="46.57999" lon="6.06376">
        <ele>1082.1</ele>
        <time>2021-11-18T09:17:34Z</time>
      </trkpt>
      <trkpt lat="46.58004" lon="6.0638">
        <ele>1083.2</ele>
        <time>2021-11-18T09:17:39Z</time>
      </trkpt>
      <trkpt lat="46.58009" lon="6.06383">
        <ele>1084</ele>
        <time>2021-11-18T09:17:42Z</time>
      </trkpt>
      <trkpt lat="46.58013" lon="6.06387">
        <ele>1085.7</ele>
        <time>2021-11-18T09:17:46Z</time>
      </trkpt>
      <trkpt lat="46.58014" lon="6.06394">
        <ele>1086.7</ele>
        <time>2021-11-18T09:17:53Z</time>
      </trkpt>
      <trkpt lat="46.58016" lon="6.06402">
        <ele>1086.5</ele>
        <time>2021-11-18T09:17:58Z</time>
      </trkpt>
      <trkpt lat="46.58018" lon="6.06408">
        <ele>1085.9</ele>
        <time>2021-11-18T09:18:03Z</time>
      </trkpt>
      <trkpt lat="46.58022" lon="6.06415">
        <ele>1085.5</ele>
        <time>2021-11-18T09:18:08Z</time>
      </trkpt>
      <trkpt lat="46.58025" lon="6.06422">
        <ele>1085.5</ele>
        <time>2021-11-18T09:18:12Z</time>
      </trkpt>
      <trkpt lat="46.58027" lon="6.06428">
        <ele>1085.7</ele>
        <time>2021-11-18T09:18:16Z</time>
      </trkpt>
      <trkpt lat="46.5803" lon="6.06433">
        <ele>1086.1</ele>
        <time>2021-11-18T09:18:21Z</time>
      </trkpt>
      <trkpt lat="46.58033" lon="6.0644">
        <ele>1086.9</ele>
        <time>2021-11-18T09:18:26Z</time>
      </trkpt>
      <trkpt lat="46.58034" lon="6.06446">
        <ele>1087.7</ele>
        <time>2021-11-18T09:18:32Z</time>
      </trkpt>
      <trkpt lat="46.58036" lon="6.06453">
        <ele>1087.5</ele>
        <time>2021-11-18T09:18:40Z</time>
      </trkpt>
      <trkpt lat="46.58036" lon="6.0646">
        <ele>1086.5</ele>
        <time>2021-11-18T09:18:46Z</time>
      </trkpt>
      <trkpt lat="46.58039" lon="6.06467">
        <ele>1085.5</ele>
        <time>2021-11-18T09:18:52Z</time>
      </trkpt>
      <trkpt lat="46.58042" lon="6.06472">
        <ele>1084.9</ele>
        <time>2021-11-18T09:18:56Z</time>
      </trkpt>
      <trkpt lat="46.58046" lon="6.06478">
        <ele>1084</ele>
        <time>2021-11-18T09:19:01Z</time>
      </trkpt>
      <trkpt lat="46.58048" lon="6.06485">
        <ele>1083.2</ele>
        <time>2021-11-18T09:19:06Z</time>
      </trkpt>
      <trkpt lat="46.5805" lon="6.06492">
        <ele>1082.9</ele>
        <time>2021-11-18T09:19:09Z</time>
      </trkpt>
      <trkpt lat="46.58051" lon="6.06498">
        <ele>1082.4</ele>
        <time>2021-11-18T09:19:13Z</time>
      </trkpt>
      <trkpt lat="46.58052" lon="6.06505">
        <ele>1081.2</ele>
        <time>2021-11-18T09:19:18Z</time>
      </trkpt>
      <trkpt lat="46.58048" lon="6.06509">
        <ele>1080</ele>
        <time>2021-11-18T09:19:27Z</time>
      </trkpt>
      <trkpt lat="46.58043" lon="6.0651">
        <ele>1079.5</ele>
        <time>2021-11-18T09:19:33Z</time>
      </trkpt>
      <trkpt lat="46.58038" lon="6.06511">
        <ele>1079.6</ele>
        <time>2021-11-18T09:19:39Z</time>
      </trkpt>
      <trkpt lat="46.58033" lon="6.06511">
        <ele>1079.5</ele>
        <time>2021-11-18T09:19:44Z</time>
      </trkpt>
      <trkpt lat="46.58028" lon="6.06513">
        <ele>1079.4</ele>
        <time>2021-11-18T09:19:50Z</time>
      </trkpt>
      <trkpt lat="46.58025" lon="6.06519">
        <ele>1079.5</ele>
        <time>2021-11-18T09:19:55Z</time>
      </trkpt>
      <trkpt lat="46.58021" lon="6.06522">
        <ele>1079.7</ele>
        <time>2021-11-18T09:19:59Z</time>
      </trkpt>
      <trkpt lat="46.58016" lon="6.06526">
        <ele>1080</ele>
        <time>2021-11-18T09:20:04Z</time>
      </trkpt>
      <trkpt lat="46.58012" lon="6.06531">
        <ele>1080.9</ele>
        <time>2021-11-18T09:20:09Z</time>
      </trkpt>
      <trkpt lat="46.58008" lon="6.06537">
        <ele>1081.7</ele>
        <time>2021-11-18T09:20:14Z</time>
      </trkpt>
      <trkpt lat="46.58004" lon="6.06541">
        <ele>1082.2</ele>
        <time>2021-11-18T09:20:17Z</time>
      </trkpt>
      <trkpt lat="46.58001" lon="6.06547">
        <ele>1082.6</ele>
        <time>2021-11-18T09:20:23Z</time>
      </trkpt>
      <trkpt lat="46.58002" lon="6.06554">
        <ele>1081.8</ele>
        <time>2021-11-18T09:20:33Z</time>
      </trkpt>
      <trkpt lat="46.58001" lon="6.06561">
        <ele>1080.9</ele>
        <time>2021-11-18T09:20:40Z</time>
      </trkpt>
      <trkpt lat="46.58001" lon="6.06567">
        <ele>1080.3</ele>
        <time>2021-11-18T09:20:46Z</time>
      </trkpt>
      <trkpt lat="46.57999" lon="6.06575">
        <ele>1080.3</ele>
        <time>2021-11-18T09:20:51Z</time>
      </trkpt>
      <trkpt lat="46.57997" lon="6.06581">
        <ele>1080.7</ele>
        <time>2021-11-18T09:20:54Z</time>
      </trkpt>
      <trkpt lat="46.57994" lon="6.06586">
        <ele>1081.1</ele>
        <time>2021-11-18T09:20:58Z</time>
      </trkpt>
      <trkpt lat="46.5799" lon="6.0659">
        <ele>1081.4</ele>
        <time>2021-11-18T09:21:02Z</time>
      </trkpt>
      <trkpt lat="46.57987" lon="6.06595">
        <ele>1081.7</ele>
        <time>2021-11-18T09:21:06Z</time>
      </trkpt>
      <trkpt lat="46.57985" lon="6.06602">
        <ele>1082</ele>
        <time>2021-11-18T09:21:10Z</time>
      </trkpt>
      <trkpt lat="46.57982" lon="6.06608">
        <ele>1082.2</ele>
        <time>2021-11-18T09:21:14Z</time>
      </trkpt>
      <trkpt lat="46.5798" lon="6.06614">
        <ele>1082.5</ele>
        <time>2021-11-18T09:21:18Z</time>
      </trkpt>
      <trkpt lat="46.57977" lon="6.06621">
        <ele>1082.8</ele>
        <time>2021-11-18T09:21:23Z</time>
      </trkpt>
      <trkpt lat="46.57975" lon="6.06627">
        <ele>1082.7</ele>
        <time>2021-11-18T09:21:29Z</time>
      </trkpt>
      <trkpt lat="46.57972" lon="6.06634">
        <ele>1082.1</ele>
        <time>2021-11-18T09:21:35Z</time>
      </trkpt>
      <trkpt lat="46.57972" lon="6.06641">
        <ele>1081.3</ele>
        <time>2021-11-18T09:21:41Z</time>
      </trkpt>
      <trkpt lat="46.57971" lon="6.06649">
        <ele>1080.9</ele>
        <time>2021-11-18T09:21:46Z</time>
      </trkpt>
      <trkpt lat="46.5797" lon="6.06656">
        <ele>1080.8</ele>
        <time>2021-11-18T09:21:52Z</time>
      </trkpt>
      <trkpt lat="46.57967" lon="6.06662">
        <ele>1080.7</ele>
        <time>2021-11-18T09:21:58Z</time>
      </trkpt>
      <trkpt lat="46.57966" lon="6.0667">
        <ele>1080.4</ele>
        <time>2021-11-18T09:22:04Z</time>
      </trkpt>
      <trkpt lat="46.57966" lon="6.06677">
        <ele>1080.3</ele>
        <time>2021-11-18T09:22:08Z</time>
      </trkpt>
      <trkpt lat="46.57964" lon="6.06683">
        <ele>1080.2</ele>
        <time>2021-11-18T09:22:14Z</time>
      </trkpt>
      <trkpt lat="46.5796" lon="6.06687">
        <ele>1079.7</ele>
        <time>2021-11-18T09:22:23Z</time>
      </trkpt>
      <trkpt lat="46.57957" lon="6.06693">
        <ele>1080</ele>
        <time>2021-11-18T09:22:28Z</time>
      </trkpt>
      <trkpt lat="46.57955" lon="6.06699">
        <ele>1080.2</ele>
        <time>2021-11-18T09:22:33Z</time>
      </trkpt>
      <trkpt lat="46.57955" lon="6.06706">
        <ele>1080.4</ele>
        <time>2021-11-18T09:22:37Z</time>
      </trkpt>
      <trkpt lat="46.57952" lon="6.06712">
        <ele>1080.4</ele>
        <time>2021-11-18T09:22:42Z</time>
      </trkpt>
      <trkpt lat="46.5795" lon="6.06718">
        <ele>1080.5</ele>
        <time>2021-11-18T09:22:47Z</time>
      </trkpt>
      <trkpt lat="46.57947" lon="6.06725">
        <ele>1080.7</ele>
        <time>2021-11-18T09:22:51Z</time>
      </trkpt>
      <trkpt lat="46.57944" lon="6.06731">
        <ele>1081</ele>
        <time>2021-11-18T09:22:55Z</time>
      </trkpt>
      <trkpt lat="46.57943" lon="6.06738">
        <ele>1081.3</ele>
        <time>2021-11-18T09:23:00Z</time>
      </trkpt>
      <trkpt lat="46.57941" lon="6.06744">
        <ele>1081.8</ele>
        <time>2021-11-18T09:23:07Z</time>
      </trkpt>
      <trkpt lat="46.57938" lon="6.0675">
        <ele>1082.4</ele>
        <time>2021-11-18T09:23:12Z</time>
      </trkpt>
      <trkpt lat="46.57937" lon="6.06758">
        <ele>1083.1</ele>
        <time>2021-11-18T09:23:18Z</time>
      </trkpt>
      <trkpt lat="46.57935" lon="6.06764">
        <ele>1083.7</ele>
        <time>2021-11-18T09:23:28Z</time>
      </trkpt>
      <trkpt lat="46.57935" lon="6.06772">
        <ele>1083.9</ele>
        <time>2021-11-18T09:23:33Z</time>
      </trkpt>
      <trkpt lat="46.57932" lon="6.06778">
        <ele>1083.7</ele>
        <time>2021-11-18T09:23:40Z</time>
      </trkpt>
      <trkpt lat="46.57929" lon="6.06783">
        <ele>1083.7</ele>
        <time>2021-11-18T09:23:45Z</time>
      </trkpt>
      <trkpt lat="46.57924" lon="6.06787">
        <ele>1083.9</ele>
        <time>2021-11-18T09:23:49Z</time>
      </trkpt>
      <trkpt lat="46.5792" lon="6.06791">
        <ele>1084.3</ele>
        <time>2021-11-18T09:23:53Z</time>
      </trkpt>
      <trkpt lat="46.57916" lon="6.06794">
        <ele>1084.6</ele>
        <time>2021-11-18T09:23:57Z</time>
      </trkpt>
      <trkpt lat="46.5791" lon="6.06797">
        <ele>1084.8</ele>
        <time>2021-11-18T09:24:02Z</time>
      </trkpt>
      <trkpt lat="46.57906" lon="6.06798">
        <ele>1084.9</ele>
        <time>2021-11-18T09:24:06Z</time>
      </trkpt>
      <trkpt lat="46.57901" lon="6.06801">
        <ele>1085.1</ele>
        <time>2021-11-18T09:24:11Z</time>
      </trkpt>
      <trkpt lat="46.57896" lon="6.06803">
        <ele>1085.7</ele>
        <time>2021-11-18T09:24:17Z</time>
      </trkpt>
      <trkpt lat="46.57892" lon="6.06805">
        <ele>1086.9</ele>
        <time>2021-11-18T09:24:22Z</time>
      </trkpt>
      <trkpt lat="46.57886" lon="6.06805">
        <ele>1088.5</ele>
        <time>2021-11-18T09:24:28Z</time>
      </trkpt>
      <trkpt lat="46.57881" lon="6.06805">
        <ele>1089.2</ele>
        <time>2021-11-18T09:24:32Z</time>
      </trkpt>
      <trkpt lat="46.57877" lon="6.06804">
        <ele>1089.6</ele>
        <time>2021-11-18T09:24:36Z</time>
      </trkpt>
      <trkpt lat="46.57872" lon="6.06802">
        <ele>1089.8</ele>
        <time>2021-11-18T09:24:40Z</time>
      </trkpt>
      <trkpt lat="46.57867" lon="6.06799">
        <ele>1089.9</ele>
        <time>2021-11-18T09:24:45Z</time>
      </trkpt>
      <trkpt lat="46.57863" lon="6.06795">
        <ele>1090.2</ele>
        <time>2021-11-18T09:24:51Z</time>
      </trkpt>
      <trkpt lat="46.57858" lon="6.06792">
        <ele>1090.4</ele>
        <time>2021-11-18T09:24:56Z</time>
      </trkpt>
      <trkpt lat="46.57854" lon="6.0679">
        <ele>1090.6</ele>
        <time>2021-11-18T09:25:00Z</time>
      </trkpt>
      <trkpt lat="46.57849" lon="6.06789">
        <ele>1090.9</ele>
        <time>2021-11-18T09:25:04Z</time>
      </trkpt>
      <trkpt lat="46.57844" lon="6.06787">
        <ele>1091.5</ele>
        <time>2021-11-18T09:25:10Z</time>
      </trkpt>
      <trkpt lat="46.5784" lon="6.06785">
        <ele>1091.9</ele>
        <time>2021-11-18T09:25:15Z</time>
      </trkpt>
      <trkpt lat="46.57835" lon="6.06783">
        <ele>1092.4</ele>
        <time>2021-11-18T09:25:20Z</time>
      </trkpt>
      <trkpt lat="46.5783" lon="6.06782">
        <ele>1092.8</ele>
        <time>2021-11-18T09:25:27Z</time>
      </trkpt>
      <trkpt lat="46.57826" lon="6.06785">
        <ele>1092.8</ele>
        <time>2021-11-18T09:25:34Z</time>
      </trkpt>
      <trkpt lat="46.57822" lon="6.0679">
        <ele>1092.6</ele>
        <time>2021-11-18T09:25:40Z</time>
      </trkpt>
      <trkpt lat="46.57818" lon="6.06794">
        <ele>1092.4</ele>
        <time>2021-11-18T09:25:45Z</time>
      </trkpt>
      <trkpt lat="46.57815" lon="6.06801">
        <ele>1092.3</ele>
        <time>2021-11-18T09:25:50Z</time>
      </trkpt>
      <trkpt lat="46.57812" lon="6.06806">
        <ele>1092.1</ele>
        <time>2021-11-18T09:25:54Z</time>
      </trkpt>
      <trkpt lat="46.57808" lon="6.06812">
        <ele>1091.8</ele>
        <time>2021-11-18T09:25:59Z</time>
      </trkpt>
      <trkpt lat="46.57804" lon="6.06817">
        <ele>1091.5</ele>
        <time>2021-11-18T09:26:05Z</time>
      </trkpt>
      <trkpt lat="46.57799" lon="6.0682">
        <ele>1091.1</ele>
        <time>2021-11-18T09:26:10Z</time>
      </trkpt>
      <trkpt lat="46.57794" lon="6.06822">
        <ele>1090.4</ele>
        <time>2021-11-18T09:26:15Z</time>
      </trkpt>
      <trkpt lat="46.57789" lon="6.06826">
        <ele>1089.6</ele>
        <time>2021-11-18T09:26:24Z</time>
      </trkpt>
      <trkpt lat="46.57785" lon="6.0683">
        <ele>1089.7</ele>
        <time>2021-11-18T09:26:28Z</time>
      </trkpt>
      <trkpt lat="46.57781" lon="6.06833">
        <ele>1089.8</ele>
        <time>2021-11-18T09:26:32Z</time>
      </trkpt>
      <trkpt lat="46.57776" lon="6.06834">
        <ele>1090</ele>
        <time>2021-11-18T09:26:37Z</time>
      </trkpt>
      <trkpt lat="46.57771" lon="6.06834">
        <ele>1090.1</ele>
        <time>2021-11-18T09:26:42Z</time>
      </trkpt>
      <trkpt lat="46.57766" lon="6.06832">
        <ele>1089.8</ele>
        <time>2021-11-18T09:26:47Z</time>
      </trkpt>
      <trkpt lat="46.57761" lon="6.06833">
        <ele>1089.6</ele>
        <time>2021-11-18T09:26:53Z</time>
      </trkpt>
      <trkpt lat="46.57756" lon="6.06831">
        <ele>1089.5</ele>
        <time>2021-11-18T09:26:58Z</time>
      </trkpt>
      <trkpt lat="46.57753" lon="6.06826">
        <ele>1089</ele>
        <time>2021-11-18T09:27:05Z</time>
      </trkpt>
      <trkpt lat="46.5775" lon="6.06821">
        <ele>1088.6</ele>
        <time>2021-11-18T09:27:12Z</time>
      </trkpt>
      <trkpt lat="46.57746" lon="6.06816">
        <ele>1088.7</ele>
        <time>2021-11-18T09:27:18Z</time>
      </trkpt>
      <trkpt lat="46.57743" lon="6.0681">
        <ele>1088.6</ele>
        <time>2021-11-18T09:27:23Z</time>
      </trkpt>
      <trkpt lat="46.57739" lon="6.06805">
        <ele>1088.6</ele>
        <time>2021-11-18T09:27:27Z</time>
      </trkpt>
      <trkpt lat="46.57734" lon="6.06802">
        <ele>1088.9</ele>
        <time>2021-11-18T09:27:31Z</time>
      </trkpt>
      <trkpt lat="46.5773" lon="6.06799">
        <ele>1089.4</ele>
        <time>2021-11-18T09:27:35Z</time>
      </trkpt>
      <trkpt lat="46.57725" lon="6.06794">
        <ele>1090.2</ele>
        <time>2021-11-18T09:27:40Z</time>
      </trkpt>
      <trkpt lat="46.5772" lon="6.06789">
        <ele>1091</ele>
        <time>2021-11-18T09:27:45Z</time>
      </trkpt>
      <trkpt lat="46.57717" lon="6.06785">
        <ele>1091.7</ele>
        <time>2021-11-18T09:27:50Z</time>
      </trkpt>
      <trkpt lat="46.57715" lon="6.06778">
        <ele>1092.3</ele>
        <time>2021-11-18T09:27:58Z</time>
      </trkpt>
      <trkpt lat="46.57712" lon="6.06772">
        <ele>1092.1</ele>
        <time>2021-11-18T09:28:05Z</time>
      </trkpt>
      <trkpt lat="46.57709" lon="6.06768">
        <ele>1091.7</ele>
        <time>2021-11-18T09:28:13Z</time>
      </trkpt>
      <trkpt lat="46.57704" lon="6.06765">
        <ele>1091.4</ele>
        <time>2021-11-18T09:28:20Z</time>
      </trkpt>
      <trkpt lat="46.577" lon="6.06761">
        <ele>1091.3</ele>
        <time>2021-11-18T09:28:24Z</time>
      </trkpt>
      <trkpt lat="46.57696" lon="6.06757">
        <ele>1091.3</ele>
        <time>2021-11-18T09:28:28Z</time>
      </trkpt>
      <trkpt lat="46.57693" lon="6.06752">
        <ele>1091.1</ele>
        <time>2021-11-18T09:28:33Z</time>
      </trkpt>
      <trkpt lat="46.5769" lon="6.06746">
        <ele>1091.2</ele>
        <time>2021-11-18T09:28:39Z</time>
      </trkpt>
      <trkpt lat="46.57686" lon="6.06742">
        <ele>1091.6</ele>
        <time>2021-11-18T09:28:45Z</time>
      </trkpt>
      <trkpt lat="46.57681" lon="6.0674">
        <ele>1092</ele>
        <time>2021-11-18T09:28:49Z</time>
      </trkpt>
      <trkpt lat="46.57676" lon="6.06737">
        <ele>1092.4</ele>
        <time>2021-11-18T09:28:53Z</time>
      </trkpt>
      <trkpt lat="46.57671" lon="6.06735">
        <ele>1092.8</ele>
        <time>2021-11-18T09:28:58Z</time>
      </trkpt>
      <trkpt lat="46.57666" lon="6.06731">
        <ele>1092.8</ele>
        <time>2021-11-18T09:29:02Z</time>
      </trkpt>
      <trkpt lat="46.57662" lon="6.06729">
        <ele>1092.8</ele>
        <time>2021-11-18T09:29:06Z</time>
      </trkpt>
      <trkpt lat="46.57657" lon="6.06728">
        <ele>1092.8</ele>
        <time>2021-11-18T09:29:11Z</time>
      </trkpt>
      <trkpt lat="46.57652" lon="6.06724">
        <ele>1093</ele>
        <time>2021-11-18T09:29:15Z</time>
      </trkpt>
      <trkpt lat="46.57648" lon="6.06721">
        <ele>1093</ele>
        <time>2021-11-18T09:29:19Z</time>
      </trkpt>
      <trkpt lat="46.57643" lon="6.06719">
        <ele>1093.2</ele>
        <time>2021-11-18T09:29:25Z</time>
      </trkpt>
      <trkpt lat="46.57638" lon="6.06718">
        <ele>1093.9</ele>
        <time>2021-11-18T09:29:31Z</time>
      </trkpt>
      <trkpt lat="46.57633" lon="6.06719">
        <ele>1094.6</ele>
        <time>2021-11-18T09:29:38Z</time>
      </trkpt>
      <trkpt lat="46.57628" lon="6.0672">
        <ele>1095.1</ele>
        <time>2021-11-18T09:29:43Z</time>
      </trkpt>
      <trkpt lat="46.57623" lon="6.06721">
        <ele>1095.7</ele>
        <time>2021-11-18T09:29:51Z</time>
      </trkpt>
      <trkpt lat="46.57619" lon="6.06723">
        <ele>1095.7</ele>
        <time>2021-11-18T09:29:55Z</time>
      </trkpt>
      <trkpt lat="46.57613" lon="6.06723">
        <ele>1095.5</ele>
        <time>2021-11-18T09:29:59Z</time>
      </trkpt>
      <trkpt lat="46.57609" lon="6.06725">
        <ele>1094.9</ele>
        <time>2021-11-18T09:30:04Z</time>
      </trkpt>
      <trkpt lat="46.57605" lon="6.06728">
        <ele>1094.4</ele>
        <time>2021-11-18T09:30:09Z</time>
      </trkpt>
      <trkpt lat="46.57601" lon="6.06732">
        <ele>1094.6</ele>
        <time>2021-11-18T09:30:13Z</time>
      </trkpt>
      <trkpt lat="46.57596" lon="6.06735">
        <ele>1094.9</ele>
        <time>2021-11-18T09:30:17Z</time>
      </trkpt>
      <trkpt lat="46.5759" lon="6.06738">
        <ele>1095.4</ele>
        <time>2021-11-18T09:30:21Z</time>
      </trkpt>
      <trkpt lat="46.57586" lon="6.06743">
        <ele>1096.2</ele>
        <time>2021-11-18T09:30:25Z</time>
      </trkpt>
      <trkpt lat="46.57582" lon="6.06747">
        <ele>1097.6</ele>
        <time>2021-11-18T09:30:29Z</time>
      </trkpt>
      <trkpt lat="46.57579" lon="6.06753">
        <ele>1100.1</ele>
        <time>2021-11-18T09:30:34Z</time>
      </trkpt>
      <trkpt lat="46.57575" lon="6.06758">
        <ele>1102.4</ele>
        <time>2021-11-18T09:30:41Z</time>
      </trkpt>
      <trkpt lat="46.57571" lon="6.06762">
        <ele>1103.4</ele>
        <time>2021-11-18T09:30:44Z</time>
      </trkpt>
      <trkpt lat="46.57567" lon="6.06766">
        <ele>1104.2</ele>
        <time>2021-11-18T09:30:48Z</time>
      </trkpt>
      <trkpt lat="46.57562" lon="6.06768">
        <ele>1104.7</ele>
        <time>2021-11-18T09:30:53Z</time>
      </trkpt>
      <trkpt lat="46.57556" lon="6.06769">
        <ele>1104.4</ele>
        <time>2021-11-18T09:30:59Z</time>
      </trkpt>
      <trkpt lat="46.57552" lon="6.06771">
        <ele>1104.2</ele>
        <time>2021-11-18T09:31:03Z</time>
      </trkpt>
      <trkpt lat="46.57547" lon="6.06772">
        <ele>1104.7</ele>
        <time>2021-11-18T09:31:08Z</time>
      </trkpt>
      <trkpt lat="46.57542" lon="6.06773">
        <ele>1105.2</ele>
        <time>2021-11-18T09:31:12Z</time>
      </trkpt>
      <trkpt lat="46.57537" lon="6.06773">
        <ele>1105.7</ele>
        <time>2021-11-18T09:31:17Z</time>
      </trkpt>
      <trkpt lat="46.57533" lon="6.06776">
        <ele>1106.2</ele>
        <time>2021-11-18T09:31:22Z</time>
      </trkpt>
      <trkpt lat="46.57525" lon="6.06778">
        <ele>1106.5</ele>
        <time>2021-11-18T09:31:35Z</time>
      </trkpt>
      <trkpt lat="46.5752" lon="6.06776">
        <ele>1106.9</ele>
        <time>2021-11-18T09:31:38Z</time>
      </trkpt>
      <trkpt lat="46.57515" lon="6.06774">
        <ele>1107.2</ele>
        <time>2021-11-18T09:31:41Z</time>
      </trkpt>
      <trkpt lat="46.57511" lon="6.06772">
        <ele>1107.2</ele>
        <time>2021-11-18T09:31:44Z</time>
      </trkpt>
      <trkpt lat="46.57506" lon="6.0677">
        <ele>1107.2</ele>
        <time>2021-11-18T09:31:47Z</time>
      </trkpt>
      <trkpt lat="46.575" lon="6.0677">
        <ele>1107.2</ele>
        <time>2021-11-18T09:31:51Z</time>
      </trkpt>
      <trkpt lat="46.57495" lon="6.06771">
        <ele>1107.9</ele>
        <time>2021-11-18T09:31:57Z</time>
      </trkpt>
      <trkpt lat="46.5749" lon="6.0677">
        <ele>1108.9</ele>
        <time>2021-11-18T09:32:04Z</time>
      </trkpt>
      <trkpt lat="46.57485" lon="6.06769">
        <ele>1109.5</ele>
        <time>2021-11-18T09:32:09Z</time>
      </trkpt>
      <trkpt lat="46.5748" lon="6.06768">
        <ele>1109.9</ele>
        <time>2021-11-18T09:32:14Z</time>
      </trkpt>
      <trkpt lat="46.57476" lon="6.06765">
        <ele>1109.7</ele>
        <time>2021-11-18T09:32:19Z</time>
      </trkpt>
      <trkpt lat="46.57471" lon="6.06763">
        <ele>1109.4</ele>
        <time>2021-11-18T09:32:25Z</time>
      </trkpt>
      <trkpt lat="46.57467" lon="6.06761">
        <ele>1109.3</ele>
        <time>2021-11-18T09:32:30Z</time>
      </trkpt>
      <trkpt lat="46.57462" lon="6.0676">
        <ele>1108.9</ele>
        <time>2021-11-18T09:32:34Z</time>
      </trkpt>
      <trkpt lat="46.57457" lon="6.06757">
        <ele>1108.4</ele>
        <time>2021-11-18T09:32:38Z</time>
      </trkpt>
      <trkpt lat="46.57452" lon="6.06755">
        <ele>1108.1</ele>
        <time>2021-11-18T09:32:42Z</time>
      </trkpt>
      <trkpt lat="46.57448" lon="6.06752">
        <ele>1108</ele>
        <time>2021-11-18T09:32:47Z</time>
      </trkpt>
      <trkpt lat="46.57443" lon="6.06751">
        <ele>1108.1</ele>
        <time>2021-11-18T09:32:52Z</time>
      </trkpt>
      <trkpt lat="46.57439" lon="6.06748">
        <ele>1108.6</ele>
        <time>2021-11-18T09:32:57Z</time>
      </trkpt>
      <trkpt lat="46.57435" lon="6.06743">
        <ele>1108.8</ele>
        <time>2021-11-18T09:33:02Z</time>
      </trkpt>
      <trkpt lat="46.57432" lon="6.06737">
        <ele>1108.9</ele>
        <time>2021-11-18T09:33:07Z</time>
      </trkpt>
      <trkpt lat="46.57429" lon="6.06731">
        <ele>1109.1</ele>
        <time>2021-11-18T09:33:13Z</time>
      </trkpt>
      <trkpt lat="46.57425" lon="6.06727">
        <ele>1110.4</ele>
        <time>2021-11-18T09:33:33Z</time>
      </trkpt>
      <trkpt lat="46.57423" lon="6.06721">
        <ele>1111.2</ele>
        <time>2021-11-18T09:33:37Z</time>
      </trkpt>
      <trkpt lat="46.57421" lon="6.06713">
        <ele>1112.5</ele>
        <time>2021-11-18T09:33:42Z</time>
      </trkpt>
      <trkpt lat="46.5742" lon="6.06706">
        <ele>1113.3</ele>
        <time>2021-11-18T09:33:46Z</time>
      </trkpt>
      <trkpt lat="46.57418" lon="6.067">
        <ele>1114</ele>
        <time>2021-11-18T09:33:50Z</time>
      </trkpt>
      <trkpt lat="46.57415" lon="6.06694">
        <ele>1114.4</ele>
        <time>2021-11-18T09:33:55Z</time>
      </trkpt>
      <trkpt lat="46.57411" lon="6.06688">
        <ele>1114.7</ele>
        <time>2021-11-18T09:34:00Z</time>
      </trkpt>
      <trkpt lat="46.57406" lon="6.06685">
        <ele>1115</ele>
        <time>2021-11-18T09:34:05Z</time>
      </trkpt>
      <trkpt lat="46.57401" lon="6.06684">
        <ele>1114.7</ele>
        <time>2021-11-18T09:34:10Z</time>
      </trkpt>
      <trkpt lat="46.57396" lon="6.06683">
        <ele>1114.3</ele>
        <time>2021-11-18T09:34:14Z</time>
      </trkpt>
      <trkpt lat="46.57391" lon="6.06683">
        <ele>1113.9</ele>
        <time>2021-11-18T09:34:17Z</time>
      </trkpt>
      <trkpt lat="46.57385" lon="6.06683">
        <ele>1113</ele>
        <time>2021-11-18T09:34:21Z</time>
      </trkpt>
      <trkpt lat="46.57381" lon="6.06686">
        <ele>1112</ele>
        <time>2021-11-18T09:34:29Z</time>
      </trkpt>
      <trkpt lat="46.57376" lon="6.06686">
        <ele>1112.1</ele>
        <time>2021-11-18T09:34:35Z</time>
      </trkpt>
      <trkpt lat="46.57372" lon="6.06686">
        <ele>1112.4</ele>
        <time>2021-11-18T09:34:39Z</time>
      </trkpt>
      <trkpt lat="46.57366" lon="6.06684">
        <ele>1112.3</ele>
        <time>2021-11-18T09:34:44Z</time>
      </trkpt>
      <trkpt lat="46.57362" lon="6.06682">
        <ele>1112</ele>
        <time>2021-11-18T09:34:48Z</time>
      </trkpt>
      <trkpt lat="46.57357" lon="6.06679">
        <ele>1111.1</ele>
        <time>2021-11-18T09:34:54Z</time>
      </trkpt>
      <trkpt lat="46.57353" lon="6.06678">
        <ele>1110.2</ele>
        <time>2021-11-18T09:34:59Z</time>
      </trkpt>
      <trkpt lat="46.57347" lon="6.06677">
        <ele>1109</ele>
        <time>2021-11-18T09:35:06Z</time>
      </trkpt>
      <trkpt lat="46.57343" lon="6.06675">
        <ele>1109.3</ele>
        <time>2021-11-18T09:35:10Z</time>
      </trkpt>
      <trkpt lat="46.57338" lon="6.06672">
        <ele>1109.1</ele>
        <time>2021-11-18T09:35:16Z</time>
      </trkpt>
      <trkpt lat="46.57335" lon="6.06668">
        <ele>1109</ele>
        <time>2021-11-18T09:35:20Z</time>
      </trkpt>
      <trkpt lat="46.57331" lon="6.06664">
        <ele>1108.4</ele>
        <time>2021-11-18T09:35:26Z</time>
      </trkpt>
      <trkpt lat="46.57326" lon="6.06661">
        <ele>1107.4</ele>
        <time>2021-11-18T09:35:34Z</time>
      </trkpt>
      <trkpt lat="46.57321" lon="6.06658">
        <ele>1107.8</ele>
        <time>2021-11-18T09:35:37Z</time>
      </trkpt>
      <trkpt lat="46.57317" lon="6.06654">
        <ele>1108.3</ele>
        <time>2021-11-18T09:35:40Z</time>
      </trkpt>
      <trkpt lat="46.57314" lon="6.06649">
        <ele>1109</ele>
        <time>2021-11-18T09:35:44Z</time>
      </trkpt>
      <trkpt lat="46.57308" lon="6.06647">
        <ele>1109.9</ele>
        <time>2021-11-18T09:35:54Z</time>
      </trkpt>
      <trkpt lat="46.57304" lon="6.06647">
        <ele>1109.5</ele>
        <time>2021-11-18T09:36:01Z</time>
      </trkpt>
      <trkpt lat="46.57299" lon="6.06646">
        <ele>1108.6</ele>
        <time>2021-11-18T09:36:06Z</time>
      </trkpt>
      <trkpt lat="46.57294" lon="6.06645">
        <ele>1107.5</ele>
        <time>2021-11-18T09:36:11Z</time>
      </trkpt>
      <trkpt lat="46.57289" lon="6.06646">
        <ele>1106.5</ele>
        <time>2021-11-18T09:36:16Z</time>
      </trkpt>
      <trkpt lat="46.57284" lon="6.06645">
        <ele>1105.9</ele>
        <time>2021-11-18T09:36:19Z</time>
      </trkpt>
      <trkpt lat="46.57279" lon="6.06644">
        <ele>1105.5</ele>
        <time>2021-11-18T09:36:22Z</time>
      </trkpt>
      <trkpt lat="46.57274" lon="6.06643">
        <ele>1105.4</ele>
        <time>2021-11-18T09:36:25Z</time>
      </trkpt>
      <trkpt lat="46.57269" lon="6.06645">
        <ele>1106.5</ele>
        <time>2021-11-18T09:36:29Z</time>
      </trkpt>
      <trkpt lat="46.57265" lon="6.06648">
        <ele>1108</ele>
        <time>2021-11-18T09:36:38Z</time>
      </trkpt>
      <trkpt lat="46.5726" lon="6.06649">
        <ele>1107.5</ele>
        <time>2021-11-18T09:36:46Z</time>
      </trkpt>
      <trkpt lat="46.57255" lon="6.06652">
        <ele>1106.3</ele>
        <time>2021-11-18T09:36:51Z</time>
      </trkpt>
      <trkpt lat="46.5725" lon="6.06654">
        <ele>1104.5</ele>
        <time>2021-11-18T09:36:57Z</time>
      </trkpt>
      <trkpt lat="46.57245" lon="6.06655">
        <ele>1103.1</ele>
        <time>2021-11-18T09:37:03Z</time>
      </trkpt>
      <trkpt lat="46.57241" lon="6.06658">
        <ele>1102</ele>
        <time>2021-11-18T09:37:08Z</time>
      </trkpt>
      <trkpt lat="46.57236" lon="6.06659">
        <ele>1100.4</ele>
        <time>2021-11-18T09:37:15Z</time>
      </trkpt>
      <trkpt lat="46.57232" lon="6.06662">
        <ele>1098.9</ele>
        <time>2021-11-18T09:37:28Z</time>
      </trkpt>
      <trkpt lat="46.57228" lon="6.06666">
        <ele>1097.9</ele>
        <time>2021-11-18T09:37:33Z</time>
      </trkpt>
      <trkpt lat="46.57226" lon="6.06672">
        <ele>1096.5</ele>
        <time>2021-11-18T09:37:38Z</time>
      </trkpt>
      <trkpt lat="46.57221" lon="6.06675">
        <ele>1096.1</ele>
        <time>2021-11-18T09:37:41Z</time>
      </trkpt>
      <trkpt lat="46.57215" lon="6.06676">
        <ele>1095.9</ele>
        <time>2021-11-18T09:37:44Z</time>
      </trkpt>
      <trkpt lat="46.57211" lon="6.06678">
        <ele>1095.9</ele>
        <time>2021-11-18T09:37:47Z</time>
      </trkpt>
      <trkpt lat="46.57206" lon="6.06679">
        <ele>1096.3</ele>
        <time>2021-11-18T09:37:51Z</time>
      </trkpt>
      <trkpt lat="46.57201" lon="6.0668">
        <ele>1097.2</ele>
        <time>2021-11-18T09:37:56Z</time>
      </trkpt>
      <trkpt lat="46.57197" lon="6.06684">
        <ele>1098.2</ele>
        <time>2021-11-18T09:38:03Z</time>
      </trkpt>
      <trkpt lat="46.57201" lon="6.06687">
        <ele>1100.2</ele>
        <time>2021-11-18T09:38:19Z</time>
      </trkpt>
      <trkpt lat="46.57196" lon="6.06687">
        <ele>1102</ele>
        <time>2021-11-18T09:38:30Z</time>
      </trkpt>
      <trkpt lat="46.57192" lon="6.06692">
        <ele>1102</ele>
        <time>2021-11-18T09:38:35Z</time>
      </trkpt>
      <trkpt lat="46.5719" lon="6.06698">
        <ele>1101.7</ele>
        <time>2021-11-18T09:38:41Z</time>
      </trkpt>
      <trkpt lat="46.57185" lon="6.067">
        <ele>1100.8</ele>
        <time>2021-11-18T09:38:47Z</time>
      </trkpt>
      <trkpt lat="46.5718" lon="6.06703">
        <ele>1099.6</ele>
        <time>2021-11-18T09:38:52Z</time>
      </trkpt>
      <trkpt lat="46.57176" lon="6.06705">
        <ele>1098.5</ele>
        <time>2021-11-18T09:38:56Z</time>
      </trkpt>
      <trkpt lat="46.57172" lon="6.06709">
        <ele>1097.7</ele>
        <time>2021-11-18T09:39:01Z</time>
      </trkpt>
      <trkpt lat="46.57168" lon="6.06714">
        <ele>1096.9</ele>
        <time>2021-11-18T09:39:08Z</time>
      </trkpt>
      <trkpt lat="46.57164" lon="6.06718">
        <ele>1095.6</ele>
        <time>2021-11-18T09:39:14Z</time>
      </trkpt>
      <trkpt lat="46.57159" lon="6.0672">
        <ele>1095</ele>
        <time>2021-11-18T09:39:18Z</time>
      </trkpt>
      <trkpt lat="46.57155" lon="6.06724">
        <ele>1094</ele>
        <time>2021-11-18T09:39:24Z</time>
      </trkpt>
      <trkpt lat="46.57152" lon="6.06729">
        <ele>1092.8</ele>
        <time>2021-11-18T09:39:30Z</time>
      </trkpt>
      <trkpt lat="46.57147" lon="6.0673">
        <ele>1092.1</ele>
        <time>2021-11-18T09:39:36Z</time>
      </trkpt>
      <trkpt lat="46.57142" lon="6.06728">
        <ele>1091.9</ele>
        <time>2021-11-18T09:39:41Z</time>
      </trkpt>
      <trkpt lat="46.57137" lon="6.06728">
        <ele>1092</ele>
        <time>2021-11-18T09:39:45Z</time>
      </trkpt>
      <trkpt lat="46.57133" lon="6.06727">
        <ele>1092.6</ele>
        <time>2021-11-18T09:39:49Z</time>
      </trkpt>
      <trkpt lat="46.57129" lon="6.06723">
        <ele>1094.1</ele>
        <time>2021-11-18T09:39:56Z</time>
      </trkpt>
      <trkpt lat="46.57125" lon="6.0672">
        <ele>1095.6</ele>
        <time>2021-11-18T09:40:11Z</time>
      </trkpt>
      <trkpt lat="46.57119" lon="6.06717">
        <ele>1096.6</ele>
        <time>2021-11-18T09:40:18Z</time>
      </trkpt>
      <trkpt lat="46.57115" lon="6.06716">
        <ele>1097.2</ele>
        <time>2021-11-18T09:40:21Z</time>
      </trkpt>
      <trkpt lat="46.57109" lon="6.06713">
        <ele>1097.8</ele>
        <time>2021-11-18T09:40:26Z</time>
      </trkpt>
      <trkpt lat="46.57105" lon="6.06709">
        <ele>1098.4</ele>
        <time>2021-11-18T09:40:29Z</time>
      </trkpt>
      <trkpt lat="46.571" lon="6.06706">
        <ele>1099.2</ele>
        <time>2021-11-18T09:40:32Z</time>
      </trkpt>
      <trkpt lat="46.57093" lon="6.06704">
        <ele>1100.7</ele>
        <time>2021-11-18T09:40:40Z</time>
      </trkpt>
      <trkpt lat="46.57087" lon="6.06704">
        <ele>1101.1</ele>
        <time>2021-11-18T09:40:43Z</time>
      </trkpt>
      <trkpt lat="46.57083" lon="6.06703">
        <ele>1101.9</ele>
        <time>2021-11-18T09:40:47Z</time>
      </trkpt>
      <trkpt lat="46.57078" lon="6.06702">
        <ele>1103.4</ele>
        <time>2021-11-18T09:40:53Z</time>
      </trkpt>
      <trkpt lat="46.57072" lon="6.06701">
        <ele>1105</ele>
        <time>2021-11-18T09:40:58Z</time>
      </trkpt>
      <trkpt lat="46.57067" lon="6.06701">
        <ele>1106.6</ele>
        <time>2021-11-18T09:41:03Z</time>
      </trkpt>
      <trkpt lat="46.57062" lon="6.06703">
        <ele>1108.1</ele>
        <time>2021-11-18T09:41:08Z</time>
      </trkpt>
      <trkpt lat="46.57057" lon="6.06705">
        <ele>1109.2</ele>
        <time>2021-11-18T09:41:12Z</time>
      </trkpt>
      <trkpt lat="46.57052" lon="6.06706">
        <ele>1110</ele>
        <time>2021-11-18T09:41:17Z</time>
      </trkpt>
      <trkpt lat="46.57047" lon="6.06707">
        <ele>1110.2</ele>
        <time>2021-11-18T09:41:22Z</time>
      </trkpt>
      <trkpt lat="46.57043" lon="6.06707">
        <ele>1110.4</ele>
        <time>2021-11-18T09:41:27Z</time>
      </trkpt>
      <trkpt lat="46.57035" lon="6.06706">
        <ele>1110.7</ele>
        <time>2021-11-18T09:41:37Z</time>
      </trkpt>
      <trkpt lat="46.57031" lon="6.06707">
        <ele>1110.5</ele>
        <time>2021-11-18T09:41:40Z</time>
      </trkpt>
      <trkpt lat="46.57026" lon="6.06707">
        <ele>1110.2</ele>
        <time>2021-11-18T09:41:44Z</time>
      </trkpt>
      <trkpt lat="46.57022" lon="6.06706">
        <ele>1108.7</ele>
        <time>2021-11-18T09:41:53Z</time>
      </trkpt>
      <trkpt lat="46.57016" lon="6.06703">
        <ele>1107.7</ele>
        <time>2021-11-18T09:41:59Z</time>
      </trkpt>
      <trkpt lat="46.57011" lon="6.06701">
        <ele>1107.7</ele>
        <time>2021-11-18T09:42:02Z</time>
      </trkpt>
      <trkpt lat="46.57006" lon="6.06699">
        <ele>1107.6</ele>
        <time>2021-11-18T09:42:06Z</time>
      </trkpt>
      <trkpt lat="46.57001" lon="6.06696">
        <ele>1107.4</ele>
        <time>2021-11-18T09:42:11Z</time>
      </trkpt>
      <trkpt lat="46.56996" lon="6.06694">
        <ele>1107.7</ele>
        <time>2021-11-18T09:42:17Z</time>
      </trkpt>
      <trkpt lat="46.56991" lon="6.06692">
        <ele>1107.7</ele>
        <time>2021-11-18T09:42:21Z</time>
      </trkpt>
      <trkpt lat="46.56986" lon="6.06691">
        <ele>1107</ele>
        <time>2021-11-18T09:42:28Z</time>
      </trkpt>
      <trkpt lat="46.56981" lon="6.06691">
        <ele>1106.7</ele>
        <time>2021-11-18T09:42:36Z</time>
      </trkpt>
      <trkpt lat="46.56976" lon="6.06691">
        <ele>1106.3</ele>
        <time>2021-11-18T09:42:40Z</time>
      </trkpt>
      <trkpt lat="46.56971" lon="6.06691">
        <ele>1105.8</ele>
        <time>2021-11-18T09:42:44Z</time>
      </trkpt>
      <trkpt lat="46.56966" lon="6.0669">
        <ele>1105.6</ele>
        <time>2021-11-18T09:42:48Z</time>
      </trkpt>
      <trkpt lat="46.56961" lon="6.06689">
        <ele>1105</ele>
        <time>2021-11-18T09:42:52Z</time>
      </trkpt>
      <trkpt lat="46.56956" lon="6.06687">
        <ele>1104.1</ele>
        <time>2021-11-18T09:43:01Z</time>
      </trkpt>
      <trkpt lat="46.56951" lon="6.0669">
        <ele>1102.9</ele>
        <time>2021-11-18T09:43:11Z</time>
      </trkpt>
      <trkpt lat="46.56947" lon="6.06692">
        <ele>1101.5</ele>
        <time>2021-11-18T09:43:17Z</time>
      </trkpt>
      <trkpt lat="46.56942" lon="6.06695">
        <ele>1100.2</ele>
        <time>2021-11-18T09:43:23Z</time>
      </trkpt>
      <trkpt lat="46.56937" lon="6.06696">
        <ele>1099.4</ele>
        <time>2021-11-18T09:43:28Z</time>
      </trkpt>
      <trkpt lat="46.56933" lon="6.06693">
        <ele>1098.8</ele>
        <time>2021-11-18T09:43:34Z</time>
      </trkpt>
      <trkpt lat="46.56929" lon="6.06697">
        <ele>1105.3</ele>
        <time>2021-11-18T09:44:22Z</time>
      </trkpt>
      <trkpt lat="46.56925" lon="6.06702">
        <ele>1108</ele>
        <time>2021-11-18T09:45:11Z</time>
      </trkpt>
      <trkpt lat="46.56928" lon="6.06696">
        <ele>1111.9</ele>
        <time>2021-11-18T09:46:24Z</time>
      </trkpt>
      <trkpt lat="46.56928" lon="6.06689">
        <ele>1112.2</ele>
        <time>2021-11-18T09:46:28Z</time>
      </trkpt>
      <trkpt lat="46.56926" lon="6.06696">
        <ele>1114.5</ele>
        <time>2021-11-18T09:46:46Z</time>
      </trkpt>
      <trkpt lat="46.56925" lon="6.06702">
        <ele>1112.9</ele>
        <time>2021-11-18T09:47:00Z</time>
      </trkpt>
      <trkpt lat="46.56925" lon="6.06709">
        <ele>1105.9</ele>
        <time>2021-11-18T09:47:58Z</time>
      </trkpt>
      <trkpt lat="46.56923" lon="6.06715">
        <ele>1106.6</ele>
        <time>2021-11-18T09:48:04Z</time>
      </trkpt>
      <trkpt lat="46.56923" lon="6.06722">
        <ele>1107.7</ele>
        <time>2021-11-18T09:48:10Z</time>
      </trkpt>
      <trkpt lat="46.56921" lon="6.06729">
        <ele>1108.8</ele>
        <time>2021-11-18T09:48:18Z</time>
      </trkpt>
      <trkpt lat="46.56917" lon="6.06735">
        <ele>1108.3</ele>
        <time>2021-11-18T09:48:46Z</time>
      </trkpt>
      <trkpt lat="46.56916" lon="6.06742">
        <ele>1108.3</ele>
        <time>2021-11-18T09:48:51Z</time>
      </trkpt>
      <trkpt lat="46.56917" lon="6.06748">
        <ele>1108</ele>
        <time>2021-11-18T09:48:57Z</time>
      </trkpt>
      <trkpt lat="46.56917" lon="6.06755">
        <ele>1107.6</ele>
        <time>2021-11-18T09:49:18Z</time>
      </trkpt>
      <trkpt lat="46.56911" lon="6.06759">
        <ele>1107.8</ele>
        <time>2021-11-18T09:49:39Z</time>
      </trkpt>
      <trkpt lat="46.56907" lon="6.06762">
        <ele>1108.4</ele>
        <time>2021-11-18T09:49:42Z</time>
      </trkpt>
      <trkpt lat="46.56903" lon="6.06766">
        <ele>1109.1</ele>
        <time>2021-11-18T09:49:46Z</time>
      </trkpt>
      <trkpt lat="46.56899" lon="6.06769">
        <ele>1109.4</ele>
        <time>2021-11-18T09:49:52Z</time>
      </trkpt>
      <trkpt lat="46.56895" lon="6.06774">
        <ele>1109.8</ele>
        <time>2021-11-18T09:49:58Z</time>
      </trkpt>
      <trkpt lat="46.56893" lon="6.0678">
        <ele>1110</ele>
        <time>2021-11-18T09:50:03Z</time>
      </trkpt>
      <trkpt lat="46.56891" lon="6.06787">
        <ele>1110</ele>
        <time>2021-11-18T09:50:08Z</time>
      </trkpt>
      <trkpt lat="46.56889" lon="6.06793">
        <ele>1109.7</ele>
        <time>2021-11-18T09:50:15Z</time>
      </trkpt>
      <trkpt lat="46.56887" lon="6.06798">
        <ele>1109</ele>
        <time>2021-11-18T09:50:20Z</time>
      </trkpt>
      <trkpt lat="46.56882" lon="6.06802">
        <ele>1108.7</ele>
        <time>2021-11-18T09:50:25Z</time>
      </trkpt>
      <trkpt lat="46.56878" lon="6.06802">
        <ele>1108.7</ele>
        <time>2021-11-18T09:50:30Z</time>
      </trkpt>
      <trkpt lat="46.56873" lon="6.06804">
        <ele>1108.1</ele>
        <time>2021-11-18T09:50:35Z</time>
      </trkpt>
      <trkpt lat="46.56869" lon="6.06809">
        <ele>1108</ele>
        <time>2021-11-18T09:51:06Z</time>
      </trkpt>
      <trkpt lat="46.56865" lon="6.06813">
        <ele>1109</ele>
        <time>2021-11-18T09:51:10Z</time>
      </trkpt>
      <trkpt lat="46.5686" lon="6.06814">
        <ele>1109.9</ele>
        <time>2021-11-18T09:51:15Z</time>
      </trkpt>
      <trkpt lat="46.56856" lon="6.06818">
        <ele>1110.4</ele>
        <time>2021-11-18T09:51:24Z</time>
      </trkpt>
      <trkpt lat="46.56852" lon="6.06821">
        <ele>1110.4</ele>
        <time>2021-11-18T09:51:29Z</time>
      </trkpt>
      <trkpt lat="46.56847" lon="6.06824">
        <ele>1110.5</ele>
        <time>2021-11-18T09:51:34Z</time>
      </trkpt>
      <trkpt lat="46.56841" lon="6.06826">
        <ele>1110.2</ele>
        <time>2021-11-18T09:51:38Z</time>
      </trkpt>
      <trkpt lat="46.56837" lon="6.06831">
        <ele>1109.9</ele>
        <time>2021-11-18T09:51:42Z</time>
      </trkpt>
      <trkpt lat="46.56835" lon="6.06837">
        <ele>1109.1</ele>
        <time>2021-11-18T09:51:46Z</time>
      </trkpt>
      <trkpt lat="46.5683" lon="6.0684">
        <ele>1107.3</ele>
        <time>2021-11-18T09:51:51Z</time>
      </trkpt>
      <trkpt lat="46.56826" lon="6.06836">
        <ele>1104.8</ele>
        <time>2021-11-18T09:51:57Z</time>
      </trkpt>
      <trkpt lat="46.56822" lon="6.06831">
        <ele>1100.1</ele>
        <time>2021-11-18T09:52:21Z</time>
      </trkpt>
      <trkpt lat="46.56819" lon="6.06825">
        <ele>1100</ele>
        <time>2021-11-18T09:52:26Z</time>
      </trkpt>
      <trkpt lat="46.56815" lon="6.0682">
        <ele>1099.8</ele>
        <time>2021-11-18T09:52:31Z</time>
      </trkpt>
      <trkpt lat="46.56811" lon="6.06816">
        <ele>1099.6</ele>
        <time>2021-11-18T09:52:35Z</time>
      </trkpt>
      <trkpt lat="46.56807" lon="6.06812">
        <ele>1099.3</ele>
        <time>2021-11-18T09:52:39Z</time>
      </trkpt>
      <trkpt lat="46.56804" lon="6.06807">
        <ele>1098.8</ele>
        <time>2021-11-18T09:52:44Z</time>
      </trkpt>
      <trkpt lat="46.568" lon="6.06803">
        <ele>1098.7</ele>
        <time>2021-11-18T09:52:50Z</time>
      </trkpt>
      <trkpt lat="46.56795" lon="6.068">
        <ele>1098.7</ele>
        <time>2021-11-18T09:52:55Z</time>
      </trkpt>
      <trkpt lat="46.5679" lon="6.06798">
        <ele>1098.7</ele>
        <time>2021-11-18T09:53:00Z</time>
      </trkpt>
      <trkpt lat="46.56786" lon="6.06795">
        <ele>1098.7</ele>
        <time>2021-11-18T09:53:06Z</time>
      </trkpt>
      <trkpt lat="46.56783" lon="6.0679">
        <ele>1099.4</ele>
        <time>2021-11-18T09:53:13Z</time>
      </trkpt>
      <trkpt lat="46.56778" lon="6.06787">
        <ele>1100.2</ele>
        <time>2021-11-18T09:53:19Z</time>
      </trkpt>
      <trkpt lat="46.56773" lon="6.0679">
        <ele>1100.4</ele>
        <time>2021-11-18T09:53:25Z</time>
      </trkpt>
      <trkpt lat="46.56769" lon="6.06794">
        <ele>1099.6</ele>
        <time>2021-11-18T09:53:30Z</time>
      </trkpt>
      <trkpt lat="46.56765" lon="6.06798">
        <ele>1099.1</ele>
        <time>2021-11-18T09:53:35Z</time>
      </trkpt>
      <trkpt lat="46.56761" lon="6.06803">
        <ele>1098.6</ele>
        <time>2021-11-18T09:53:41Z</time>
      </trkpt>
      <trkpt lat="46.56759" lon="6.0681">
        <ele>1098.5</ele>
        <time>2021-11-18T09:53:49Z</time>
      </trkpt>
      <trkpt lat="46.56755" lon="6.06815">
        <ele>1098.2</ele>
        <time>2021-11-18T09:53:55Z</time>
      </trkpt>
      <trkpt lat="46.56751" lon="6.06819">
        <ele>1098</ele>
        <time>2021-11-18T09:54:00Z</time>
      </trkpt>
      <trkpt lat="46.56747" lon="6.06821">
        <ele>1096.4</ele>
        <time>2021-11-18T09:54:09Z</time>
      </trkpt>
      <trkpt lat="46.56742" lon="6.0682">
        <ele>1094.5</ele>
        <time>2021-11-18T09:54:19Z</time>
      </trkpt>
      <trkpt lat="46.56737" lon="6.06824">
        <ele>1094</ele>
        <time>2021-11-18T09:54:23Z</time>
      </trkpt>
      <trkpt lat="46.56733" lon="6.06828">
        <ele>1093.6</ele>
        <time>2021-11-18T09:54:27Z</time>
      </trkpt>
      <trkpt lat="46.56728" lon="6.0683">
        <ele>1093.3</ele>
        <time>2021-11-18T09:54:33Z</time>
      </trkpt>
      <trkpt lat="46.56723" lon="6.06832">
        <ele>1093.4</ele>
        <time>2021-11-18T09:54:38Z</time>
      </trkpt>
      <trkpt lat="46.56718" lon="6.06835">
        <ele>1093.7</ele>
        <time>2021-11-18T09:54:44Z</time>
      </trkpt>
      <trkpt lat="46.56714" lon="6.06838">
        <ele>1094.8</ele>
        <time>2021-11-18T09:54:51Z</time>
      </trkpt>
      <trkpt lat="46.5671" lon="6.06841">
        <ele>1094.7</ele>
        <time>2021-11-18T09:54:57Z</time>
      </trkpt>
      <trkpt lat="46.56705" lon="6.06845">
        <ele>1092.2</ele>
        <time>2021-11-18T09:55:04Z</time>
      </trkpt>
      <trkpt lat="46.567" lon="6.06845">
        <ele>1091.1</ele>
        <time>2021-11-18T09:56:59Z</time>
      </trkpt>
      <trkpt lat="46.56696" lon="6.06849">
        <ele>1092.5</ele>
        <time>2021-11-18T09:57:04Z</time>
      </trkpt>
      <trkpt lat="46.56692" lon="6.06851">
        <ele>1092.3</ele>
        <time>2021-11-18T09:57:09Z</time>
      </trkpt>
      <trkpt lat="46.56687" lon="6.06853">
        <ele>1092.3</ele>
        <time>2021-11-18T09:57:16Z</time>
      </trkpt>
      <trkpt lat="46.56683" lon="6.06856">
        <ele>1094.4</ele>
        <time>2021-11-18T09:57:23Z</time>
      </trkpt>
      <trkpt lat="46.56678" lon="6.06858">
        <ele>1095.6</ele>
        <time>2021-11-18T09:57:28Z</time>
      </trkpt>
      <trkpt lat="46.56674" lon="6.06862">
        <ele>1096.5</ele>
        <time>2021-11-18T09:57:34Z</time>
      </trkpt>
      <trkpt lat="46.56669" lon="6.06865">
        <ele>1096</ele>
        <time>2021-11-18T09:57:39Z</time>
      </trkpt>
      <trkpt lat="46.56664" lon="6.06865">
        <ele>1095</ele>
        <time>2021-11-18T09:57:43Z</time>
      </trkpt>
      <trkpt lat="46.56659" lon="6.06867">
        <ele>1094.4</ele>
        <time>2021-11-18T09:57:47Z</time>
      </trkpt>
      <trkpt lat="46.56654" lon="6.06867">
        <ele>1094.1</ele>
        <time>2021-11-18T09:57:52Z</time>
      </trkpt>
      <trkpt lat="46.56649" lon="6.06867">
        <ele>1094.1</ele>
        <time>2021-11-18T09:57:57Z</time>
      </trkpt>
      <trkpt lat="46.56643" lon="6.06866">
        <ele>1094</ele>
        <time>2021-11-18T09:58:02Z</time>
      </trkpt>
      <trkpt lat="46.56639" lon="6.06865">
        <ele>1093.8</ele>
        <time>2021-11-18T09:58:06Z</time>
      </trkpt>
      <trkpt lat="46.56634" lon="6.06864">
        <ele>1093.8</ele>
        <time>2021-11-18T09:58:10Z</time>
      </trkpt>
      <trkpt lat="46.5663" lon="6.06865">
        <ele>1093.7</ele>
        <time>2021-11-18T09:58:15Z</time>
      </trkpt>
      <trkpt lat="46.56625" lon="6.06866">
        <ele>1093.6</ele>
        <time>2021-11-18T09:58:21Z</time>
      </trkpt>
      <trkpt lat="46.5662" lon="6.06867">
        <ele>1093.5</ele>
        <time>2021-11-18T09:58:26Z</time>
      </trkpt>
      <trkpt lat="46.56616" lon="6.06864">
        <ele>1093.5</ele>
        <time>2021-11-18T09:58:33Z</time>
      </trkpt>
      <trkpt lat="46.56613" lon="6.06859">
        <ele>1093.7</ele>
        <time>2021-11-18T09:58:39Z</time>
      </trkpt>
      <trkpt lat="46.5661" lon="6.06853">
        <ele>1094.6</ele>
        <time>2021-11-18T09:58:46Z</time>
      </trkpt>
      <trkpt lat="46.56609" lon="6.06846">
        <ele>1095.7</ele>
        <time>2021-11-18T09:58:54Z</time>
      </trkpt>
      <trkpt lat="46.56605" lon="6.06842">
        <ele>1095.9</ele>
        <time>2021-11-18T09:59:00Z</time>
      </trkpt>
      <trkpt lat="46.56601" lon="6.06842">
        <ele>1096.1</ele>
        <time>2021-11-18T09:59:06Z</time>
      </trkpt>
      <trkpt lat="46.56596" lon="6.06846">
        <ele>1096.7</ele>
        <time>2021-11-18T09:59:11Z</time>
      </trkpt>
      <trkpt lat="46.56592" lon="6.06849">
        <ele>1097.2</ele>
        <time>2021-11-18T09:59:16Z</time>
      </trkpt>
      <trkpt lat="46.56587" lon="6.06853">
        <ele>1097.4</ele>
        <time>2021-11-18T09:59:20Z</time>
      </trkpt>
      <trkpt lat="46.56583" lon="6.06856">
        <ele>1097.5</ele>
        <time>2021-11-18T09:59:24Z</time>
      </trkpt>
      <trkpt lat="46.56579" lon="6.06861">
        <ele>1096.9</ele>
        <time>2021-11-18T09:59:29Z</time>
      </trkpt>
      <trkpt lat="46.56575" lon="6.06865">
        <ele>1095.8</ele>
        <time>2021-11-18T09:59:35Z</time>
      </trkpt>
      <trkpt lat="46.5657" lon="6.06868">
        <ele>1095.1</ele>
        <time>2021-11-18T09:59:40Z</time>
      </trkpt>
      <trkpt lat="46.56565" lon="6.06869">
        <ele>1094.9</ele>
        <time>2021-11-18T09:59:47Z</time>
      </trkpt>
      <trkpt lat="46.56561" lon="6.06872">
        <ele>1095</ele>
        <time>2021-11-18T09:59:53Z</time>
      </trkpt>
      <trkpt lat="46.56556" lon="6.06875">
        <ele>1094.9</ele>
        <time>2021-11-18T09:59:58Z</time>
      </trkpt>
      <trkpt lat="46.56551" lon="6.06877">
        <ele>1094.3</ele>
        <time>2021-11-18T10:00:04Z</time>
      </trkpt>
      <trkpt lat="46.56546" lon="6.06879">
        <ele>1093.6</ele>
        <time>2021-11-18T10:00:09Z</time>
      </trkpt>
      <trkpt lat="46.56542" lon="6.0688">
        <ele>1092.9</ele>
        <time>2021-11-18T10:00:14Z</time>
      </trkpt>
      <trkpt lat="46.56537" lon="6.06881">
        <ele>1092.7</ele>
        <time>2021-11-18T10:00:19Z</time>
      </trkpt>
      <trkpt lat="46.56532" lon="6.06883">
        <ele>1093.7</ele>
        <time>2021-11-18T10:00:28Z</time>
      </trkpt>
      <trkpt lat="46.56531" lon="6.06891">
        <ele>1094.3</ele>
        <time>2021-11-18T10:00:34Z</time>
      </trkpt>
      <trkpt lat="46.5653" lon="6.06899">
        <ele>1094.6</ele>
        <time>2021-11-18T10:00:39Z</time>
      </trkpt>
      <trkpt lat="46.56527" lon="6.06905">
        <ele>1095.2</ele>
        <time>2021-11-18T10:00:45Z</time>
      </trkpt>
      <trkpt lat="46.56524" lon="6.0691">
        <ele>1095.3</ele>
        <time>2021-11-18T10:00:49Z</time>
      </trkpt>
      <trkpt lat="46.56525" lon="6.06916">
        <ele>1094.1</ele>
        <time>2021-11-18T10:01:01Z</time>
      </trkpt>
      <trkpt lat="46.56521" lon="6.06921">
        <ele>1094.4</ele>
        <time>2021-11-18T10:01:07Z</time>
      </trkpt>
      <trkpt lat="46.56518" lon="6.06925">
        <ele>1095.1</ele>
        <time>2021-11-18T10:01:11Z</time>
      </trkpt>
      <trkpt lat="46.56513" lon="6.06928">
        <ele>1096</ele>
        <time>2021-11-18T10:01:15Z</time>
      </trkpt>
      <trkpt lat="46.56509" lon="6.06933">
        <ele>1097.2</ele>
        <time>2021-11-18T10:01:19Z</time>
      </trkpt>
      <trkpt lat="46.56505" lon="6.06935">
        <ele>1099</ele>
        <time>2021-11-18T10:01:27Z</time>
      </trkpt>
      <trkpt lat="46.565" lon="6.06933">
        <ele>1099.3</ele>
        <time>2021-11-18T10:01:35Z</time>
      </trkpt>
      <trkpt lat="46.56495" lon="6.0693">
        <ele>1098.1</ele>
        <time>2021-11-18T10:01:41Z</time>
      </trkpt>
      <trkpt lat="46.56491" lon="6.06925">
        <ele>1097</ele>
        <time>2021-11-18T10:01:46Z</time>
      </trkpt>
      <trkpt lat="46.56488" lon="6.06921">
        <ele>1096.5</ele>
        <time>2021-11-18T10:01:50Z</time>
      </trkpt>
      <trkpt lat="46.56484" lon="6.06916">
        <ele>1095.8</ele>
        <time>2021-11-18T10:01:56Z</time>
      </trkpt>
      <trkpt lat="46.5648" lon="6.06912">
        <ele>1096.1</ele>
        <time>2021-11-18T10:02:01Z</time>
      </trkpt>
      <trkpt lat="46.56476" lon="6.06908">
        <ele>1096.7</ele>
        <time>2021-11-18T10:02:06Z</time>
      </trkpt>
      <trkpt lat="46.56471" lon="6.06905">
        <ele>1097.4</ele>
        <time>2021-11-18T10:02:11Z</time>
      </trkpt>
      <trkpt lat="46.56466" lon="6.06902">
        <ele>1097.8</ele>
        <time>2021-11-18T10:02:15Z</time>
      </trkpt>
      <trkpt lat="46.56462" lon="6.06897">
        <ele>1098.3</ele>
        <time>2021-11-18T10:02:20Z</time>
      </trkpt>
      <trkpt lat="46.56458" lon="6.06893">
        <ele>1098.2</ele>
        <time>2021-11-18T10:02:25Z</time>
      </trkpt>
      <trkpt lat="46.56455" lon="6.06889">
        <ele>1097.9</ele>
        <time>2021-11-18T10:02:30Z</time>
      </trkpt>
      <trkpt lat="46.56451" lon="6.06885">
        <ele>1097.5</ele>
        <time>2021-11-18T10:02:35Z</time>
      </trkpt>
      <trkpt lat="46.56447" lon="6.0688">
        <ele>1097.6</ele>
        <time>2021-11-18T10:02:40Z</time>
      </trkpt>
      <trkpt lat="46.56443" lon="6.06877">
        <ele>1097.5</ele>
        <time>2021-11-18T10:02:44Z</time>
      </trkpt>
      <trkpt lat="46.56439" lon="6.06873">
        <ele>1097.5</ele>
        <time>2021-11-18T10:02:49Z</time>
      </trkpt>
      <trkpt lat="46.56435" lon="6.06868">
        <ele>1097.4</ele>
        <time>2021-11-18T10:02:54Z</time>
      </trkpt>
      <trkpt lat="46.56432" lon="6.06864">
        <ele>1097.2</ele>
        <time>2021-11-18T10:02:58Z</time>
      </trkpt>
      <trkpt lat="46.56428" lon="6.0686">
        <ele>1097</ele>
        <time>2021-11-18T10:03:02Z</time>
      </trkpt>
      <trkpt lat="46.56424" lon="6.06856">
        <ele>1096.5</ele>
        <time>2021-11-18T10:03:07Z</time>
      </trkpt>
      <trkpt lat="46.56419" lon="6.06853">
        <ele>1095.5</ele>
        <time>2021-11-18T10:03:13Z</time>
      </trkpt>
      <trkpt lat="46.56415" lon="6.06849">
        <ele>1094.8</ele>
        <time>2021-11-18T10:03:18Z</time>
      </trkpt>
      <trkpt lat="46.5641" lon="6.06847">
        <ele>1094.2</ele>
        <time>2021-11-18T10:03:24Z</time>
      </trkpt>
      <trkpt lat="46.56405" lon="6.06845">
        <ele>1093.8</ele>
        <time>2021-11-18T10:03:30Z</time>
      </trkpt>
      <trkpt lat="46.564" lon="6.06843">
        <ele>1093.6</ele>
        <time>2021-11-18T10:03:35Z</time>
      </trkpt>
      <trkpt lat="46.56396" lon="6.06839">
        <ele>1093.4</ele>
        <time>2021-11-18T10:03:41Z</time>
      </trkpt>
      <trkpt lat="46.56392" lon="6.06834">
        <ele>1093.3</ele>
        <time>2021-11-18T10:03:46Z</time>
      </trkpt>
      <trkpt lat="46.56388" lon="6.0683">
        <ele>1091.7</ele>
        <time>2021-11-18T10:03:53Z</time>
      </trkpt>
      <trkpt lat="46.56383" lon="6.06828">
        <ele>1090</ele>
        <time>2021-11-18T10:04:00Z</time>
      </trkpt>
      <trkpt lat="46.56378" lon="6.06827">
        <ele>1089.1</ele>
        <time>2021-11-18T10:04:06Z</time>
      </trkpt>
      <trkpt lat="46.56374" lon="6.06825">
        <ele>1088.5</ele>
        <time>2021-11-18T10:04:10Z</time>
      </trkpt>
      <trkpt lat="46.56369" lon="6.06823">
        <ele>1087.4</ele>
        <time>2021-11-18T10:04:15Z</time>
      </trkpt>
      <trkpt lat="46.56364" lon="6.06822">
        <ele>1085.4</ele>
        <time>2021-11-18T10:04:22Z</time>
      </trkpt>
      <trkpt lat="46.5636" lon="6.06819">
        <ele>1084.8</ele>
        <time>2021-11-18T10:04:26Z</time>
      </trkpt>
      <trkpt lat="46.56355" lon="6.06815">
        <ele>1084.4</ele>
        <time>2021-11-18T10:04:31Z</time>
      </trkpt>
      <trkpt lat="46.5635" lon="6.06812">
        <ele>1084.2</ele>
        <time>2021-11-18T10:04:36Z</time>
      </trkpt>
      <trkpt lat="46.56346" lon="6.06807">
        <ele>1084.1</ele>
        <time>2021-11-18T10:04:43Z</time>
      </trkpt>
      <trkpt lat="46.56342" lon="6.06803">
        <ele>1083.9</ele>
        <time>2021-11-18T10:04:48Z</time>
      </trkpt>
      <trkpt lat="46.56338" lon="6.06799">
        <ele>1083.6</ele>
        <time>2021-11-18T10:04:53Z</time>
      </trkpt>
      <trkpt lat="46.56334" lon="6.06795">
        <ele>1083.2</ele>
        <time>2021-11-18T10:04:58Z</time>
      </trkpt>
      <trkpt lat="46.5633" lon="6.06791">
        <ele>1083.1</ele>
        <time>2021-11-18T10:05:03Z</time>
      </trkpt>
      <trkpt lat="46.56326" lon="6.06788">
        <ele>1083</ele>
        <time>2021-11-18T10:05:07Z</time>
      </trkpt>
      <trkpt lat="46.56321" lon="6.06784">
        <ele>1082.4</ele>
        <time>2021-11-18T10:05:13Z</time>
      </trkpt>
      <trkpt lat="46.56317" lon="6.0678">
        <ele>1080.4</ele>
        <time>2021-11-18T10:05:21Z</time>
      </trkpt>
      <trkpt lat="46.56312" lon="6.06779">
        <ele>1078.8</ele>
        <time>2021-11-18T10:05:26Z</time>
      </trkpt>
      <trkpt lat="46.56308" lon="6.06778">
        <ele>1077.2</ele>
        <time>2021-11-18T10:05:31Z</time>
      </trkpt>
      <trkpt lat="46.56303" lon="6.06779">
        <ele>1075.9</ele>
        <time>2021-11-18T10:05:36Z</time>
      </trkpt>
      <trkpt lat="46.56298" lon="6.06781">
        <ele>1075.1</ele>
        <time>2021-11-18T10:05:41Z</time>
      </trkpt>
      <trkpt lat="46.56294" lon="6.06786">
        <ele>1074.6</ele>
        <time>2021-11-18T10:05:47Z</time>
      </trkpt>
      <trkpt lat="46.56291" lon="6.0679">
        <ele>1074.8</ele>
        <time>2021-11-18T10:05:53Z</time>
      </trkpt>
      <trkpt lat="46.56287" lon="6.06794">
        <ele>1075.2</ele>
        <time>2021-11-18T10:05:57Z</time>
      </trkpt>
      <trkpt lat="46.56282" lon="6.06796">
        <ele>1075.3</ele>
        <time>2021-11-18T10:06:01Z</time>
      </trkpt>
      <trkpt lat="46.56277" lon="6.06799">
        <ele>1075.2</ele>
        <time>2021-11-18T10:06:06Z</time>
      </trkpt>
      <trkpt lat="46.56273" lon="6.068">
        <ele>1073.6</ele>
        <time>2021-11-18T10:06:13Z</time>
      </trkpt>
      <trkpt lat="46.56268" lon="6.06798">
        <ele>1072.3</ele>
        <time>2021-11-18T10:06:18Z</time>
      </trkpt>
      <trkpt lat="46.56264" lon="6.06794">
        <ele>1071.6</ele>
        <time>2021-11-18T10:06:23Z</time>
      </trkpt>
      <trkpt lat="46.56261" lon="6.06789">
        <ele>1070.8</ele>
        <time>2021-11-18T10:06:28Z</time>
      </trkpt>
      <trkpt lat="46.5626" lon="6.06782">
        <ele>1069.7</ele>
        <time>2021-11-18T10:06:34Z</time>
      </trkpt>
      <trkpt lat="46.56263" lon="6.06776">
        <ele>1069.1</ele>
        <time>2021-11-18T10:06:41Z</time>
      </trkpt>
      <trkpt lat="46.56266" lon="6.06769">
        <ele>1069.1</ele>
        <time>2021-11-18T10:06:47Z</time>
      </trkpt>
      <trkpt lat="46.56268" lon="6.06762">
        <ele>1069.4</ele>
        <time>2021-11-18T10:06:52Z</time>
      </trkpt>
      <trkpt lat="46.5627" lon="6.06756">
        <ele>1069.5</ele>
        <time>2021-11-18T10:06:56Z</time>
      </trkpt>
      <trkpt lat="46.56273" lon="6.0675">
        <ele>1069.2</ele>
        <time>2021-11-18T10:07:00Z</time>
      </trkpt>
      <trkpt lat="46.56276" lon="6.06744">
        <ele>1068.7</ele>
        <time>2021-11-18T10:07:05Z</time>
      </trkpt>
      <trkpt lat="46.5628" lon="6.06739">
        <ele>1068</ele>
        <time>2021-11-18T10:07:10Z</time>
      </trkpt>
      <trkpt lat="46.56283" lon="6.06734">
        <ele>1066.7</ele>
        <time>2021-11-18T10:07:16Z</time>
      </trkpt>
      <trkpt lat="46.56286" lon="6.06728">
        <ele>1066.2</ele>
        <time>2021-11-18T10:07:21Z</time>
      </trkpt>
      <trkpt lat="46.56289" lon="6.06722">
        <ele>1065.9</ele>
        <time>2021-11-18T10:07:26Z</time>
      </trkpt>
      <trkpt lat="46.56289" lon="6.06715">
        <ele>1065.7</ele>
        <time>2021-11-18T10:07:31Z</time>
      </trkpt>
      <trkpt lat="46.56287" lon="6.06708">
        <ele>1066.1</ele>
        <time>2021-11-18T10:07:37Z</time>
      </trkpt>
      <trkpt lat="46.56283" lon="6.06704">
        <ele>1066.8</ele>
        <time>2021-11-18T10:07:42Z</time>
      </trkpt>
      <trkpt lat="46.56278" lon="6.06701">
        <ele>1067.1</ele>
        <time>2021-11-18T10:07:47Z</time>
      </trkpt>
      <trkpt lat="46.56273" lon="6.06698">
        <ele>1067.4</ele>
        <time>2021-11-18T10:07:52Z</time>
      </trkpt>
      <trkpt lat="46.56268" lon="6.06695">
        <ele>1067.3</ele>
        <time>2021-11-18T10:07:57Z</time>
      </trkpt>
      <trkpt lat="46.56263" lon="6.06693">
        <ele>1066.8</ele>
        <time>2021-11-18T10:08:02Z</time>
      </trkpt>
      <trkpt lat="46.56258" lon="6.0669">
        <ele>1065.8</ele>
        <time>2021-11-18T10:08:07Z</time>
      </trkpt>
      <trkpt lat="46.56254" lon="6.06688">
        <ele>1065.3</ele>
        <time>2021-11-18T10:08:10Z</time>
      </trkpt>
      <trkpt lat="46.56249" lon="6.06685">
        <ele>1065</ele>
        <time>2021-11-18T10:08:15Z</time>
      </trkpt>
      <trkpt lat="46.56245" lon="6.06681">
        <ele>1064.6</ele>
        <time>2021-11-18T10:08:20Z</time>
      </trkpt>
      <trkpt lat="46.5624" lon="6.06678">
        <ele>1063.9</ele>
        <time>2021-11-18T10:08:25Z</time>
      </trkpt>
      <trkpt lat="46.56235" lon="6.06675">
        <ele>1063.3</ele>
        <time>2021-11-18T10:08:30Z</time>
      </trkpt>
      <trkpt lat="46.56231" lon="6.06671">
        <ele>1063.1</ele>
        <time>2021-11-18T10:08:34Z</time>
      </trkpt>
      <trkpt lat="46.56227" lon="6.06667">
        <ele>1062.9</ele>
        <time>2021-11-18T10:08:39Z</time>
      </trkpt>
      <trkpt lat="46.56223" lon="6.06663">
        <ele>1062.8</ele>
        <time>2021-11-18T10:08:44Z</time>
      </trkpt>
      <trkpt lat="46.56219" lon="6.06659">
        <ele>1063</ele>
        <time>2021-11-18T10:08:48Z</time>
      </trkpt>
      <trkpt lat="46.56216" lon="6.06654">
        <ele>1063.2</ele>
        <time>2021-11-18T10:08:52Z</time>
      </trkpt>
      <trkpt lat="46.56212" lon="6.06649">
        <ele>1063.4</ele>
        <time>2021-11-18T10:08:56Z</time>
      </trkpt>
      <trkpt lat="46.5621" lon="6.06644">
        <ele>1063.9</ele>
        <time>2021-11-18T10:09:01Z</time>
      </trkpt>
      <trkpt lat="46.56207" lon="6.06639">
        <ele>1063.4</ele>
        <time>2021-11-18T10:09:06Z</time>
      </trkpt>
      <trkpt lat="46.56203" lon="6.06634">
        <ele>1062.8</ele>
        <time>2021-11-18T10:09:11Z</time>
      </trkpt>
      <trkpt lat="46.56201" lon="6.06628">
        <ele>1062.3</ele>
        <time>2021-11-18T10:09:16Z</time>
      </trkpt>
      <trkpt lat="46.56197" lon="6.06622">
        <ele>1062.1</ele>
        <time>2021-11-18T10:09:21Z</time>
      </trkpt>
      <trkpt lat="46.56194" lon="6.06617">
        <ele>1062.3</ele>
        <time>2021-11-18T10:09:26Z</time>
      </trkpt>
      <trkpt lat="46.5619" lon="6.06613">
        <ele>1062.7</ele>
        <time>2021-11-18T10:09:30Z</time>
      </trkpt>
      <trkpt lat="46.56185" lon="6.06612">
        <ele>1063.6</ele>
        <time>2021-11-18T10:09:39Z</time>
      </trkpt>
      <trkpt lat="46.56191" lon="6.0661">
        <ele>1061.7</ele>
        <time>2021-11-18T10:10:13Z</time>
      </trkpt>
      <trkpt lat="46.56195" lon="6.06608">
        <ele>1060.2</ele>
        <time>2021-11-18T10:10:18Z</time>
      </trkpt>
      <trkpt lat="46.56199" lon="6.06603">
        <ele>1059.3</ele>
        <time>2021-11-18T10:10:24Z</time>
      </trkpt>
      <trkpt lat="46.56204" lon="6.06601">
        <ele>1060</ele>
        <time>2021-11-18T10:10:31Z</time>
      </trkpt>
      <trkpt lat="46.56209" lon="6.066">
        <ele>1060.8</ele>
        <time>2021-11-18T10:10:36Z</time>
      </trkpt>
      <trkpt lat="46.56213" lon="6.06597">
        <ele>1060.7</ele>
        <time>2021-11-18T10:10:40Z</time>
      </trkpt>
      <trkpt lat="46.56217" lon="6.06593">
        <ele>1061.3</ele>
        <time>2021-11-18T10:10:46Z</time>
      </trkpt>
      <trkpt lat="46.56221" lon="6.06588">
        <ele>1062.4</ele>
        <time>2021-11-18T10:10:51Z</time>
      </trkpt>
      <trkpt lat="46.56225" lon="6.06583">
        <ele>1063.2</ele>
        <time>2021-11-18T10:10:56Z</time>
      </trkpt>
      <trkpt lat="46.56229" lon="6.06579">
        <ele>1063.3</ele>
        <time>2021-11-18T10:11:00Z</time>
      </trkpt>
      <trkpt lat="46.56234" lon="6.06576">
        <ele>1063</ele>
        <time>2021-11-18T10:11:05Z</time>
      </trkpt>
      <trkpt lat="46.56238" lon="6.0657">
        <ele>1063.6</ele>
        <time>2021-11-18T10:11:11Z</time>
      </trkpt>
      <trkpt lat="46.56242" lon="6.06566">
        <ele>1064.2</ele>
        <time>2021-11-18T10:11:17Z</time>
      </trkpt>
      <trkpt lat="46.56244" lon="6.0656">
        <ele>1064.1</ele>
        <time>2021-11-18T10:11:22Z</time>
      </trkpt>
      <trkpt lat="46.56245" lon="6.06553">
        <ele>1064.2</ele>
        <time>2021-11-18T10:11:26Z</time>
      </trkpt>
      <trkpt lat="46.56247" lon="6.06547">
        <ele>1064.4</ele>
        <time>2021-11-18T10:11:30Z</time>
      </trkpt>
      <trkpt lat="46.5625" lon="6.0654">
        <ele>1064.8</ele>
        <time>2021-11-18T10:11:35Z</time>
      </trkpt>
      <trkpt lat="46.56251" lon="6.06534">
        <ele>1064.9</ele>
        <time>2021-11-18T10:11:40Z</time>
      </trkpt>
      <trkpt lat="46.56253" lon="6.06526">
        <ele>1064.8</ele>
        <time>2021-11-18T10:11:45Z</time>
      </trkpt>
      <trkpt lat="46.56255" lon="6.06521">
        <ele>1064.9</ele>
        <time>2021-11-18T10:11:50Z</time>
      </trkpt>
      <trkpt lat="46.56257" lon="6.06513">
        <ele>1065.6</ele>
        <time>2021-11-18T10:11:57Z</time>
      </trkpt>
      <trkpt lat="46.56256" lon="6.06506">
        <ele>1066.4</ele>
        <time>2021-11-18T10:12:02Z</time>
      </trkpt>
      <trkpt lat="46.56254" lon="6.06499">
        <ele>1067.5</ele>
        <time>2021-11-18T10:12:08Z</time>
      </trkpt>
      <trkpt lat="46.5625" lon="6.06494">
        <ele>1068.5</ele>
        <time>2021-11-18T10:12:12Z</time>
      </trkpt>
      <trkpt lat="46.56247" lon="6.06487">
        <ele>1069.9</ele>
        <time>2021-11-18T10:12:17Z</time>
      </trkpt>
      <trkpt lat="46.56244" lon="6.06482">
        <ele>1071.4</ele>
        <time>2021-11-18T10:12:22Z</time>
      </trkpt>
      <trkpt lat="46.5624" lon="6.06476">
        <ele>1072.7</ele>
        <time>2021-11-18T10:12:27Z</time>
      </trkpt>
      <trkpt lat="46.56237" lon="6.0647">
        <ele>1073.7</ele>
        <time>2021-11-18T10:12:31Z</time>
      </trkpt>
      <trkpt lat="46.56235" lon="6.06463">
        <ele>1074.8</ele>
        <time>2021-11-18T10:12:36Z</time>
      </trkpt>
      <trkpt lat="46.56232" lon="6.06457">
        <ele>1075.1</ele>
        <time>2021-11-18T10:12:42Z</time>
      </trkpt>
      <trkpt lat="46.56229" lon="6.06452">
        <ele>1075.2</ele>
        <time>2021-11-18T10:12:47Z</time>
      </trkpt>
      <trkpt lat="46.56227" lon="6.06445">
        <ele>1075</ele>
        <time>2021-11-18T10:12:52Z</time>
      </trkpt>
      <trkpt lat="46.56224" lon="6.06439">
        <ele>1075.2</ele>
        <time>2021-11-18T10:12:56Z</time>
      </trkpt>
      <trkpt lat="46.56221" lon="6.06432">
        <ele>1075.6</ele>
        <time>2021-11-18T10:13:01Z</time>
      </trkpt>
      <trkpt lat="46.56218" lon="6.06427">
        <ele>1075.9</ele>
        <time>2021-11-18T10:13:06Z</time>
      </trkpt>
      <trkpt lat="46.56215" lon="6.0642">
        <ele>1076.5</ele>
        <time>2021-11-18T10:13:11Z</time>
      </trkpt>
      <trkpt lat="46.56212" lon="6.06414">
        <ele>1077.2</ele>
        <time>2021-11-18T10:13:16Z</time>
      </trkpt>
      <trkpt lat="46.56209" lon="6.06408">
        <ele>1077.9</ele>
        <time>2021-11-18T10:13:23Z</time>
      </trkpt>
      <trkpt lat="46.56207" lon="6.064">
        <ele>1078.3</ele>
        <time>2021-11-18T10:13:28Z</time>
      </trkpt>
      <trkpt lat="46.56204" lon="6.06394">
        <ele>1078.7</ele>
        <time>2021-11-18T10:13:32Z</time>
      </trkpt>
      <trkpt lat="46.56203" lon="6.06386">
        <ele>1079.2</ele>
        <time>2021-11-18T10:13:37Z</time>
      </trkpt>
      <trkpt lat="46.562" lon="6.0638">
        <ele>1079.6</ele>
        <time>2021-11-18T10:13:41Z</time>
      </trkpt>
      <trkpt lat="46.56198" lon="6.06374">
        <ele>1080.2</ele>
        <time>2021-11-18T10:13:46Z</time>
      </trkpt>
      <trkpt lat="46.56197" lon="6.06366">
        <ele>1080.1</ele>
        <time>2021-11-18T10:13:51Z</time>
      </trkpt>
      <trkpt lat="46.56195" lon="6.06359">
        <ele>1079.8</ele>
        <time>2021-11-18T10:13:56Z</time>
      </trkpt>
      <trkpt lat="46.56193" lon="6.06352">
        <ele>1079.9</ele>
        <time>2021-11-18T10:14:01Z</time>
      </trkpt>
      <trkpt lat="46.56191" lon="6.06346">
        <ele>1080.7</ele>
        <time>2021-11-18T10:14:06Z</time>
      </trkpt>
      <trkpt lat="46.56188" lon="6.0634">
        <ele>1082</ele>
        <time>2021-11-18T10:14:11Z</time>
      </trkpt>
      <trkpt lat="46.56185" lon="6.06334">
        <ele>1082.3</ele>
        <time>2021-11-18T10:14:16Z</time>
      </trkpt>
      <trkpt lat="46.56181" lon="6.06328">
        <ele>1082.4</ele>
        <time>2021-11-18T10:14:20Z</time>
      </trkpt>
      <trkpt lat="46.56178" lon="6.06323">
        <ele>1082.5</ele>
        <time>2021-11-18T10:14:25Z</time>
      </trkpt>
      <trkpt lat="46.56174" lon="6.06317">
        <ele>1082.3</ele>
        <time>2021-11-18T10:14:29Z</time>
      </trkpt>
      <trkpt lat="46.56171" lon="6.06312">
        <ele>1082.1</ele>
        <time>2021-11-18T10:14:33Z</time>
      </trkpt>
      <trkpt lat="46.56167" lon="6.06308">
        <ele>1081.7</ele>
        <time>2021-11-18T10:14:38Z</time>
      </trkpt>
      <trkpt lat="46.56163" lon="6.06303">
        <ele>1081.2</ele>
        <time>2021-11-18T10:14:43Z</time>
      </trkpt>
      <trkpt lat="46.56159" lon="6.06299">
        <ele>1081.1</ele>
        <time>2021-11-18T10:14:48Z</time>
      </trkpt>
      <trkpt lat="46.56157" lon="6.06293">
        <ele>1081.5</ele>
        <time>2021-11-18T10:14:53Z</time>
      </trkpt>
      <trkpt lat="46.56154" lon="6.06287">
        <ele>1081.9</ele>
        <time>2021-11-18T10:14:58Z</time>
      </trkpt>
      <trkpt lat="46.56151" lon="6.06281">
        <ele>1082.1</ele>
        <time>2021-11-18T10:15:02Z</time>
      </trkpt>
      <trkpt lat="46.56148" lon="6.06275">
        <ele>1082.5</ele>
        <time>2021-11-18T10:15:06Z</time>
      </trkpt>
      <trkpt lat="46.56145" lon="6.0627">
        <ele>1082.9</ele>
        <time>2021-11-18T10:15:10Z</time>
      </trkpt>
      <trkpt lat="46.56142" lon="6.06263">
        <ele>1083</ele>
        <time>2021-11-18T10:15:15Z</time>
      </trkpt>
      <trkpt lat="46.56139" lon="6.06258">
        <ele>1082.9</ele>
        <time>2021-11-18T10:15:20Z</time>
      </trkpt>
      <trkpt lat="46.56137" lon="6.06252">
        <ele>1082.7</ele>
        <time>2021-11-18T10:15:24Z</time>
      </trkpt>
      <trkpt lat="46.56133" lon="6.06246">
        <ele>1082.7</ele>
        <time>2021-11-18T10:15:29Z</time>
      </trkpt>
      <trkpt lat="46.5613" lon="6.0624">
        <ele>1082.4</ele>
        <time>2021-11-18T10:15:34Z</time>
      </trkpt>
      <trkpt lat="46.56127" lon="6.06235">
        <ele>1081.7</ele>
        <time>2021-11-18T10:15:39Z</time>
      </trkpt>
      <trkpt lat="46.56123" lon="6.06229">
        <ele>1081.5</ele>
        <time>2021-11-18T10:15:44Z</time>
      </trkpt>
      <trkpt lat="46.56119" lon="6.06224">
        <ele>1082.3</ele>
        <time>2021-11-18T10:15:49Z</time>
      </trkpt>
      <trkpt lat="46.56115" lon="6.06219">
        <ele>1082.8</ele>
        <time>2021-11-18T10:15:54Z</time>
      </trkpt>
      <trkpt lat="46.56112" lon="6.06214">
        <ele>1082.9</ele>
        <time>2021-11-18T10:15:58Z</time>
      </trkpt>
      <trkpt lat="46.56109" lon="6.06209">
        <ele>1082.9</ele>
        <time>2021-11-18T10:16:03Z</time>
      </trkpt>
      <trkpt lat="46.56106" lon="6.06203">
        <ele>1082.9</ele>
        <time>2021-11-18T10:16:08Z</time>
      </trkpt>
      <trkpt lat="46.56104" lon="6.06196">
        <ele>1082.6</ele>
        <time>2021-11-18T10:16:13Z</time>
      </trkpt>
      <trkpt lat="46.56102" lon="6.06189">
        <ele>1082.5</ele>
        <time>2021-11-18T10:16:18Z</time>
      </trkpt>
      <trkpt lat="46.56102" lon="6.06182">
        <ele>1082.2</ele>
        <time>2021-11-18T10:16:23Z</time>
      </trkpt>
      <trkpt lat="46.56102" lon="6.06175">
        <ele>1082.8</ele>
        <time>2021-11-18T10:16:30Z</time>
      </trkpt>
      <trkpt lat="46.56106" lon="6.0617">
        <ele>1084.1</ele>
        <time>2021-11-18T10:16:36Z</time>
      </trkpt>
      <trkpt lat="46.56109" lon="6.06165">
        <ele>1085.4</ele>
        <time>2021-11-18T10:16:41Z</time>
      </trkpt>
      <trkpt lat="46.56112" lon="6.0616">
        <ele>1086.2</ele>
        <time>2021-11-18T10:16:47Z</time>
      </trkpt>
      <trkpt lat="46.56115" lon="6.06155">
        <ele>1087.2</ele>
        <time>2021-11-18T10:16:56Z</time>
      </trkpt>
      <trkpt lat="46.56119" lon="6.0615">
        <ele>1088.6</ele>
        <time>2021-11-18T10:17:02Z</time>
      </trkpt>
      <trkpt lat="46.56123" lon="6.06145">
        <ele>1090.1</ele>
        <time>2021-11-18T10:17:07Z</time>
      </trkpt>
      <trkpt lat="46.56127" lon="6.0614">
        <ele>1092.3</ele>
        <time>2021-11-18T10:17:13Z</time>
      </trkpt>
      <trkpt lat="46.5613" lon="6.06136">
        <ele>1093.1</ele>
        <time>2021-11-18T10:17:17Z</time>
      </trkpt>
      <trkpt lat="46.56134" lon="6.06131">
        <ele>1094.1</ele>
        <time>2021-11-18T10:17:22Z</time>
      </trkpt>
      <trkpt lat="46.56137" lon="6.06125">
        <ele>1094</ele>
        <time>2021-11-18T10:17:27Z</time>
      </trkpt>
      <trkpt lat="46.56141" lon="6.06119">
        <ele>1093.7</ele>
        <time>2021-11-18T10:17:32Z</time>
      </trkpt>
      <trkpt lat="46.56145" lon="6.06115">
        <ele>1093.8</ele>
        <time>2021-11-18T10:17:37Z</time>
      </trkpt>
      <trkpt lat="46.56149" lon="6.06109">
        <ele>1094.1</ele>
        <time>2021-11-18T10:17:43Z</time>
      </trkpt>
      <trkpt lat="46.56152" lon="6.06105">
        <ele>1094.3</ele>
        <time>2021-11-18T10:17:48Z</time>
      </trkpt>
      <trkpt lat="46.56156" lon="6.06101">
        <ele>1094</ele>
        <time>2021-11-18T10:17:52Z</time>
      </trkpt>
      <trkpt lat="46.56159" lon="6.06096">
        <ele>1094.1</ele>
        <time>2021-11-18T10:17:56Z</time>
      </trkpt>
      <trkpt lat="46.56163" lon="6.06091">
        <ele>1094.4</ele>
        <time>2021-11-18T10:18:01Z</time>
      </trkpt>
      <trkpt lat="46.56166" lon="6.06085">
        <ele>1094.8</ele>
        <time>2021-11-18T10:18:06Z</time>
      </trkpt>
      <trkpt lat="46.5617" lon="6.06081">
        <ele>1095.4</ele>
        <time>2021-11-18T10:18:11Z</time>
      </trkpt>
      <trkpt lat="46.56173" lon="6.06076">
        <ele>1095.8</ele>
        <time>2021-11-18T10:18:16Z</time>
      </trkpt>
      <trkpt lat="46.56177" lon="6.06071">
        <ele>1096.3</ele>
        <time>2021-11-18T10:18:21Z</time>
      </trkpt>
      <trkpt lat="46.56181" lon="6.06067">
        <ele>1096.3</ele>
        <time>2021-11-18T10:18:27Z</time>
      </trkpt>
      <trkpt lat="46.56184" lon="6.06062">
        <ele>1096.3</ele>
        <time>2021-11-18T10:18:31Z</time>
      </trkpt>
      <trkpt lat="46.56187" lon="6.06056">
        <ele>1096</ele>
        <time>2021-11-18T10:18:35Z</time>
      </trkpt>
      <trkpt lat="46.56189" lon="6.06051">
        <ele>1095.5</ele>
        <time>2021-11-18T10:18:39Z</time>
      </trkpt>
      <trkpt lat="46.56193" lon="6.06046">
        <ele>1094.7</ele>
        <time>2021-11-18T10:18:43Z</time>
      </trkpt>
      <trkpt lat="46.56196" lon="6.06041">
        <ele>1094.1</ele>
        <time>2021-11-18T10:18:47Z</time>
      </trkpt>
      <trkpt lat="46.562" lon="6.06036">
        <ele>1094.3</ele>
        <time>2021-11-18T10:18:52Z</time>
      </trkpt>
      <trkpt lat="46.56203" lon="6.0603">
        <ele>1095</ele>
        <time>2021-11-18T10:18:57Z</time>
      </trkpt>
      <trkpt lat="46.56206" lon="6.06024">
        <ele>1096.3</ele>
        <time>2021-11-18T10:19:03Z</time>
      </trkpt>
      <trkpt lat="46.5621" lon="6.06019">
        <ele>1097</ele>
        <time>2021-11-18T10:19:08Z</time>
      </trkpt>
      <trkpt lat="46.56213" lon="6.06013">
        <ele>1097.5</ele>
        <time>2021-11-18T10:19:12Z</time>
      </trkpt>
      <trkpt lat="46.56216" lon="6.06008">
        <ele>1098.5</ele>
        <time>2021-11-18T10:19:16Z</time>
      </trkpt>
      <trkpt lat="46.56219" lon="6.06002">
        <ele>1099.2</ele>
        <time>2021-11-18T10:19:21Z</time>
      </trkpt>
      <trkpt lat="46.56224" lon="6.06">
        <ele>1099.6</ele>
        <time>2021-11-18T10:19:28Z</time>
      </trkpt>
      <trkpt lat="46.56228" lon="6.05996">
        <ele>1099.5</ele>
        <time>2021-11-18T10:19:33Z</time>
      </trkpt>
      <trkpt lat="46.56232" lon="6.05991">
        <ele>1099.3</ele>
        <time>2021-11-18T10:19:39Z</time>
      </trkpt>
      <trkpt lat="46.56236" lon="6.05986">
        <ele>1099.8</ele>
        <time>2021-11-18T10:19:44Z</time>
      </trkpt>
      <trkpt lat="46.56239" lon="6.05981">
        <ele>1100.4</ele>
        <time>2021-11-18T10:19:49Z</time>
      </trkpt>
      <trkpt lat="46.56243" lon="6.05976">
        <ele>1101.1</ele>
        <time>2021-11-18T10:19:54Z</time>
      </trkpt>
      <trkpt lat="46.56246" lon="6.05971">
        <ele>1101.3</ele>
        <time>2021-11-18T10:19:59Z</time>
      </trkpt>
      <trkpt lat="46.56248" lon="6.05964">
        <ele>1101.4</ele>
        <time>2021-11-18T10:20:03Z</time>
      </trkpt>
      <trkpt lat="46.56248" lon="6.05956">
        <ele>1100.5</ele>
        <time>2021-11-18T10:20:14Z</time>
      </trkpt>
      <trkpt lat="46.5625" lon="6.05949">
        <ele>1100.8</ele>
        <time>2021-11-18T10:20:19Z</time>
      </trkpt>
      <trkpt lat="46.56252" lon="6.05943">
        <ele>1101.6</ele>
        <time>2021-11-18T10:20:23Z</time>
      </trkpt>
      <trkpt lat="46.56254" lon="6.05936">
        <ele>1102.3</ele>
        <time>2021-11-18T10:20:28Z</time>
      </trkpt>
      <trkpt lat="46.56254" lon="6.05929">
        <ele>1102.2</ele>
        <time>2021-11-18T10:20:32Z</time>
      </trkpt>
      <trkpt lat="46.56256" lon="6.05922">
        <ele>1101.2</ele>
        <time>2021-11-18T10:20:37Z</time>
      </trkpt>
      <trkpt lat="46.56259" lon="6.05915">
        <ele>1099.9</ele>
        <time>2021-11-18T10:20:42Z</time>
      </trkpt>
      <trkpt lat="46.5626" lon="6.05908">
        <ele>1099.3</ele>
        <time>2021-11-18T10:20:46Z</time>
      </trkpt>
      <trkpt lat="46.56261" lon="6.05901">
        <ele>1098.6</ele>
        <time>2021-11-18T10:20:51Z</time>
      </trkpt>
      <trkpt lat="46.56263" lon="6.05893">
        <ele>1098.2</ele>
        <time>2021-11-18T10:20:57Z</time>
      </trkpt>
      <trkpt lat="46.56266" lon="6.05887">
        <ele>1098</ele>
        <time>2021-11-18T10:21:02Z</time>
      </trkpt>
      <trkpt lat="46.56268" lon="6.0588">
        <ele>1098.2</ele>
        <time>2021-11-18T10:21:06Z</time>
      </trkpt>
      <trkpt lat="46.5627" lon="6.05874">
        <ele>1098.8</ele>
        <time>2021-11-18T10:21:10Z</time>
      </trkpt>
      <trkpt lat="46.56271" lon="6.05867">
        <ele>1100</ele>
        <time>2021-11-18T10:21:14Z</time>
      </trkpt>
      <trkpt lat="46.56273" lon="6.05861">
        <ele>1102.6</ele>
        <time>2021-11-18T10:21:21Z</time>
      </trkpt>
      <trkpt lat="46.56276" lon="6.05854">
        <ele>1104.8</ele>
        <time>2021-11-18T10:21:26Z</time>
      </trkpt>
      <trkpt lat="46.56279" lon="6.05847">
        <ele>1107</ele>
        <time>2021-11-18T10:21:31Z</time>
      </trkpt>
      <trkpt lat="46.56282" lon="6.0584">
        <ele>1107.9</ele>
        <time>2021-11-18T10:21:45Z</time>
      </trkpt>
      <trkpt lat="46.56286" lon="6.05837">
        <ele>1107.2</ele>
        <time>2021-11-18T10:21:52Z</time>
      </trkpt>
      <trkpt lat="46.5629" lon="6.05833">
        <ele>1107</ele>
        <time>2021-11-18T10:21:58Z</time>
      </trkpt>
      <trkpt lat="46.56295" lon="6.05829">
        <ele>1107</ele>
        <time>2021-11-18T10:22:03Z</time>
      </trkpt>
      <trkpt lat="46.56299" lon="6.05825">
        <ele>1107.5</ele>
        <time>2021-11-18T10:22:08Z</time>
      </trkpt>
      <trkpt lat="46.56302" lon="6.05819">
        <ele>1107.4</ele>
        <time>2021-11-18T10:22:14Z</time>
      </trkpt>
      <trkpt lat="46.56303" lon="6.05812">
        <ele>1106.6</ele>
        <time>2021-11-18T10:22:22Z</time>
      </trkpt>
      <trkpt lat="46.56301" lon="6.05807">
        <ele>1105.7</ele>
        <time>2021-11-18T10:22:27Z</time>
      </trkpt>
      <trkpt lat="46.56298" lon="6.05801">
        <ele>1105.3</ele>
        <time>2021-11-18T10:22:31Z</time>
      </trkpt>
      <trkpt lat="46.56293" lon="6.05797">
        <ele>1105.3</ele>
        <time>2021-11-18T10:22:36Z</time>
      </trkpt>
      <trkpt lat="46.5629" lon="6.05791">
        <ele>1105.1</ele>
        <time>2021-11-18T10:22:42Z</time>
      </trkpt>
      <trkpt lat="46.56286" lon="6.05785">
        <ele>1104.5</ele>
        <time>2021-11-18T10:22:47Z</time>
      </trkpt>
      <trkpt lat="46.56283" lon="6.05781">
        <ele>1104.4</ele>
        <time>2021-11-18T10:22:53Z</time>
      </trkpt>
      <trkpt lat="46.56279" lon="6.05776">
        <ele>1104.7</ele>
        <time>2021-11-18T10:23:08Z</time>
      </trkpt>
      <trkpt lat="46.56276" lon="6.05771">
        <ele>1104.7</ele>
        <time>2021-11-18T10:23:16Z</time>
      </trkpt>
      <trkpt lat="46.56274" lon="6.05765">
        <ele>1105.1</ele>
        <time>2021-11-18T10:23:22Z</time>
      </trkpt>
      <trkpt lat="46.56271" lon="6.05759">
        <ele>1105.1</ele>
        <time>2021-11-18T10:23:27Z</time>
      </trkpt>
      <trkpt lat="46.56268" lon="6.05755">
        <ele>1105.1</ele>
        <time>2021-11-18T10:23:32Z</time>
      </trkpt>
      <trkpt lat="46.56263" lon="6.0575">
        <ele>1104.7</ele>
        <time>2021-11-18T10:23:38Z</time>
      </trkpt>
      <trkpt lat="46.56259" lon="6.05747">
        <ele>1104.3</ele>
        <time>2021-11-18T10:23:44Z</time>
      </trkpt>
      <trkpt lat="46.56256" lon="6.05741">
        <ele>1104.7</ele>
        <time>2021-11-18T10:23:48Z</time>
      </trkpt>
      <trkpt lat="46.56253" lon="6.05735">
        <ele>1105</ele>
        <time>2021-11-18T10:23:53Z</time>
      </trkpt>
      <trkpt lat="46.5625" lon="6.05729">
        <ele>1105.2</ele>
        <time>2021-11-18T10:23:59Z</time>
      </trkpt>
      <trkpt lat="46.56246" lon="6.05724">
        <ele>1105</ele>
        <time>2021-11-18T10:24:04Z</time>
      </trkpt>
      <trkpt lat="46.56243" lon="6.05719">
        <ele>1103.8</ele>
        <time>2021-11-18T10:24:10Z</time>
      </trkpt>
      <trkpt lat="46.5624" lon="6.05714">
        <ele>1103</ele>
        <time>2021-11-18T10:24:16Z</time>
      </trkpt>
      <trkpt lat="46.56235" lon="6.05712">
        <ele>1102.9</ele>
        <time>2021-11-18T10:24:24Z</time>
      </trkpt>
      <trkpt lat="46.56233" lon="6.05705">
        <ele>1101.5</ele>
        <time>2021-11-18T10:24:42Z</time>
      </trkpt>
      <trkpt lat="46.5623" lon="6.057">
        <ele>1102.2</ele>
        <time>2021-11-18T10:24:47Z</time>
      </trkpt>
      <trkpt lat="46.56226" lon="6.05695">
        <ele>1103.2</ele>
        <time>2021-11-18T10:24:51Z</time>
      </trkpt>
      <trkpt lat="46.56221" lon="6.05691">
        <ele>1104.6</ele>
        <time>2021-11-18T10:24:56Z</time>
      </trkpt>
      <trkpt lat="46.56218" lon="6.05687">
        <ele>1105.2</ele>
        <time>2021-11-18T10:25:01Z</time>
      </trkpt>
      <trkpt lat="46.56214" lon="6.05682">
        <ele>1105.2</ele>
        <time>2021-11-18T10:25:06Z</time>
      </trkpt>
      <trkpt lat="46.56211" lon="6.05676">
        <ele>1105.6</ele>
        <time>2021-11-18T10:25:12Z</time>
      </trkpt>
      <trkpt lat="46.56207" lon="6.05672">
        <ele>1105.6</ele>
        <time>2021-11-18T10:25:16Z</time>
      </trkpt>
      <trkpt lat="46.56204" lon="6.05665">
        <ele>1105.5</ele>
        <time>2021-11-18T10:25:22Z</time>
      </trkpt>
      <trkpt lat="46.56201" lon="6.0566">
        <ele>1105.8</ele>
        <time>2021-11-18T10:25:26Z</time>
      </trkpt>
      <trkpt lat="46.56198" lon="6.05654">
        <ele>1106.2</ele>
        <time>2021-11-18T10:25:32Z</time>
      </trkpt>
      <trkpt lat="46.56195" lon="6.05649">
        <ele>1107</ele>
        <time>2021-11-18T10:25:38Z</time>
      </trkpt>
      <trkpt lat="46.56195" lon="6.05642">
        <ele>1107</ele>
        <time>2021-11-18T10:25:44Z</time>
      </trkpt>
      <trkpt lat="46.56193" lon="6.05635">
        <ele>1107.7</ele>
        <time>2021-11-18T10:25:50Z</time>
      </trkpt>
      <trkpt lat="46.56188" lon="6.05632">
        <ele>1108.5</ele>
        <time>2021-11-18T10:25:54Z</time>
      </trkpt>
      <trkpt lat="46.56184" lon="6.05629">
        <ele>1109.3</ele>
        <time>2021-11-18T10:25:58Z</time>
      </trkpt>
      <trkpt lat="46.56181" lon="6.05623">
        <ele>1109.5</ele>
        <time>2021-11-18T10:26:03Z</time>
      </trkpt>
      <trkpt lat="46.56179" lon="6.05616">
        <ele>1109.3</ele>
        <time>2021-11-18T10:26:08Z</time>
      </trkpt>
      <trkpt lat="46.56176" lon="6.05609">
        <ele>1109.4</ele>
        <time>2021-11-18T10:26:14Z</time>
      </trkpt>
      <trkpt lat="46.56176" lon="6.05602">
        <ele>1109.9</ele>
        <time>2021-11-18T10:26:20Z</time>
      </trkpt>
      <trkpt lat="46.56174" lon="6.05596">
        <ele>1110.1</ele>
        <time>2021-11-18T10:26:25Z</time>
      </trkpt>
      <trkpt lat="46.56172" lon="6.05589">
        <ele>1111.3</ele>
        <time>2021-11-18T10:26:32Z</time>
      </trkpt>
      <trkpt lat="46.56169" lon="6.05584">
        <ele>1112.7</ele>
        <time>2021-11-18T10:26:38Z</time>
      </trkpt>
      <trkpt lat="46.56167" lon="6.05577">
        <ele>1113.6</ele>
        <time>2021-11-18T10:26:44Z</time>
      </trkpt>
      <trkpt lat="46.56168" lon="6.0557">
        <ele>1114</ele>
        <time>2021-11-18T10:26:49Z</time>
      </trkpt>
      <trkpt lat="46.56168" lon="6.05562">
        <ele>1114.3</ele>
        <time>2021-11-18T10:26:54Z</time>
      </trkpt>
      <trkpt lat="46.56169" lon="6.05554">
        <ele>1114.3</ele>
        <time>2021-11-18T10:26:59Z</time>
      </trkpt>
      <trkpt lat="46.5617" lon="6.05548">
        <ele>1114.5</ele>
        <time>2021-11-18T10:27:04Z</time>
      </trkpt>
      <trkpt lat="46.5617" lon="6.0554">
        <ele>1114.6</ele>
        <time>2021-11-18T10:27:09Z</time>
      </trkpt>
      <trkpt lat="46.5617" lon="6.05533">
        <ele>1114.9</ele>
        <time>2021-11-18T10:27:14Z</time>
      </trkpt>
      <trkpt lat="46.5617" lon="6.05526">
        <ele>1115.3</ele>
        <time>2021-11-18T10:27:19Z</time>
      </trkpt>
      <trkpt lat="46.56172" lon="6.0552">
        <ele>1115.6</ele>
        <time>2021-11-18T10:27:24Z</time>
      </trkpt>
      <trkpt lat="46.56174" lon="6.05513">
        <ele>1115.7</ele>
        <time>2021-11-18T10:27:30Z</time>
      </trkpt>
      <trkpt lat="46.56176" lon="6.05507">
        <ele>1116.3</ele>
        <time>2021-11-18T10:27:35Z</time>
      </trkpt>
      <trkpt lat="46.56178" lon="6.05501">
        <ele>1116.6</ele>
        <time>2021-11-18T10:27:41Z</time>
      </trkpt>
      <trkpt lat="46.5618" lon="6.05495">
        <ele>1116.9</ele>
        <time>2021-11-18T10:27:48Z</time>
      </trkpt>
      <trkpt lat="46.56183" lon="6.0549">
        <ele>1116.8</ele>
        <time>2021-11-18T10:27:55Z</time>
      </trkpt>
      <trkpt lat="46.56186" lon="6.05484">
        <ele>1116.2</ele>
        <time>2021-11-18T10:28:00Z</time>
      </trkpt>
      <trkpt lat="46.56188" lon="6.05478">
        <ele>1116</ele>
        <time>2021-11-18T10:28:04Z</time>
      </trkpt>
      <trkpt lat="46.56189" lon="6.05471">
        <ele>1116.5</ele>
        <time>2021-11-18T10:28:09Z</time>
      </trkpt>
      <trkpt lat="46.56191" lon="6.05465">
        <ele>1117.7</ele>
        <time>2021-11-18T10:28:14Z</time>
      </trkpt>
      <trkpt lat="46.56191" lon="6.05457">
        <ele>1119.1</ele>
        <time>2021-11-18T10:28:19Z</time>
      </trkpt>
      <trkpt lat="46.56192" lon="6.05451">
        <ele>1119.8</ele>
        <time>2021-11-18T10:28:23Z</time>
      </trkpt>
      <trkpt lat="46.56192" lon="6.05443">
        <ele>1120.7</ele>
        <time>2021-11-18T10:28:28Z</time>
      </trkpt>
      <trkpt lat="46.56192" lon="6.05435">
        <ele>1121.8</ele>
        <time>2021-11-18T10:28:36Z</time>
      </trkpt>
      <trkpt lat="46.56192" lon="6.05428">
        <ele>1123.1</ele>
        <time>2021-11-18T10:28:41Z</time>
      </trkpt>
      <trkpt lat="46.56189" lon="6.05422">
        <ele>1124.8</ele>
        <time>2021-11-18T10:28:47Z</time>
      </trkpt>
      <trkpt lat="46.56189" lon="6.05415">
        <ele>1126.1</ele>
        <time>2021-11-18T10:29:03Z</time>
      </trkpt>
      <trkpt lat="46.5619" lon="6.05409">
        <ele>1126.3</ele>
        <time>2021-11-18T10:29:09Z</time>
      </trkpt>
      <trkpt lat="46.56192" lon="6.05403">
        <ele>1126.4</ele>
        <time>2021-11-18T10:29:15Z</time>
      </trkpt>
      <trkpt lat="46.56193" lon="6.05396">
        <ele>1126.7</ele>
        <time>2021-11-18T10:29:21Z</time>
      </trkpt>
      <trkpt lat="46.56195" lon="6.05389">
        <ele>1127.1</ele>
        <time>2021-11-18T10:29:26Z</time>
      </trkpt>
      <trkpt lat="46.56195" lon="6.05382">
        <ele>1128.2</ele>
        <time>2021-11-18T10:29:31Z</time>
      </trkpt>
      <trkpt lat="46.56195" lon="6.05375">
        <ele>1129.7</ele>
        <time>2021-11-18T10:29:37Z</time>
      </trkpt>
      <trkpt lat="46.56194" lon="6.05368">
        <ele>1133.1</ele>
        <time>2021-11-18T10:29:47Z</time>
      </trkpt>
      <trkpt lat="46.56191" lon="6.05362">
        <ele>1135.4</ele>
        <time>2021-11-18T10:29:56Z</time>
      </trkpt>
      <trkpt lat="46.56189" lon="6.05354">
        <ele>1136.9</ele>
        <time>2021-11-18T10:30:12Z</time>
      </trkpt>
      <trkpt lat="46.56185" lon="6.05349">
        <ele>1137.1</ele>
        <time>2021-11-18T10:30:16Z</time>
      </trkpt>
      <trkpt lat="46.5618" lon="6.0535">
        <ele>1137.7</ele>
        <time>2021-11-18T10:31:27Z</time>
      </trkpt>
      <trkpt lat="46.56176" lon="6.05347">
        <ele>1136.9</ele>
        <time>2021-11-18T10:31:57Z</time>
      </trkpt>
      <trkpt lat="46.56175" lon="6.05337">
        <ele>1135.3</ele>
        <time>2021-11-18T10:32:12Z</time>
      </trkpt>
      <trkpt lat="46.56171" lon="6.05333">
        <ele>1135.8</ele>
        <time>2021-11-18T10:32:21Z</time>
      </trkpt>
      <trkpt lat="46.56166" lon="6.05331">
        <ele>1135.6</ele>
        <time>2021-11-18T10:32:26Z</time>
      </trkpt>
      <trkpt lat="46.56161" lon="6.05329">
        <ele>1135.5</ele>
        <time>2021-11-18T10:32:30Z</time>
      </trkpt>
      <trkpt lat="46.56156" lon="6.05328">
        <ele>1135.6</ele>
        <time>2021-11-18T10:32:34Z</time>
      </trkpt>
      <trkpt lat="46.56152" lon="6.05328">
        <ele>1135.5</ele>
        <time>2021-11-18T10:32:39Z</time>
      </trkpt>
      <trkpt lat="46.56147" lon="6.05328">
        <ele>1135.4</ele>
        <time>2021-11-18T10:32:45Z</time>
      </trkpt>
      <trkpt lat="46.56142" lon="6.05329">
        <ele>1135.8</ele>
        <time>2021-11-18T10:32:50Z</time>
      </trkpt>
      <trkpt lat="46.56137" lon="6.05329">
        <ele>1136.7</ele>
        <time>2021-11-18T10:32:57Z</time>
      </trkpt>
      <trkpt lat="46.56133" lon="6.05327">
        <ele>1137.6</ele>
        <time>2021-11-18T10:33:02Z</time>
      </trkpt>
      <trkpt lat="46.56128" lon="6.05324">
        <ele>1138.1</ele>
        <time>2021-11-18T10:33:07Z</time>
      </trkpt>
      <trkpt lat="46.56124" lon="6.05322">
        <ele>1139</ele>
        <time>2021-11-18T10:33:12Z</time>
      </trkpt>
      <trkpt lat="46.56119" lon="6.0532">
        <ele>1139.6</ele>
        <time>2021-11-18T10:33:18Z</time>
      </trkpt>
      <trkpt lat="46.56114" lon="6.05318">
        <ele>1140.2</ele>
        <time>2021-11-18T10:33:24Z</time>
      </trkpt>
      <trkpt lat="46.5611" lon="6.05313">
        <ele>1140.9</ele>
        <time>2021-11-18T10:33:32Z</time>
      </trkpt>
      <trkpt lat="46.56107" lon="6.05307">
        <ele>1141.1</ele>
        <time>2021-11-18T10:33:37Z</time>
      </trkpt>
      <trkpt lat="46.56105" lon="6.053">
        <ele>1141.3</ele>
        <time>2021-11-18T10:33:43Z</time>
      </trkpt>
      <trkpt lat="46.56103" lon="6.05294">
        <ele>1141</ele>
        <time>2021-11-18T10:33:48Z</time>
      </trkpt>
      <trkpt lat="46.56099" lon="6.05289">
        <ele>1140.6</ele>
        <time>2021-11-18T10:33:53Z</time>
      </trkpt>
      <trkpt lat="46.56095" lon="6.05285">
        <ele>1140.2</ele>
        <time>2021-11-18T10:33:58Z</time>
      </trkpt>
      <trkpt lat="46.5609" lon="6.05282">
        <ele>1140.1</ele>
        <time>2021-11-18T10:34:03Z</time>
      </trkpt>
      <trkpt lat="46.56086" lon="6.0528">
        <ele>1140</ele>
        <time>2021-11-18T10:34:08Z</time>
      </trkpt>
      <trkpt lat="46.5608" lon="6.0528">
        <ele>1140</ele>
        <time>2021-11-18T10:34:14Z</time>
      </trkpt>
      <trkpt lat="46.56075" lon="6.05279">
        <ele>1140.2</ele>
        <time>2021-11-18T10:34:19Z</time>
      </trkpt>
      <trkpt lat="46.56071" lon="6.05276">
        <ele>1140.4</ele>
        <time>2021-11-18T10:34:23Z</time>
      </trkpt>
      <trkpt lat="46.56066" lon="6.05272">
        <ele>1141.2</ele>
        <time>2021-11-18T10:34:27Z</time>
      </trkpt>
      <trkpt lat="46.56062" lon="6.05266">
        <ele>1141.8</ele>
        <time>2021-11-18T10:34:32Z</time>
      </trkpt>
      <trkpt lat="46.56057" lon="6.05264">
        <ele>1142</ele>
        <time>2021-11-18T10:34:37Z</time>
      </trkpt>
      <trkpt lat="46.56053" lon="6.05259">
        <ele>1141.5</ele>
        <time>2021-11-18T10:34:42Z</time>
      </trkpt>
      <trkpt lat="46.56049" lon="6.05254">
        <ele>1141</ele>
        <time>2021-11-18T10:34:48Z</time>
      </trkpt>
      <trkpt lat="46.56046" lon="6.05248">
        <ele>1140.4</ele>
        <time>2021-11-18T10:34:54Z</time>
      </trkpt>
      <trkpt lat="46.56043" lon="6.05241">
        <ele>1139.9</ele>
        <time>2021-11-18T10:35:01Z</time>
      </trkpt>
      <trkpt lat="46.56041" lon="6.05234">
        <ele>1139.8</ele>
        <time>2021-11-18T10:35:05Z</time>
      </trkpt>
      <trkpt lat="46.56039" lon="6.05228">
        <ele>1140</ele>
        <time>2021-11-18T10:35:10Z</time>
      </trkpt>
      <trkpt lat="46.56037" lon="6.05221">
        <ele>1140.8</ele>
        <time>2021-11-18T10:35:16Z</time>
      </trkpt>
      <trkpt lat="46.56035" lon="6.05215">
        <ele>1141.2</ele>
        <time>2021-11-18T10:35:21Z</time>
      </trkpt>
      <trkpt lat="46.56034" lon="6.05208">
        <ele>1142</ele>
        <time>2021-11-18T10:35:26Z</time>
      </trkpt>
      <trkpt lat="46.56032" lon="6.05201">
        <ele>1142.6</ele>
        <time>2021-11-18T10:35:31Z</time>
      </trkpt>
      <trkpt lat="46.56031" lon="6.05194">
        <ele>1143.3</ele>
        <time>2021-11-18T10:35:36Z</time>
      </trkpt>
      <trkpt lat="46.56029" lon="6.05187">
        <ele>1144</ele>
        <time>2021-11-18T10:35:41Z</time>
      </trkpt>
      <trkpt lat="46.56027" lon="6.0518">
        <ele>1143.9</ele>
        <time>2021-11-18T10:35:47Z</time>
      </trkpt>
      <trkpt lat="46.56032" lon="6.05176">
        <ele>1143.5</ele>
        <time>2021-11-18T10:36:21Z</time>
      </trkpt>
      <trkpt lat="46.56032" lon="6.05169">
        <ele>1146.5</ele>
        <time>2021-11-18T10:36:39Z</time>
      </trkpt>
      <trkpt lat="46.56031" lon="6.05162">
        <ele>1148.3</ele>
        <time>2021-11-18T10:36:44Z</time>
      </trkpt>
      <trkpt lat="46.56032" lon="6.05156">
        <ele>1149.5</ele>
        <time>2021-11-18T10:36:49Z</time>
      </trkpt>
      <trkpt lat="46.56032" lon="6.05149">
        <ele>1149.9</ele>
        <time>2021-11-18T10:36:55Z</time>
      </trkpt>
      <trkpt lat="46.5603" lon="6.05141">
        <ele>1150.1</ele>
        <time>2021-11-18T10:37:04Z</time>
      </trkpt>
      <trkpt lat="46.56027" lon="6.05135">
        <ele>1150.1</ele>
        <time>2021-11-18T10:37:08Z</time>
      </trkpt>
      <trkpt lat="46.56024" lon="6.0513">
        <ele>1149.9</ele>
        <time>2021-11-18T10:37:11Z</time>
      </trkpt>
      <trkpt lat="46.56021" lon="6.05123">
        <ele>1149.5</ele>
        <time>2021-11-18T10:37:15Z</time>
      </trkpt>
      <trkpt lat="46.56019" lon="6.05117">
        <ele>1149.1</ele>
        <time>2021-11-18T10:37:19Z</time>
      </trkpt>
      <trkpt lat="46.56016" lon="6.05112">
        <ele>1148.6</ele>
        <time>2021-11-18T10:37:23Z</time>
      </trkpt>
      <trkpt lat="46.56012" lon="6.05106">
        <ele>1147.9</ele>
        <time>2021-11-18T10:37:28Z</time>
      </trkpt>
      <trkpt lat="46.56009" lon="6.05101">
        <ele>1147.1</ele>
        <time>2021-11-18T10:37:33Z</time>
      </trkpt>
      <trkpt lat="46.56004" lon="6.05096">
        <ele>1146.8</ele>
        <time>2021-11-18T10:37:38Z</time>
      </trkpt>
      <trkpt lat="46.56" lon="6.05092">
        <ele>1146.9</ele>
        <time>2021-11-18T10:37:43Z</time>
      </trkpt>
      <trkpt lat="46.55996" lon="6.05087">
        <ele>1146.6</ele>
        <time>2021-11-18T10:37:49Z</time>
      </trkpt>
      <trkpt lat="46.55992" lon="6.05082">
        <ele>1146.5</ele>
        <time>2021-11-18T10:37:54Z</time>
      </trkpt>
      <trkpt lat="46.55988" lon="6.05076">
        <ele>1146.1</ele>
        <time>2021-11-18T10:37:59Z</time>
      </trkpt>
      <trkpt lat="46.55987" lon="6.05069">
        <ele>1145.8</ele>
        <time>2021-11-18T10:38:03Z</time>
      </trkpt>
      <trkpt lat="46.55984" lon="6.05064">
        <ele>1145.6</ele>
        <time>2021-11-18T10:38:08Z</time>
      </trkpt>
      <trkpt lat="46.55979" lon="6.05061">
        <ele>1145.2</ele>
        <time>2021-11-18T10:38:13Z</time>
      </trkpt>
      <trkpt lat="46.55975" lon="6.05057">
        <ele>1144.9</ele>
        <time>2021-11-18T10:38:17Z</time>
      </trkpt>
      <trkpt lat="46.55971" lon="6.05052">
        <ele>1144.4</ele>
        <time>2021-11-18T10:38:21Z</time>
      </trkpt>
      <trkpt lat="46.55966" lon="6.05048">
        <ele>1143.7</ele>
        <time>2021-11-18T10:38:27Z</time>
      </trkpt>
      <trkpt lat="46.55963" lon="6.05043">
        <ele>1143.2</ele>
        <time>2021-11-18T10:38:32Z</time>
      </trkpt>
      <trkpt lat="46.55958" lon="6.05041">
        <ele>1142.8</ele>
        <time>2021-11-18T10:38:42Z</time>
      </trkpt>
      <trkpt lat="46.55953" lon="6.05039">
        <ele>1143</ele>
        <time>2021-11-18T10:38:47Z</time>
      </trkpt>
      <trkpt lat="46.55949" lon="6.05038">
        <ele>1143.3</ele>
        <time>2021-11-18T10:38:53Z</time>
      </trkpt>
      <trkpt lat="46.55944" lon="6.05038">
        <ele>1143.7</ele>
        <time>2021-11-18T10:38:58Z</time>
      </trkpt>
      <trkpt lat="46.55939" lon="6.0504">
        <ele>1144.2</ele>
        <time>2021-11-18T10:39:03Z</time>
      </trkpt>
      <trkpt lat="46.55934" lon="6.05041">
        <ele>1144.8</ele>
        <time>2021-11-18T10:39:09Z</time>
      </trkpt>
      <trkpt lat="46.55928" lon="6.0504">
        <ele>1145.1</ele>
        <time>2021-11-18T10:39:15Z</time>
      </trkpt>
      <trkpt lat="46.55924" lon="6.05037">
        <ele>1145.1</ele>
        <time>2021-11-18T10:39:20Z</time>
      </trkpt>
      <trkpt lat="46.5592" lon="6.05034">
        <ele>1144.4</ele>
        <time>2021-11-18T10:39:25Z</time>
      </trkpt>
      <trkpt lat="46.55916" lon="6.05029">
        <ele>1143.6</ele>
        <time>2021-11-18T10:39:31Z</time>
      </trkpt>
      <trkpt lat="46.55912" lon="6.05026">
        <ele>1142.9</ele>
        <time>2021-11-18T10:39:36Z</time>
      </trkpt>
      <trkpt lat="46.55908" lon="6.05022">
        <ele>1142.5</ele>
        <time>2021-11-18T10:39:41Z</time>
      </trkpt>
      <trkpt lat="46.55904" lon="6.05016">
        <ele>1142.1</ele>
        <time>2021-11-18T10:39:46Z</time>
      </trkpt>
      <trkpt lat="46.55901" lon="6.0501">
        <ele>1141.3</ele>
        <time>2021-11-18T10:39:51Z</time>
      </trkpt>
      <trkpt lat="46.55897" lon="6.05011">
        <ele>1140.7</ele>
        <time>2021-11-18T10:40:02Z</time>
      </trkpt>
      <trkpt lat="46.55891" lon="6.05012">
        <ele>1141.9</ele>
        <time>2021-11-18T10:40:10Z</time>
      </trkpt>
      <trkpt lat="46.55887" lon="6.0501">
        <ele>1143</ele>
        <time>2021-11-18T10:40:15Z</time>
      </trkpt>
      <trkpt lat="46.55883" lon="6.05006">
        <ele>1144.3</ele>
        <time>2021-11-18T10:40:20Z</time>
      </trkpt>
      <trkpt lat="46.55879" lon="6.05">
        <ele>1145.1</ele>
        <time>2021-11-18T10:40:25Z</time>
      </trkpt>
      <trkpt lat="46.55876" lon="6.04997">
        <ele>1145.4</ele>
        <time>2021-11-18T10:40:29Z</time>
      </trkpt>
      <trkpt lat="46.55872" lon="6.04994">
        <ele>1145.6</ele>
        <time>2021-11-18T10:40:32Z</time>
      </trkpt>
      <trkpt lat="46.55867" lon="6.0499">
        <ele>1145.8</ele>
        <time>2021-11-18T10:40:36Z</time>
      </trkpt>
      <trkpt lat="46.55863" lon="6.04987">
        <ele>1146</ele>
        <time>2021-11-18T10:40:40Z</time>
      </trkpt>
      <trkpt lat="46.55858" lon="6.04985">
        <ele>1146.2</ele>
        <time>2021-11-18T10:40:45Z</time>
      </trkpt>
      <trkpt lat="46.55854" lon="6.0498">
        <ele>1147.2</ele>
        <time>2021-11-18T10:40:52Z</time>
      </trkpt>
      <trkpt lat="46.55852" lon="6.04974">
        <ele>1148.3</ele>
        <time>2021-11-18T10:40:57Z</time>
      </trkpt>
      <trkpt lat="46.55848" lon="6.04969">
        <ele>1149.4</ele>
        <time>2021-11-18T10:41:01Z</time>
      </trkpt>
      <trkpt lat="46.55843" lon="6.04966">
        <ele>1150.3</ele>
        <time>2021-11-18T10:41:06Z</time>
      </trkpt>
      <trkpt lat="46.55839" lon="6.04962">
        <ele>1151.1</ele>
        <time>2021-11-18T10:41:10Z</time>
      </trkpt>
      <trkpt lat="46.55834" lon="6.0496">
        <ele>1151.6</ele>
        <time>2021-11-18T10:41:16Z</time>
      </trkpt>
      <trkpt lat="46.55829" lon="6.04957">
        <ele>1152.1</ele>
        <time>2021-11-18T10:41:22Z</time>
      </trkpt>
      <trkpt lat="46.55824" lon="6.04957">
        <ele>1152.3</ele>
        <time>2021-11-18T10:41:27Z</time>
      </trkpt>
      <trkpt lat="46.55819" lon="6.04957">
        <ele>1152.9</ele>
        <time>2021-11-18T10:41:34Z</time>
      </trkpt>
      <trkpt lat="46.55815" lon="6.04957">
        <ele>1153.6</ele>
        <time>2021-11-18T10:41:39Z</time>
      </trkpt>
      <trkpt lat="46.5581" lon="6.04955">
        <ele>1154</ele>
        <time>2021-11-18T10:41:45Z</time>
      </trkpt>
      <trkpt lat="46.55805" lon="6.04954">
        <ele>1153.9</ele>
        <time>2021-11-18T10:41:51Z</time>
      </trkpt>
      <trkpt lat="46.55801" lon="6.04949">
        <ele>1153.4</ele>
        <time>2021-11-18T10:41:57Z</time>
      </trkpt>
      <trkpt lat="46.55798" lon="6.04943">
        <ele>1152.8</ele>
        <time>2021-11-18T10:42:03Z</time>
      </trkpt>
      <trkpt lat="46.55795" lon="6.04937">
        <ele>1152.1</ele>
        <time>2021-11-18T10:42:09Z</time>
      </trkpt>
      <trkpt lat="46.5579" lon="6.04932">
        <ele>1151.5</ele>
        <time>2021-11-18T10:42:14Z</time>
      </trkpt>
      <trkpt lat="46.55786" lon="6.04929">
        <ele>1151</ele>
        <time>2021-11-18T10:42:18Z</time>
      </trkpt>
      <trkpt lat="46.55782" lon="6.04927">
        <ele>1150.6</ele>
        <time>2021-11-18T10:42:23Z</time>
      </trkpt>
      <trkpt lat="46.55777" lon="6.04925">
        <ele>1150.3</ele>
        <time>2021-11-18T10:42:29Z</time>
      </trkpt>
      <trkpt lat="46.55773" lon="6.04921">
        <ele>1150.6</ele>
        <time>2021-11-18T10:42:35Z</time>
      </trkpt>
      <trkpt lat="46.55768" lon="6.04918">
        <ele>1151.1</ele>
        <time>2021-11-18T10:42:41Z</time>
      </trkpt>
      <trkpt lat="46.55764" lon="6.04914">
        <ele>1151.7</ele>
        <time>2021-11-18T10:42:48Z</time>
      </trkpt>
      <trkpt lat="46.5576" lon="6.04913">
        <ele>1151.6</ele>
        <time>2021-11-18T10:42:54Z</time>
      </trkpt>
      <trkpt lat="46.55754" lon="6.04914">
        <ele>1151.8</ele>
        <time>2021-11-18T10:42:59Z</time>
      </trkpt>
      <trkpt lat="46.55749" lon="6.04914">
        <ele>1152</ele>
        <time>2021-11-18T10:43:03Z</time>
      </trkpt>
      <trkpt lat="46.55744" lon="6.04913">
        <ele>1152</ele>
        <time>2021-11-18T10:43:08Z</time>
      </trkpt>
      <trkpt lat="46.5574" lon="6.04909">
        <ele>1151.9</ele>
        <time>2021-11-18T10:43:12Z</time>
      </trkpt>
      <trkpt lat="46.55736" lon="6.04906">
        <ele>1151.8</ele>
        <time>2021-11-18T10:43:20Z</time>
      </trkpt>
      <trkpt lat="46.55732" lon="6.04901">
        <ele>1151.8</ele>
        <time>2021-11-18T10:43:36Z</time>
      </trkpt>
      <trkpt lat="46.55727" lon="6.04899">
        <ele>1152.7</ele>
        <time>2021-11-18T10:43:43Z</time>
      </trkpt>
      <trkpt lat="46.55722" lon="6.04901">
        <ele>1153.4</ele>
        <time>2021-11-18T10:43:48Z</time>
      </trkpt>
      <trkpt lat="46.55717" lon="6.04905">
        <ele>1153.3</ele>
        <time>2021-11-18T10:43:57Z</time>
      </trkpt>
      <trkpt lat="46.55712" lon="6.04903">
        <ele>1152.9</ele>
        <time>2021-11-18T10:44:06Z</time>
      </trkpt>
      <trkpt lat="46.55709" lon="6.04897">
        <ele>1152.1</ele>
        <time>2021-11-18T10:44:12Z</time>
      </trkpt>
      <trkpt lat="46.55707" lon="6.04891">
        <ele>1151.1</ele>
        <time>2021-11-18T10:44:18Z</time>
      </trkpt>
      <trkpt lat="46.55704" lon="6.04886">
        <ele>1150.5</ele>
        <time>2021-11-18T10:44:22Z</time>
      </trkpt>
      <trkpt lat="46.557" lon="6.04882">
        <ele>1149.6</ele>
        <time>2021-11-18T10:44:26Z</time>
      </trkpt>
      <trkpt lat="46.55696" lon="6.0488">
        <ele>1149</ele>
        <time>2021-11-18T10:44:31Z</time>
      </trkpt>
      <trkpt lat="46.5569" lon="6.0488">
        <ele>1148.5</ele>
        <time>2021-11-18T10:44:37Z</time>
      </trkpt>
      <trkpt lat="46.55686" lon="6.04882">
        <ele>1148</ele>
        <time>2021-11-18T10:44:43Z</time>
      </trkpt>
      <trkpt lat="46.55681" lon="6.04883">
        <ele>1147.8</ele>
        <time>2021-11-18T10:44:48Z</time>
      </trkpt>
      <trkpt lat="46.55677" lon="6.04885">
        <ele>1148.2</ele>
        <time>2021-11-18T10:44:54Z</time>
      </trkpt>
      <trkpt lat="46.55672" lon="6.04887">
        <ele>1149</ele>
        <time>2021-11-18T10:45:01Z</time>
      </trkpt>
      <trkpt lat="46.55667" lon="6.04886">
        <ele>1149.3</ele>
        <time>2021-11-18T10:45:10Z</time>
      </trkpt>
      <trkpt lat="46.55662" lon="6.04885">
        <ele>1148.5</ele>
        <time>2021-11-18T10:45:17Z</time>
      </trkpt>
      <trkpt lat="46.55658" lon="6.04884">
        <ele>1148.4</ele>
        <time>2021-11-18T10:45:23Z</time>
      </trkpt>
      <trkpt lat="46.55657" lon="6.04877">
        <ele>1147.5</ele>
        <time>2021-11-18T10:45:34Z</time>
      </trkpt>
      <trkpt lat="46.55652" lon="6.04875">
        <ele>1146.5</ele>
        <time>2021-11-18T10:45:39Z</time>
      </trkpt>
      <trkpt lat="46.55648" lon="6.04872">
        <ele>1145.5</ele>
        <time>2021-11-18T10:45:45Z</time>
      </trkpt>
      <trkpt lat="46.55644" lon="6.04868">
        <ele>1145.1</ele>
        <time>2021-11-18T10:45:50Z</time>
      </trkpt>
      <trkpt lat="46.5564" lon="6.04864">
        <ele>1144.7</ele>
        <time>2021-11-18T10:45:56Z</time>
      </trkpt>
      <trkpt lat="46.55636" lon="6.04861">
        <ele>1144</ele>
        <time>2021-11-18T10:46:01Z</time>
      </trkpt>
      <trkpt lat="46.55632" lon="6.04855">
        <ele>1142.9</ele>
        <time>2021-11-18T10:46:06Z</time>
      </trkpt>
      <trkpt lat="46.5563" lon="6.04848">
        <ele>1141.5</ele>
        <time>2021-11-18T10:46:12Z</time>
      </trkpt>
      <trkpt lat="46.55629" lon="6.04842">
        <ele>1140</ele>
        <time>2021-11-18T10:46:17Z</time>
      </trkpt>
      <trkpt lat="46.55626" lon="6.04836">
        <ele>1138.5</ele>
        <time>2021-11-18T10:46:22Z</time>
      </trkpt>
      <trkpt lat="46.55624" lon="6.04829">
        <ele>1137.2</ele>
        <time>2021-11-18T10:46:27Z</time>
      </trkpt>
      <trkpt lat="46.55622" lon="6.04823">
        <ele>1136.5</ele>
        <time>2021-11-18T10:46:32Z</time>
      </trkpt>
      <trkpt lat="46.5562" lon="6.04816">
        <ele>1136.3</ele>
        <time>2021-11-18T10:46:38Z</time>
      </trkpt>
      <trkpt lat="46.55617" lon="6.04809">
        <ele>1136.6</ele>
        <time>2021-11-18T10:46:43Z</time>
      </trkpt>
      <trkpt lat="46.55615" lon="6.04802">
        <ele>1136.9</ele>
        <time>2021-11-18T10:46:48Z</time>
      </trkpt>
      <trkpt lat="46.55613" lon="6.04796">
        <ele>1137</ele>
        <time>2021-11-18T10:46:53Z</time>
      </trkpt>
      <trkpt lat="46.55611" lon="6.0479">
        <ele>1137.2</ele>
        <time>2021-11-18T10:47:00Z</time>
      </trkpt>
      <trkpt lat="46.55607" lon="6.04785">
        <ele>1137.5</ele>
        <time>2021-11-18T10:47:06Z</time>
      </trkpt>
      <trkpt lat="46.55602" lon="6.04782">
        <ele>1137.6</ele>
        <time>2021-11-18T10:47:10Z</time>
      </trkpt>
      <trkpt lat="46.55598" lon="6.04779">
        <ele>1138.1</ele>
        <time>2021-11-18T10:47:15Z</time>
      </trkpt>
      <trkpt lat="46.55593" lon="6.04776">
        <ele>1138.6</ele>
        <time>2021-11-18T10:47:20Z</time>
      </trkpt>
      <trkpt lat="46.55588" lon="6.04774">
        <ele>1139.7</ele>
        <time>2021-11-18T10:47:25Z</time>
      </trkpt>
      <trkpt lat="46.55583" lon="6.04774">
        <ele>1140.8</ele>
        <time>2021-11-18T10:47:30Z</time>
      </trkpt>
      <trkpt lat="46.55578" lon="6.0477">
        <ele>1141.7</ele>
        <time>2021-11-18T10:47:36Z</time>
      </trkpt>
      <trkpt lat="46.55574" lon="6.04765">
        <ele>1142</ele>
        <time>2021-11-18T10:47:41Z</time>
      </trkpt>
      <trkpt lat="46.55571" lon="6.04759">
        <ele>1141.9</ele>
        <time>2021-11-18T10:47:47Z</time>
      </trkpt>
      <trkpt lat="46.55567" lon="6.04755">
        <ele>1141.8</ele>
        <time>2021-11-18T10:47:51Z</time>
      </trkpt>
      <trkpt lat="46.55563" lon="6.04751">
        <ele>1141.5</ele>
        <time>2021-11-18T10:47:56Z</time>
      </trkpt>
      <trkpt lat="46.55559" lon="6.04747">
        <ele>1141.4</ele>
        <time>2021-11-18T10:48:04Z</time>
      </trkpt>
      <trkpt lat="46.55557" lon="6.04741">
        <ele>1141.1</ele>
        <time>2021-11-18T10:48:13Z</time>
      </trkpt>
      <trkpt lat="46.55562" lon="6.04743">
        <ele>1140.1</ele>
        <time>2021-11-18T10:48:19Z</time>
      </trkpt>
      <trkpt lat="46.55558" lon="6.04738">
        <ele>1140.3</ele>
        <time>2021-11-18T10:48:29Z</time>
      </trkpt>
      <trkpt lat="46.55558" lon="6.04729">
        <ele>1140.7</ele>
        <time>2021-11-18T10:48:35Z</time>
      </trkpt>
      <trkpt lat="46.55558" lon="6.04721">
        <ele>1140.4</ele>
        <time>2021-11-18T10:48:39Z</time>
      </trkpt>
      <trkpt lat="46.55557" lon="6.04714">
        <ele>1140.3</ele>
        <time>2021-11-18T10:48:43Z</time>
      </trkpt>
      <trkpt lat="46.55555" lon="6.04708">
        <ele>1140.4</ele>
        <time>2021-11-18T10:48:48Z</time>
      </trkpt>
      <trkpt lat="46.55554" lon="6.04701">
        <ele>1140.3</ele>
        <time>2021-11-18T10:48:53Z</time>
      </trkpt>
      <trkpt lat="46.55551" lon="6.04695">
        <ele>1140.2</ele>
        <time>2021-11-18T10:48:59Z</time>
      </trkpt>
      <trkpt lat="46.55548" lon="6.0469">
        <ele>1140.8</ele>
        <time>2021-11-18T10:49:03Z</time>
      </trkpt>
      <trkpt lat="46.55546" lon="6.04684">
        <ele>1141.9</ele>
        <time>2021-11-18T10:49:10Z</time>
      </trkpt>
      <trkpt lat="46.55545" lon="6.04676">
        <ele>1142.9</ele>
        <time>2021-11-18T10:49:16Z</time>
      </trkpt>
      <trkpt lat="46.55542" lon="6.04671">
        <ele>1143</ele>
        <time>2021-11-18T10:49:20Z</time>
      </trkpt>
      <trkpt lat="46.55538" lon="6.04665">
        <ele>1143.6</ele>
        <time>2021-11-18T10:49:24Z</time>
      </trkpt>
      <trkpt lat="46.55536" lon="6.04659">
        <ele>1145.3</ele>
        <time>2021-11-18T10:49:32Z</time>
      </trkpt>
      <trkpt lat="46.55533" lon="6.04653">
        <ele>1146.4</ele>
        <time>2021-11-18T10:49:37Z</time>
      </trkpt>
      <trkpt lat="46.55529" lon="6.04648">
        <ele>1147.9</ele>
        <time>2021-11-18T10:49:43Z</time>
      </trkpt>
      <trkpt lat="46.55525" lon="6.04642">
        <ele>1148.5</ele>
        <time>2021-11-18T10:49:48Z</time>
      </trkpt>
      <trkpt lat="46.55522" lon="6.04637">
        <ele>1149</ele>
        <time>2021-11-18T10:49:53Z</time>
      </trkpt>
      <trkpt lat="46.55517" lon="6.04635">
        <ele>1150</ele>
        <time>2021-11-18T10:49:57Z</time>
      </trkpt>
      <trkpt lat="46.55514" lon="6.04641">
        <ele>1151.2</ele>
        <time>2021-11-18T10:50:06Z</time>
      </trkpt>
      <trkpt lat="46.55514" lon="6.04648">
        <ele>1151.3</ele>
        <time>2021-11-18T10:50:11Z</time>
      </trkpt>
      <trkpt lat="46.55513" lon="6.04655">
        <ele>1151.4</ele>
        <time>2021-11-18T10:50:19Z</time>
      </trkpt>
      <trkpt lat="46.5551" lon="6.0466">
        <ele>1151.2</ele>
        <time>2021-11-18T10:50:25Z</time>
      </trkpt>
      <trkpt lat="46.55507" lon="6.04666">
        <ele>1150.5</ele>
        <time>2021-11-18T10:50:37Z</time>
      </trkpt>
      <trkpt lat="46.55502" lon="6.04666">
        <ele>1149.4</ele>
        <time>2021-11-18T10:50:43Z</time>
      </trkpt>
      <trkpt lat="46.55498" lon="6.0467">
        <ele>1148.6</ele>
        <time>2021-11-18T10:50:49Z</time>
      </trkpt>
      <trkpt lat="46.55494" lon="6.04673">
        <ele>1148.5</ele>
        <time>2021-11-18T10:50:55Z</time>
      </trkpt>
      <trkpt lat="46.5549" lon="6.04676">
        <ele>1149.5</ele>
        <time>2021-11-18T10:51:01Z</time>
      </trkpt>
      <trkpt lat="46.55488" lon="6.04684">
        <ele>1150.5</ele>
        <time>2021-11-18T10:51:08Z</time>
      </trkpt>
      <trkpt lat="46.55493" lon="6.04682">
        <ele>1150.7</ele>
        <time>2021-11-18T10:52:16Z</time>
      </trkpt>
      <trkpt lat="46.55489" lon="6.04686">
        <ele>1152.1</ele>
        <time>2021-11-18T10:52:48Z</time>
      </trkpt>
      <trkpt lat="46.55487" lon="6.04681">
        <ele>1153.4</ele>
        <time>2021-11-18T10:53:13Z</time>
      </trkpt>
      <trkpt lat="46.55491" lon="6.04679">
        <ele>1150.6</ele>
        <time>2021-11-18T10:55:06Z</time>
      </trkpt>
      <trkpt lat="46.55488" lon="6.04687">
        <ele>1152.5</ele>
        <time>2021-11-18T11:04:32Z</time>
      </trkpt>
      <trkpt lat="46.55492" lon="6.04682">
        <ele>1152.4</ele>
        <time>2021-11-18T11:11:28Z</time>
      </trkpt>
      <trkpt lat="46.55495" lon="6.04678">
        <ele>1121.8</ele>
        <time>2021-11-18T11:30:36Z</time>
      </trkpt>
      <trkpt lat="46.5549" lon="6.04679">
        <ele>1139.3</ele>
        <time>2021-11-18T11:30:47Z</time>
      </trkpt>
      <trkpt lat="46.55498" lon="6.04675">
        <ele>1149.2</ele>
        <time>2021-11-18T11:35:45Z</time>
      </trkpt>
      <trkpt lat="46.55493" lon="6.04677">
        <ele>1149</ele>
        <time>2021-11-18T11:36:09Z</time>
      </trkpt>
      <trkpt lat="46.55494" lon="6.04683">
        <ele>1144.6</ele>
        <time>2021-11-18T11:38:43Z</time>
      </trkpt>
      <trkpt lat="46.55491" lon="6.04677">
        <ele>1143</ele>
        <time>2021-11-18T11:40:30Z</time>
      </trkpt>
      <trkpt lat="46.55493" lon="6.04671">
        <ele>1143.6</ele>
        <time>2021-11-18T11:40:38Z</time>
      </trkpt>
      <trkpt lat="46.55498" lon="6.04669">
        <ele>1144.2</ele>
        <time>2021-11-18T11:40:45Z</time>
      </trkpt>
      <trkpt lat="46.55502" lon="6.04664">
        <ele>1145.5</ele>
        <time>2021-11-18T11:40:55Z</time>
      </trkpt>
      <trkpt lat="46.55506" lon="6.04662">
        <ele>1146.5</ele>
        <time>2021-11-18T11:41:02Z</time>
      </trkpt>
      <trkpt lat="46.55511" lon="6.04662">
        <ele>1147</ele>
        <time>2021-11-18T11:41:07Z</time>
      </trkpt>
      <trkpt lat="46.55516" lon="6.04662">
        <ele>1146.9</ele>
        <time>2021-11-18T11:41:20Z</time>
      </trkpt>
      <trkpt lat="46.55521" lon="6.04659">
        <ele>1146.2</ele>
        <time>2021-11-18T11:41:24Z</time>
      </trkpt>
      <trkpt lat="46.55522" lon="6.04652">
        <ele>1143.7</ele>
        <time>2021-11-18T11:41:39Z</time>
      </trkpt>
      <trkpt lat="46.55522" lon="6.04644">
        <ele>1142.4</ele>
        <time>2021-11-18T11:41:42Z</time>
      </trkpt>
      <trkpt lat="46.55523" lon="6.04637">
        <ele>1140</ele>
        <time>2021-11-18T11:41:48Z</time>
      </trkpt>
      <trkpt lat="46.55522" lon="6.04629">
        <ele>1137.9</ele>
        <time>2021-11-18T11:41:54Z</time>
      </trkpt>
      <trkpt lat="46.55518" lon="6.04624">
        <ele>1136.9</ele>
        <time>2021-11-18T11:41:59Z</time>
      </trkpt>
      <trkpt lat="46.55514" lon="6.04619">
        <ele>1135.9</ele>
        <time>2021-11-18T11:42:05Z</time>
      </trkpt>
      <trkpt lat="46.55509" lon="6.04616">
        <ele>1135.4</ele>
        <time>2021-11-18T11:42:10Z</time>
      </trkpt>
      <trkpt lat="46.55505" lon="6.04615">
        <ele>1134.4</ele>
        <time>2021-11-18T11:42:16Z</time>
      </trkpt>
      <trkpt lat="46.555" lon="6.04613">
        <ele>1133.3</ele>
        <time>2021-11-18T11:42:22Z</time>
      </trkpt>
      <trkpt lat="46.55495" lon="6.04612">
        <ele>1132.7</ele>
        <time>2021-11-18T11:42:29Z</time>
      </trkpt>
      <trkpt lat="46.5549" lon="6.04612">
        <ele>1132.2</ele>
        <time>2021-11-18T11:42:35Z</time>
      </trkpt>
      <trkpt lat="46.55485" lon="6.04613">
        <ele>1131.3</ele>
        <time>2021-11-18T11:42:42Z</time>
      </trkpt>
      <trkpt lat="46.55481" lon="6.0461">
        <ele>1131</ele>
        <time>2021-11-18T11:42:47Z</time>
      </trkpt>
      <trkpt lat="46.55478" lon="6.04605">
        <ele>1130.4</ele>
        <time>2021-11-18T11:42:52Z</time>
      </trkpt>
      <trkpt lat="46.55475" lon="6.04599">
        <ele>1129.8</ele>
        <time>2021-11-18T11:42:59Z</time>
      </trkpt>
      <trkpt lat="46.55471" lon="6.04595">
        <ele>1129.4</ele>
        <time>2021-11-18T11:43:05Z</time>
      </trkpt>
      <trkpt lat="46.55467" lon="6.04591">
        <ele>1129.5</ele>
        <time>2021-11-18T11:43:09Z</time>
      </trkpt>
      <trkpt lat="46.55463" lon="6.04587">
        <ele>1129.7</ele>
        <time>2021-11-18T11:43:14Z</time>
      </trkpt>
      <trkpt lat="46.5546" lon="6.04582">
        <ele>1129.8</ele>
        <time>2021-11-18T11:43:20Z</time>
      </trkpt>
      <trkpt lat="46.55456" lon="6.04576">
        <ele>1130.3</ele>
        <time>2021-11-18T11:43:30Z</time>
      </trkpt>
      <trkpt lat="46.55455" lon="6.0457">
        <ele>1130.4</ele>
        <time>2021-11-18T11:43:36Z</time>
      </trkpt>
      <trkpt lat="46.5545" lon="6.04568">
        <ele>1131.3</ele>
        <time>2021-11-18T11:43:44Z</time>
      </trkpt>
      <trkpt lat="46.55446" lon="6.04564">
        <ele>1132.2</ele>
        <time>2021-11-18T11:43:50Z</time>
      </trkpt>
      <trkpt lat="46.55443" lon="6.04558">
        <ele>1132.5</ele>
        <time>2021-11-18T11:43:56Z</time>
      </trkpt>
      <trkpt lat="46.55439" lon="6.04555">
        <ele>1132.4</ele>
        <time>2021-11-18T11:44:02Z</time>
      </trkpt>
      <trkpt lat="46.55435" lon="6.04551">
        <ele>1132.1</ele>
        <time>2021-11-18T11:44:06Z</time>
      </trkpt>
      <trkpt lat="46.55431" lon="6.04548">
        <ele>1132.1</ele>
        <time>2021-11-18T11:44:10Z</time>
      </trkpt>
      <trkpt lat="46.55426" lon="6.04547">
        <ele>1133.6</ele>
        <time>2021-11-18T11:44:17Z</time>
      </trkpt>
      <trkpt lat="46.55424" lon="6.04541">
        <ele>1135.1</ele>
        <time>2021-11-18T11:44:23Z</time>
      </trkpt>
      <trkpt lat="46.55422" lon="6.04535">
        <ele>1136.1</ele>
        <time>2021-11-18T11:44:28Z</time>
      </trkpt>
      <trkpt lat="46.5542" lon="6.04528">
        <ele>1137</ele>
        <time>2021-11-18T11:44:35Z</time>
      </trkpt>
      <trkpt lat="46.55416" lon="6.04522">
        <ele>1137.3</ele>
        <time>2021-11-18T11:44:41Z</time>
      </trkpt>
      <trkpt lat="46.55412" lon="6.04519">
        <ele>1137.7</ele>
        <time>2021-11-18T11:44:45Z</time>
      </trkpt>
      <trkpt lat="46.55408" lon="6.04514">
        <ele>1138.5</ele>
        <time>2021-11-18T11:44:50Z</time>
      </trkpt>
      <trkpt lat="46.55403" lon="6.04512">
        <ele>1139.1</ele>
        <time>2021-11-18T11:44:55Z</time>
      </trkpt>
      <trkpt lat="46.554" lon="6.04507">
        <ele>1139.4</ele>
        <time>2021-11-18T11:45:00Z</time>
      </trkpt>
      <trkpt lat="46.55396" lon="6.04501">
        <ele>1139.1</ele>
        <time>2021-11-18T11:45:07Z</time>
      </trkpt>
      <trkpt lat="46.55392" lon="6.04499">
        <ele>1138.3</ele>
        <time>2021-11-18T11:45:15Z</time>
      </trkpt>
      <trkpt lat="46.55387" lon="6.04495">
        <ele>1138.2</ele>
        <time>2021-11-18T11:45:21Z</time>
      </trkpt>
      <trkpt lat="46.55383" lon="6.0449">
        <ele>1138.4</ele>
        <time>2021-11-18T11:45:26Z</time>
      </trkpt>
      <trkpt lat="46.5538" lon="6.04484">
        <ele>1138.4</ele>
        <time>2021-11-18T11:45:32Z</time>
      </trkpt>
      <trkpt lat="46.55376" lon="6.0448">
        <ele>1138.5</ele>
        <time>2021-11-18T11:45:38Z</time>
      </trkpt>
      <trkpt lat="46.55372" lon="6.04477">
        <ele>1138.5</ele>
        <time>2021-11-18T11:45:43Z</time>
      </trkpt>
      <trkpt lat="46.55368" lon="6.04473">
        <ele>1138.5</ele>
        <time>2021-11-18T11:45:47Z</time>
      </trkpt>
      <trkpt lat="46.55363" lon="6.04472">
        <ele>1138.2</ele>
        <time>2021-11-18T11:45:55Z</time>
      </trkpt>
      <trkpt lat="46.55359" lon="6.04469">
        <ele>1137.9</ele>
        <time>2021-11-18T11:46:01Z</time>
      </trkpt>
      <trkpt lat="46.55355" lon="6.04463">
        <ele>1137.7</ele>
        <time>2021-11-18T11:46:09Z</time>
      </trkpt>
      <trkpt lat="46.55354" lon="6.04457">
        <ele>1137.6</ele>
        <time>2021-11-18T11:46:14Z</time>
      </trkpt>
      <trkpt lat="46.55353" lon="6.04449">
        <ele>1136.9</ele>
        <time>2021-11-18T11:46:19Z</time>
      </trkpt>
      <trkpt lat="46.55351" lon="6.04442">
        <ele>1136.5</ele>
        <time>2021-11-18T11:46:25Z</time>
      </trkpt>
      <trkpt lat="46.55349" lon="6.04436">
        <ele>1136</ele>
        <time>2021-11-18T11:46:31Z</time>
      </trkpt>
      <trkpt lat="46.55347" lon="6.04429">
        <ele>1135.4</ele>
        <time>2021-11-18T11:46:38Z</time>
      </trkpt>
      <trkpt lat="46.55345" lon="6.04422">
        <ele>1135.1</ele>
        <time>2021-11-18T11:46:43Z</time>
      </trkpt>
      <trkpt lat="46.55342" lon="6.04417">
        <ele>1134.9</ele>
        <time>2021-11-18T11:46:50Z</time>
      </trkpt>
      <trkpt lat="46.55338" lon="6.04413">
        <ele>1135.5</ele>
        <time>2021-11-18T11:46:58Z</time>
      </trkpt>
      <trkpt lat="46.55334" lon="6.0441">
        <ele>1136.5</ele>
        <time>2021-11-18T11:47:03Z</time>
      </trkpt>
      <trkpt lat="46.5533" lon="6.04405">
        <ele>1137.6</ele>
        <time>2021-11-18T11:47:08Z</time>
      </trkpt>
      <trkpt lat="46.55327" lon="6.04399">
        <ele>1138.4</ele>
        <time>2021-11-18T11:47:13Z</time>
      </trkpt>
      <trkpt lat="46.55323" lon="6.04395">
        <ele>1139.6</ele>
        <time>2021-11-18T11:47:19Z</time>
      </trkpt>
      <trkpt lat="46.55319" lon="6.04394">
        <ele>1140.9</ele>
        <time>2021-11-18T11:47:26Z</time>
      </trkpt>
      <trkpt lat="46.55314" lon="6.04391">
        <ele>1141.4</ele>
        <time>2021-11-18T11:47:33Z</time>
      </trkpt>
      <trkpt lat="46.5531" lon="6.04387">
        <ele>1140.7</ele>
        <time>2021-11-18T11:47:39Z</time>
      </trkpt>
      <trkpt lat="46.55306" lon="6.04382">
        <ele>1139.5</ele>
        <time>2021-11-18T11:47:45Z</time>
      </trkpt>
      <trkpt lat="46.55303" lon="6.04377">
        <ele>1138.1</ele>
        <time>2021-11-18T11:47:52Z</time>
      </trkpt>
      <trkpt lat="46.553" lon="6.04372">
        <ele>1137.4</ele>
        <time>2021-11-18T11:47:57Z</time>
      </trkpt>
      <trkpt lat="46.55298" lon="6.04366">
        <ele>1136.8</ele>
        <time>2021-11-18T11:48:04Z</time>
      </trkpt>
      <trkpt lat="46.55296" lon="6.04359">
        <ele>1136.5</ele>
        <time>2021-11-18T11:48:10Z</time>
      </trkpt>
      <trkpt lat="46.55293" lon="6.04353">
        <ele>1136.5</ele>
        <time>2021-11-18T11:48:17Z</time>
      </trkpt>
      <trkpt lat="46.55289" lon="6.04347">
        <ele>1136.6</ele>
        <time>2021-11-18T11:48:22Z</time>
      </trkpt>
      <trkpt lat="46.55287" lon="6.04341">
        <ele>1136.6</ele>
        <time>2021-11-18T11:48:28Z</time>
      </trkpt>
      <trkpt lat="46.55283" lon="6.04336">
        <ele>1135.7</ele>
        <time>2021-11-18T11:48:37Z</time>
      </trkpt>
      <trkpt lat="46.55279" lon="6.04334">
        <ele>1135</ele>
        <time>2021-11-18T11:48:42Z</time>
      </trkpt>
      <trkpt lat="46.55274" lon="6.04333">
        <ele>1134.3</ele>
        <time>2021-11-18T11:48:49Z</time>
      </trkpt>
      <trkpt lat="46.55271" lon="6.04327">
        <ele>1134.3</ele>
        <time>2021-11-18T11:48:56Z</time>
      </trkpt>
      <trkpt lat="46.55269" lon="6.04321">
        <ele>1133.8</ele>
        <time>2021-11-18T11:49:02Z</time>
      </trkpt>
      <trkpt lat="46.55267" lon="6.04315">
        <ele>1132.7</ele>
        <time>2021-11-18T11:49:07Z</time>
      </trkpt>
      <trkpt lat="46.55264" lon="6.04309">
        <ele>1131.8</ele>
        <time>2021-11-18T11:49:12Z</time>
      </trkpt>
      <trkpt lat="46.55262" lon="6.04303">
        <ele>1131.2</ele>
        <time>2021-11-18T11:49:18Z</time>
      </trkpt>
      <trkpt lat="46.55257" lon="6.04301">
        <ele>1129.7</ele>
        <time>2021-11-18T11:49:27Z</time>
      </trkpt>
      <trkpt lat="46.55254" lon="6.04297">
        <ele>1129.4</ele>
        <time>2021-11-18T11:49:38Z</time>
      </trkpt>
      <trkpt lat="46.55249" lon="6.04298">
        <ele>1129.7</ele>
        <time>2021-11-18T11:49:46Z</time>
      </trkpt>
      <trkpt lat="46.55252" lon="6.04292">
        <ele>1130.2</ele>
        <time>2021-11-18T11:50:16Z</time>
      </trkpt>
      <trkpt lat="46.55247" lon="6.04292">
        <ele>1130.7</ele>
        <time>2021-11-18T11:50:33Z</time>
      </trkpt>
      <trkpt lat="46.55244" lon="6.04286">
        <ele>1131.8</ele>
        <time>2021-11-18T11:50:43Z</time>
      </trkpt>
      <trkpt lat="46.55241" lon="6.04281">
        <ele>1132.3</ele>
        <time>2021-11-18T11:50:53Z</time>
      </trkpt>
      <trkpt lat="46.55237" lon="6.04275">
        <ele>1132.1</ele>
        <time>2021-11-18T11:50:56Z</time>
      </trkpt>
      <trkpt lat="46.55234" lon="6.04269">
        <ele>1131.7</ele>
        <time>2021-11-18T11:51:00Z</time>
      </trkpt>
      <trkpt lat="46.55231" lon="6.04265">
        <ele>1130.2</ele>
        <time>2021-11-18T11:51:06Z</time>
      </trkpt>
      <trkpt lat="46.55227" lon="6.04261">
        <ele>1129</ele>
        <time>2021-11-18T11:51:11Z</time>
      </trkpt>
      <trkpt lat="46.55223" lon="6.04257">
        <ele>1128.5</ele>
        <time>2021-11-18T11:51:16Z</time>
      </trkpt>
      <trkpt lat="46.55219" lon="6.04252">
        <ele>1128.2</ele>
        <time>2021-11-18T11:51:23Z</time>
      </trkpt>
      <trkpt lat="46.55215" lon="6.04247">
        <ele>1127.8</ele>
        <time>2021-11-18T11:51:30Z</time>
      </trkpt>
      <trkpt lat="46.55211" lon="6.04243">
        <ele>1127.3</ele>
        <time>2021-11-18T11:51:36Z</time>
      </trkpt>
      <trkpt lat="46.55208" lon="6.04238">
        <ele>1126.2</ele>
        <time>2021-11-18T11:51:42Z</time>
      </trkpt>
      <trkpt lat="46.55208" lon="6.04231">
        <ele>1125.5</ele>
        <time>2021-11-18T11:51:48Z</time>
      </trkpt>
      <trkpt lat="46.55204" lon="6.04226">
        <ele>1125.4</ele>
        <time>2021-11-18T11:51:58Z</time>
      </trkpt>
      <trkpt lat="46.552" lon="6.04222">
        <ele>1125.7</ele>
        <time>2021-11-18T11:52:08Z</time>
      </trkpt>
      <trkpt lat="46.55197" lon="6.04217">
        <ele>1125.9</ele>
        <time>2021-11-18T11:52:22Z</time>
      </trkpt>
      <trkpt lat="46.55193" lon="6.04216">
        <ele>1125.1</ele>
        <time>2021-11-18T11:52:28Z</time>
      </trkpt>
      <trkpt lat="46.55192" lon="6.04209">
        <ele>1120.5</ele>
        <time>2021-11-18T11:52:53Z</time>
      </trkpt>
      <trkpt lat="46.55189" lon="6.04204">
        <ele>1122.7</ele>
        <time>2021-11-18T11:54:28Z</time>
      </trkpt>
      <trkpt lat="46.55187" lon="6.04198">
        <ele>1124.7</ele>
        <time>2021-11-18T11:54:34Z</time>
      </trkpt>
      <trkpt lat="46.55187" lon="6.04191">
        <ele>1124.2</ele>
        <time>2021-11-18T11:54:43Z</time>
      </trkpt>
      <trkpt lat="46.55184" lon="6.04185">
        <ele>1123.3</ele>
        <time>2021-11-18T11:54:50Z</time>
      </trkpt>
      <trkpt lat="46.5518" lon="6.04181">
        <ele>1122.8</ele>
        <time>2021-11-18T11:54:56Z</time>
      </trkpt>
      <trkpt lat="46.55176" lon="6.04177">
        <ele>1121.7</ele>
        <time>2021-11-18T11:55:03Z</time>
      </trkpt>
      <trkpt lat="46.55176" lon="6.0417">
        <ele>1120.5</ele>
        <time>2021-11-18T11:55:11Z</time>
      </trkpt>
      <trkpt lat="46.55172" lon="6.04165">
        <ele>1119.2</ele>
        <time>2021-11-18T11:55:18Z</time>
      </trkpt>
      <trkpt lat="46.55168" lon="6.04161">
        <ele>1118.7</ele>
        <time>2021-11-18T11:55:24Z</time>
      </trkpt>
      <trkpt lat="46.55164" lon="6.04155">
        <ele>1118.4</ele>
        <time>2021-11-18T11:55:32Z</time>
      </trkpt>
      <trkpt lat="46.5516" lon="6.04152">
        <ele>1118.5</ele>
        <time>2021-11-18T11:55:39Z</time>
      </trkpt>
      <trkpt lat="46.55156" lon="6.04149">
        <ele>1117.7</ele>
        <time>2021-11-18T11:55:47Z</time>
      </trkpt>
      <trkpt lat="46.55152" lon="6.04146">
        <ele>1116.4</ele>
        <time>2021-11-18T11:55:55Z</time>
      </trkpt>
      <trkpt lat="46.55146" lon="6.04144">
        <ele>1115.5</ele>
        <time>2021-11-18T11:56:01Z</time>
      </trkpt>
      <trkpt lat="46.55142" lon="6.04141">
        <ele>1114.9</ele>
        <time>2021-11-18T11:56:06Z</time>
      </trkpt>
      <trkpt lat="46.55137" lon="6.04137">
        <ele>1114.4</ele>
        <time>2021-11-18T11:56:11Z</time>
      </trkpt>
      <trkpt lat="46.55134" lon="6.04131">
        <ele>1113.8</ele>
        <time>2021-11-18T11:56:17Z</time>
      </trkpt>
      <trkpt lat="46.55133" lon="6.04125">
        <ele>1113.7</ele>
        <time>2021-11-18T11:56:23Z</time>
      </trkpt>
      <trkpt lat="46.55134" lon="6.04118">
        <ele>1113.2</ele>
        <time>2021-11-18T11:56:29Z</time>
      </trkpt>
      <trkpt lat="46.55132" lon="6.04111">
        <ele>1112</ele>
        <time>2021-11-18T11:56:36Z</time>
      </trkpt>
      <trkpt lat="46.5513" lon="6.04105">
        <ele>1110.9</ele>
        <time>2021-11-18T11:56:42Z</time>
      </trkpt>
      <trkpt lat="46.55127" lon="6.04101">
        <ele>1110.8</ele>
        <time>2021-11-18T11:56:47Z</time>
      </trkpt>
      <trkpt lat="46.55122" lon="6.04098">
        <ele>1110.6</ele>
        <time>2021-11-18T11:56:54Z</time>
      </trkpt>
      <trkpt lat="46.55117" lon="6.04096">
        <ele>1110.1</ele>
        <time>2021-11-18T11:57:01Z</time>
      </trkpt>
      <trkpt lat="46.55113" lon="6.04093">
        <ele>1109.4</ele>
        <time>2021-11-18T11:57:07Z</time>
      </trkpt>
      <trkpt lat="46.55109" lon="6.04089">
        <ele>1108.9</ele>
        <time>2021-11-18T11:57:12Z</time>
      </trkpt>
      <trkpt lat="46.55104" lon="6.04085">
        <ele>1108</ele>
        <time>2021-11-18T11:57:18Z</time>
      </trkpt>
      <trkpt lat="46.55099" lon="6.04082">
        <ele>1107.8</ele>
        <time>2021-11-18T11:57:23Z</time>
      </trkpt>
      <trkpt lat="46.55095" lon="6.04078">
        <ele>1107.6</ele>
        <time>2021-11-18T11:57:30Z</time>
      </trkpt>
      <trkpt lat="46.55091" lon="6.04074">
        <ele>1107.4</ele>
        <time>2021-11-18T11:57:35Z</time>
      </trkpt>
      <trkpt lat="46.55087" lon="6.0407">
        <ele>1107</ele>
        <time>2021-11-18T11:57:40Z</time>
      </trkpt>
      <trkpt lat="46.55084" lon="6.04066">
        <ele>1106.4</ele>
        <time>2021-11-18T11:57:45Z</time>
      </trkpt>
      <trkpt lat="46.5508" lon="6.04061">
        <ele>1105.2</ele>
        <time>2021-11-18T11:57:51Z</time>
      </trkpt>
      <trkpt lat="46.55077" lon="6.04055">
        <ele>1104</ele>
        <time>2021-11-18T11:57:57Z</time>
      </trkpt>
      <trkpt lat="46.55074" lon="6.0405">
        <ele>1103.8</ele>
        <time>2021-11-18T11:58:03Z</time>
      </trkpt>
      <trkpt lat="46.5507" lon="6.04045">
        <ele>1104.7</ele>
        <time>2021-11-18T11:58:10Z</time>
      </trkpt>
      <trkpt lat="46.55066" lon="6.04041">
        <ele>1105.3</ele>
        <time>2021-11-18T11:58:16Z</time>
      </trkpt>
      <trkpt lat="46.55063" lon="6.04035">
        <ele>1105.5</ele>
        <time>2021-11-18T11:58:22Z</time>
      </trkpt>
      <trkpt lat="46.55059" lon="6.0403">
        <ele>1105.7</ele>
        <time>2021-11-18T11:58:27Z</time>
      </trkpt>
      <trkpt lat="46.55056" lon="6.04024">
        <ele>1105.9</ele>
        <time>2021-11-18T11:58:32Z</time>
      </trkpt>
      <trkpt lat="46.55052" lon="6.0402">
        <ele>1106.1</ele>
        <time>2021-11-18T11:58:38Z</time>
      </trkpt>
      <trkpt lat="46.55049" lon="6.04015">
        <ele>1106.3</ele>
        <time>2021-11-18T11:58:45Z</time>
      </trkpt>
      <trkpt lat="46.55047" lon="6.04008">
        <ele>1106.9</ele>
        <time>2021-11-18T11:58:51Z</time>
      </trkpt>
      <trkpt lat="46.55044" lon="6.04002">
        <ele>1107</ele>
        <time>2021-11-18T11:58:56Z</time>
      </trkpt>
      <trkpt lat="46.55041" lon="6.03997">
        <ele>1107.2</ele>
        <time>2021-11-18T11:59:04Z</time>
      </trkpt>
      <trkpt lat="46.55037" lon="6.03993">
        <ele>1107.6</ele>
        <time>2021-11-18T11:59:11Z</time>
      </trkpt>
      <trkpt lat="46.55035" lon="6.03987">
        <ele>1107.8</ele>
        <time>2021-11-18T11:59:18Z</time>
      </trkpt>
      <trkpt lat="46.5503" lon="6.03983">
        <ele>1107.7</ele>
        <time>2021-11-18T11:59:24Z</time>
      </trkpt>
      <trkpt lat="46.55027" lon="6.03978">
        <ele>1107.5</ele>
        <time>2021-11-18T11:59:33Z</time>
      </trkpt>
      <trkpt lat="46.55022" lon="6.03974">
        <ele>1107</ele>
        <time>2021-11-18T11:59:39Z</time>
      </trkpt>
      <trkpt lat="46.55018" lon="6.0397">
        <ele>1106.6</ele>
        <time>2021-11-18T11:59:44Z</time>
      </trkpt>
      <trkpt lat="46.55017" lon="6.03963">
        <ele>1105.7</ele>
        <time>2021-11-18T11:59:52Z</time>
      </trkpt>
      <trkpt lat="46.55015" lon="6.03956">
        <ele>1105.1</ele>
        <time>2021-11-18T11:59:57Z</time>
      </trkpt>
      <trkpt lat="46.55012" lon="6.03951">
        <ele>1105</ele>
        <time>2021-11-18T12:00:02Z</time>
      </trkpt>
      <trkpt lat="46.55009" lon="6.03946">
        <ele>1104.8</ele>
        <time>2021-11-18T12:00:07Z</time>
      </trkpt>
      <trkpt lat="46.55005" lon="6.03941">
        <ele>1104.7</ele>
        <time>2021-11-18T12:00:12Z</time>
      </trkpt>
      <trkpt lat="46.55001" lon="6.03936">
        <ele>1105</ele>
        <time>2021-11-18T12:00:18Z</time>
      </trkpt>
      <trkpt lat="46.54999" lon="6.03929">
        <ele>1105.3</ele>
        <time>2021-11-18T12:00:23Z</time>
      </trkpt>
      <trkpt lat="46.54996" lon="6.03924">
        <ele>1105.2</ele>
        <time>2021-11-18T12:00:28Z</time>
      </trkpt>
      <trkpt lat="46.54992" lon="6.03918">
        <ele>1105.4</ele>
        <time>2021-11-18T12:00:34Z</time>
      </trkpt>
      <trkpt lat="46.54988" lon="6.03914">
        <ele>1106.1</ele>
        <time>2021-11-18T12:00:40Z</time>
      </trkpt>
      <trkpt lat="46.54985" lon="6.0391">
        <ele>1106.4</ele>
        <time>2021-11-18T12:00:45Z</time>
      </trkpt>
      <trkpt lat="46.54982" lon="6.03903">
        <ele>1106.5</ele>
        <time>2021-11-18T12:00:51Z</time>
      </trkpt>
      <trkpt lat="46.54981" lon="6.03896">
        <ele>1106.6</ele>
        <time>2021-11-18T12:00:56Z</time>
      </trkpt>
      <trkpt lat="46.54978" lon="6.0389">
        <ele>1106.9</ele>
        <time>2021-11-18T12:01:02Z</time>
      </trkpt>
      <trkpt lat="46.54975" lon="6.03886">
        <ele>1106.6</ele>
        <time>2021-11-18T12:01:09Z</time>
      </trkpt>
      <trkpt lat="46.54971" lon="6.03881">
        <ele>1105.9</ele>
        <time>2021-11-18T12:01:17Z</time>
      </trkpt>
      <trkpt lat="46.54967" lon="6.03877">
        <ele>1104.8</ele>
        <time>2021-11-18T12:01:24Z</time>
      </trkpt>
      <trkpt lat="46.54964" lon="6.0387">
        <ele>1103.6</ele>
        <time>2021-11-18T12:01:30Z</time>
      </trkpt>
      <trkpt lat="46.54963" lon="6.03863">
        <ele>1101.9</ele>
        <time>2021-11-18T12:01:37Z</time>
      </trkpt>
      <trkpt lat="46.5496" lon="6.03857">
        <ele>1100.4</ele>
        <time>2021-11-18T12:01:42Z</time>
      </trkpt>
      <trkpt lat="46.54957" lon="6.03852">
        <ele>1099</ele>
        <time>2021-11-18T12:01:47Z</time>
      </trkpt>
      <trkpt lat="46.54954" lon="6.03846">
        <ele>1097.9</ele>
        <time>2021-11-18T12:01:53Z</time>
      </trkpt>
      <trkpt lat="46.5495" lon="6.03841">
        <ele>1097</ele>
        <time>2021-11-18T12:01:59Z</time>
      </trkpt>
      <trkpt lat="46.54946" lon="6.03836">
        <ele>1096.1</ele>
        <time>2021-11-18T12:02:06Z</time>
      </trkpt>
      <trkpt lat="46.54941" lon="6.03834">
        <ele>1095</ele>
        <time>2021-11-18T12:02:13Z</time>
      </trkpt>
      <trkpt lat="46.54937" lon="6.03831">
        <ele>1094.6</ele>
        <time>2021-11-18T12:02:18Z</time>
      </trkpt>
      <trkpt lat="46.54932" lon="6.0383">
        <ele>1094</ele>
        <time>2021-11-18T12:02:23Z</time>
      </trkpt>
      <trkpt lat="46.54927" lon="6.0383">
        <ele>1093.2</ele>
        <time>2021-11-18T12:02:28Z</time>
      </trkpt>
      <trkpt lat="46.54923" lon="6.03827">
        <ele>1092.5</ele>
        <time>2021-11-18T12:02:33Z</time>
      </trkpt>
      <trkpt lat="46.5492" lon="6.03822">
        <ele>1091.6</ele>
        <time>2021-11-18T12:02:41Z</time>
      </trkpt>
      <trkpt lat="46.54916" lon="6.03818">
        <ele>1091.4</ele>
        <time>2021-11-18T12:02:46Z</time>
      </trkpt>
      <trkpt lat="46.54913" lon="6.03812">
        <ele>1090.9</ele>
        <time>2021-11-18T12:02:52Z</time>
      </trkpt>
      <trkpt lat="46.54909" lon="6.03807">
        <ele>1090.9</ele>
        <time>2021-11-18T12:02:58Z</time>
      </trkpt>
      <trkpt lat="46.54905" lon="6.03802">
        <ele>1090.8</ele>
        <time>2021-11-18T12:03:05Z</time>
      </trkpt>
      <trkpt lat="46.54902" lon="6.03798">
        <ele>1090</ele>
        <time>2021-11-18T12:03:12Z</time>
      </trkpt>
      <trkpt lat="46.549" lon="6.03791">
        <ele>1088.1</ele>
        <time>2021-11-18T12:03:21Z</time>
      </trkpt>
      <trkpt lat="46.54897" lon="6.03786">
        <ele>1086.5</ele>
        <time>2021-11-18T12:03:28Z</time>
      </trkpt>
      <trkpt lat="46.54895" lon="6.0378">
        <ele>1085</ele>
        <time>2021-11-18T12:03:35Z</time>
      </trkpt>
      <trkpt lat="46.54893" lon="6.03773">
        <ele>1083.8</ele>
        <time>2021-11-18T12:03:41Z</time>
      </trkpt>
      <trkpt lat="46.54889" lon="6.03768">
        <ele>1083.2</ele>
        <time>2021-11-18T12:03:47Z</time>
      </trkpt>
      <trkpt lat="46.54885" lon="6.03765">
        <ele>1082.6</ele>
        <time>2021-11-18T12:03:54Z</time>
      </trkpt>
      <trkpt lat="46.54883" lon="6.03758">
        <ele>1082.8</ele>
        <time>2021-11-18T12:04:01Z</time>
      </trkpt>
      <trkpt lat="46.54883" lon="6.03751">
        <ele>1084</ele>
        <time>2021-11-18T12:04:08Z</time>
      </trkpt>
      <trkpt lat="46.54881" lon="6.03744">
        <ele>1084.7</ele>
        <time>2021-11-18T12:04:13Z</time>
      </trkpt>
      <trkpt lat="46.5488" lon="6.03737">
        <ele>1085.1</ele>
        <time>2021-11-18T12:04:18Z</time>
      </trkpt>
      <trkpt lat="46.5488" lon="6.03729">
        <ele>1085.1</ele>
        <time>2021-11-18T12:04:22Z</time>
      </trkpt>
      <trkpt lat="46.54881" lon="6.03721">
        <ele>1084.4</ele>
        <time>2021-11-18T12:04:27Z</time>
      </trkpt>
      <trkpt lat="46.5488" lon="6.03714">
        <ele>1083.4</ele>
        <time>2021-11-18T12:04:32Z</time>
      </trkpt>
      <trkpt lat="46.54881" lon="6.03707">
        <ele>1083.5</ele>
        <time>2021-11-18T12:04:39Z</time>
      </trkpt>
      <trkpt lat="46.54883" lon="6.037">
        <ele>1083.2</ele>
        <time>2021-11-18T12:04:44Z</time>
      </trkpt>
      <trkpt lat="46.54882" lon="6.03693">
        <ele>1083.8</ele>
        <time>2021-11-18T12:04:58Z</time>
      </trkpt>
      <trkpt lat="46.54878" lon="6.0369">
        <ele>1084.2</ele>
        <time>2021-11-18T12:05:03Z</time>
      </trkpt>
      <trkpt lat="46.54874" lon="6.03692">
        <ele>1084.3</ele>
        <time>2021-11-18T12:05:08Z</time>
      </trkpt>
      <trkpt lat="46.54871" lon="6.03697">
        <ele>1084.2</ele>
        <time>2021-11-18T12:05:13Z</time>
      </trkpt>
      <trkpt lat="46.5487" lon="6.03703">
        <ele>1084</ele>
        <time>2021-11-18T12:05:20Z</time>
      </trkpt>
      <trkpt lat="46.54869" lon="6.0371">
        <ele>1084</ele>
        <time>2021-11-18T12:05:29Z</time>
      </trkpt>
      <trkpt lat="46.54866" lon="6.03716">
        <ele>1083.8</ele>
        <time>2021-11-18T12:05:44Z</time>
      </trkpt>
      <trkpt lat="46.54862" lon="6.03722">
        <ele>1083.7</ele>
        <time>2021-11-18T12:05:47Z</time>
      </trkpt>
      <trkpt lat="46.5486" lon="6.03728">
        <ele>1083.4</ele>
        <time>2021-11-18T12:05:52Z</time>
      </trkpt>
      <trkpt lat="46.54857" lon="6.03733">
        <ele>1082.8</ele>
        <time>2021-11-18T12:05:59Z</time>
      </trkpt>
      <trkpt lat="46.54852" lon="6.03735">
        <ele>1082.4</ele>
        <time>2021-11-18T12:06:05Z</time>
      </trkpt>
      <trkpt lat="46.54848" lon="6.03738">
        <ele>1081.4</ele>
        <time>2021-11-18T12:06:11Z</time>
      </trkpt>
      <trkpt lat="46.54843" lon="6.03738">
        <ele>1079.8</ele>
        <time>2021-11-18T12:06:17Z</time>
      </trkpt>
      <trkpt lat="46.54838" lon="6.03738">
        <ele>1078.4</ele>
        <time>2021-11-18T12:06:22Z</time>
      </trkpt>
      <trkpt lat="46.54834" lon="6.03734">
        <ele>1076.2</ele>
        <time>2021-11-18T12:06:28Z</time>
      </trkpt>
      <trkpt lat="46.54831" lon="6.03728">
        <ele>1073.7</ele>
        <time>2021-11-18T12:06:34Z</time>
      </trkpt>
      <trkpt lat="46.54828" lon="6.03722">
        <ele>1070.8</ele>
        <time>2021-11-18T12:06:40Z</time>
      </trkpt>
      <trkpt lat="46.54827" lon="6.03715">
        <ele>1068</ele>
        <time>2021-11-18T12:06:46Z</time>
      </trkpt>
      <trkpt lat="46.54824" lon="6.03709">
        <ele>1065.7</ele>
        <time>2021-11-18T12:06:52Z</time>
      </trkpt>
      <trkpt lat="46.54822" lon="6.03702">
        <ele>1063.8</ele>
        <time>2021-11-18T12:06:58Z</time>
      </trkpt>
      <trkpt lat="46.54819" lon="6.03697">
        <ele>1062.8</ele>
        <time>2021-11-18T12:07:03Z</time>
      </trkpt>
      <trkpt lat="46.54816" lon="6.03692">
        <ele>1062.4</ele>
        <time>2021-11-18T12:07:07Z</time>
      </trkpt>
      <trkpt lat="46.54813" lon="6.03686">
        <ele>1062.4</ele>
        <time>2021-11-18T12:07:11Z</time>
      </trkpt>
      <trkpt lat="46.54811" lon="6.03681">
        <ele>1062.6</ele>
        <time>2021-11-18T12:07:16Z</time>
      </trkpt>
      <trkpt lat="46.54808" lon="6.03675">
        <ele>1062.1</ele>
        <time>2021-11-18T12:07:23Z</time>
      </trkpt>
      <trkpt lat="46.54805" lon="6.03669">
        <ele>1061.4</ele>
        <time>2021-11-18T12:07:30Z</time>
      </trkpt>
      <trkpt lat="46.54801" lon="6.03663">
        <ele>1060.8</ele>
        <time>2021-11-18T12:07:36Z</time>
      </trkpt>
      <trkpt lat="46.54798" lon="6.03658">
        <ele>1059.9</ele>
        <time>2021-11-18T12:07:41Z</time>
      </trkpt>
      <trkpt lat="46.54794" lon="6.03655">
        <ele>1058.9</ele>
        <time>2021-11-18T12:07:46Z</time>
      </trkpt>
      <trkpt lat="46.5479" lon="6.03652">
        <ele>1058.2</ele>
        <time>2021-11-18T12:07:51Z</time>
      </trkpt>
      <trkpt lat="46.54785" lon="6.0365">
        <ele>1058.2</ele>
        <time>2021-11-18T12:07:56Z</time>
      </trkpt>
      <trkpt lat="46.5478" lon="6.03647">
        <ele>1058.3</ele>
        <time>2021-11-18T12:08:01Z</time>
      </trkpt>
      <trkpt lat="46.54776" lon="6.03645">
        <ele>1058.2</ele>
        <time>2021-11-18T12:08:05Z</time>
      </trkpt>
      <trkpt lat="46.54771" lon="6.03643">
        <ele>1057.9</ele>
        <time>2021-11-18T12:08:10Z</time>
      </trkpt>
      <trkpt lat="46.54767" lon="6.0364">
        <ele>1057.8</ele>
        <time>2021-11-18T12:08:14Z</time>
      </trkpt>
      <trkpt lat="46.54762" lon="6.03638">
        <ele>1058</ele>
        <time>2021-11-18T12:08:19Z</time>
      </trkpt>
      <trkpt lat="46.54758" lon="6.03636">
        <ele>1058.6</ele>
        <time>2021-11-18T12:08:26Z</time>
      </trkpt>
      <trkpt lat="46.54753" lon="6.03632">
        <ele>1058.3</ele>
        <time>2021-11-18T12:08:32Z</time>
      </trkpt>
      <trkpt lat="46.54749" lon="6.03629">
        <ele>1058.1</ele>
        <time>2021-11-18T12:08:37Z</time>
      </trkpt>
      <trkpt lat="46.54745" lon="6.03626">
        <ele>1057.8</ele>
        <time>2021-11-18T12:08:42Z</time>
      </trkpt>
      <trkpt lat="46.54741" lon="6.03622">
        <ele>1056.5</ele>
        <time>2021-11-18T12:08:49Z</time>
      </trkpt>
      <trkpt lat="46.54739" lon="6.03616">
        <ele>1054.9</ele>
        <time>2021-11-18T12:08:57Z</time>
      </trkpt>
      <trkpt lat="46.54735" lon="6.03611">
        <ele>1054.1</ele>
        <time>2021-11-18T12:09:03Z</time>
      </trkpt>
      <trkpt lat="46.5473" lon="6.03608">
        <ele>1052.7</ele>
        <time>2021-11-18T12:09:09Z</time>
      </trkpt>
      <trkpt lat="46.54726" lon="6.03603">
        <ele>1051.3</ele>
        <time>2021-11-18T12:09:15Z</time>
      </trkpt>
      <trkpt lat="46.54723" lon="6.03598">
        <ele>1050.5</ele>
        <time>2021-11-18T12:09:20Z</time>
      </trkpt>
      <trkpt lat="46.54718" lon="6.03593">
        <ele>1049.9</ele>
        <time>2021-11-18T12:09:25Z</time>
      </trkpt>
      <trkpt lat="46.54715" lon="6.03589">
        <ele>1049.5</ele>
        <time>2021-11-18T12:09:30Z</time>
      </trkpt>
      <trkpt lat="46.54711" lon="6.03584">
        <ele>1049.8</ele>
        <time>2021-11-18T12:09:36Z</time>
      </trkpt>
      <trkpt lat="46.54708" lon="6.0358">
        <ele>1049.8</ele>
        <time>2021-11-18T12:09:41Z</time>
      </trkpt>
      <trkpt lat="46.54704" lon="6.03575">
        <ele>1049.6</ele>
        <time>2021-11-18T12:09:48Z</time>
      </trkpt>
      <trkpt lat="46.54701" lon="6.0357">
        <ele>1049.7</ele>
        <time>2021-11-18T12:09:55Z</time>
      </trkpt>
      <trkpt lat="46.54697" lon="6.03565">
        <ele>1050.7</ele>
        <time>2021-11-18T12:10:02Z</time>
      </trkpt>
      <trkpt lat="46.54694" lon="6.03559">
        <ele>1050.7</ele>
        <time>2021-11-18T12:10:10Z</time>
      </trkpt>
      <trkpt lat="46.5469" lon="6.03554">
        <ele>1050.2</ele>
        <time>2021-11-18T12:10:16Z</time>
      </trkpt>
      <trkpt lat="46.54687" lon="6.03549">
        <ele>1049.9</ele>
        <time>2021-11-18T12:10:21Z</time>
      </trkpt>
      <trkpt lat="46.54688" lon="6.03541">
        <ele>1050.1</ele>
        <time>2021-11-18T12:10:50Z</time>
      </trkpt>
      <trkpt lat="46.54685" lon="6.03536">
        <ele>1052.3</ele>
        <time>2021-11-18T12:10:58Z</time>
      </trkpt>
      <trkpt lat="46.5468" lon="6.03533">
        <ele>1052.7</ele>
        <time>2021-11-18T12:11:02Z</time>
      </trkpt>
      <trkpt lat="46.54676" lon="6.03529">
        <ele>1052.5</ele>
        <time>2021-11-18T12:11:07Z</time>
      </trkpt>
      <trkpt lat="46.54672" lon="6.03525">
        <ele>1051.5</ele>
        <time>2021-11-18T12:11:15Z</time>
      </trkpt>
      <trkpt lat="46.54668" lon="6.03521">
        <ele>1051</ele>
        <time>2021-11-18T12:11:20Z</time>
      </trkpt>
      <trkpt lat="46.54664" lon="6.03516">
        <ele>1050.5</ele>
        <time>2021-11-18T12:11:26Z</time>
      </trkpt>
      <trkpt lat="46.5466" lon="6.03511">
        <ele>1049.8</ele>
        <time>2021-11-18T12:11:31Z</time>
      </trkpt>
      <trkpt lat="46.54658" lon="6.03505">
        <ele>1049.4</ele>
        <time>2021-11-18T12:11:37Z</time>
      </trkpt>
      <trkpt lat="46.54657" lon="6.03499">
        <ele>1049</ele>
        <time>2021-11-18T12:11:44Z</time>
      </trkpt>
      <trkpt lat="46.54654" lon="6.03493">
        <ele>1048.2</ele>
        <time>2021-11-18T12:11:50Z</time>
      </trkpt>
      <trkpt lat="46.54652" lon="6.03488">
        <ele>1046.8</ele>
        <time>2021-11-18T12:11:56Z</time>
      </trkpt>
      <trkpt lat="46.54648" lon="6.03482">
        <ele>1046</ele>
        <time>2021-11-18T12:12:01Z</time>
      </trkpt>
      <trkpt lat="46.54645" lon="6.03478">
        <ele>1045.1</ele>
        <time>2021-11-18T12:12:06Z</time>
      </trkpt>
      <trkpt lat="46.54643" lon="6.03471">
        <ele>1043.9</ele>
        <time>2021-11-18T12:12:12Z</time>
      </trkpt>
      <trkpt lat="46.54641" lon="6.03464">
        <ele>1043.5</ele>
        <time>2021-11-18T12:12:17Z</time>
      </trkpt>
      <trkpt lat="46.54639" lon="6.03456">
        <ele>1043.8</ele>
        <time>2021-11-18T12:12:22Z</time>
      </trkpt>
      <trkpt lat="46.54636" lon="6.0345">
        <ele>1044.4</ele>
        <time>2021-11-18T12:12:26Z</time>
      </trkpt>
      <trkpt lat="46.54634" lon="6.03444">
        <ele>1045.4</ele>
        <time>2021-11-18T12:12:31Z</time>
      </trkpt>
      <trkpt lat="46.54632" lon="6.03437">
        <ele>1046.5</ele>
        <time>2021-11-18T12:12:37Z</time>
      </trkpt>
      <trkpt lat="46.54631" lon="6.03431">
        <ele>1047.3</ele>
        <time>2021-11-18T12:12:42Z</time>
      </trkpt>
      <trkpt lat="46.54629" lon="6.03425">
        <ele>1048.2</ele>
        <time>2021-11-18T12:12:47Z</time>
      </trkpt>
      <trkpt lat="46.54625" lon="6.0342">
        <ele>1048.8</ele>
        <time>2021-11-18T12:12:52Z</time>
      </trkpt>
      <trkpt lat="46.54621" lon="6.03415">
        <ele>1049</ele>
        <time>2021-11-18T12:12:57Z</time>
      </trkpt>
      <trkpt lat="46.54618" lon="6.0341">
        <ele>1048.8</ele>
        <time>2021-11-18T12:13:02Z</time>
      </trkpt>
      <trkpt lat="46.54615" lon="6.03404">
        <ele>1049.1</ele>
        <time>2021-11-18T12:13:08Z</time>
      </trkpt>
      <trkpt lat="46.54614" lon="6.03397">
        <ele>1049.4</ele>
        <time>2021-11-18T12:13:16Z</time>
      </trkpt>
      <trkpt lat="46.54611" lon="6.03391">
        <ele>1048.8</ele>
        <time>2021-11-18T12:13:22Z</time>
      </trkpt>
      <trkpt lat="46.54609" lon="6.03385">
        <ele>1047.8</ele>
        <time>2021-11-18T12:13:27Z</time>
      </trkpt>
      <trkpt lat="46.54606" lon="6.03379">
        <ele>1046.3</ele>
        <time>2021-11-18T12:13:33Z</time>
      </trkpt>
      <trkpt lat="46.54602" lon="6.03374">
        <ele>1044.7</ele>
        <time>2021-11-18T12:13:39Z</time>
      </trkpt>
      <trkpt lat="46.54598" lon="6.0337">
        <ele>1043</ele>
        <time>2021-11-18T12:13:46Z</time>
      </trkpt>
      <trkpt lat="46.54596" lon="6.03363">
        <ele>1042.2</ele>
        <time>2021-11-18T12:13:51Z</time>
      </trkpt>
      <trkpt lat="46.54594" lon="6.03357">
        <ele>1041.6</ele>
        <time>2021-11-18T12:13:56Z</time>
      </trkpt>
      <trkpt lat="46.54593" lon="6.03349">
        <ele>1040.8</ele>
        <time>2021-11-18T12:14:01Z</time>
      </trkpt>
      <trkpt lat="46.54592" lon="6.03343">
        <ele>1039.7</ele>
        <time>2021-11-18T12:14:05Z</time>
      </trkpt>
      <trkpt lat="46.54591" lon="6.03336">
        <ele>1037.9</ele>
        <time>2021-11-18T12:14:11Z</time>
      </trkpt>
      <trkpt lat="46.54589" lon="6.03329">
        <ele>1036.9</ele>
        <time>2021-11-18T12:14:18Z</time>
      </trkpt>
      <trkpt lat="46.54586" lon="6.03323">
        <ele>1036.7</ele>
        <time>2021-11-18T12:14:24Z</time>
      </trkpt>
      <trkpt lat="46.54583" lon="6.03317">
        <ele>1037</ele>
        <time>2021-11-18T12:14:32Z</time>
      </trkpt>
      <trkpt lat="46.54581" lon="6.0331">
        <ele>1037.4</ele>
        <time>2021-11-18T12:14:38Z</time>
      </trkpt>
      <trkpt lat="46.54577" lon="6.03305">
        <ele>1038</ele>
        <time>2021-11-18T12:14:44Z</time>
      </trkpt>
      <trkpt lat="46.54572" lon="6.033">
        <ele>1041.6</ele>
        <time>2021-11-18T12:15:00Z</time>
      </trkpt>
      <trkpt lat="46.54568" lon="6.03296">
        <ele>1042</ele>
        <time>2021-11-18T12:15:05Z</time>
      </trkpt>
      <trkpt lat="46.54565" lon="6.03289">
        <ele>1041.9</ele>
        <time>2021-11-18T12:15:10Z</time>
      </trkpt>
      <trkpt lat="46.54565" lon="6.03281">
        <ele>1041.6</ele>
        <time>2021-11-18T12:15:15Z</time>
      </trkpt>
      <trkpt lat="46.54563" lon="6.03276">
        <ele>1041.5</ele>
        <time>2021-11-18T12:15:23Z</time>
      </trkpt>
      <trkpt lat="46.54559" lon="6.03272">
        <ele>1041.4</ele>
        <time>2021-11-18T12:15:31Z</time>
      </trkpt>
      <trkpt lat="46.54554" lon="6.03271">
        <ele>1040.7</ele>
        <time>2021-11-18T12:15:44Z</time>
      </trkpt>
      <trkpt lat="46.54549" lon="6.03273">
        <ele>1040.9</ele>
        <time>2021-11-18T12:15:51Z</time>
      </trkpt>
      <trkpt lat="46.54544" lon="6.03272">
        <ele>1042.4</ele>
        <time>2021-11-18T12:15:59Z</time>
      </trkpt>
      <trkpt lat="46.54538" lon="6.03272">
        <ele>1044.3</ele>
        <time>2021-11-18T12:16:06Z</time>
      </trkpt>
      <trkpt lat="46.54534" lon="6.03272">
        <ele>1045.5</ele>
        <time>2021-11-18T12:16:09Z</time>
      </trkpt>
      <trkpt lat="46.54529" lon="6.03271">
        <ele>1047</ele>
        <time>2021-11-18T12:16:15Z</time>
      </trkpt>
      <trkpt lat="46.54524" lon="6.03273">
        <ele>1046.8</ele>
        <time>2021-11-18T12:16:23Z</time>
      </trkpt>
      <trkpt lat="46.54519" lon="6.03275">
        <ele>1046.4</ele>
        <time>2021-11-18T12:16:28Z</time>
      </trkpt>
      <trkpt lat="46.54515" lon="6.03275">
        <ele>1045.5</ele>
        <time>2021-11-18T12:16:33Z</time>
      </trkpt>
      <trkpt lat="46.5451" lon="6.03278">
        <ele>1044.5</ele>
        <time>2021-11-18T12:16:41Z</time>
      </trkpt>
      <trkpt lat="46.54507" lon="6.03284">
        <ele>1043.3</ele>
        <time>2021-11-18T12:16:48Z</time>
      </trkpt>
      <trkpt lat="46.54504" lon="6.03288">
        <ele>1042.2</ele>
        <time>2021-11-18T12:16:53Z</time>
      </trkpt>
      <trkpt lat="46.54501" lon="6.03293">
        <ele>1040.4</ele>
        <time>2021-11-18T12:17:00Z</time>
      </trkpt>
      <trkpt lat="46.54499" lon="6.03287">
        <ele>1038.9</ele>
        <time>2021-11-18T12:17:48Z</time>
      </trkpt>
      <trkpt lat="46.54496" lon="6.0328">
        <ele>1039</ele>
        <time>2021-11-18T12:17:56Z</time>
      </trkpt>
      <trkpt lat="46.54495" lon="6.03274">
        <ele>1038.4</ele>
        <time>2021-11-18T12:18:02Z</time>
      </trkpt>
      <trkpt lat="46.54493" lon="6.03268">
        <ele>1037.7</ele>
        <time>2021-11-18T12:18:07Z</time>
      </trkpt>
      <trkpt lat="46.54492" lon="6.0326">
        <ele>1036.9</ele>
        <time>2021-11-18T12:18:12Z</time>
      </trkpt>
      <trkpt lat="46.54489" lon="6.03254">
        <ele>1036.5</ele>
        <time>2021-11-18T12:18:18Z</time>
      </trkpt>
      <trkpt lat="46.54485" lon="6.03249">
        <ele>1035.9</ele>
        <time>2021-11-18T12:18:25Z</time>
      </trkpt>
      <trkpt lat="46.54481" lon="6.03246">
        <ele>1035</ele>
        <time>2021-11-18T12:18:31Z</time>
      </trkpt>
      <trkpt lat="46.54477" lon="6.03241">
        <ele>1033.6</ele>
        <time>2021-11-18T12:18:39Z</time>
      </trkpt>
      <trkpt lat="46.54473" lon="6.03237">
        <ele>1032.3</ele>
        <time>2021-11-18T12:18:48Z</time>
      </trkpt>
      <trkpt lat="46.54478" lon="6.03234">
        <ele>1033.5</ele>
        <time>2021-11-18T12:19:19Z</time>
      </trkpt>
      <trkpt lat="46.54478" lon="6.03228">
        <ele>1034.8</ele>
        <time>2021-11-18T12:19:29Z</time>
      </trkpt>
      <trkpt lat="46.54479" lon="6.03221">
        <ele>1035.9</ele>
        <time>2021-11-18T12:19:36Z</time>
      </trkpt>
      <trkpt lat="46.54483" lon="6.03214">
        <ele>1037.5</ele>
        <time>2021-11-18T12:19:50Z</time>
      </trkpt>
      <trkpt lat="46.54488" lon="6.03211">
        <ele>1038.6</ele>
        <time>2021-11-18T12:19:54Z</time>
      </trkpt>
      <trkpt lat="46.54492" lon="6.03212">
        <ele>1040.5</ele>
        <time>2021-11-18T12:19:59Z</time>
      </trkpt>
      <trkpt lat="46.54497" lon="6.03211">
        <ele>1043.3</ele>
        <time>2021-11-18T12:20:05Z</time>
      </trkpt>
      <trkpt lat="46.54501" lon="6.03207">
        <ele>1044.9</ele>
        <time>2021-11-18T12:20:10Z</time>
      </trkpt>
      <trkpt lat="46.54506" lon="6.03202">
        <ele>1046.8</ele>
        <time>2021-11-18T12:20:16Z</time>
      </trkpt>
      <trkpt lat="46.54509" lon="6.03196">
        <ele>1047.7</ele>
        <time>2021-11-18T12:20:22Z</time>
      </trkpt>
      <trkpt lat="46.5451" lon="6.03189">
        <ele>1048</ele>
        <time>2021-11-18T12:20:29Z</time>
      </trkpt>
      <trkpt lat="46.54506" lon="6.03185">
        <ele>1048.2</ele>
        <time>2021-11-18T12:20:35Z</time>
      </trkpt>
      <trkpt lat="46.54503" lon="6.0318">
        <ele>1050.7</ele>
        <time>2021-11-18T12:21:24Z</time>
      </trkpt>
      <trkpt lat="46.54507" lon="6.03175">
        <ele>1052.7</ele>
        <time>2021-11-18T12:21:53Z</time>
      </trkpt>
      <trkpt lat="46.54511" lon="6.03169">
        <ele>1053.4</ele>
        <time>2021-11-18T12:21:57Z</time>
      </trkpt>
      <trkpt lat="46.54511" lon="6.03162">
        <ele>1053.9</ele>
        <time>2021-11-18T12:22:04Z</time>
      </trkpt>
      <trkpt lat="46.5451" lon="6.03156">
        <ele>1054</ele>
        <time>2021-11-18T12:22:10Z</time>
      </trkpt>
      <trkpt lat="46.54507" lon="6.0315">
        <ele>1054.2</ele>
        <time>2021-11-18T12:22:15Z</time>
      </trkpt>
      <trkpt lat="46.54508" lon="6.03143">
        <ele>1054.2</ele>
        <time>2021-11-18T12:22:32Z</time>
      </trkpt>
      <trkpt lat="46.54509" lon="6.03136">
        <ele>1054.3</ele>
        <time>2021-11-18T12:22:36Z</time>
      </trkpt>
      <trkpt lat="46.54507" lon="6.0313">
        <ele>1053.8</ele>
        <time>2021-11-18T12:22:42Z</time>
      </trkpt>
      <trkpt lat="46.54504" lon="6.03123">
        <ele>1052.6</ele>
        <time>2021-11-18T12:22:51Z</time>
      </trkpt>
      <trkpt lat="46.54505" lon="6.03116">
        <ele>1052</ele>
        <time>2021-11-18T12:22:57Z</time>
      </trkpt>
      <trkpt lat="46.54504" lon="6.03109">
        <ele>1051.5</ele>
        <time>2021-11-18T12:23:02Z</time>
      </trkpt>
      <trkpt lat="46.54501" lon="6.03103">
        <ele>1050.8</ele>
        <time>2021-11-18T12:23:06Z</time>
      </trkpt>
      <trkpt lat="46.54502" lon="6.03096">
        <ele>1049.5</ele>
        <time>2021-11-18T12:23:14Z</time>
      </trkpt>
      <trkpt lat="46.54502" lon="6.03087">
        <ele>1047.4</ele>
        <time>2021-11-18T12:23:31Z</time>
      </trkpt>
      <trkpt lat="46.545" lon="6.03079">
        <ele>1047.2</ele>
        <time>2021-11-18T12:23:34Z</time>
      </trkpt>
      <trkpt lat="46.54496" lon="6.03073">
        <ele>1046.9</ele>
        <time>2021-11-18T12:23:38Z</time>
      </trkpt>
      <trkpt lat="46.54492" lon="6.03069">
        <ele>1046.5</ele>
        <time>2021-11-18T12:23:42Z</time>
      </trkpt>
      <trkpt lat="46.54487" lon="6.03067">
        <ele>1046.1</ele>
        <time>2021-11-18T12:23:47Z</time>
      </trkpt>
      <trkpt lat="46.54482" lon="6.03065">
        <ele>1046.4</ele>
        <time>2021-11-18T12:23:51Z</time>
      </trkpt>
      <trkpt lat="46.54478" lon="6.03062">
        <ele>1046.6</ele>
        <time>2021-11-18T12:23:55Z</time>
      </trkpt>
      <trkpt lat="46.54473" lon="6.03058">
        <ele>1047</ele>
        <time>2021-11-18T12:24:00Z</time>
      </trkpt>
      <trkpt lat="46.54468" lon="6.03056">
        <ele>1048.5</ele>
        <time>2021-11-18T12:24:05Z</time>
      </trkpt>
      <trkpt lat="46.54464" lon="6.03054">
        <ele>1049.9</ele>
        <time>2021-11-18T12:24:09Z</time>
      </trkpt>
      <trkpt lat="46.54459" lon="6.03052">
        <ele>1050.9</ele>
        <time>2021-11-18T12:24:14Z</time>
      </trkpt>
      <trkpt lat="46.54455" lon="6.0305">
        <ele>1050.8</ele>
        <time>2021-11-18T12:24:20Z</time>
      </trkpt>
      <trkpt lat="46.54451" lon="6.03046">
        <ele>1050</ele>
        <time>2021-11-18T12:24:26Z</time>
      </trkpt>
      <trkpt lat="46.54447" lon="6.03042">
        <ele>1049.2</ele>
        <time>2021-11-18T12:24:32Z</time>
      </trkpt>
      <trkpt lat="46.54442" lon="6.0304">
        <ele>1048.5</ele>
        <time>2021-11-18T12:24:38Z</time>
      </trkpt>
      <trkpt lat="46.54438" lon="6.03036">
        <ele>1047.2</ele>
        <time>2021-11-18T12:24:45Z</time>
      </trkpt>
      <trkpt lat="46.54442" lon="6.0303">
        <ele>1044.4</ele>
        <time>2021-11-18T12:25:04Z</time>
      </trkpt>
      <trkpt lat="46.54447" lon="6.03028">
        <ele>1044.2</ele>
        <time>2021-11-18T12:25:07Z</time>
      </trkpt>
      <trkpt lat="46.54443" lon="6.03023">
        <ele>1044.7</ele>
        <time>2021-11-18T12:25:38Z</time>
      </trkpt>
      <trkpt lat="46.54439" lon="6.0302">
        <ele>1045.6</ele>
        <time>2021-11-18T12:25:42Z</time>
      </trkpt>
      <trkpt lat="46.54434" lon="6.03016">
        <ele>1046.4</ele>
        <time>2021-11-18T12:25:47Z</time>
      </trkpt>
      <trkpt lat="46.54431" lon="6.0301">
        <ele>1046.5</ele>
        <time>2021-11-18T12:25:52Z</time>
      </trkpt>
      <trkpt lat="46.54427" lon="6.03006">
        <ele>1046.4</ele>
        <time>2021-11-18T12:25:58Z</time>
      </trkpt>
      <trkpt lat="46.54423" lon="6.03">
        <ele>1045.3</ele>
        <time>2021-11-18T12:26:06Z</time>
      </trkpt>
      <trkpt lat="46.5442" lon="6.02995">
        <ele>1044.3</ele>
        <time>2021-11-18T12:26:11Z</time>
      </trkpt>
      <trkpt lat="46.54418" lon="6.02989">
        <ele>1043.7</ele>
        <time>2021-11-18T12:26:16Z</time>
      </trkpt>
      <trkpt lat="46.54417" lon="6.02981">
        <ele>1042.7</ele>
        <time>2021-11-18T12:26:21Z</time>
      </trkpt>
      <trkpt lat="46.54414" lon="6.02975">
        <ele>1041.7</ele>
        <time>2021-11-18T12:26:26Z</time>
      </trkpt>
      <trkpt lat="46.54411" lon="6.0297">
        <ele>1040.5</ele>
        <time>2021-11-18T12:26:32Z</time>
      </trkpt>
      <trkpt lat="46.54407" lon="6.02966">
        <ele>1039.7</ele>
        <time>2021-11-18T12:26:36Z</time>
      </trkpt>
      <trkpt lat="46.54402" lon="6.02964">
        <ele>1038.7</ele>
        <time>2021-11-18T12:26:41Z</time>
      </trkpt>
      <trkpt lat="46.54398" lon="6.02961">
        <ele>1037.8</ele>
        <time>2021-11-18T12:26:46Z</time>
      </trkpt>
      <trkpt lat="46.54393" lon="6.02957">
        <ele>1036.6</ele>
        <time>2021-11-18T12:26:51Z</time>
      </trkpt>
      <trkpt lat="46.54392" lon="6.02951">
        <ele>1034.7</ele>
        <time>2021-11-18T12:26:58Z</time>
      </trkpt>
      <trkpt lat="46.54389" lon="6.02945">
        <ele>1033.8</ele>
        <time>2021-11-18T12:27:02Z</time>
      </trkpt>
      <trkpt lat="46.54387" lon="6.02939">
        <ele>1033.4</ele>
        <time>2021-11-18T12:27:06Z</time>
      </trkpt>
      <trkpt lat="46.54387" lon="6.02931">
        <ele>1033.3</ele>
        <time>2021-11-18T12:27:11Z</time>
      </trkpt>
      <trkpt lat="46.54387" lon="6.02924">
        <ele>1034.1</ele>
        <time>2021-11-18T12:27:17Z</time>
      </trkpt>
      <trkpt lat="46.54392" lon="6.02921">
        <ele>1035.6</ele>
        <time>2021-11-18T12:27:24Z</time>
      </trkpt>
      <trkpt lat="46.54396" lon="6.02921">
        <ele>1036.5</ele>
        <time>2021-11-18T12:27:28Z</time>
      </trkpt>
      <trkpt lat="46.54402" lon="6.02923">
        <ele>1037.7</ele>
        <time>2021-11-18T12:27:32Z</time>
      </trkpt>
      <trkpt lat="46.54407" lon="6.02924">
        <ele>1039.1</ele>
        <time>2021-11-18T12:27:36Z</time>
      </trkpt>
      <trkpt lat="46.54413" lon="6.02924">
        <ele>1040.2</ele>
        <time>2021-11-18T12:27:41Z</time>
      </trkpt>
      <trkpt lat="46.54417" lon="6.02922">
        <ele>1040.7</ele>
        <time>2021-11-18T12:27:49Z</time>
      </trkpt>
      <trkpt lat="46.54415" lon="6.02909">
        <ele>1040.1</ele>
        <time>2021-11-18T12:28:24Z</time>
      </trkpt>
      <trkpt lat="46.54412" lon="6.02903">
        <ele>1040</ele>
        <time>2021-11-18T12:28:27Z</time>
      </trkpt>
      <trkpt lat="46.5441" lon="6.02898">
        <ele>1040.2</ele>
        <time>2021-11-18T12:28:31Z</time>
      </trkpt>
      <trkpt lat="46.54407" lon="6.02892">
        <ele>1040.7</ele>
        <time>2021-11-18T12:28:35Z</time>
      </trkpt>
      <trkpt lat="46.54405" lon="6.02886">
        <ele>1041.3</ele>
        <time>2021-11-18T12:28:41Z</time>
      </trkpt>
      <trkpt lat="46.54403" lon="6.0288">
        <ele>1041.8</ele>
        <time>2021-11-18T12:28:47Z</time>
      </trkpt>
      <trkpt lat="46.544" lon="6.02875">
        <ele>1042.2</ele>
        <time>2021-11-18T12:28:52Z</time>
      </trkpt>
      <trkpt lat="46.54398" lon="6.02869">
        <ele>1042.4</ele>
        <time>2021-11-18T12:28:57Z</time>
      </trkpt>
      <trkpt lat="46.54396" lon="6.02862">
        <ele>1042.2</ele>
        <time>2021-11-18T12:29:05Z</time>
      </trkpt>
      <trkpt lat="46.54394" lon="6.02856">
        <ele>1042.1</ele>
        <time>2021-11-18T12:29:11Z</time>
      </trkpt>
      <trkpt lat="46.54393" lon="6.02849">
        <ele>1042.1</ele>
        <time>2021-11-18T12:29:17Z</time>
      </trkpt>
      <trkpt lat="46.5439" lon="6.02843">
        <ele>1040.9</ele>
        <time>2021-11-18T12:29:24Z</time>
      </trkpt>
      <trkpt lat="46.54386" lon="6.0284">
        <ele>1039.8</ele>
        <time>2021-11-18T12:29:29Z</time>
      </trkpt>
      <trkpt lat="46.54381" lon="6.02838">
        <ele>1038.8</ele>
        <time>2021-11-18T12:29:33Z</time>
      </trkpt>
      <trkpt lat="46.54376" lon="6.02836">
        <ele>1038</ele>
        <time>2021-11-18T12:29:38Z</time>
      </trkpt>
      <trkpt lat="46.54372" lon="6.02833">
        <ele>1037.8</ele>
        <time>2021-11-18T12:29:42Z</time>
      </trkpt>
      <trkpt lat="46.54367" lon="6.02831">
        <ele>1041.9</ele>
        <time>2021-11-18T12:30:18Z</time>
      </trkpt>
      <trkpt lat="46.54363" lon="6.02829">
        <ele>1041.7</ele>
        <time>2021-11-18T12:30:24Z</time>
      </trkpt>
      <trkpt lat="46.54358" lon="6.02829">
        <ele>1039.4</ele>
        <time>2021-11-18T12:30:32Z</time>
      </trkpt>
      <trkpt lat="46.54353" lon="6.02826">
        <ele>1038.8</ele>
        <time>2021-11-18T12:30:36Z</time>
      </trkpt>
      <trkpt lat="46.54348" lon="6.02823">
        <ele>1038.9</ele>
        <time>2021-11-18T12:30:40Z</time>
      </trkpt>
      <trkpt lat="46.54344" lon="6.0282">
        <ele>1039.6</ele>
        <time>2021-11-18T12:30:44Z</time>
      </trkpt>
      <trkpt lat="46.54339" lon="6.02819">
        <ele>1040.3</ele>
        <time>2021-11-18T12:30:49Z</time>
      </trkpt>
      <trkpt lat="46.54334" lon="6.02818">
        <ele>1040.4</ele>
        <time>2021-11-18T12:30:55Z</time>
      </trkpt>
      <trkpt lat="46.54329" lon="6.02818">
        <ele>1039.7</ele>
        <time>2021-11-18T12:31:01Z</time>
      </trkpt>
      <trkpt lat="46.54324" lon="6.02818">
        <ele>1038.4</ele>
        <time>2021-11-18T12:31:06Z</time>
      </trkpt>
      <trkpt lat="46.54319" lon="6.02817">
        <ele>1036.8</ele>
        <time>2021-11-18T12:31:11Z</time>
      </trkpt>
      <trkpt lat="46.54313" lon="6.02815">
        <ele>1035.7</ele>
        <time>2021-11-18T12:31:17Z</time>
      </trkpt>
      <trkpt lat="46.54308" lon="6.02813">
        <ele>1035.2</ele>
        <time>2021-11-18T12:31:22Z</time>
      </trkpt>
      <trkpt lat="46.54303" lon="6.02813">
        <ele>1034.7</ele>
        <time>2021-11-18T12:31:27Z</time>
      </trkpt>
      <trkpt lat="46.54299" lon="6.02813">
        <ele>1034.1</ele>
        <time>2021-11-18T12:31:32Z</time>
      </trkpt>
      <trkpt lat="46.54294" lon="6.02808">
        <ele>1033.1</ele>
        <time>2021-11-18T12:31:37Z</time>
      </trkpt>
      <trkpt lat="46.5429" lon="6.02805">
        <ele>1031.4</ele>
        <time>2021-11-18T12:31:44Z</time>
      </trkpt>
      <trkpt lat="46.54285" lon="6.02803">
        <ele>1030.3</ele>
        <time>2021-11-18T12:31:49Z</time>
      </trkpt>
      <trkpt lat="46.5428" lon="6.02802">
        <ele>1029.3</ele>
        <time>2021-11-18T12:31:53Z</time>
      </trkpt>
      <trkpt lat="46.54275" lon="6.028">
        <ele>1027.8</ele>
        <time>2021-11-18T12:31:58Z</time>
      </trkpt>
      <trkpt lat="46.54271" lon="6.02797">
        <ele>1026.8</ele>
        <time>2021-11-18T12:32:02Z</time>
      </trkpt>
      <trkpt lat="46.54266" lon="6.02794">
        <ele>1025.1</ele>
        <time>2021-11-18T12:32:07Z</time>
      </trkpt>
      <trkpt lat="46.54262" lon="6.02789">
        <ele>1023.2</ele>
        <time>2021-11-18T12:32:13Z</time>
      </trkpt>
      <trkpt lat="46.54259" lon="6.02784">
        <ele>1022.6</ele>
        <time>2021-11-18T12:32:18Z</time>
      </trkpt>
      <trkpt lat="46.54256" lon="6.02779">
        <ele>1021.1</ele>
        <time>2021-11-18T12:32:24Z</time>
      </trkpt>
      <trkpt lat="46.54251" lon="6.02777">
        <ele>1019.9</ele>
        <time>2021-11-18T12:32:32Z</time>
      </trkpt>
      <trkpt lat="46.54246" lon="6.02774">
        <ele>1019.6</ele>
        <time>2021-11-18T12:32:37Z</time>
      </trkpt>
      <trkpt lat="46.54242" lon="6.02771">
        <ele>1019.8</ele>
        <time>2021-11-18T12:32:42Z</time>
      </trkpt>
      <trkpt lat="46.54238" lon="6.02766">
        <ele>1019.7</ele>
        <time>2021-11-18T12:32:48Z</time>
      </trkpt>
      <trkpt lat="46.54234" lon="6.02762">
        <ele>1018.9</ele>
        <time>2021-11-18T12:32:54Z</time>
      </trkpt>
      <trkpt lat="46.54231" lon="6.02757">
        <ele>1016.9</ele>
        <time>2021-11-18T12:33:00Z</time>
      </trkpt>
      <trkpt lat="46.54226" lon="6.02754">
        <ele>1015.3</ele>
        <time>2021-11-18T12:33:06Z</time>
      </trkpt>
      <trkpt lat="46.54222" lon="6.02751">
        <ele>1014.5</ele>
        <time>2021-11-18T12:33:10Z</time>
      </trkpt>
      <trkpt lat="46.54218" lon="6.02748">
        <ele>1013.2</ele>
        <time>2021-11-18T12:33:15Z</time>
      </trkpt>
      <trkpt lat="46.54213" lon="6.02745">
        <ele>1011.7</ele>
        <time>2021-11-18T12:33:20Z</time>
      </trkpt>
      <trkpt lat="46.54208" lon="6.02743">
        <ele>1010.5</ele>
        <time>2021-11-18T12:33:24Z</time>
      </trkpt>
      <trkpt lat="46.54203" lon="6.02743">
        <ele>1010</ele>
        <time>2021-11-18T12:33:29Z</time>
      </trkpt>
      <trkpt lat="46.54198" lon="6.02741">
        <ele>1009.1</ele>
        <time>2021-11-18T12:33:34Z</time>
      </trkpt>
      <trkpt lat="46.54193" lon="6.02742">
        <ele>1008.7</ele>
        <time>2021-11-18T12:33:39Z</time>
      </trkpt>
      <trkpt lat="46.54188" lon="6.02741">
        <ele>1008.2</ele>
        <time>2021-11-18T12:33:44Z</time>
      </trkpt>
      <trkpt lat="46.54184" lon="6.02737">
        <ele>1007.1</ele>
        <time>2021-11-18T12:33:49Z</time>
      </trkpt>
      <trkpt lat="46.5418" lon="6.02733">
        <ele>1005.3</ele>
        <time>2021-11-18T12:33:54Z</time>
      </trkpt>
      <trkpt lat="46.54176" lon="6.0273">
        <ele>1004.1</ele>
        <time>2021-11-18T12:33:58Z</time>
      </trkpt>
      <trkpt lat="46.54173" lon="6.02725">
        <ele>1003.2</ele>
        <time>2021-11-18T12:34:03Z</time>
      </trkpt>
      <trkpt lat="46.54171" lon="6.02718">
        <ele>1002.9</ele>
        <time>2021-11-18T12:34:08Z</time>
      </trkpt>
      <trkpt lat="46.54171" lon="6.02711">
        <ele>1002.5</ele>
        <time>2021-11-18T12:34:13Z</time>
      </trkpt>
      <trkpt lat="46.54172" lon="6.02704">
        <ele>1001.4</ele>
        <time>2021-11-18T12:34:19Z</time>
      </trkpt>
      <trkpt lat="46.54171" lon="6.02697">
        <ele>998.9</ele>
        <time>2021-11-18T12:34:29Z</time>
      </trkpt>
      <trkpt lat="46.54169" lon="6.0269">
        <ele>997.4</ele>
        <time>2021-11-18T12:34:35Z</time>
      </trkpt>
      <trkpt lat="46.54167" lon="6.02684">
        <ele>996.8</ele>
        <time>2021-11-18T12:34:39Z</time>
      </trkpt>
      <trkpt lat="46.54165" lon="6.02678">
        <ele>996.6</ele>
        <time>2021-11-18T12:34:43Z</time>
      </trkpt>
      <trkpt lat="46.54164" lon="6.02671">
        <ele>996.5</ele>
        <time>2021-11-18T12:34:49Z</time>
      </trkpt>
      <trkpt lat="46.54161" lon="6.02666">
        <ele>996.2</ele>
        <time>2021-11-18T12:34:55Z</time>
      </trkpt>
      <trkpt lat="46.54156" lon="6.02665">
        <ele>995.7</ele>
        <time>2021-11-18T12:35:00Z</time>
      </trkpt>
      <trkpt lat="46.5415" lon="6.02663">
        <ele>995</ele>
        <time>2021-11-18T12:35:05Z</time>
      </trkpt>
      <trkpt lat="46.54146" lon="6.02659">
        <ele>994</ele>
        <time>2021-11-18T12:35:09Z</time>
      </trkpt>
      <trkpt lat="46.54141" lon="6.02656">
        <ele>993.6</ele>
        <time>2021-11-18T12:35:14Z</time>
      </trkpt>
      <trkpt lat="46.54138" lon="6.02651">
        <ele>994.2</ele>
        <time>2021-11-18T12:35:18Z</time>
      </trkpt>
      <trkpt lat="46.54136" lon="6.02644">
        <ele>995.4</ele>
        <time>2021-11-18T12:35:25Z</time>
      </trkpt>
      <trkpt lat="46.54132" lon="6.02641">
        <ele>996</ele>
        <time>2021-11-18T12:35:31Z</time>
      </trkpt>
      <trkpt lat="46.54129" lon="6.02634">
        <ele>996</ele>
        <time>2021-11-18T12:35:36Z</time>
      </trkpt>
      <trkpt lat="46.54127" lon="6.02628">
        <ele>996.2</ele>
        <time>2021-11-18T12:35:40Z</time>
      </trkpt>
      <trkpt lat="46.54125" lon="6.02623">
        <ele>996.4</ele>
        <time>2021-11-18T12:35:45Z</time>
      </trkpt>
      <trkpt lat="46.54121" lon="6.02618">
        <ele>996.2</ele>
        <time>2021-11-18T12:35:52Z</time>
      </trkpt>
      <trkpt lat="46.54116" lon="6.02614">
        <ele>995.5</ele>
        <time>2021-11-18T12:35:57Z</time>
      </trkpt>
      <trkpt lat="46.54112" lon="6.0261">
        <ele>995.5</ele>
        <time>2021-11-18T12:36:01Z</time>
      </trkpt>
      <trkpt lat="46.54108" lon="6.02606">
        <ele>995.2</ele>
        <time>2021-11-18T12:36:07Z</time>
      </trkpt>
      <trkpt lat="46.54105" lon="6.02602">
        <ele>994.8</ele>
        <time>2021-11-18T12:36:12Z</time>
      </trkpt>
      <trkpt lat="46.541" lon="6.02598">
        <ele>994.4</ele>
        <time>2021-11-18T12:36:16Z</time>
      </trkpt>
      <trkpt lat="46.54096" lon="6.02594">
        <ele>994.2</ele>
        <time>2021-11-18T12:36:20Z</time>
      </trkpt>
      <trkpt lat="46.54091" lon="6.02592">
        <ele>994</ele>
        <time>2021-11-18T12:36:25Z</time>
      </trkpt>
      <trkpt lat="46.54085" lon="6.02594">
        <ele>993.9</ele>
        <time>2021-11-18T12:36:29Z</time>
      </trkpt>
      <trkpt lat="46.54081" lon="6.02599">
        <ele>994.9</ele>
        <time>2021-11-18T12:36:34Z</time>
      </trkpt>
      <trkpt lat="46.54077" lon="6.02602">
        <ele>996</ele>
        <time>2021-11-18T12:36:39Z</time>
      </trkpt>
      <trkpt lat="46.54072" lon="6.02604">
        <ele>997</ele>
        <time>2021-11-18T12:36:48Z</time>
      </trkpt>
      <trkpt lat="46.54068" lon="6.02607">
        <ele>997.6</ele>
        <time>2021-11-18T12:36:55Z</time>
      </trkpt>
      <trkpt lat="46.54064" lon="6.02613">
        <ele>997.4</ele>
        <time>2021-11-18T12:37:00Z</time>
      </trkpt>
      <trkpt lat="46.54061" lon="6.02617">
        <ele>996.9</ele>
        <time>2021-11-18T12:37:05Z</time>
      </trkpt>
      <trkpt lat="46.54057" lon="6.02622">
        <ele>996.3</ele>
        <time>2021-11-18T12:37:11Z</time>
      </trkpt>
      <trkpt lat="46.54053" lon="6.02624">
        <ele>995.6</ele>
        <time>2021-11-18T12:37:19Z</time>
      </trkpt>
      <trkpt lat="46.54048" lon="6.02625">
        <ele>995.4</ele>
        <time>2021-11-18T12:37:25Z</time>
      </trkpt>
      <trkpt lat="46.54043" lon="6.02625">
        <ele>995</ele>
        <time>2021-11-18T12:37:30Z</time>
      </trkpt>
      <trkpt lat="46.54038" lon="6.02624">
        <ele>994.7</ele>
        <time>2021-11-18T12:37:34Z</time>
      </trkpt>
      <trkpt lat="46.54034" lon="6.0262">
        <ele>994.1</ele>
        <time>2021-11-18T12:37:40Z</time>
      </trkpt>
      <trkpt lat="46.54029" lon="6.02617">
        <ele>993.6</ele>
        <time>2021-11-18T12:37:47Z</time>
      </trkpt>
      <trkpt lat="46.54025" lon="6.02613">
        <ele>992.6</ele>
        <time>2021-11-18T12:37:55Z</time>
      </trkpt>
      <trkpt lat="46.54029" lon="6.02608">
        <ele>992.1</ele>
        <time>2021-11-18T12:38:19Z</time>
      </trkpt>
      <trkpt lat="46.54024" lon="6.02607">
        <ele>992.8</ele>
        <time>2021-11-18T12:38:33Z</time>
      </trkpt>
      <trkpt lat="46.54019" lon="6.02604">
        <ele>993.1</ele>
        <time>2021-11-18T12:38:38Z</time>
      </trkpt>
      <trkpt lat="46.54015" lon="6.026">
        <ele>994.9</ele>
        <time>2021-11-18T12:38:46Z</time>
      </trkpt>
      <trkpt lat="46.54011" lon="6.02597">
        <ele>997</ele>
        <time>2021-11-18T12:38:51Z</time>
      </trkpt>
      <trkpt lat="46.54006" lon="6.02596">
        <ele>997.5</ele>
        <time>2021-11-18T12:38:56Z</time>
      </trkpt>
      <trkpt lat="46.54" lon="6.02597">
        <ele>996.7</ele>
        <time>2021-11-18T12:39:03Z</time>
      </trkpt>
      <trkpt lat="46.53995" lon="6.02599">
        <ele>995.4</ele>
        <time>2021-11-18T12:39:08Z</time>
      </trkpt>
      <trkpt lat="46.5399" lon="6.02598">
        <ele>993.4</ele>
        <time>2021-11-18T12:39:15Z</time>
      </trkpt>
      <trkpt lat="46.53986" lon="6.02596">
        <ele>990.7</ele>
        <time>2021-11-18T12:39:23Z</time>
      </trkpt>
      <trkpt lat="46.53981" lon="6.02593">
        <ele>988.3</ele>
        <time>2021-11-18T12:39:30Z</time>
      </trkpt>
      <trkpt lat="46.53977" lon="6.0259">
        <ele>986</ele>
        <time>2021-11-18T12:39:37Z</time>
      </trkpt>
      <trkpt lat="46.53973" lon="6.02586">
        <ele>983.8</ele>
        <time>2021-11-18T12:39:43Z</time>
      </trkpt>
      <trkpt lat="46.53971" lon="6.0258">
        <ele>982.1</ele>
        <time>2021-11-18T12:39:48Z</time>
      </trkpt>
      <trkpt lat="46.53967" lon="6.02576">
        <ele>981.1</ele>
        <time>2021-11-18T12:39:52Z</time>
      </trkpt>
      <trkpt lat="46.53962" lon="6.02575">
        <ele>980.1</ele>
        <time>2021-11-18T12:39:57Z</time>
      </trkpt>
      <trkpt lat="46.53957" lon="6.02574">
        <ele>978.6</ele>
        <time>2021-11-18T12:40:07Z</time>
      </trkpt>
      <trkpt lat="46.53952" lon="6.02574">
        <ele>978.2</ele>
        <time>2021-11-18T12:40:11Z</time>
      </trkpt>
      <trkpt lat="46.53947" lon="6.02573">
        <ele>977.7</ele>
        <time>2021-11-18T12:40:15Z</time>
      </trkpt>
      <trkpt lat="46.53943" lon="6.0257">
        <ele>976.6</ele>
        <time>2021-11-18T12:40:20Z</time>
      </trkpt>
      <trkpt lat="46.53939" lon="6.02564">
        <ele>973.6</ele>
        <time>2021-11-18T12:40:54Z</time>
      </trkpt>
      <trkpt lat="46.53936" lon="6.02558">
        <ele>973.5</ele>
        <time>2021-11-18T12:40:57Z</time>
      </trkpt>
      <trkpt lat="46.53933" lon="6.02552">
        <ele>973.5</ele>
        <time>2021-11-18T12:41:01Z</time>
      </trkpt>
      <trkpt lat="46.53931" lon="6.02545">
        <ele>973.7</ele>
        <time>2021-11-18T12:41:05Z</time>
      </trkpt>
      <trkpt lat="46.53928" lon="6.02539">
        <ele>973.8</ele>
        <time>2021-11-18T12:41:10Z</time>
      </trkpt>
      <trkpt lat="46.53924" lon="6.02534">
        <ele>973.8</ele>
        <time>2021-11-18T12:41:15Z</time>
      </trkpt>
      <trkpt lat="46.53922" lon="6.02528">
        <ele>973.7</ele>
        <time>2021-11-18T12:41:20Z</time>
      </trkpt>
      <trkpt lat="46.53919" lon="6.02523">
        <ele>974.2</ele>
        <time>2021-11-18T12:41:25Z</time>
      </trkpt>
      <trkpt lat="46.53917" lon="6.02517">
        <ele>974.7</ele>
        <time>2021-11-18T12:41:30Z</time>
      </trkpt>
      <trkpt lat="46.53914" lon="6.02511">
        <ele>975.8</ele>
        <time>2021-11-18T12:41:36Z</time>
      </trkpt>
      <trkpt lat="46.5391" lon="6.02505">
        <ele>977.2</ele>
        <time>2021-11-18T12:41:43Z</time>
      </trkpt>
      <trkpt lat="46.53906" lon="6.025">
        <ele>978.1</ele>
        <time>2021-11-18T12:41:49Z</time>
      </trkpt>
      <trkpt lat="46.53902" lon="6.02497">
        <ele>979.2</ele>
        <time>2021-11-18T12:41:55Z</time>
      </trkpt>
      <trkpt lat="46.53899" lon="6.02492">
        <ele>980</ele>
        <time>2021-11-18T12:42:01Z</time>
      </trkpt>
      <trkpt lat="46.53896" lon="6.02487">
        <ele>980.6</ele>
        <time>2021-11-18T12:42:07Z</time>
      </trkpt>
      <trkpt lat="46.53893" lon="6.0248">
        <ele>981.4</ele>
        <time>2021-11-18T12:42:12Z</time>
      </trkpt>
      <trkpt lat="46.5389" lon="6.02474">
        <ele>982.1</ele>
        <time>2021-11-18T12:42:17Z</time>
      </trkpt>
      <trkpt lat="46.53888" lon="6.02468">
        <ele>982.8</ele>
        <time>2021-11-18T12:42:23Z</time>
      </trkpt>
      <trkpt lat="46.53885" lon="6.02463">
        <ele>983.1</ele>
        <time>2021-11-18T12:42:30Z</time>
      </trkpt>
      <trkpt lat="46.53882" lon="6.02456">
        <ele>983.8</ele>
        <time>2021-11-18T12:42:36Z</time>
      </trkpt>
      <trkpt lat="46.53879" lon="6.02451">
        <ele>984.5</ele>
        <time>2021-11-18T12:42:41Z</time>
      </trkpt>
      <trkpt lat="46.53876" lon="6.02445">
        <ele>984.8</ele>
        <time>2021-11-18T12:42:47Z</time>
      </trkpt>
      <trkpt lat="46.53872" lon="6.02441">
        <ele>984.6</ele>
        <time>2021-11-18T12:42:54Z</time>
      </trkpt>
      <trkpt lat="46.53867" lon="6.02439">
        <ele>983.9</ele>
        <time>2021-11-18T12:42:59Z</time>
      </trkpt>
      <trkpt lat="46.53863" lon="6.02435">
        <ele>983.1</ele>
        <time>2021-11-18T12:43:04Z</time>
      </trkpt>
      <trkpt lat="46.5386" lon="6.02429">
        <ele>981.4</ele>
        <time>2021-11-18T12:43:09Z</time>
      </trkpt>
      <trkpt lat="46.53856" lon="6.02424">
        <ele>979.7</ele>
        <time>2021-11-18T12:43:14Z</time>
      </trkpt>
      <trkpt lat="46.53854" lon="6.02418">
        <ele>977.8</ele>
        <time>2021-11-18T12:43:20Z</time>
      </trkpt>
      <trkpt lat="46.53852" lon="6.02412">
        <ele>976.8</ele>
        <time>2021-11-18T12:43:26Z</time>
      </trkpt>
      <trkpt lat="46.5385" lon="6.02405">
        <ele>976.4</ele>
        <time>2021-11-18T12:43:31Z</time>
      </trkpt>
      <trkpt lat="46.53846" lon="6.02401">
        <ele>976</ele>
        <time>2021-11-18T12:43:36Z</time>
      </trkpt>
      <trkpt lat="46.53841" lon="6.02398">
        <ele>975.9</ele>
        <time>2021-11-18T12:43:41Z</time>
      </trkpt>
      <trkpt lat="46.53837" lon="6.02394">
        <ele>976.1</ele>
        <time>2021-11-18T12:43:46Z</time>
      </trkpt>
      <trkpt lat="46.53833" lon="6.02389">
        <ele>976.5</ele>
        <time>2021-11-18T12:43:51Z</time>
      </trkpt>
      <trkpt lat="46.5383" lon="6.02382">
        <ele>976.3</ele>
        <time>2021-11-18T12:43:56Z</time>
      </trkpt>
      <trkpt lat="46.53827" lon="6.02377">
        <ele>975.4</ele>
        <time>2021-11-18T12:44:01Z</time>
      </trkpt>
      <trkpt lat="46.53824" lon="6.02371">
        <ele>973.4</ele>
        <time>2021-11-18T12:44:07Z</time>
      </trkpt>
      <trkpt lat="46.53821" lon="6.02367">
        <ele>971.3</ele>
        <time>2021-11-18T12:44:13Z</time>
      </trkpt>
      <trkpt lat="46.53816" lon="6.02364">
        <ele>969.6</ele>
        <time>2021-11-18T12:44:18Z</time>
      </trkpt>
      <trkpt lat="46.53811" lon="6.02361">
        <ele>968.1</ele>
        <time>2021-11-18T12:44:23Z</time>
      </trkpt>
      <trkpt lat="46.53806" lon="6.02358">
        <ele>967</ele>
        <time>2021-11-18T12:44:28Z</time>
      </trkpt>
      <trkpt lat="46.53802" lon="6.02357">
        <ele>966</ele>
        <time>2021-11-18T12:44:34Z</time>
      </trkpt>
      <trkpt lat="46.53796" lon="6.02355">
        <ele>965.7</ele>
        <time>2021-11-18T12:44:41Z</time>
      </trkpt>
      <trkpt lat="46.53792" lon="6.02353">
        <ele>966.1</ele>
        <time>2021-11-18T12:44:46Z</time>
      </trkpt>
      <trkpt lat="46.53787" lon="6.02351">
        <ele>966.7</ele>
        <time>2021-11-18T12:44:52Z</time>
      </trkpt>
      <trkpt lat="46.53782" lon="6.02351">
        <ele>966.6</ele>
        <time>2021-11-18T12:44:57Z</time>
      </trkpt>
      <trkpt lat="46.53778" lon="6.0235">
        <ele>965.5</ele>
        <time>2021-11-18T12:45:03Z</time>
      </trkpt>
      <trkpt lat="46.53775" lon="6.02343">
        <ele>964.4</ele>
        <time>2021-11-18T12:45:10Z</time>
      </trkpt>
      <trkpt lat="46.53774" lon="6.02336">
        <ele>964</ele>
        <time>2021-11-18T12:45:16Z</time>
      </trkpt>
      <trkpt lat="46.53775" lon="6.02329">
        <ele>963.3</ele>
        <time>2021-11-18T12:45:23Z</time>
      </trkpt>
      <trkpt lat="46.53772" lon="6.02323">
        <ele>962.4</ele>
        <time>2021-11-18T12:45:34Z</time>
      </trkpt>
      <trkpt lat="46.53769" lon="6.02318">
        <ele>962.1</ele>
        <time>2021-11-18T12:45:40Z</time>
      </trkpt>
      <trkpt lat="46.5377" lon="6.02311">
        <ele>960.4</ele>
        <time>2021-11-18T12:45:51Z</time>
      </trkpt>
      <trkpt lat="46.53771" lon="6.02303">
        <ele>959.1</ele>
        <time>2021-11-18T12:45:58Z</time>
      </trkpt>
      <trkpt lat="46.53772" lon="6.02296">
        <ele>957.9</ele>
        <time>2021-11-18T12:46:04Z</time>
      </trkpt>
      <trkpt lat="46.53771" lon="6.02287">
        <ele>957.5</ele>
        <time>2021-11-18T12:46:14Z</time>
      </trkpt>
      <trkpt lat="46.53773" lon="6.02281">
        <ele>957.5</ele>
        <time>2021-11-18T12:46:19Z</time>
      </trkpt>
      <trkpt lat="46.53775" lon="6.02274">
        <ele>957.2</ele>
        <time>2021-11-18T12:46:26Z</time>
      </trkpt>
      <trkpt lat="46.53776" lon="6.02268">
        <ele>955.7</ele>
        <time>2021-11-18T12:46:38Z</time>
      </trkpt>
      <trkpt lat="46.53773" lon="6.02263">
        <ele>954.5</ele>
        <time>2021-11-18T12:46:43Z</time>
      </trkpt>
      <trkpt lat="46.53779" lon="6.02264">
        <ele>948.5</ele>
        <time>2021-11-18T12:47:06Z</time>
      </trkpt>
      <trkpt lat="46.53783" lon="6.02266">
        <ele>946</ele>
        <time>2021-11-18T12:47:12Z</time>
      </trkpt>
      <trkpt lat="46.53778" lon="6.02268">
        <ele>944.1</ele>
        <time>2021-11-18T12:47:30Z</time>
      </trkpt>
      <trkpt lat="46.53774" lon="6.02268">
        <ele>944.2</ele>
        <time>2021-11-18T12:47:35Z</time>
      </trkpt>
      <trkpt lat="46.53776" lon="6.02262">
        <ele>945.2</ele>
        <time>2021-11-18T12:47:56Z</time>
      </trkpt>
      <trkpt lat="46.53776" lon="6.02255">
        <ele>944.9</ele>
        <time>2021-11-18T12:47:59Z</time>
      </trkpt>
      <trkpt lat="46.53777" lon="6.02248">
        <ele>944.4</ele>
        <time>2021-11-18T12:48:04Z</time>
      </trkpt>
      <trkpt lat="46.53777" lon="6.02241">
        <ele>944</ele>
        <time>2021-11-18T12:48:15Z</time>
      </trkpt>
      <trkpt lat="46.53778" lon="6.02234">
        <ele>943.7</ele>
        <time>2021-11-18T12:48:21Z</time>
      </trkpt>
      <trkpt lat="46.53776" lon="6.02228">
        <ele>943.1</ele>
        <time>2021-11-18T12:48:29Z</time>
      </trkpt>
      <trkpt lat="46.53771" lon="6.02227">
        <ele>942.4</ele>
        <time>2021-11-18T12:48:34Z</time>
      </trkpt>
      <trkpt lat="46.53767" lon="6.02231">
        <ele>941.5</ele>
        <time>2021-11-18T12:48:40Z</time>
      </trkpt>
      <trkpt lat="46.53766" lon="6.02239">
        <ele>940.4</ele>
        <time>2021-11-18T12:48:46Z</time>
      </trkpt>
      <trkpt lat="46.53765" lon="6.02245">
        <ele>940</ele>
        <time>2021-11-18T12:48:50Z</time>
      </trkpt>
      <trkpt lat="46.53762" lon="6.02252">
        <ele>939.7</ele>
        <time>2021-11-18T12:48:55Z</time>
      </trkpt>
      <trkpt lat="46.53758" lon="6.02258">
        <ele>938.9</ele>
        <time>2021-11-18T12:49:01Z</time>
      </trkpt>
      <trkpt lat="46.53754" lon="6.02258">
        <ele>938.6</ele>
        <time>2021-11-18T12:49:06Z</time>
      </trkpt>
      <trkpt lat="46.53749" lon="6.02258">
        <ele>938.4</ele>
        <time>2021-11-18T12:49:10Z</time>
      </trkpt>
      <trkpt lat="46.53745" lon="6.02254">
        <ele>938.8</ele>
        <time>2021-11-18T12:49:15Z</time>
      </trkpt>
      <trkpt lat="46.53739" lon="6.02252">
        <ele>939.6</ele>
        <time>2021-11-18T12:49:22Z</time>
      </trkpt>
      <trkpt lat="46.53735" lon="6.02253">
        <ele>940.1</ele>
        <time>2021-11-18T12:49:26Z</time>
      </trkpt>
      <trkpt lat="46.53729" lon="6.02253">
        <ele>941.3</ele>
        <time>2021-11-18T12:49:31Z</time>
      </trkpt>
      <trkpt lat="46.53725" lon="6.0225">
        <ele>942.3</ele>
        <time>2021-11-18T12:49:36Z</time>
      </trkpt>
      <trkpt lat="46.53721" lon="6.02247">
        <ele>942.6</ele>
        <time>2021-11-18T12:49:43Z</time>
      </trkpt>
      <trkpt lat="46.53716" lon="6.02247">
        <ele>942.7</ele>
        <time>2021-11-18T12:49:49Z</time>
      </trkpt>
      <trkpt lat="46.53711" lon="6.02246">
        <ele>943.2</ele>
        <time>2021-11-18T12:49:53Z</time>
      </trkpt>
      <trkpt lat="46.53706" lon="6.02245">
        <ele>944.2</ele>
        <time>2021-11-18T12:49:58Z</time>
      </trkpt>
      <trkpt lat="46.53703" lon="6.02241">
        <ele>945.5</ele>
        <time>2021-11-18T12:50:03Z</time>
      </trkpt>
      <trkpt lat="46.537" lon="6.02235">
        <ele>945.8</ele>
        <time>2021-11-18T12:50:07Z</time>
      </trkpt>
      <trkpt lat="46.53697" lon="6.02228">
        <ele>945.7</ele>
        <time>2021-11-18T12:50:12Z</time>
      </trkpt>
      <trkpt lat="46.53694" lon="6.02224">
        <ele>945.1</ele>
        <time>2021-11-18T12:50:17Z</time>
      </trkpt>
      <trkpt lat="46.53689" lon="6.02221">
        <ele>943.8</ele>
        <time>2021-11-18T12:50:23Z</time>
      </trkpt>
      <trkpt lat="46.53685" lon="6.02217">
        <ele>942</ele>
        <time>2021-11-18T12:50:29Z</time>
      </trkpt>
      <trkpt lat="46.5368" lon="6.02216">
        <ele>940.1</ele>
        <time>2021-11-18T12:50:39Z</time>
      </trkpt>
      <trkpt lat="46.53676" lon="6.02212">
        <ele>939.3</ele>
        <time>2021-11-18T12:50:44Z</time>
      </trkpt>
      <trkpt lat="46.53676" lon="6.02205">
        <ele>938</ele>
        <time>2021-11-18T12:50:50Z</time>
      </trkpt>
      <trkpt lat="46.53673" lon="6.022">
        <ele>937.2</ele>
        <time>2021-11-18T12:50:55Z</time>
      </trkpt>
      <trkpt lat="46.53669" lon="6.02196">
        <ele>937.2</ele>
        <time>2021-11-18T12:50:59Z</time>
      </trkpt>
      <trkpt lat="46.53665" lon="6.02193">
        <ele>936.8</ele>
        <time>2021-11-18T12:51:04Z</time>
      </trkpt>
      <trkpt lat="46.5366" lon="6.02192">
        <ele>935.9</ele>
        <time>2021-11-18T12:51:10Z</time>
      </trkpt>
      <trkpt lat="46.53657" lon="6.02186">
        <ele>934.2</ele>
        <time>2021-11-18T12:51:17Z</time>
      </trkpt>
      <trkpt lat="46.53654" lon="6.02179">
        <ele>933.8</ele>
        <time>2021-11-18T12:51:22Z</time>
      </trkpt>
      <trkpt lat="46.53651" lon="6.02174">
        <ele>933.5</ele>
        <time>2021-11-18T12:51:28Z</time>
      </trkpt>
      <trkpt lat="46.53647" lon="6.0217">
        <ele>933.4</ele>
        <time>2021-11-18T12:51:36Z</time>
      </trkpt>
      <trkpt lat="46.53643" lon="6.02166">
        <ele>933.4</ele>
        <time>2021-11-18T12:51:42Z</time>
      </trkpt>
      <trkpt lat="46.5364" lon="6.02161">
        <ele>933.3</ele>
        <time>2021-11-18T12:51:46Z</time>
      </trkpt>
      <trkpt lat="46.53636" lon="6.02155">
        <ele>932.8</ele>
        <time>2021-11-18T12:51:51Z</time>
      </trkpt>
      <trkpt lat="46.53632" lon="6.02153">
        <ele>932.6</ele>
        <time>2021-11-18T12:51:56Z</time>
      </trkpt>
      <trkpt lat="46.53628" lon="6.02149">
        <ele>932.2</ele>
        <time>2021-11-18T12:52:02Z</time>
      </trkpt>
      <trkpt lat="46.53623" lon="6.02147">
        <ele>932.4</ele>
        <time>2021-11-18T12:52:07Z</time>
      </trkpt>
      <trkpt lat="46.53619" lon="6.02144">
        <ele>932.7</ele>
        <time>2021-11-18T12:52:12Z</time>
      </trkpt>
      <trkpt lat="46.53615" lon="6.0214">
        <ele>933.6</ele>
        <time>2021-11-18T12:52:17Z</time>
      </trkpt>
      <trkpt lat="46.53613" lon="6.02134">
        <ele>934.2</ele>
        <time>2021-11-18T12:52:23Z</time>
      </trkpt>
      <trkpt lat="46.53608" lon="6.02129">
        <ele>934.7</ele>
        <time>2021-11-18T12:52:29Z</time>
      </trkpt>
      <trkpt lat="46.53604" lon="6.02124">
        <ele>934.7</ele>
        <time>2021-11-18T12:52:35Z</time>
      </trkpt>
      <trkpt lat="46.53599" lon="6.0212">
        <ele>934.2</ele>
        <time>2021-11-18T12:52:40Z</time>
      </trkpt>
      <trkpt lat="46.53596" lon="6.02115">
        <ele>934.1</ele>
        <time>2021-11-18T12:52:45Z</time>
      </trkpt>
      <trkpt lat="46.53592" lon="6.02109">
        <ele>934.2</ele>
        <time>2021-11-18T12:52:50Z</time>
      </trkpt>
      <trkpt lat="46.53589" lon="6.02103">
        <ele>934.5</ele>
        <time>2021-11-18T12:52:56Z</time>
      </trkpt>
      <trkpt lat="46.53585" lon="6.02099">
        <ele>934.9</ele>
        <time>2021-11-18T12:53:02Z</time>
      </trkpt>
      <trkpt lat="46.53581" lon="6.02096">
        <ele>935.3</ele>
        <time>2021-11-18T12:53:08Z</time>
      </trkpt>
      <trkpt lat="46.53575" lon="6.02092">
        <ele>934.9</ele>
        <time>2021-11-18T12:53:13Z</time>
      </trkpt>
      <trkpt lat="46.53571" lon="6.02089">
        <ele>934.4</ele>
        <time>2021-11-18T12:53:17Z</time>
      </trkpt>
      <trkpt lat="46.53568" lon="6.02084">
        <ele>933.9</ele>
        <time>2021-11-18T12:53:23Z</time>
      </trkpt>
      <trkpt lat="46.53565" lon="6.02078">
        <ele>933.3</ele>
        <time>2021-11-18T12:53:31Z</time>
      </trkpt>
      <trkpt lat="46.53561" lon="6.02073">
        <ele>933</ele>
        <time>2021-11-18T12:53:35Z</time>
      </trkpt>
      <trkpt lat="46.53558" lon="6.02069">
        <ele>932.8</ele>
        <time>2021-11-18T12:53:38Z</time>
      </trkpt>
      <trkpt lat="46.53555" lon="6.02064">
        <ele>932.3</ele>
        <time>2021-11-18T12:53:42Z</time>
      </trkpt>
      <trkpt lat="46.53551" lon="6.02059">
        <ele>931.7</ele>
        <time>2021-11-18T12:53:47Z</time>
      </trkpt>
      <trkpt lat="46.5355" lon="6.02052">
        <ele>931</ele>
        <time>2021-11-18T12:53:54Z</time>
      </trkpt>
      <trkpt lat="46.53549" lon="6.02045">
        <ele>930</ele>
        <time>2021-11-18T12:54:03Z</time>
      </trkpt>
      <trkpt lat="46.53546" lon="6.02037">
        <ele>929.2</ele>
        <time>2021-11-18T12:54:08Z</time>
      </trkpt>
      <trkpt lat="46.53544" lon="6.02031">
        <ele>928.2</ele>
        <time>2021-11-18T12:54:14Z</time>
      </trkpt>
      <trkpt lat="46.53541" lon="6.02025">
        <ele>927.7</ele>
        <time>2021-11-18T12:54:20Z</time>
      </trkpt>
      <trkpt lat="46.53538" lon="6.0202">
        <ele>926.7</ele>
        <time>2021-11-18T12:54:25Z</time>
      </trkpt>
      <trkpt lat="46.53535" lon="6.02014">
        <ele>925.3</ele>
        <time>2021-11-18T12:54:30Z</time>
      </trkpt>
      <trkpt lat="46.53531" lon="6.0201">
        <ele>923.9</ele>
        <time>2021-11-18T12:54:35Z</time>
      </trkpt>
      <trkpt lat="46.53526" lon="6.02007">
        <ele>923</ele>
        <time>2021-11-18T12:54:41Z</time>
      </trkpt>
      <trkpt lat="46.53521" lon="6.02007">
        <ele>922.6</ele>
        <time>2021-11-18T12:54:46Z</time>
      </trkpt>
      <trkpt lat="46.53518" lon="6.02011">
        <ele>922.6</ele>
        <time>2021-11-18T12:54:51Z</time>
      </trkpt>
      <trkpt lat="46.53515" lon="6.02018">
        <ele>922.9</ele>
        <time>2021-11-18T12:54:56Z</time>
      </trkpt>
      <trkpt lat="46.53513" lon="6.02025">
        <ele>923.1</ele>
        <time>2021-11-18T12:55:01Z</time>
      </trkpt>
      <trkpt lat="46.53512" lon="6.02031">
        <ele>923.9</ele>
        <time>2021-11-18T12:55:06Z</time>
      </trkpt>
      <trkpt lat="46.53509" lon="6.02037">
        <ele>925.3</ele>
        <time>2021-11-18T12:55:13Z</time>
      </trkpt>
      <trkpt lat="46.53509" lon="6.02044">
        <ele>925.7</ele>
        <time>2021-11-18T12:55:20Z</time>
      </trkpt>
      <trkpt lat="46.53509" lon="6.02051">
        <ele>925</ele>
        <time>2021-11-18T12:55:26Z</time>
      </trkpt>
      <trkpt lat="46.53505" lon="6.02056">
        <ele>923.1</ele>
        <time>2021-11-18T12:55:38Z</time>
      </trkpt>
      <trkpt lat="46.535" lon="6.0206">
        <ele>922.2</ele>
        <time>2021-11-18T12:55:44Z</time>
      </trkpt>
      <trkpt lat="46.53496" lon="6.02063">
        <ele>920.4</ele>
        <time>2021-11-18T12:55:53Z</time>
      </trkpt>
      <trkpt lat="46.53493" lon="6.02068">
        <ele>919.9</ele>
        <time>2021-11-18T12:55:58Z</time>
      </trkpt>
      <trkpt lat="46.53489" lon="6.02071">
        <ele>919.6</ele>
        <time>2021-11-18T12:56:04Z</time>
      </trkpt>
      <trkpt lat="46.53485" lon="6.02075">
        <ele>919.2</ele>
        <time>2021-11-18T12:56:15Z</time>
      </trkpt>
      <trkpt lat="46.5348" lon="6.02077">
        <ele>918.9</ele>
        <time>2021-11-18T12:56:22Z</time>
      </trkpt>
      <trkpt lat="46.53475" lon="6.02076">
        <ele>918.8</ele>
        <time>2021-11-18T12:56:34Z</time>
      </trkpt>
      <trkpt lat="46.53471" lon="6.02073">
        <ele>917.6</ele>
        <time>2021-11-18T12:56:45Z</time>
      </trkpt>
      <trkpt lat="46.53467" lon="6.02069">
        <ele>916</ele>
        <time>2021-11-18T12:56:55Z</time>
      </trkpt>
      <trkpt lat="46.53464" lon="6.02065">
        <ele>914.7</ele>
        <time>2021-11-18T12:57:00Z</time>
      </trkpt>
      <trkpt lat="46.53461" lon="6.02059">
        <ele>913.3</ele>
        <time>2021-11-18T12:57:07Z</time>
      </trkpt>
      <trkpt lat="46.53458" lon="6.02054">
        <ele>910.1</ele>
        <time>2021-11-18T12:57:34Z</time>
      </trkpt>
      <trkpt lat="46.53453" lon="6.02054">
        <ele>909.1</ele>
        <time>2021-11-18T12:57:42Z</time>
      </trkpt>
      <trkpt lat="46.53449" lon="6.02052">
        <ele>907.9</ele>
        <time>2021-11-18T12:57:50Z</time>
      </trkpt>
      <trkpt lat="46.53446" lon="6.02057">
        <ele>905.5</ele>
        <time>2021-11-18T12:59:48Z</time>
      </trkpt>
      <trkpt lat="46.53444" lon="6.02063">
        <ele>905.4</ele>
        <time>2021-11-18T12:59:55Z</time>
      </trkpt>
      <trkpt lat="46.5345" lon="6.02059">
        <ele>906.9</ele>
        <time>2021-11-18T13:00:16Z</time>
      </trkpt>
      <trkpt lat="46.5345" lon="6.02051">
        <ele>904.2</ele>
        <time>2021-11-18T13:03:27Z</time>
      </trkpt>
      <trkpt lat="46.53446" lon="6.02045">
        <ele>904.3</ele>
        <time>2021-11-18T13:03:50Z</time>
      </trkpt>
      <trkpt lat="46.53443" lon="6.02041">
        <ele>902.9</ele>
        <time>2021-11-18T13:03:58Z</time>
      </trkpt>
      <trkpt lat="46.53439" lon="6.02037">
        <ele>901.5</ele>
        <time>2021-11-18T13:04:11Z</time>
      </trkpt>
      <trkpt lat="46.53436" lon="6.02032">
        <ele>900.3</ele>
        <time>2021-11-18T13:04:20Z</time>
      </trkpt>
      <trkpt lat="46.53432" lon="6.02027">
        <ele>898.2</ele>
        <time>2021-11-18T13:04:34Z</time>
      </trkpt>
      <trkpt lat="46.53427" lon="6.02024">
        <ele>896.7</ele>
        <time>2021-11-18T13:04:40Z</time>
      </trkpt>
      <trkpt lat="46.53424" lon="6.02019">
        <ele>895.1</ele>
        <time>2021-11-18T13:04:48Z</time>
      </trkpt>
      <trkpt lat="46.5342" lon="6.02016">
        <ele>893.8</ele>
        <time>2021-11-18T13:04:55Z</time>
      </trkpt>
      <trkpt lat="46.53418" lon="6.0201">
        <ele>892.9</ele>
        <time>2021-11-18T13:05:02Z</time>
      </trkpt>
      <trkpt lat="46.53413" lon="6.02007">
        <ele>892.2</ele>
        <time>2021-11-18T13:05:10Z</time>
      </trkpt>
      <trkpt lat="46.5341" lon="6.02002">
        <ele>891.3</ele>
        <time>2021-11-18T13:05:16Z</time>
      </trkpt>
      <trkpt lat="46.53407" lon="6.01996">
        <ele>889.8</ele>
        <time>2021-11-18T13:05:24Z</time>
      </trkpt>
      <trkpt lat="46.53403" lon="6.01992">
        <ele>888.9</ele>
        <time>2021-11-18T13:05:32Z</time>
      </trkpt>
      <trkpt lat="46.53399" lon="6.01989">
        <ele>888</ele>
        <time>2021-11-18T13:05:41Z</time>
      </trkpt>
      <trkpt lat="46.53397" lon="6.01983">
        <ele>885.6</ele>
        <time>2021-11-18T13:05:56Z</time>
      </trkpt>
      <trkpt lat="46.53397" lon="6.01976">
        <ele>883.3</ele>
        <time>2021-11-18T13:06:00Z</time>
      </trkpt>
      <trkpt lat="46.53393" lon="6.01972">
        <ele>881.5</ele>
        <time>2021-11-18T13:06:06Z</time>
      </trkpt>
      <trkpt lat="46.53389" lon="6.01969">
        <ele>880.7</ele>
        <time>2021-11-18T13:06:11Z</time>
      </trkpt>
      <trkpt lat="46.53385" lon="6.01971">
        <ele>880.5</ele>
        <time>2021-11-18T13:06:24Z</time>
      </trkpt>
      <trkpt lat="46.53389" lon="6.01975">
        <ele>882.7</ele>
        <time>2021-11-18T13:08:56Z</time>
      </trkpt>
      <trkpt lat="46.5339" lon="6.01982">
        <ele>882.1</ele>
        <time>2021-11-18T13:09:05Z</time>
      </trkpt>
      <trkpt lat="46.53391" lon="6.01989">
        <ele>876.9</ele>
        <time>2021-11-18T13:09:53Z</time>
      </trkpt>
      <trkpt lat="46.5339" lon="6.01983">
        <ele>874.9</ele>
        <time>2021-11-18T13:10:15Z</time>
      </trkpt>
      <trkpt lat="46.53388" lon="6.01977">
        <ele>876.4</ele>
        <time>2021-11-18T13:10:21Z</time>
      </trkpt>
      <trkpt lat="46.53386" lon="6.01971">
        <ele>880.4</ele>
        <time>2021-11-18T13:10:51Z</time>
      </trkpt>
      <trkpt lat="46.53387" lon="6.01965">
        <ele>883.1</ele>
        <time>2021-11-18T13:13:59Z</time>
      </trkpt>
      <trkpt lat="46.53385" lon="6.01959">
        <ele>883.9</ele>
        <time>2021-11-18T13:14:05Z</time>
      </trkpt>
      <trkpt lat="46.53388" lon="6.01954">
        <ele>883.7</ele>
        <time>2021-11-18T13:14:35Z</time>
      </trkpt>
      <trkpt lat="46.53389" lon="6.01947">
        <ele>883.8</ele>
        <time>2021-11-18T13:14:42Z</time>
      </trkpt>
      <trkpt lat="46.53392" lon="6.01942">
        <ele>883.6</ele>
        <time>2021-11-18T13:14:55Z</time>
      </trkpt>
      <trkpt lat="46.53392" lon="6.01935">
        <ele>883.2</ele>
        <time>2021-11-18T13:15:01Z</time>
      </trkpt>
      <trkpt lat="46.53389" lon="6.0193">
        <ele>881.1</ele>
        <time>2021-11-18T13:15:12Z</time>
      </trkpt>
      <trkpt lat="46.53388" lon="6.01923">
        <ele>879.8</ele>
        <time>2021-11-18T13:15:19Z</time>
      </trkpt>
      <trkpt lat="46.53382" lon="6.01922">
        <ele>870.2</ele>
        <time>2021-11-18T13:16:24Z</time>
      </trkpt>
      <trkpt lat="46.5338" lon="6.01916">
        <ele>869.6</ele>
        <time>2021-11-18T13:17:15Z</time>
      </trkpt>
      <trkpt lat="46.53381" lon="6.0191">
        <ele>871.7</ele>
        <time>2021-11-18T13:17:20Z</time>
      </trkpt>
      <trkpt lat="46.53384" lon="6.01904">
        <ele>873.6</ele>
        <time>2021-11-18T13:17:30Z</time>
      </trkpt>
      <trkpt lat="46.53385" lon="6.01898">
        <ele>873.3</ele>
        <time>2021-11-18T13:17:40Z</time>
      </trkpt>
      <trkpt lat="46.53389" lon="6.01894">
        <ele>871.2</ele>
        <time>2021-11-18T13:17:50Z</time>
      </trkpt>
      <trkpt lat="46.53391" lon="6.01887">
        <ele>869.5</ele>
        <time>2021-11-18T13:17:57Z</time>
      </trkpt>
      <trkpt lat="46.53392" lon="6.0188">
        <ele>868.8</ele>
        <time>2021-11-18T13:18:03Z</time>
      </trkpt>
      <trkpt lat="46.53395" lon="6.01874">
        <ele>867.9</ele>
        <time>2021-11-18T13:18:10Z</time>
      </trkpt>
      <trkpt lat="46.53397" lon="6.01868">
        <ele>867.1</ele>
        <time>2021-11-18T13:18:16Z</time>
      </trkpt>
      <trkpt lat="46.534" lon="6.01862">
        <ele>866.6</ele>
        <time>2021-11-18T13:18:25Z</time>
      </trkpt>
      <trkpt lat="46.53402" lon="6.01856">
        <ele>866.2</ele>
        <time>2021-11-18T13:18:35Z</time>
      </trkpt>
      <trkpt lat="46.53405" lon="6.0185">
        <ele>865.6</ele>
        <time>2021-11-18T13:18:44Z</time>
      </trkpt>
      <trkpt lat="46.53408" lon="6.01845">
        <ele>865.2</ele>
        <time>2021-11-18T13:18:50Z</time>
      </trkpt>
      <trkpt lat="46.5341" lon="6.01838">
        <ele>864.6</ele>
        <time>2021-11-18T13:18:56Z</time>
      </trkpt>
      <trkpt lat="46.53411" lon="6.0183">
        <ele>863.9</ele>
        <time>2021-11-18T13:19:02Z</time>
      </trkpt>
      <trkpt lat="46.53413" lon="6.01824">
        <ele>862.9</ele>
        <time>2021-11-18T13:19:09Z</time>
      </trkpt>
      <trkpt lat="46.53414" lon="6.01817">
        <ele>861.9</ele>
        <time>2021-11-18T13:19:15Z</time>
      </trkpt>
      <trkpt lat="46.53419" lon="6.01813">
        <ele>860.6</ele>
        <time>2021-11-18T13:19:21Z</time>
      </trkpt>
      <trkpt lat="46.53423" lon="6.01808">
        <ele>859.5</ele>
        <time>2021-11-18T13:19:27Z</time>
      </trkpt>
      <trkpt lat="46.53426" lon="6.01802">
        <ele>858.8</ele>
        <time>2021-11-18T13:19:32Z</time>
      </trkpt>
      <trkpt lat="46.5343" lon="6.01798">
        <ele>858.6</ele>
        <time>2021-11-18T13:19:41Z</time>
      </trkpt>
      <trkpt lat="46.53434" lon="6.01794">
        <ele>858.4</ele>
        <time>2021-11-18T13:19:46Z</time>
      </trkpt>
      <trkpt lat="46.53437" lon="6.01789">
        <ele>858</ele>
        <time>2021-11-18T13:19:52Z</time>
      </trkpt>
      <trkpt lat="46.5344" lon="6.01784">
        <ele>857.8</ele>
        <time>2021-11-18T13:19:58Z</time>
      </trkpt>
      <trkpt lat="46.53443" lon="6.01778">
        <ele>857.7</ele>
        <time>2021-11-18T13:20:04Z</time>
      </trkpt>
      <trkpt lat="46.53448" lon="6.01775">
        <ele>856.9</ele>
        <time>2021-11-18T13:20:10Z</time>
      </trkpt>
      <trkpt lat="46.53453" lon="6.01775">
        <ele>855.9</ele>
        <time>2021-11-18T13:20:32Z</time>
      </trkpt>
      <trkpt lat="46.53458" lon="6.01775">
        <ele>855.6</ele>
        <time>2021-11-18T13:21:09Z</time>
      </trkpt>
      <trkpt lat="46.53463" lon="6.01774">
        <ele>855.4</ele>
        <time>2021-11-18T13:21:16Z</time>
      </trkpt>
      <trkpt lat="46.53468" lon="6.01774">
        <ele>855.4</ele>
        <time>2021-11-18T13:21:22Z</time>
      </trkpt>
      <trkpt lat="46.53473" lon="6.01773">
        <ele>855.6</ele>
        <time>2021-11-18T13:21:28Z</time>
      </trkpt>
      <trkpt lat="46.53478" lon="6.01771">
        <ele>855.5</ele>
        <time>2021-11-18T13:21:34Z</time>
      </trkpt>
      <trkpt lat="46.53482" lon="6.0177">
        <ele>855.6</ele>
        <time>2021-11-18T13:21:39Z</time>
      </trkpt>
      <trkpt lat="46.53487" lon="6.0177">
        <ele>855.4</ele>
        <time>2021-11-18T13:21:46Z</time>
      </trkpt>
      <trkpt lat="46.53492" lon="6.01774">
        <ele>855.4</ele>
        <time>2021-11-18T13:21:51Z</time>
      </trkpt>
      <trkpt lat="46.53497" lon="6.01777">
        <ele>855.7</ele>
        <time>2021-11-18T13:21:55Z</time>
      </trkpt>
      <trkpt lat="46.53503" lon="6.01778">
        <ele>855.8</ele>
        <time>2021-11-18T13:21:59Z</time>
      </trkpt>
      <trkpt lat="46.53507" lon="6.01779">
        <ele>855.9</ele>
        <time>2021-11-18T13:22:02Z</time>
      </trkpt>
      <trkpt lat="46.53512" lon="6.01779">
        <ele>856</ele>
        <time>2021-11-18T13:22:06Z</time>
      </trkpt>
      <trkpt lat="46.53517" lon="6.01782">
        <ele>855.4</ele>
        <time>2021-11-18T13:22:15Z</time>
      </trkpt>
      <trkpt lat="46.53522" lon="6.01785">
        <ele>855</ele>
        <time>2021-11-18T13:22:21Z</time>
      </trkpt>
      <trkpt lat="46.53526" lon="6.01788">
        <ele>855</ele>
        <time>2021-11-18T13:22:25Z</time>
      </trkpt>
      <trkpt lat="46.5353" lon="6.01792">
        <ele>855.1</ele>
        <time>2021-11-18T13:22:29Z</time>
      </trkpt>
      <trkpt lat="46.53534" lon="6.01794">
        <ele>855.1</ele>
        <time>2021-11-18T13:22:34Z</time>
      </trkpt>
      <trkpt lat="46.53539" lon="6.01796">
        <ele>855</ele>
        <time>2021-11-18T13:22:38Z</time>
      </trkpt>
      <trkpt lat="46.53544" lon="6.01796">
        <ele>855.2</ele>
        <time>2021-11-18T13:22:42Z</time>
      </trkpt>
      <trkpt lat="46.53549" lon="6.01798">
        <ele>855.6</ele>
        <time>2021-11-18T13:22:46Z</time>
      </trkpt>
      <trkpt lat="46.53554" lon="6.01801">
        <ele>856.1</ele>
        <time>2021-11-18T13:22:51Z</time>
      </trkpt>
      <trkpt lat="46.53558" lon="6.01804">
        <ele>856</ele>
        <time>2021-11-18T13:22:57Z</time>
      </trkpt>
      <trkpt lat="46.53563" lon="6.01804">
        <ele>855.6</ele>
        <time>2021-11-18T13:23:02Z</time>
      </trkpt>
      <trkpt lat="46.53568" lon="6.01804">
        <ele>855.4</ele>
        <time>2021-11-18T13:23:07Z</time>
      </trkpt>
      <trkpt lat="46.53573" lon="6.01805">
        <ele>855.4</ele>
        <time>2021-11-18T13:23:14Z</time>
      </trkpt>
      <trkpt lat="46.53577" lon="6.01806">
        <ele>856</ele>
        <time>2021-11-18T13:23:18Z</time>
      </trkpt>
      <trkpt lat="46.53582" lon="6.01808">
        <ele>856.9</ele>
        <time>2021-11-18T13:23:23Z</time>
      </trkpt>
      <trkpt lat="46.53587" lon="6.01807">
        <ele>858.4</ele>
        <time>2021-11-18T13:23:29Z</time>
      </trkpt>
      <trkpt lat="46.53592" lon="6.01806">
        <ele>860.1</ele>
        <time>2021-11-18T13:23:34Z</time>
      </trkpt>
      <trkpt lat="46.53597" lon="6.01807">
        <ele>861.1</ele>
        <time>2021-11-18T13:23:39Z</time>
      </trkpt>
      <trkpt lat="46.53602" lon="6.01809">
        <ele>861.5</ele>
        <time>2021-11-18T13:23:44Z</time>
      </trkpt>
      <trkpt lat="46.53606" lon="6.01811">
        <ele>861.6</ele>
        <time>2021-11-18T13:23:48Z</time>
      </trkpt>
      <trkpt lat="46.53611" lon="6.01814">
        <ele>861.7</ele>
        <time>2021-11-18T13:23:53Z</time>
      </trkpt>
      <trkpt lat="46.53616" lon="6.01815">
        <ele>861.6</ele>
        <time>2021-11-18T13:23:57Z</time>
      </trkpt>
      <trkpt lat="46.53621" lon="6.01815">
        <ele>861.6</ele>
        <time>2021-11-18T13:24:01Z</time>
      </trkpt>
      <trkpt lat="46.53626" lon="6.01814">
        <ele>861.6</ele>
        <time>2021-11-18T13:24:05Z</time>
      </trkpt>
      <trkpt lat="46.53632" lon="6.01814">
        <ele>861.3</ele>
        <time>2021-11-18T13:24:10Z</time>
      </trkpt>
      <trkpt lat="46.53637" lon="6.01817">
        <ele>860.6</ele>
        <time>2021-11-18T13:24:15Z</time>
      </trkpt>
      <trkpt lat="46.53642" lon="6.01818">
        <ele>859.5</ele>
        <time>2021-11-18T13:24:22Z</time>
      </trkpt>
      <trkpt lat="46.53646" lon="6.0182">
        <ele>858.7</ele>
        <time>2021-11-18T13:24:28Z</time>
      </trkpt>
      <trkpt lat="46.5365" lon="6.01823">
        <ele>858.2</ele>
        <time>2021-11-18T13:24:33Z</time>
      </trkpt>
      <trkpt lat="46.53654" lon="6.01827">
        <ele>857.9</ele>
        <time>2021-11-18T13:24:37Z</time>
      </trkpt>
      <trkpt lat="46.53659" lon="6.01831">
        <ele>857.7</ele>
        <time>2021-11-18T13:24:42Z</time>
      </trkpt>
      <trkpt lat="46.53663" lon="6.01835">
        <ele>857.6</ele>
        <time>2021-11-18T13:24:48Z</time>
      </trkpt>
      <trkpt lat="46.53666" lon="6.01841">
        <ele>858.2</ele>
        <time>2021-11-18T13:24:55Z</time>
      </trkpt>
      <trkpt lat="46.5367" lon="6.01846">
        <ele>858.6</ele>
        <time>2021-11-18T13:25:00Z</time>
      </trkpt>
      <trkpt lat="46.53674" lon="6.01851">
        <ele>859.3</ele>
        <time>2021-11-18T13:25:05Z</time>
      </trkpt>
      <trkpt lat="46.53676" lon="6.01857">
        <ele>860.2</ele>
        <time>2021-11-18T13:25:10Z</time>
      </trkpt>
      <trkpt lat="46.53676" lon="6.01864">
        <ele>860.9</ele>
        <time>2021-11-18T13:25:15Z</time>
      </trkpt>
      <trkpt lat="46.5368" lon="6.01869">
        <ele>862.1</ele>
        <time>2021-11-18T13:25:22Z</time>
      </trkpt>
      <trkpt lat="46.53683" lon="6.01873">
        <ele>863.3</ele>
        <time>2021-11-18T13:25:30Z</time>
      </trkpt>
      <trkpt lat="46.53687" lon="6.01878">
        <ele>863.8</ele>
        <time>2021-11-18T13:25:39Z</time>
      </trkpt>
      <trkpt lat="46.53691" lon="6.01881">
        <ele>864.9</ele>
        <time>2021-11-18T13:25:45Z</time>
      </trkpt>
      <trkpt lat="46.53695" lon="6.01885">
        <ele>867</ele>
        <time>2021-11-18T13:25:54Z</time>
      </trkpt>
      <trkpt lat="46.53699" lon="6.01888">
        <ele>868</ele>
        <time>2021-11-18T13:25:59Z</time>
      </trkpt>
      <trkpt lat="46.53704" lon="6.01892">
        <ele>869.4</ele>
        <time>2021-11-18T13:26:07Z</time>
      </trkpt>
      <trkpt lat="46.53709" lon="6.01895">
        <ele>870.2</ele>
        <time>2021-11-18T13:26:12Z</time>
      </trkpt>
      <trkpt lat="46.53713" lon="6.01898">
        <ele>870.7</ele>
        <time>2021-11-18T13:26:16Z</time>
      </trkpt>
      <trkpt lat="46.53716" lon="6.01903">
        <ele>871.4</ele>
        <time>2021-11-18T13:26:22Z</time>
      </trkpt>
      <trkpt lat="46.5372" lon="6.01908">
        <ele>872.3</ele>
        <time>2021-11-18T13:26:28Z</time>
      </trkpt>
      <trkpt lat="46.53724" lon="6.01912">
        <ele>873.3</ele>
        <time>2021-11-18T13:26:35Z</time>
      </trkpt>
      <trkpt lat="46.53729" lon="6.01916">
        <ele>873.5</ele>
        <time>2021-11-18T13:26:39Z</time>
      </trkpt>
      <trkpt lat="46.53733" lon="6.01921">
        <ele>873.5</ele>
        <time>2021-11-18T13:26:43Z</time>
      </trkpt>
      <trkpt lat="46.53738" lon="6.01924">
        <ele>873.6</ele>
        <time>2021-11-18T13:26:47Z</time>
      </trkpt>
      <trkpt lat="46.53742" lon="6.01927">
        <ele>873.7</ele>
        <time>2021-11-18T13:26:51Z</time>
      </trkpt>
      <trkpt lat="46.53746" lon="6.01931">
        <ele>873.6</ele>
        <time>2021-11-18T13:26:56Z</time>
      </trkpt>
      <trkpt lat="46.5375" lon="6.01934">
        <ele>874.8</ele>
        <time>2021-11-18T13:27:03Z</time>
      </trkpt>
      <trkpt lat="46.53755" lon="6.01937">
        <ele>876.2</ele>
        <time>2021-11-18T13:27:15Z</time>
      </trkpt>
      <trkpt lat="46.53759" lon="6.01941">
        <ele>876.3</ele>
        <time>2021-11-18T13:27:20Z</time>
      </trkpt>
      <trkpt lat="46.53763" lon="6.01945">
        <ele>876.5</ele>
        <time>2021-11-18T13:27:26Z</time>
      </trkpt>
      <trkpt lat="46.53766" lon="6.01951">
        <ele>877</ele>
        <time>2021-11-18T13:27:32Z</time>
      </trkpt>
      <trkpt lat="46.53769" lon="6.01956">
        <ele>877.3</ele>
        <time>2021-11-18T13:27:37Z</time>
      </trkpt>
      <trkpt lat="46.53773" lon="6.0196">
        <ele>877.5</ele>
        <time>2021-11-18T13:27:42Z</time>
      </trkpt>
      <trkpt lat="46.53776" lon="6.01964">
        <ele>877.4</ele>
        <time>2021-11-18T13:27:46Z</time>
      </trkpt>
      <trkpt lat="46.53779" lon="6.0197">
        <ele>877</ele>
        <time>2021-11-18T13:27:50Z</time>
      </trkpt>
      <trkpt lat="46.53779" lon="6.01977">
        <ele>876</ele>
        <time>2021-11-18T13:27:54Z</time>
      </trkpt>
      <trkpt lat="46.53784" lon="6.0198">
        <ele>875.6</ele>
        <time>2021-11-18T13:28:02Z</time>
      </trkpt>
      <trkpt lat="46.53789" lon="6.01981">
        <ele>875.5</ele>
        <time>2021-11-18T13:28:07Z</time>
      </trkpt>
      <trkpt lat="46.53794" lon="6.01983">
        <ele>875.9</ele>
        <time>2021-11-18T13:28:11Z</time>
      </trkpt>
      <trkpt lat="46.53798" lon="6.01984">
        <ele>876.7</ele>
        <time>2021-11-18T13:28:15Z</time>
      </trkpt>
      <trkpt lat="46.53803" lon="6.01985">
        <ele>878.1</ele>
        <time>2021-11-18T13:28:20Z</time>
      </trkpt>
      <trkpt lat="46.53808" lon="6.01987">
        <ele>879.9</ele>
        <time>2021-11-18T13:28:28Z</time>
      </trkpt>
      <trkpt lat="46.53813" lon="6.0199">
        <ele>880.4</ele>
        <time>2021-11-18T13:28:35Z</time>
      </trkpt>
      <trkpt lat="46.53817" lon="6.01992">
        <ele>880.2</ele>
        <time>2021-11-18T13:28:41Z</time>
      </trkpt>
      <trkpt lat="46.53821" lon="6.01995">
        <ele>879.4</ele>
        <time>2021-11-18T13:28:46Z</time>
      </trkpt>
      <trkpt lat="46.53826" lon="6.01998">
        <ele>878.7</ele>
        <time>2021-11-18T13:28:54Z</time>
      </trkpt>
      <trkpt lat="46.5383" lon="6.02002">
        <ele>879.1</ele>
        <time>2021-11-18T13:28:58Z</time>
      </trkpt>
      <trkpt lat="46.53834" lon="6.02007">
        <ele>879.6</ele>
        <time>2021-11-18T13:29:03Z</time>
      </trkpt>
      <trkpt lat="46.53838" lon="6.0201">
        <ele>879.8</ele>
        <time>2021-11-18T13:29:06Z</time>
      </trkpt>
      <trkpt lat="46.53842" lon="6.02014">
        <ele>880.2</ele>
        <time>2021-11-18T13:29:09Z</time>
      </trkpt>
      <trkpt lat="46.53846" lon="6.02018">
        <ele>880.6</ele>
        <time>2021-11-18T13:29:13Z</time>
      </trkpt>
      <trkpt lat="46.53849" lon="6.02025">
        <ele>881.2</ele>
        <time>2021-11-18T13:29:18Z</time>
      </trkpt>
      <trkpt lat="46.53852" lon="6.0203">
        <ele>881.5</ele>
        <time>2021-11-18T13:29:23Z</time>
      </trkpt>
      <trkpt lat="46.53854" lon="6.02037">
        <ele>881.2</ele>
        <time>2021-11-18T13:29:28Z</time>
      </trkpt>
      <trkpt lat="46.53857" lon="6.02043">
        <ele>881.6</ele>
        <time>2021-11-18T13:29:32Z</time>
      </trkpt>
      <trkpt lat="46.5386" lon="6.0205">
        <ele>882.6</ele>
        <time>2021-11-18T13:29:37Z</time>
      </trkpt>
      <trkpt lat="46.53864" lon="6.02054">
        <ele>883.2</ele>
        <time>2021-11-18T13:29:42Z</time>
      </trkpt>
      <trkpt lat="46.53869" lon="6.02054">
        <ele>883.5</ele>
        <time>2021-11-18T13:29:47Z</time>
      </trkpt>
      <trkpt lat="46.53874" lon="6.02052">
        <ele>884.4</ele>
        <time>2021-11-18T13:29:55Z</time>
      </trkpt>
      <trkpt lat="46.53878" lon="6.02054">
        <ele>886.9</ele>
        <time>2021-11-18T13:30:04Z</time>
      </trkpt>
      <trkpt lat="46.53882" lon="6.02058">
        <ele>887.9</ele>
        <time>2021-11-18T13:30:10Z</time>
      </trkpt>
      <trkpt lat="46.53887" lon="6.0206">
        <ele>888.2</ele>
        <time>2021-11-18T13:30:18Z</time>
      </trkpt>
      <trkpt lat="46.53892" lon="6.02061">
        <ele>888.4</ele>
        <time>2021-11-18T13:30:23Z</time>
      </trkpt>
      <trkpt lat="46.53897" lon="6.02065">
        <ele>888.5</ele>
        <time>2021-11-18T13:30:29Z</time>
      </trkpt>
      <trkpt lat="46.53902" lon="6.02067">
        <ele>888.4</ele>
        <time>2021-11-18T13:30:34Z</time>
      </trkpt>
      <trkpt lat="46.53907" lon="6.0207">
        <ele>888.3</ele>
        <time>2021-11-18T13:30:38Z</time>
      </trkpt>
      <trkpt lat="46.53912" lon="6.02072">
        <ele>888.3</ele>
        <time>2021-11-18T13:30:43Z</time>
      </trkpt>
      <trkpt lat="46.53916" lon="6.02074">
        <ele>888.8</ele>
        <time>2021-11-18T13:30:48Z</time>
      </trkpt>
      <trkpt lat="46.53921" lon="6.0208">
        <ele>889.3</ele>
        <time>2021-11-18T13:30:53Z</time>
      </trkpt>
      <trkpt lat="46.53926" lon="6.02082">
        <ele>889.2</ele>
        <time>2021-11-18T13:30:57Z</time>
      </trkpt>
      <trkpt lat="46.53931" lon="6.02083">
        <ele>889.5</ele>
        <time>2021-11-18T13:31:01Z</time>
      </trkpt>
      <trkpt lat="46.53936" lon="6.02085">
        <ele>889.8</ele>
        <time>2021-11-18T13:31:06Z</time>
      </trkpt>
      <trkpt lat="46.53941" lon="6.02087">
        <ele>890.4</ele>
        <time>2021-11-18T13:31:10Z</time>
      </trkpt>
      <trkpt lat="46.53945" lon="6.0209">
        <ele>890.4</ele>
        <time>2021-11-18T13:31:14Z</time>
      </trkpt>
      <trkpt lat="46.53949" lon="6.02094">
        <ele>890.2</ele>
        <time>2021-11-18T13:31:18Z</time>
      </trkpt>
      <trkpt lat="46.53954" lon="6.02097">
        <ele>889.8</ele>
        <time>2021-11-18T13:31:22Z</time>
      </trkpt>
      <trkpt lat="46.53959" lon="6.02099">
        <ele>889</ele>
        <time>2021-11-18T13:31:27Z</time>
      </trkpt>
      <trkpt lat="46.53963" lon="6.02099">
        <ele>886.7</ele>
        <time>2021-11-18T13:31:35Z</time>
      </trkpt>
      <trkpt lat="46.53968" lon="6.02098">
        <ele>886.2</ele>
        <time>2021-11-18T13:31:40Z</time>
      </trkpt>
      <trkpt lat="46.53972" lon="6.02094">
        <ele>885.9</ele>
        <time>2021-11-18T13:31:47Z</time>
      </trkpt>
      <trkpt lat="46.53974" lon="6.02088">
        <ele>886.1</ele>
        <time>2021-11-18T13:31:56Z</time>
      </trkpt>
      <trkpt lat="46.53972" lon="6.02082">
        <ele>886</ele>
        <time>2021-11-18T13:32:14Z</time>
      </trkpt>
      <trkpt lat="46.53974" lon="6.02076">
        <ele>884.8</ele>
        <time>2021-11-18T13:32:20Z</time>
      </trkpt>
      <trkpt lat="46.53978" lon="6.02071">
        <ele>884.6</ele>
        <time>2021-11-18T13:32:27Z</time>
      </trkpt>
      <trkpt lat="46.5398" lon="6.02065">
        <ele>884.4</ele>
        <time>2021-11-18T13:32:34Z</time>
      </trkpt>
      <trkpt lat="46.53983" lon="6.02059">
        <ele>883</ele>
        <time>2021-11-18T13:32:40Z</time>
      </trkpt>
      <trkpt lat="46.53986" lon="6.02053">
        <ele>882.5</ele>
        <time>2021-11-18T13:32:45Z</time>
      </trkpt>
      <trkpt lat="46.53987" lon="6.02046">
        <ele>882</ele>
        <time>2021-11-18T13:32:50Z</time>
      </trkpt>
      <trkpt lat="46.53989" lon="6.02039">
        <ele>881.2</ele>
        <time>2021-11-18T13:32:55Z</time>
      </trkpt>
      <trkpt lat="46.5399" lon="6.02033">
        <ele>880</ele>
        <time>2021-11-18T13:33:00Z</time>
      </trkpt>
      <trkpt lat="46.53991" lon="6.02027">
        <ele>877.9</ele>
        <time>2021-11-18T13:33:06Z</time>
      </trkpt>
      <trkpt lat="46.53991" lon="6.0202">
        <ele>876.2</ele>
        <time>2021-11-18T13:33:13Z</time>
      </trkpt>
      <trkpt lat="46.53991" lon="6.02013">
        <ele>875.2</ele>
        <time>2021-11-18T13:33:21Z</time>
      </trkpt>
      <trkpt lat="46.5399" lon="6.02006">
        <ele>874.5</ele>
        <time>2021-11-18T13:33:27Z</time>
      </trkpt>
      <trkpt lat="46.53987" lon="6.02">
        <ele>873.4</ele>
        <time>2021-11-18T13:33:38Z</time>
      </trkpt>
      <trkpt lat="46.53985" lon="6.01995">
        <ele>871.3</ele>
        <time>2021-11-18T13:33:47Z</time>
      </trkpt>
      <trkpt lat="46.53983" lon="6.01988">
        <ele>869.1</ele>
        <time>2021-11-18T13:33:56Z</time>
      </trkpt>
      <trkpt lat="46.53983" lon="6.01982">
        <ele>868.1</ele>
        <time>2021-11-18T13:34:02Z</time>
      </trkpt>
      <trkpt lat="46.53984" lon="6.01974">
        <ele>867.5</ele>
        <time>2021-11-18T13:34:08Z</time>
      </trkpt>
      <trkpt lat="46.53986" lon="6.01969">
        <ele>867.8</ele>
        <time>2021-11-18T13:34:13Z</time>
      </trkpt>
      <trkpt lat="46.53991" lon="6.01968">
        <ele>868.2</ele>
        <time>2021-11-18T13:34:19Z</time>
      </trkpt>
      <trkpt lat="46.53996" lon="6.01972">
        <ele>868.1</ele>
        <time>2021-11-18T13:34:26Z</time>
      </trkpt>
      <trkpt lat="46.53999" lon="6.01977">
        <ele>868.2</ele>
        <time>2021-11-18T13:34:33Z</time>
      </trkpt>
      <trkpt lat="46.54002" lon="6.01982">
        <ele>868.4</ele>
        <time>2021-11-18T13:34:38Z</time>
      </trkpt>
      <trkpt lat="46.54006" lon="6.01988">
        <ele>868</ele>
        <time>2021-11-18T13:34:43Z</time>
      </trkpt>
      <trkpt lat="46.54009" lon="6.01994">
        <ele>867.6</ele>
        <time>2021-11-18T13:34:49Z</time>
      </trkpt>
      <trkpt lat="46.54012" lon="6.01999">
        <ele>867.8</ele>
        <time>2021-11-18T13:34:56Z</time>
      </trkpt>
      <trkpt lat="46.54015" lon="6.02004">
        <ele>867.9</ele>
        <time>2021-11-18T13:35:02Z</time>
      </trkpt>
      <trkpt lat="46.5402" lon="6.02008">
        <ele>867.9</ele>
        <time>2021-11-18T13:35:08Z</time>
      </trkpt>
      <trkpt lat="46.54024" lon="6.02013">
        <ele>867.7</ele>
        <time>2021-11-18T13:35:13Z</time>
      </trkpt>
      <trkpt lat="46.54026" lon="6.02019">
        <ele>867.3</ele>
        <time>2021-11-18T13:35:19Z</time>
      </trkpt>
      <trkpt lat="46.54029" lon="6.02025">
        <ele>867.2</ele>
        <time>2021-11-18T13:35:24Z</time>
      </trkpt>
      <trkpt lat="46.54031" lon="6.02032">
        <ele>867.2</ele>
        <time>2021-11-18T13:35:30Z</time>
      </trkpt>
      <trkpt lat="46.54032" lon="6.02038">
        <ele>867.7</ele>
        <time>2021-11-18T13:35:35Z</time>
      </trkpt>
      <trkpt lat="46.54034" lon="6.02044">
        <ele>868.1</ele>
        <time>2021-11-18T13:35:41Z</time>
      </trkpt>
      <trkpt lat="46.54038" lon="6.02048">
        <ele>868.3</ele>
        <time>2021-11-18T13:35:46Z</time>
      </trkpt>
      <trkpt lat="46.54042" lon="6.02053">
        <ele>867.6</ele>
        <time>2021-11-18T13:35:52Z</time>
      </trkpt>
      <trkpt lat="46.54044" lon="6.02059">
        <ele>867.6</ele>
        <time>2021-11-18T13:36:00Z</time>
      </trkpt>
      <trkpt lat="46.54045" lon="6.02065">
        <ele>867.7</ele>
        <time>2021-11-18T13:36:06Z</time>
      </trkpt>
      <trkpt lat="46.54043" lon="6.02071">
        <ele>867.4</ele>
        <time>2021-11-18T13:36:11Z</time>
      </trkpt>
      <trkpt lat="46.54038" lon="6.02075">
        <ele>866.3</ele>
        <time>2021-11-18T13:36:18Z</time>
      </trkpt>
      <trkpt lat="46.54035" lon="6.02079">
        <ele>865.7</ele>
        <time>2021-11-18T13:36:23Z</time>
      </trkpt>
      <trkpt lat="46.54031" lon="6.02086">
        <ele>865.5</ele>
        <time>2021-11-18T13:36:29Z</time>
      </trkpt>
      <trkpt lat="46.54028" lon="6.02093">
        <ele>865.7</ele>
        <time>2021-11-18T13:36:32Z</time>
      </trkpt>
      <trkpt lat="46.54025" lon="6.021">
        <ele>866.1</ele>
        <time>2021-11-18T13:36:35Z</time>
      </trkpt>
      <trkpt lat="46.54025" lon="6.02107">
        <ele>866.8</ele>
        <time>2021-11-18T13:36:40Z</time>
      </trkpt>
      <trkpt lat="46.54028" lon="6.02112">
        <ele>867.1</ele>
        <time>2021-11-18T13:36:45Z</time>
      </trkpt>
      <trkpt lat="46.54031" lon="6.02117">
        <ele>867</ele>
        <time>2021-11-18T13:36:49Z</time>
      </trkpt>
      <trkpt lat="46.54037" lon="6.0212">
        <ele>866.7</ele>
        <time>2021-11-18T13:36:53Z</time>
      </trkpt>
      <trkpt lat="46.54042" lon="6.02123">
        <ele>866.2</ele>
        <time>2021-11-18T13:36:59Z</time>
      </trkpt>
      <trkpt lat="46.54048" lon="6.02125">
        <ele>866</ele>
        <time>2021-11-18T13:37:05Z</time>
      </trkpt>
      <trkpt lat="46.54053" lon="6.02124">
        <ele>866.6</ele>
        <time>2021-11-18T13:37:08Z</time>
      </trkpt>
      <trkpt lat="46.54058" lon="6.02123">
        <ele>867.3</ele>
        <time>2021-11-18T13:37:11Z</time>
      </trkpt>
      <trkpt lat="46.54063" lon="6.02123">
        <ele>867.7</ele>
        <time>2021-11-18T13:37:14Z</time>
      </trkpt>
      <trkpt lat="46.54069" lon="6.02123">
        <ele>868.5</ele>
        <time>2021-11-18T13:37:18Z</time>
      </trkpt>
      <trkpt lat="46.54074" lon="6.0212">
        <ele>870</ele>
        <time>2021-11-18T13:37:23Z</time>
      </trkpt>
      <trkpt lat="46.54078" lon="6.02117">
        <ele>871.5</ele>
        <time>2021-11-18T13:37:28Z</time>
      </trkpt>
      <trkpt lat="46.54083" lon="6.02115">
        <ele>872.2</ele>
        <time>2021-11-18T13:37:32Z</time>
      </trkpt>
      <trkpt lat="46.54088" lon="6.02113">
        <ele>872.3</ele>
        <time>2021-11-18T13:37:37Z</time>
      </trkpt>
      <trkpt lat="46.54094" lon="6.02111">
        <ele>872.6</ele>
        <time>2021-11-18T13:37:42Z</time>
      </trkpt>
      <trkpt lat="46.54098" lon="6.02107">
        <ele>873.1</ele>
        <time>2021-11-18T13:37:47Z</time>
      </trkpt>
      <trkpt lat="46.54102" lon="6.02104">
        <ele>873.8</ele>
        <time>2021-11-18T13:37:52Z</time>
      </trkpt>
      <trkpt lat="46.54106" lon="6.021">
        <ele>874.7</ele>
        <time>2021-11-18T13:37:57Z</time>
      </trkpt>
      <trkpt lat="46.5411" lon="6.02095">
        <ele>875.6</ele>
        <time>2021-11-18T13:38:02Z</time>
      </trkpt>
      <trkpt lat="46.54114" lon="6.0209">
        <ele>876.1</ele>
        <time>2021-11-18T13:38:06Z</time>
      </trkpt>
      <trkpt lat="46.54118" lon="6.02086">
        <ele>876.1</ele>
        <time>2021-11-18T13:38:10Z</time>
      </trkpt>
      <trkpt lat="46.54121" lon="6.02081">
        <ele>875.8</ele>
        <time>2021-11-18T13:38:15Z</time>
      </trkpt>
      <trkpt lat="46.54123" lon="6.02073">
        <ele>875.3</ele>
        <time>2021-11-18T13:38:20Z</time>
      </trkpt>
      <trkpt lat="46.54124" lon="6.02067">
        <ele>875.4</ele>
        <time>2021-11-18T13:38:24Z</time>
      </trkpt>
      <trkpt lat="46.54125" lon="6.0206">
        <ele>875.3</ele>
        <time>2021-11-18T13:38:29Z</time>
      </trkpt>
      <trkpt lat="46.54128" lon="6.02054">
        <ele>875</ele>
        <time>2021-11-18T13:38:34Z</time>
      </trkpt>
      <trkpt lat="46.54132" lon="6.0205">
        <ele>874.8</ele>
        <time>2021-11-18T13:38:38Z</time>
      </trkpt>
      <trkpt lat="46.54137" lon="6.02047">
        <ele>873.7</ele>
        <time>2021-11-18T13:38:44Z</time>
      </trkpt>
      <trkpt lat="46.54142" lon="6.02045">
        <ele>872.2</ele>
        <time>2021-11-18T13:38:49Z</time>
      </trkpt>
      <trkpt lat="46.54146" lon="6.02042">
        <ele>871</ele>
        <time>2021-11-18T13:38:53Z</time>
      </trkpt>
      <trkpt lat="46.54149" lon="6.02037">
        <ele>870.1</ele>
        <time>2021-11-18T13:38:57Z</time>
      </trkpt>
      <trkpt lat="46.54152" lon="6.02031">
        <ele>869.6</ele>
        <time>2021-11-18T13:39:01Z</time>
      </trkpt>
      <trkpt lat="46.54153" lon="6.02023">
        <ele>869.6</ele>
        <time>2021-11-18T13:39:06Z</time>
      </trkpt>
      <trkpt lat="46.54154" lon="6.02017">
        <ele>870</ele>
        <time>2021-11-18T13:39:12Z</time>
      </trkpt>
      <trkpt lat="46.54158" lon="6.02018">
        <ele>868.8</ele>
        <time>2021-11-18T13:39:30Z</time>
      </trkpt>
      <trkpt lat="46.54163" lon="6.02024">
        <ele>868.8</ele>
        <time>2021-11-18T13:39:34Z</time>
      </trkpt>
      <trkpt lat="46.54168" lon="6.02026">
        <ele>868.7</ele>
        <time>2021-11-18T13:39:38Z</time>
      </trkpt>
      <trkpt lat="46.54173" lon="6.02025">
        <ele>868.2</ele>
        <time>2021-11-18T13:39:42Z</time>
      </trkpt>
      <trkpt lat="46.54177" lon="6.02021">
        <ele>867.6</ele>
        <time>2021-11-18T13:39:45Z</time>
      </trkpt>
      <trkpt lat="46.54181" lon="6.02016">
        <ele>866.6</ele>
        <time>2021-11-18T13:39:49Z</time>
      </trkpt>
      <trkpt lat="46.54186" lon="6.02012">
        <ele>865.3</ele>
        <time>2021-11-18T13:39:54Z</time>
      </trkpt>
      <trkpt lat="46.5419" lon="6.02009">
        <ele>864.3</ele>
        <time>2021-11-18T13:39:59Z</time>
      </trkpt>
      <trkpt lat="46.54195" lon="6.02008">
        <ele>863.7</ele>
        <time>2021-11-18T13:40:04Z</time>
      </trkpt>
      <trkpt lat="46.542" lon="6.02006">
        <ele>863.3</ele>
        <time>2021-11-18T13:40:08Z</time>
      </trkpt>
      <trkpt lat="46.54204" lon="6.02005">
        <ele>863.3</ele>
        <time>2021-11-18T13:40:12Z</time>
      </trkpt>
      <trkpt lat="46.54209" lon="6.02002">
        <ele>863.6</ele>
        <time>2021-11-18T13:40:15Z</time>
      </trkpt>
      <trkpt lat="46.54213" lon="6.01998">
        <ele>864.1</ele>
        <time>2021-11-18T13:40:19Z</time>
      </trkpt>
      <trkpt lat="46.54217" lon="6.01994">
        <ele>864.2</ele>
        <time>2021-11-18T13:40:24Z</time>
      </trkpt>
      <trkpt lat="46.54222" lon="6.01991">
        <ele>863.9</ele>
        <time>2021-11-18T13:40:29Z</time>
      </trkpt>
      <trkpt lat="46.54226" lon="6.01987">
        <ele>863.6</ele>
        <time>2021-11-18T13:40:34Z</time>
      </trkpt>
      <trkpt lat="46.54229" lon="6.01982">
        <ele>863.5</ele>
        <time>2021-11-18T13:40:39Z</time>
      </trkpt>
      <trkpt lat="46.54232" lon="6.01977">
        <ele>864</ele>
        <time>2021-11-18T13:40:45Z</time>
      </trkpt>
      <trkpt lat="46.54233" lon="6.0197">
        <ele>864.5</ele>
        <time>2021-11-18T13:40:51Z</time>
      </trkpt>
      <trkpt lat="46.54232" lon="6.01963">
        <ele>864.6</ele>
        <time>2021-11-18T13:40:56Z</time>
      </trkpt>
      <trkpt lat="46.54231" lon="6.01956">
        <ele>864.8</ele>
        <time>2021-11-18T13:41:01Z</time>
      </trkpt>
      <trkpt lat="46.54229" lon="6.01949">
        <ele>864.9</ele>
        <time>2021-11-18T13:41:06Z</time>
      </trkpt>
      <trkpt lat="46.54227" lon="6.01942">
        <ele>864.9</ele>
        <time>2021-11-18T13:41:11Z</time>
      </trkpt>
      <trkpt lat="46.54225" lon="6.01936">
        <ele>864.1</ele>
        <time>2021-11-18T13:41:16Z</time>
      </trkpt>
      <trkpt lat="46.54224" lon="6.01929">
        <ele>863.5</ele>
        <time>2021-11-18T13:41:21Z</time>
      </trkpt>
      <trkpt lat="46.54225" lon="6.01922">
        <ele>863</ele>
        <time>2021-11-18T13:41:26Z</time>
      </trkpt>
      <trkpt lat="46.54226" lon="6.01915">
        <ele>862.7</ele>
        <time>2021-11-18T13:41:30Z</time>
      </trkpt>
      <trkpt lat="46.54226" lon="6.01908">
        <ele>862.5</ele>
        <time>2021-11-18T13:41:34Z</time>
      </trkpt>
      <trkpt lat="46.54228" lon="6.01902">
        <ele>862.2</ele>
        <time>2021-11-18T13:41:38Z</time>
      </trkpt>
      <trkpt lat="46.54233" lon="6.01902">
        <ele>862.4</ele>
        <time>2021-11-18T13:41:47Z</time>
      </trkpt>
      <trkpt lat="46.54238" lon="6.01904">
        <ele>862.4</ele>
        <time>2021-11-18T13:41:53Z</time>
      </trkpt>
      <trkpt lat="46.54242" lon="6.01906">
        <ele>863</ele>
        <time>2021-11-18T13:42:01Z</time>
      </trkpt>
      <trkpt lat="46.54247" lon="6.01908">
        <ele>863.8</ele>
        <time>2021-11-18T13:42:06Z</time>
      </trkpt>
      <trkpt lat="46.54251" lon="6.01907">
        <ele>864.6</ele>
        <time>2021-11-18T13:42:10Z</time>
      </trkpt>
      <trkpt lat="46.54256" lon="6.01903">
        <ele>865.3</ele>
        <time>2021-11-18T13:42:14Z</time>
      </trkpt>
      <trkpt lat="46.54261" lon="6.019">
        <ele>865.8</ele>
        <time>2021-11-18T13:42:19Z</time>
      </trkpt>
      <trkpt lat="46.54266" lon="6.01897">
        <ele>866.9</ele>
        <time>2021-11-18T13:42:24Z</time>
      </trkpt>
      <trkpt lat="46.54271" lon="6.01895">
        <ele>867.9</ele>
        <time>2021-11-18T13:42:29Z</time>
      </trkpt>
      <trkpt lat="46.54277" lon="6.01895">
        <ele>869.1</ele>
        <time>2021-11-18T13:42:33Z</time>
      </trkpt>
      <trkpt lat="46.54282" lon="6.01895">
        <ele>870.1</ele>
        <time>2021-11-18T13:42:36Z</time>
      </trkpt>
      <trkpt lat="46.54287" lon="6.01895">
        <ele>871.5</ele>
        <time>2021-11-18T13:42:40Z</time>
      </trkpt>
      <trkpt lat="46.54292" lon="6.01895">
        <ele>873.2</ele>
        <time>2021-11-18T13:42:45Z</time>
      </trkpt>
      <trkpt lat="46.54297" lon="6.01893">
        <ele>874.7</ele>
        <time>2021-11-18T13:42:52Z</time>
      </trkpt>
      <trkpt lat="46.54301" lon="6.0189">
        <ele>875.7</ele>
        <time>2021-11-18T13:42:57Z</time>
      </trkpt>
      <trkpt lat="46.54306" lon="6.01887">
        <ele>876.4</ele>
        <time>2021-11-18T13:43:02Z</time>
      </trkpt>
      <trkpt lat="46.54311" lon="6.01886">
        <ele>877.1</ele>
        <time>2021-11-18T13:43:07Z</time>
      </trkpt>
      <trkpt lat="46.54316" lon="6.01886">
        <ele>877.7</ele>
        <time>2021-11-18T13:43:12Z</time>
      </trkpt>
      <trkpt lat="46.54321" lon="6.01886">
        <ele>878.5</ele>
        <time>2021-11-18T13:43:18Z</time>
      </trkpt>
      <trkpt lat="46.54326" lon="6.01886">
        <ele>878.7</ele>
        <time>2021-11-18T13:43:24Z</time>
      </trkpt>
      <trkpt lat="46.54331" lon="6.01883">
        <ele>879</ele>
        <time>2021-11-18T13:43:30Z</time>
      </trkpt>
      <trkpt lat="46.54336" lon="6.0188">
        <ele>879.5</ele>
        <time>2021-11-18T13:43:35Z</time>
      </trkpt>
      <trkpt lat="46.5434" lon="6.01877">
        <ele>880.8</ele>
        <time>2021-11-18T13:43:41Z</time>
      </trkpt>
      <trkpt lat="46.54345" lon="6.01875">
        <ele>881.7</ele>
        <time>2021-11-18T13:43:46Z</time>
      </trkpt>
      <trkpt lat="46.54349" lon="6.01874">
        <ele>882.6</ele>
        <time>2021-11-18T13:43:52Z</time>
      </trkpt>
      <trkpt lat="46.54354" lon="6.01875">
        <ele>883.7</ele>
        <time>2021-11-18T13:43:57Z</time>
      </trkpt>
      <trkpt lat="46.54359" lon="6.01877">
        <ele>884.9</ele>
        <time>2021-11-18T13:44:02Z</time>
      </trkpt>
      <trkpt lat="46.54364" lon="6.01881">
        <ele>885.9</ele>
        <time>2021-11-18T13:44:07Z</time>
      </trkpt>
      <trkpt lat="46.54368" lon="6.01884">
        <ele>886.4</ele>
        <time>2021-11-18T13:44:12Z</time>
      </trkpt>
      <trkpt lat="46.54372" lon="6.01887">
        <ele>886.7</ele>
        <time>2021-11-18T13:44:17Z</time>
      </trkpt>
      <trkpt lat="46.54375" lon="6.01892">
        <ele>887.3</ele>
        <time>2021-11-18T13:44:23Z</time>
      </trkpt>
      <trkpt lat="46.54379" lon="6.01897">
        <ele>887.4</ele>
        <time>2021-11-18T13:44:29Z</time>
      </trkpt>
      <trkpt lat="46.54381" lon="6.01904">
        <ele>887.2</ele>
        <time>2021-11-18T13:44:37Z</time>
      </trkpt>
      <trkpt lat="46.54384" lon="6.01908">
        <ele>887.1</ele>
        <time>2021-11-18T13:44:42Z</time>
      </trkpt>
      <trkpt lat="46.54389" lon="6.01912">
        <ele>887.1</ele>
        <time>2021-11-18T13:44:47Z</time>
      </trkpt>
      <trkpt lat="46.54392" lon="6.01917">
        <ele>886.6</ele>
        <time>2021-11-18T13:44:52Z</time>
      </trkpt>
      <trkpt lat="46.54396" lon="6.01923">
        <ele>886</ele>
        <time>2021-11-18T13:44:57Z</time>
      </trkpt>
      <trkpt lat="46.54399" lon="6.01928">
        <ele>885.6</ele>
        <time>2021-11-18T13:45:02Z</time>
      </trkpt>
      <trkpt lat="46.54402" lon="6.01933">
        <ele>885.9</ele>
        <time>2021-11-18T13:45:07Z</time>
      </trkpt>
      <trkpt lat="46.54407" lon="6.01938">
        <ele>886.9</ele>
        <time>2021-11-18T13:45:12Z</time>
      </trkpt>
      <trkpt lat="46.54411" lon="6.01941">
        <ele>887.7</ele>
        <time>2021-11-18T13:45:16Z</time>
      </trkpt>
      <trkpt lat="46.54415" lon="6.01945">
        <ele>889.5</ele>
        <time>2021-11-18T13:45:21Z</time>
      </trkpt>
      <trkpt lat="46.54416" lon="6.01951">
        <ele>891.5</ele>
        <time>2021-11-18T13:45:30Z</time>
      </trkpt>
      <trkpt lat="46.54421" lon="6.01953">
        <ele>891.1</ele>
        <time>2021-11-18T13:45:47Z</time>
      </trkpt>
      <trkpt lat="46.54426" lon="6.01957">
        <ele>891</ele>
        <time>2021-11-18T13:45:52Z</time>
      </trkpt>
      <trkpt lat="46.54428" lon="6.01963">
        <ele>891.1</ele>
        <time>2021-11-18T13:45:58Z</time>
      </trkpt>
      <trkpt lat="46.54429" lon="6.0197">
        <ele>891.4</ele>
        <time>2021-11-18T13:46:03Z</time>
      </trkpt>
      <trkpt lat="46.54431" lon="6.01977">
        <ele>891.9</ele>
        <time>2021-11-18T13:46:08Z</time>
      </trkpt>
      <trkpt lat="46.5443" lon="6.01984">
        <ele>892</ele>
        <time>2021-11-18T13:46:13Z</time>
      </trkpt>
      <trkpt lat="46.54428" lon="6.01991">
        <ele>891.9</ele>
        <time>2021-11-18T13:46:17Z</time>
      </trkpt>
      <trkpt lat="46.54428" lon="6.01998">
        <ele>892</ele>
        <time>2021-11-18T13:46:21Z</time>
      </trkpt>
      <trkpt lat="46.54427" lon="6.02004">
        <ele>892.1</ele>
        <time>2021-11-18T13:46:25Z</time>
      </trkpt>
      <trkpt lat="46.54425" lon="6.02011">
        <ele>892.2</ele>
        <time>2021-11-18T13:46:30Z</time>
      </trkpt>
      <trkpt lat="46.54426" lon="6.02018">
        <ele>894.2</ele>
        <time>2021-11-18T13:46:37Z</time>
      </trkpt>
      <trkpt lat="46.54426" lon="6.02025">
        <ele>895</ele>
        <time>2021-11-18T13:46:43Z</time>
      </trkpt>
      <trkpt lat="46.54428" lon="6.02032">
        <ele>895.7</ele>
        <time>2021-11-18T13:46:49Z</time>
      </trkpt>
      <trkpt lat="46.54431" lon="6.02037">
        <ele>895.1</ele>
        <time>2021-11-18T13:46:56Z</time>
      </trkpt>
      <trkpt lat="46.54431" lon="6.02044">
        <ele>894.7</ele>
        <time>2021-11-18T13:47:01Z</time>
      </trkpt>
      <trkpt lat="46.54432" lon="6.02051">
        <ele>894.3</ele>
        <time>2021-11-18T13:47:06Z</time>
      </trkpt>
      <trkpt lat="46.54434" lon="6.02058">
        <ele>895</ele>
        <time>2021-11-18T13:47:11Z</time>
      </trkpt>
      <trkpt lat="46.54436" lon="6.02064">
        <ele>895.3</ele>
        <time>2021-11-18T13:47:16Z</time>
      </trkpt>
      <trkpt lat="46.54438" lon="6.0207">
        <ele>895.7</ele>
        <time>2021-11-18T13:47:21Z</time>
      </trkpt>
      <trkpt lat="46.54441" lon="6.02077">
        <ele>896.1</ele>
        <time>2021-11-18T13:47:26Z</time>
      </trkpt>
      <trkpt lat="46.54441" lon="6.02084">
        <ele>896.6</ele>
        <time>2021-11-18T13:47:32Z</time>
      </trkpt>
      <trkpt lat="46.54442" lon="6.02091">
        <ele>896.8</ele>
        <time>2021-11-18T13:47:38Z</time>
      </trkpt>
      <trkpt lat="46.54443" lon="6.02097">
        <ele>897.2</ele>
        <time>2021-11-18T13:47:43Z</time>
      </trkpt>
      <trkpt lat="46.54446" lon="6.02103">
        <ele>897.6</ele>
        <time>2021-11-18T13:47:48Z</time>
      </trkpt>
      <trkpt lat="46.54447" lon="6.02111">
        <ele>897.4</ele>
        <time>2021-11-18T13:47:55Z</time>
      </trkpt>
      <trkpt lat="46.54447" lon="6.02118">
        <ele>896.8</ele>
        <time>2021-11-18T13:47:59Z</time>
      </trkpt>
      <trkpt lat="46.54446" lon="6.02124">
        <ele>896</ele>
        <time>2021-11-18T13:48:03Z</time>
      </trkpt>
      <trkpt lat="46.54445" lon="6.02131">
        <ele>895.5</ele>
        <time>2021-11-18T13:48:07Z</time>
      </trkpt>
      <trkpt lat="46.54446" lon="6.02138">
        <ele>895.1</ele>
        <time>2021-11-18T13:48:12Z</time>
      </trkpt>
      <trkpt lat="46.54446" lon="6.02145">
        <ele>895.6</ele>
        <time>2021-11-18T13:48:17Z</time>
      </trkpt>
      <trkpt lat="46.54445" lon="6.02152">
        <ele>896.4</ele>
        <time>2021-11-18T13:48:21Z</time>
      </trkpt>
      <trkpt lat="46.54446" lon="6.02159">
        <ele>896.9</ele>
        <time>2021-11-18T13:48:25Z</time>
      </trkpt>
      <trkpt lat="46.54448" lon="6.02165">
        <ele>897.1</ele>
        <time>2021-11-18T13:48:31Z</time>
      </trkpt>
      <trkpt lat="46.5445" lon="6.02171">
        <ele>897.4</ele>
        <time>2021-11-18T13:48:37Z</time>
      </trkpt>
      <trkpt lat="46.54452" lon="6.02179">
        <ele>897.9</ele>
        <time>2021-11-18T13:48:42Z</time>
      </trkpt>
      <trkpt lat="46.54453" lon="6.02187">
        <ele>898.6</ele>
        <time>2021-11-18T13:48:46Z</time>
      </trkpt>
      <trkpt lat="46.54455" lon="6.02194">
        <ele>899.7</ele>
        <time>2021-11-18T13:48:51Z</time>
      </trkpt>
      <trkpt lat="46.54459" lon="6.02198">
        <ele>900.1</ele>
        <time>2021-11-18T13:48:55Z</time>
      </trkpt>
      <trkpt lat="46.54464" lon="6.02201">
        <ele>900.1</ele>
        <time>2021-11-18T13:48:59Z</time>
      </trkpt>
      <trkpt lat="46.54468" lon="6.02207">
        <ele>899.6</ele>
        <time>2021-11-18T13:49:05Z</time>
      </trkpt>
      <trkpt lat="46.5447" lon="6.02214">
        <ele>899.5</ele>
        <time>2021-11-18T13:49:10Z</time>
      </trkpt>
      <trkpt lat="46.54473" lon="6.02221">
        <ele>899.2</ele>
        <time>2021-11-18T13:49:16Z</time>
      </trkpt>
      <trkpt lat="46.54476" lon="6.02225">
        <ele>899.2</ele>
        <time>2021-11-18T13:49:21Z</time>
      </trkpt>
      <trkpt lat="46.5448" lon="6.02231">
        <ele>898.9</ele>
        <time>2021-11-18T13:49:26Z</time>
      </trkpt>
      <trkpt lat="46.54482" lon="6.02238">
        <ele>898.5</ele>
        <time>2021-11-18T13:49:32Z</time>
      </trkpt>
      <trkpt lat="46.54484" lon="6.02243">
        <ele>898.6</ele>
        <time>2021-11-18T13:49:37Z</time>
      </trkpt>
      <trkpt lat="46.54489" lon="6.02247">
        <ele>898.9</ele>
        <time>2021-11-18T13:49:42Z</time>
      </trkpt>
      <trkpt lat="46.54493" lon="6.02251">
        <ele>898.5</ele>
        <time>2021-11-18T13:49:47Z</time>
      </trkpt>
      <trkpt lat="46.54498" lon="6.02254">
        <ele>898.9</ele>
        <time>2021-11-18T13:49:52Z</time>
      </trkpt>
      <trkpt lat="46.54502" lon="6.02258">
        <ele>898.9</ele>
        <time>2021-11-18T13:50:00Z</time>
      </trkpt>
      <trkpt lat="46.54506" lon="6.02263">
        <ele>897.9</ele>
        <time>2021-11-18T13:50:06Z</time>
      </trkpt>
      <trkpt lat="46.5451" lon="6.02267">
        <ele>897.4</ele>
        <time>2021-11-18T13:50:11Z</time>
      </trkpt>
      <trkpt lat="46.54515" lon="6.0227">
        <ele>896.7</ele>
        <time>2021-11-18T13:50:16Z</time>
      </trkpt>
      <trkpt lat="46.54519" lon="6.02273">
        <ele>896.1</ele>
        <time>2021-11-18T13:50:22Z</time>
      </trkpt>
      <trkpt lat="46.54524" lon="6.02277">
        <ele>895.4</ele>
        <time>2021-11-18T13:50:28Z</time>
      </trkpt>
      <trkpt lat="46.54528" lon="6.0228">
        <ele>895.4</ele>
        <time>2021-11-18T13:50:34Z</time>
      </trkpt>
      <trkpt lat="46.54532" lon="6.02283">
        <ele>896.2</ele>
        <time>2021-11-18T13:50:40Z</time>
      </trkpt>
      <trkpt lat="46.54537" lon="6.02286">
        <ele>897.4</ele>
        <time>2021-11-18T13:50:46Z</time>
      </trkpt>
      <trkpt lat="46.54541" lon="6.02287">
        <ele>898.3</ele>
        <time>2021-11-18T13:50:49Z</time>
      </trkpt>
      <trkpt lat="46.54547" lon="6.02289">
        <ele>899.4</ele>
        <time>2021-11-18T13:50:54Z</time>
      </trkpt>
      <trkpt lat="46.54552" lon="6.02289">
        <ele>900.4</ele>
        <time>2021-11-18T13:50:59Z</time>
      </trkpt>
      <trkpt lat="46.54557" lon="6.02292">
        <ele>901.6</ele>
        <time>2021-11-18T13:51:04Z</time>
      </trkpt>
      <trkpt lat="46.54561" lon="6.02297">
        <ele>902.9</ele>
        <time>2021-11-18T13:51:10Z</time>
      </trkpt>
      <trkpt lat="46.54563" lon="6.02303">
        <ele>904.3</ele>
        <time>2021-11-18T13:51:15Z</time>
      </trkpt>
      <trkpt lat="46.54566" lon="6.02308">
        <ele>905.9</ele>
        <time>2021-11-18T13:51:20Z</time>
      </trkpt>
      <trkpt lat="46.5457" lon="6.02314">
        <ele>907.6</ele>
        <time>2021-11-18T13:51:26Z</time>
      </trkpt>
      <trkpt lat="46.54572" lon="6.02321">
        <ele>908.8</ele>
        <time>2021-11-18T13:51:31Z</time>
      </trkpt>
      <trkpt lat="46.54575" lon="6.02327">
        <ele>910.1</ele>
        <time>2021-11-18T13:51:36Z</time>
      </trkpt>
      <trkpt lat="46.54579" lon="6.02332">
        <ele>911</ele>
        <time>2021-11-18T13:51:41Z</time>
      </trkpt>
      <trkpt lat="46.54582" lon="6.02337">
        <ele>911.3</ele>
        <time>2021-11-18T13:51:46Z</time>
      </trkpt>
      <trkpt lat="46.54586" lon="6.02342">
        <ele>910.9</ele>
        <time>2021-11-18T13:51:51Z</time>
      </trkpt>
      <trkpt lat="46.54588" lon="6.02348">
        <ele>910.7</ele>
        <time>2021-11-18T13:51:57Z</time>
      </trkpt>
      <trkpt lat="46.54591" lon="6.02353">
        <ele>911.2</ele>
        <time>2021-11-18T13:52:02Z</time>
      </trkpt>
      <trkpt lat="46.54596" lon="6.02358">
        <ele>912.7</ele>
        <time>2021-11-18T13:52:08Z</time>
      </trkpt>
      <trkpt lat="46.546" lon="6.02362">
        <ele>914.1</ele>
        <time>2021-11-18T13:52:13Z</time>
      </trkpt>
      <trkpt lat="46.54604" lon="6.02366">
        <ele>915.3</ele>
        <time>2021-11-18T13:52:17Z</time>
      </trkpt>
      <trkpt lat="46.54607" lon="6.02373">
        <ele>916.3</ele>
        <time>2021-11-18T13:52:22Z</time>
      </trkpt>
      <trkpt lat="46.54608" lon="6.02379">
        <ele>917.2</ele>
        <time>2021-11-18T13:52:27Z</time>
      </trkpt>
      <trkpt lat="46.5461" lon="6.02386">
        <ele>918.1</ele>
        <time>2021-11-18T13:52:33Z</time>
      </trkpt>
      <trkpt lat="46.54613" lon="6.02393">
        <ele>918.7</ele>
        <time>2021-11-18T13:52:40Z</time>
      </trkpt>
      <trkpt lat="46.54616" lon="6.02398">
        <ele>918.8</ele>
        <time>2021-11-18T13:52:45Z</time>
      </trkpt>
      <trkpt lat="46.54618" lon="6.02405">
        <ele>918.6</ele>
        <time>2021-11-18T13:52:50Z</time>
      </trkpt>
      <trkpt lat="46.54621" lon="6.02411">
        <ele>916.2</ele>
        <time>2021-11-18T13:53:02Z</time>
      </trkpt>
      <trkpt lat="46.54624" lon="6.02417">
        <ele>915.3</ele>
        <time>2021-11-18T13:53:08Z</time>
      </trkpt>
      <trkpt lat="46.54628" lon="6.0242">
        <ele>915</ele>
        <time>2021-11-18T13:53:13Z</time>
      </trkpt>
      <trkpt lat="46.54633" lon="6.02424">
        <ele>915.1</ele>
        <time>2021-11-18T13:53:18Z</time>
      </trkpt>
      <trkpt lat="46.54637" lon="6.02427">
        <ele>915.3</ele>
        <time>2021-11-18T13:53:23Z</time>
      </trkpt>
      <trkpt lat="46.5464" lon="6.02432">
        <ele>914.8</ele>
        <time>2021-11-18T13:53:29Z</time>
      </trkpt>
      <trkpt lat="46.54643" lon="6.02437">
        <ele>914.8</ele>
        <time>2021-11-18T13:53:33Z</time>
      </trkpt>
      <trkpt lat="46.54646" lon="6.02444">
        <ele>915.1</ele>
        <time>2021-11-18T13:53:38Z</time>
      </trkpt>
      <trkpt lat="46.5465" lon="6.0245">
        <ele>916.4</ele>
        <time>2021-11-18T13:53:44Z</time>
      </trkpt>
      <trkpt lat="46.54652" lon="6.02457">
        <ele>918.5</ele>
        <time>2021-11-18T13:53:51Z</time>
      </trkpt>
      <trkpt lat="46.54654" lon="6.02463">
        <ele>919.1</ele>
        <time>2021-11-18T13:53:57Z</time>
      </trkpt>
      <trkpt lat="46.54655" lon="6.0247">
        <ele>919.4</ele>
        <time>2021-11-18T13:54:02Z</time>
      </trkpt>
      <trkpt lat="46.54656" lon="6.02477">
        <ele>920</ele>
        <time>2021-11-18T13:54:06Z</time>
      </trkpt>
      <trkpt lat="46.54656" lon="6.02484">
        <ele>921.4</ele>
        <time>2021-11-18T13:54:11Z</time>
      </trkpt>
      <trkpt lat="46.54661" lon="6.0248">
        <ele>925.1</ele>
        <time>2021-11-18T13:54:29Z</time>
      </trkpt>
      <trkpt lat="46.54656" lon="6.02484">
        <ele>925.7</ele>
        <time>2021-11-18T13:55:13Z</time>
      </trkpt>
      <trkpt lat="46.54657" lon="6.02491">
        <ele>919.8</ele>
        <time>2021-11-18T13:55:52Z</time>
      </trkpt>
      <trkpt lat="46.54661" lon="6.02495">
        <ele>918.5</ele>
        <time>2021-11-18T13:55:55Z</time>
      </trkpt>
      <trkpt lat="46.54665" lon="6.025">
        <ele>917.5</ele>
        <time>2021-11-18T13:55:59Z</time>
      </trkpt>
      <trkpt lat="46.54668" lon="6.02505">
        <ele>917</ele>
        <time>2021-11-18T13:56:04Z</time>
      </trkpt>
      <trkpt lat="46.54672" lon="6.0251">
        <ele>917.5</ele>
        <time>2021-11-18T13:56:11Z</time>
      </trkpt>
      <trkpt lat="46.54675" lon="6.02515">
        <ele>918.7</ele>
        <time>2021-11-18T13:56:18Z</time>
      </trkpt>
      <trkpt lat="46.54679" lon="6.0252">
        <ele>920.8</ele>
        <time>2021-11-18T13:56:25Z</time>
      </trkpt>
      <trkpt lat="46.54681" lon="6.02526">
        <ele>921.9</ele>
        <time>2021-11-18T13:56:30Z</time>
      </trkpt>
      <trkpt lat="46.54683" lon="6.02532">
        <ele>922.2</ele>
        <time>2021-11-18T13:56:41Z</time>
      </trkpt>
      <trkpt lat="46.54685" lon="6.0254">
        <ele>923.1</ele>
        <time>2021-11-18T13:56:46Z</time>
      </trkpt>
      <trkpt lat="46.54686" lon="6.02546">
        <ele>923.8</ele>
        <time>2021-11-18T13:56:50Z</time>
      </trkpt>
      <trkpt lat="46.54689" lon="6.02552">
        <ele>926.3</ele>
        <time>2021-11-18T13:56:58Z</time>
      </trkpt>
      <trkpt lat="46.54692" lon="6.02557">
        <ele>928.3</ele>
        <time>2021-11-18T13:57:04Z</time>
      </trkpt>
      <trkpt lat="46.54693" lon="6.02564">
        <ele>929.5</ele>
        <time>2021-11-18T13:57:09Z</time>
      </trkpt>
      <trkpt lat="46.54697" lon="6.02568">
        <ele>930.4</ele>
        <time>2021-11-18T13:57:14Z</time>
      </trkpt>
      <trkpt lat="46.547" lon="6.02574">
        <ele>930.5</ele>
        <time>2021-11-18T13:57:20Z</time>
      </trkpt>
      <trkpt lat="46.54705" lon="6.02577">
        <ele>931.2</ele>
        <time>2021-11-18T13:57:24Z</time>
      </trkpt>
      <trkpt lat="46.54709" lon="6.02578">
        <ele>932.9</ele>
        <time>2021-11-18T13:57:31Z</time>
      </trkpt>
      <trkpt lat="46.54715" lon="6.02581">
        <ele>934.1</ele>
        <time>2021-11-18T13:57:38Z</time>
      </trkpt>
      <trkpt lat="46.54719" lon="6.02585">
        <ele>934.4</ele>
        <time>2021-11-18T13:57:42Z</time>
      </trkpt>
      <trkpt lat="46.54722" lon="6.02592">
        <ele>935.1</ele>
        <time>2021-11-18T13:58:01Z</time>
      </trkpt>
      <trkpt lat="46.54725" lon="6.02598">
        <ele>934.8</ele>
        <time>2021-11-18T13:58:04Z</time>
      </trkpt>
      <trkpt lat="46.54728" lon="6.02602">
        <ele>934.1</ele>
        <time>2021-11-18T13:58:08Z</time>
      </trkpt>
      <trkpt lat="46.54732" lon="6.02605">
        <ele>932.8</ele>
        <time>2021-11-18T13:58:14Z</time>
      </trkpt>
      <trkpt lat="46.54736" lon="6.0261">
        <ele>932.4</ele>
        <time>2021-11-18T13:58:20Z</time>
      </trkpt>
      <trkpt lat="46.54739" lon="6.02615">
        <ele>932</ele>
        <time>2021-11-18T13:58:27Z</time>
      </trkpt>
      <trkpt lat="46.54742" lon="6.02622">
        <ele>931.3</ele>
        <time>2021-11-18T13:58:32Z</time>
      </trkpt>
      <trkpt lat="46.54744" lon="6.02628">
        <ele>930.7</ele>
        <time>2021-11-18T13:58:38Z</time>
      </trkpt>
      <trkpt lat="46.54744" lon="6.02635">
        <ele>930.5</ele>
        <time>2021-11-18T13:58:43Z</time>
      </trkpt>
      <trkpt lat="46.54746" lon="6.02641">
        <ele>929.9</ele>
        <time>2021-11-18T13:58:52Z</time>
      </trkpt>
      <trkpt lat="46.5475" lon="6.02647">
        <ele>930.7</ele>
        <time>2021-11-18T13:58:58Z</time>
      </trkpt>
      <trkpt lat="46.54754" lon="6.02651">
        <ele>932.1</ele>
        <time>2021-11-18T13:59:05Z</time>
      </trkpt>
      <trkpt lat="46.54757" lon="6.02657">
        <ele>933.8</ele>
        <time>2021-11-18T13:59:10Z</time>
      </trkpt>
      <trkpt lat="46.5476" lon="6.02662">
        <ele>936.4</ele>
        <time>2021-11-18T13:59:16Z</time>
      </trkpt>
      <trkpt lat="46.54764" lon="6.02665">
        <ele>939.2</ele>
        <time>2021-11-18T13:59:22Z</time>
      </trkpt>
      <trkpt lat="46.54769" lon="6.02668">
        <ele>940.6</ele>
        <time>2021-11-18T13:59:27Z</time>
      </trkpt>
      <trkpt lat="46.54773" lon="6.02671">
        <ele>940.4</ele>
        <time>2021-11-18T13:59:31Z</time>
      </trkpt>
      <trkpt lat="46.54777" lon="6.02675">
        <ele>938.5</ele>
        <time>2021-11-18T13:59:41Z</time>
      </trkpt>
      <trkpt lat="46.54781" lon="6.02679">
        <ele>937.4</ele>
        <time>2021-11-18T13:59:49Z</time>
      </trkpt>
      <trkpt lat="46.54786" lon="6.02678">
        <ele>937.5</ele>
        <time>2021-11-18T13:59:55Z</time>
      </trkpt>
      <trkpt lat="46.54789" lon="6.02672">
        <ele>939.2</ele>
        <time>2021-11-18T14:00:03Z</time>
      </trkpt>
      <trkpt lat="46.54794" lon="6.02675">
        <ele>945.1</ele>
        <time>2021-11-18T14:01:19Z</time>
      </trkpt>
      <trkpt lat="46.54799" lon="6.02677">
        <ele>947.8</ele>
        <time>2021-11-18T14:01:26Z</time>
      </trkpt>
      <trkpt lat="46.54803" lon="6.02679">
        <ele>947.8</ele>
        <time>2021-11-18T14:01:32Z</time>
      </trkpt>
      <trkpt lat="46.54807" lon="6.02685">
        <ele>947.7</ele>
        <time>2021-11-18T14:01:38Z</time>
      </trkpt>
      <trkpt lat="46.5481" lon="6.0269">
        <ele>947.7</ele>
        <time>2021-11-18T14:01:43Z</time>
      </trkpt>
      <trkpt lat="46.54815" lon="6.02692">
        <ele>947.5</ele>
        <time>2021-11-18T14:01:50Z</time>
      </trkpt>
      <trkpt lat="46.54818" lon="6.02698">
        <ele>947.5</ele>
        <time>2021-11-18T14:01:55Z</time>
      </trkpt>
      <trkpt lat="46.54822" lon="6.02703">
        <ele>947.4</ele>
        <time>2021-11-18T14:01:59Z</time>
      </trkpt>
      <trkpt lat="46.54826" lon="6.02707">
        <ele>947.5</ele>
        <time>2021-11-18T14:02:05Z</time>
      </trkpt>
      <trkpt lat="46.5483" lon="6.0271">
        <ele>948</ele>
        <time>2021-11-18T14:02:11Z</time>
      </trkpt>
      <trkpt lat="46.54835" lon="6.02712">
        <ele>947.3</ele>
        <time>2021-11-18T14:02:17Z</time>
      </trkpt>
      <trkpt lat="46.54839" lon="6.02716">
        <ele>946.8</ele>
        <time>2021-11-18T14:02:22Z</time>
      </trkpt>
      <trkpt lat="46.54842" lon="6.02721">
        <ele>946.7</ele>
        <time>2021-11-18T14:02:28Z</time>
      </trkpt>
      <trkpt lat="46.54847" lon="6.02725">
        <ele>946.6</ele>
        <time>2021-11-18T14:02:33Z</time>
      </trkpt>
      <trkpt lat="46.5485" lon="6.0273">
        <ele>947.2</ele>
        <time>2021-11-18T14:02:38Z</time>
      </trkpt>
      <trkpt lat="46.54853" lon="6.02735">
        <ele>948.1</ele>
        <time>2021-11-18T14:02:44Z</time>
      </trkpt>
      <trkpt lat="46.54855" lon="6.02741">
        <ele>948.5</ele>
        <time>2021-11-18T14:02:49Z</time>
      </trkpt>
      <trkpt lat="46.54859" lon="6.02744">
        <ele>948.4</ele>
        <time>2021-11-18T14:02:54Z</time>
      </trkpt>
      <trkpt lat="46.54864" lon="6.02746">
        <ele>948.7</ele>
        <time>2021-11-18T14:02:58Z</time>
      </trkpt>
      <trkpt lat="46.54868" lon="6.02749">
        <ele>948.8</ele>
        <time>2021-11-18T14:03:03Z</time>
      </trkpt>
      <trkpt lat="46.54871" lon="6.02756">
        <ele>949.4</ele>
        <time>2021-11-18T14:03:09Z</time>
      </trkpt>
      <trkpt lat="46.54874" lon="6.02761">
        <ele>950.4</ele>
        <time>2021-11-18T14:03:14Z</time>
      </trkpt>
      <trkpt lat="46.54877" lon="6.02767">
        <ele>951.3</ele>
        <time>2021-11-18T14:03:20Z</time>
      </trkpt>
      <trkpt lat="46.54879" lon="6.02774">
        <ele>952.5</ele>
        <time>2021-11-18T14:03:27Z</time>
      </trkpt>
      <trkpt lat="46.54879" lon="6.02781">
        <ele>953.3</ele>
        <time>2021-11-18T14:03:34Z</time>
      </trkpt>
      <trkpt lat="46.54882" lon="6.02787">
        <ele>953.6</ele>
        <time>2021-11-18T14:03:39Z</time>
      </trkpt>
      <trkpt lat="46.54886" lon="6.02791">
        <ele>954.3</ele>
        <time>2021-11-18T14:03:44Z</time>
      </trkpt>
      <trkpt lat="46.5489" lon="6.02795">
        <ele>955.6</ele>
        <time>2021-11-18T14:03:54Z</time>
      </trkpt>
      <trkpt lat="46.54892" lon="6.02801">
        <ele>953.5</ele>
        <time>2021-11-18T14:05:12Z</time>
      </trkpt>
      <trkpt lat="46.54896" lon="6.02807">
        <ele>952.5</ele>
        <time>2021-11-18T14:05:16Z</time>
      </trkpt>
      <trkpt lat="46.54899" lon="6.02812">
        <ele>952.2</ele>
        <time>2021-11-18T14:05:20Z</time>
      </trkpt>
      <trkpt lat="46.54902" lon="6.02819">
        <ele>952.7</ele>
        <time>2021-11-18T14:05:25Z</time>
      </trkpt>
      <trkpt lat="46.54905" lon="6.02824">
        <ele>953.8</ele>
        <time>2021-11-18T14:05:30Z</time>
      </trkpt>
      <trkpt lat="46.54907" lon="6.02831">
        <ele>955.8</ele>
        <time>2021-11-18T14:05:35Z</time>
      </trkpt>
      <trkpt lat="46.54912" lon="6.02836">
        <ele>958.1</ele>
        <time>2021-11-18T14:05:40Z</time>
      </trkpt>
      <trkpt lat="46.54916" lon="6.0284">
        <ele>959.8</ele>
        <time>2021-11-18T14:05:45Z</time>
      </trkpt>
      <trkpt lat="46.5492" lon="6.02845">
        <ele>961.2</ele>
        <time>2021-11-18T14:05:49Z</time>
      </trkpt>
      <trkpt lat="46.54923" lon="6.0285">
        <ele>963.5</ele>
        <time>2021-11-18T14:05:55Z</time>
      </trkpt>
      <trkpt lat="46.54928" lon="6.02852">
        <ele>965.2</ele>
        <time>2021-11-18T14:06:01Z</time>
      </trkpt>
      <trkpt lat="46.54931" lon="6.02856">
        <ele>966.9</ele>
        <time>2021-11-18T14:06:07Z</time>
      </trkpt>
      <trkpt lat="46.54935" lon="6.02862">
        <ele>967.3</ele>
        <time>2021-11-18T14:06:12Z</time>
      </trkpt>
      <trkpt lat="46.54938" lon="6.02867">
        <ele>967.1</ele>
        <time>2021-11-18T14:06:17Z</time>
      </trkpt>
      <trkpt lat="46.54941" lon="6.02871">
        <ele>965.9</ele>
        <time>2021-11-18T14:06:23Z</time>
      </trkpt>
      <trkpt lat="46.54945" lon="6.02876">
        <ele>964.5</ele>
        <time>2021-11-18T14:06:29Z</time>
      </trkpt>
      <trkpt lat="46.5495" lon="6.02876">
        <ele>963.9</ele>
        <time>2021-11-18T14:06:36Z</time>
      </trkpt>
      <trkpt lat="46.54953" lon="6.02881">
        <ele>963.8</ele>
        <time>2021-11-18T14:06:43Z</time>
      </trkpt>
      <trkpt lat="46.54957" lon="6.02887">
        <ele>964</ele>
        <time>2021-11-18T14:06:50Z</time>
      </trkpt>
      <trkpt lat="46.5496" lon="6.02892">
        <ele>963.9</ele>
        <time>2021-11-18T14:06:55Z</time>
      </trkpt>
      <trkpt lat="46.54964" lon="6.02897">
        <ele>964.2</ele>
        <time>2021-11-18T14:06:59Z</time>
      </trkpt>
      <trkpt lat="46.54968" lon="6.02901">
        <ele>964.8</ele>
        <time>2021-11-18T14:07:04Z</time>
      </trkpt>
      <trkpt lat="46.54973" lon="6.02904">
        <ele>964.9</ele>
        <time>2021-11-18T14:07:11Z</time>
      </trkpt>
      <trkpt lat="46.54976" lon="6.02909">
        <ele>965</ele>
        <time>2021-11-18T14:07:16Z</time>
      </trkpt>
      <trkpt lat="46.5498" lon="6.02912">
        <ele>965.2</ele>
        <time>2021-11-18T14:07:22Z</time>
      </trkpt>
      <trkpt lat="46.54984" lon="6.02916">
        <ele>965.1</ele>
        <time>2021-11-18T14:07:28Z</time>
      </trkpt>
      <trkpt lat="46.54989" lon="6.0292">
        <ele>965.1</ele>
        <time>2021-11-18T14:07:32Z</time>
      </trkpt>
      <trkpt lat="46.54993" lon="6.02924">
        <ele>965.3</ele>
        <time>2021-11-18T14:07:36Z</time>
      </trkpt>
      <trkpt lat="46.54999" lon="6.02926">
        <ele>966</ele>
        <time>2021-11-18T14:07:41Z</time>
      </trkpt>
      <trkpt lat="46.55004" lon="6.02927">
        <ele>966.5</ele>
        <time>2021-11-18T14:07:45Z</time>
      </trkpt>
      <trkpt lat="46.55008" lon="6.02931">
        <ele>966.6</ele>
        <time>2021-11-18T14:07:50Z</time>
      </trkpt>
      <trkpt lat="46.55012" lon="6.02937">
        <ele>966.9</ele>
        <time>2021-11-18T14:07:57Z</time>
      </trkpt>
      <trkpt lat="46.55013" lon="6.02943">
        <ele>967.2</ele>
        <time>2021-11-18T14:08:02Z</time>
      </trkpt>
      <trkpt lat="46.55015" lon="6.0295">
        <ele>966.6</ele>
        <time>2021-11-18T14:08:09Z</time>
      </trkpt>
      <trkpt lat="46.5502" lon="6.02953">
        <ele>965.9</ele>
        <time>2021-11-18T14:08:14Z</time>
      </trkpt>
      <trkpt lat="46.55025" lon="6.02955">
        <ele>965.5</ele>
        <time>2021-11-18T14:08:19Z</time>
      </trkpt>
      <trkpt lat="46.55029" lon="6.02953">
        <ele>964.4</ele>
        <time>2021-11-18T14:08:25Z</time>
      </trkpt>
      <trkpt lat="46.55033" lon="6.02948">
        <ele>962.9</ele>
        <time>2021-11-18T14:08:29Z</time>
      </trkpt>
      <trkpt lat="46.55036" lon="6.02943">
        <ele>960.7</ele>
        <time>2021-11-18T14:08:35Z</time>
      </trkpt>
      <trkpt lat="46.5504" lon="6.02937">
        <ele>959.3</ele>
        <time>2021-11-18T14:08:41Z</time>
      </trkpt>
      <trkpt lat="46.55043" lon="6.02931">
        <ele>959.2</ele>
        <time>2021-11-18T14:08:46Z</time>
      </trkpt>
      <trkpt lat="46.55043" lon="6.02924">
        <ele>960.3</ele>
        <time>2021-11-18T14:08:53Z</time>
      </trkpt>
      <trkpt lat="46.55044" lon="6.02917">
        <ele>961.1</ele>
        <time>2021-11-18T14:08:59Z</time>
      </trkpt>
      <trkpt lat="46.55048" lon="6.02911">
        <ele>961.4</ele>
        <time>2021-11-18T14:09:04Z</time>
      </trkpt>
      <trkpt lat="46.5505" lon="6.02905">
        <ele>961.6</ele>
        <time>2021-11-18T14:09:08Z</time>
      </trkpt>
      <trkpt lat="46.55052" lon="6.02898">
        <ele>961.8</ele>
        <time>2021-11-18T14:09:12Z</time>
      </trkpt>
      <trkpt lat="46.55052" lon="6.02891">
        <ele>961.9</ele>
        <time>2021-11-18T14:09:17Z</time>
      </trkpt>
      <trkpt lat="46.55054" lon="6.02885">
        <ele>962.8</ele>
        <time>2021-11-18T14:09:23Z</time>
      </trkpt>
      <trkpt lat="46.55057" lon="6.02879">
        <ele>963.2</ele>
        <time>2021-11-18T14:09:27Z</time>
      </trkpt>
      <trkpt lat="46.55059" lon="6.02873">
        <ele>963.6</ele>
        <time>2021-11-18T14:09:32Z</time>
      </trkpt>
      <trkpt lat="46.55061" lon="6.02867">
        <ele>963.4</ele>
        <time>2021-11-18T14:09:38Z</time>
      </trkpt>
      <trkpt lat="46.55065" lon="6.02861">
        <ele>963.4</ele>
        <time>2021-11-18T14:09:43Z</time>
      </trkpt>
      <trkpt lat="46.55066" lon="6.02855">
        <ele>963.6</ele>
        <time>2021-11-18T14:09:48Z</time>
      </trkpt>
      <trkpt lat="46.55068" lon="6.02849">
        <ele>964.6</ele>
        <time>2021-11-18T14:09:53Z</time>
      </trkpt>
      <trkpt lat="46.55069" lon="6.02841">
        <ele>965.6</ele>
        <time>2021-11-18T14:09:57Z</time>
      </trkpt>
      <trkpt lat="46.55069" lon="6.02835">
        <ele>967</ele>
        <time>2021-11-18T14:10:02Z</time>
      </trkpt>
      <trkpt lat="46.55073" lon="6.02829">
        <ele>968.6</ele>
        <time>2021-11-18T14:10:09Z</time>
      </trkpt>
      <trkpt lat="46.55076" lon="6.02823">
        <ele>969.6</ele>
        <time>2021-11-18T14:10:14Z</time>
      </trkpt>
      <trkpt lat="46.5508" lon="6.02818">
        <ele>969.9</ele>
        <time>2021-11-18T14:10:18Z</time>
      </trkpt>
      <trkpt lat="46.55082" lon="6.02811">
        <ele>969.8</ele>
        <time>2021-11-18T14:10:22Z</time>
      </trkpt>
      <trkpt lat="46.55085" lon="6.02806">
        <ele>968.6</ele>
        <time>2021-11-18T14:10:28Z</time>
      </trkpt>
      <trkpt lat="46.55088" lon="6.02801">
        <ele>967.4</ele>
        <time>2021-11-18T14:10:33Z</time>
      </trkpt>
      <trkpt lat="46.55092" lon="6.02796">
        <ele>966.7</ele>
        <time>2021-11-18T14:10:38Z</time>
      </trkpt>
      <trkpt lat="46.55095" lon="6.0279">
        <ele>966</ele>
        <time>2021-11-18T14:10:43Z</time>
      </trkpt>
      <trkpt lat="46.55099" lon="6.02785">
        <ele>965.6</ele>
        <time>2021-11-18T14:10:49Z</time>
      </trkpt>
      <trkpt lat="46.55103" lon="6.0278">
        <ele>965.7</ele>
        <time>2021-11-18T14:10:54Z</time>
      </trkpt>
      <trkpt lat="46.55106" lon="6.02775">
        <ele>966.4</ele>
        <time>2021-11-18T14:11:00Z</time>
      </trkpt>
      <trkpt lat="46.5511" lon="6.02771">
        <ele>966.8</ele>
        <time>2021-11-18T14:11:07Z</time>
      </trkpt>
      <trkpt lat="46.55113" lon="6.02766">
        <ele>966.4</ele>
        <time>2021-11-18T14:11:14Z</time>
      </trkpt>
      <trkpt lat="46.55117" lon="6.0276">
        <ele>966.5</ele>
        <time>2021-11-18T14:11:19Z</time>
      </trkpt>
      <trkpt lat="46.5512" lon="6.02756">
        <ele>966.6</ele>
        <time>2021-11-18T14:11:24Z</time>
      </trkpt>
      <trkpt lat="46.55124" lon="6.0275">
        <ele>967</ele>
        <time>2021-11-18T14:11:29Z</time>
      </trkpt>
      <trkpt lat="46.55128" lon="6.02745">
        <ele>967.9</ele>
        <time>2021-11-18T14:11:34Z</time>
      </trkpt>
      <trkpt lat="46.55131" lon="6.02742">
        <ele>969.1</ele>
        <time>2021-11-18T14:11:39Z</time>
      </trkpt>
      <trkpt lat="46.55135" lon="6.02737">
        <ele>969.6</ele>
        <time>2021-11-18T14:11:44Z</time>
      </trkpt>
      <trkpt lat="46.55138" lon="6.02732">
        <ele>970</ele>
        <time>2021-11-18T14:11:49Z</time>
      </trkpt>
      <trkpt lat="46.5514" lon="6.02725">
        <ele>970.5</ele>
        <time>2021-11-18T14:11:55Z</time>
      </trkpt>
      <trkpt lat="46.55143" lon="6.02719">
        <ele>971.2</ele>
        <time>2021-11-18T14:12:01Z</time>
      </trkpt>
      <trkpt lat="46.55147" lon="6.02713">
        <ele>971.6</ele>
        <time>2021-11-18T14:12:05Z</time>
      </trkpt>
      <trkpt lat="46.55149" lon="6.02707">
        <ele>972.1</ele>
        <time>2021-11-18T14:12:10Z</time>
      </trkpt>
      <trkpt lat="46.55153" lon="6.02702">
        <ele>972.3</ele>
        <time>2021-11-18T14:12:17Z</time>
      </trkpt>
      <trkpt lat="46.55156" lon="6.02696">
        <ele>971.8</ele>
        <time>2021-11-18T14:12:23Z</time>
      </trkpt>
      <trkpt lat="46.55159" lon="6.02689">
        <ele>970.9</ele>
        <time>2021-11-18T14:12:29Z</time>
      </trkpt>
      <trkpt lat="46.55162" lon="6.02685">
        <ele>971</ele>
        <time>2021-11-18T14:12:33Z</time>
      </trkpt>
      <trkpt lat="46.55166" lon="6.02679">
        <ele>971.3</ele>
        <time>2021-11-18T14:12:38Z</time>
      </trkpt>
      <trkpt lat="46.5517" lon="6.02676">
        <ele>971.4</ele>
        <time>2021-11-18T14:12:44Z</time>
      </trkpt>
      <trkpt lat="46.55173" lon="6.02671">
        <ele>971.1</ele>
        <time>2021-11-18T14:12:50Z</time>
      </trkpt>
      <trkpt lat="46.55176" lon="6.02665">
        <ele>971.1</ele>
        <time>2021-11-18T14:12:56Z</time>
      </trkpt>
      <trkpt lat="46.55179" lon="6.02659">
        <ele>971.2</ele>
        <time>2021-11-18T14:13:02Z</time>
      </trkpt>
      <trkpt lat="46.55183" lon="6.02654">
        <ele>970.9</ele>
        <time>2021-11-18T14:13:08Z</time>
      </trkpt>
      <trkpt lat="46.55187" lon="6.0265">
        <ele>970.6</ele>
        <time>2021-11-18T14:13:13Z</time>
      </trkpt>
      <trkpt lat="46.55192" lon="6.02647">
        <ele>970.4</ele>
        <time>2021-11-18T14:13:17Z</time>
      </trkpt>
      <trkpt lat="46.55197" lon="6.02644">
        <ele>970.6</ele>
        <time>2021-11-18T14:13:21Z</time>
      </trkpt>
      <trkpt lat="46.55202" lon="6.0264">
        <ele>970.9</ele>
        <time>2021-11-18T14:13:25Z</time>
      </trkpt>
      <trkpt lat="46.55205" lon="6.02635">
        <ele>971.1</ele>
        <time>2021-11-18T14:13:30Z</time>
      </trkpt>
      <trkpt lat="46.55207" lon="6.02629">
        <ele>971.3</ele>
        <time>2021-11-18T14:13:38Z</time>
      </trkpt>
      <trkpt lat="46.55211" lon="6.02624">
        <ele>970.4</ele>
        <time>2021-11-18T14:13:44Z</time>
      </trkpt>
      <trkpt lat="46.55215" lon="6.0262">
        <ele>969.1</ele>
        <time>2021-11-18T14:13:49Z</time>
      </trkpt>
      <trkpt lat="46.5522" lon="6.02616">
        <ele>968</ele>
        <time>2021-11-18T14:13:55Z</time>
      </trkpt>
      <trkpt lat="46.55224" lon="6.02612">
        <ele>967</ele>
        <time>2021-11-18T14:14:00Z</time>
      </trkpt>
      <trkpt lat="46.55227" lon="6.02606">
        <ele>965.6</ele>
        <time>2021-11-18T14:14:06Z</time>
      </trkpt>
      <trkpt lat="46.5523" lon="6.026">
        <ele>964.3</ele>
        <time>2021-11-18T14:14:11Z</time>
      </trkpt>
      <trkpt lat="46.55234" lon="6.02595">
        <ele>962.9</ele>
        <time>2021-11-18T14:14:16Z</time>
      </trkpt>
      <trkpt lat="46.55237" lon="6.0259">
        <ele>960.4</ele>
        <time>2021-11-18T14:14:23Z</time>
      </trkpt>
      <trkpt lat="46.55242" lon="6.02587">
        <ele>959</ele>
        <time>2021-11-18T14:14:29Z</time>
      </trkpt>
      <trkpt lat="46.55246" lon="6.02583">
        <ele>958.5</ele>
        <time>2021-11-18T14:14:35Z</time>
      </trkpt>
      <trkpt lat="46.5525" lon="6.02584">
        <ele>956.6</ele>
        <time>2021-11-18T14:14:43Z</time>
      </trkpt>
      <trkpt lat="46.55254" lon="6.02589">
        <ele>954.8</ele>
        <time>2021-11-18T14:14:48Z</time>
      </trkpt>
      <trkpt lat="46.55258" lon="6.02592">
        <ele>952.5</ele>
        <time>2021-11-18T14:14:55Z</time>
      </trkpt>
      <trkpt lat="46.55263" lon="6.02593">
        <ele>951.5</ele>
        <time>2021-11-18T14:14:59Z</time>
      </trkpt>
      <trkpt lat="46.55267" lon="6.02595">
        <ele>949.9</ele>
        <time>2021-11-18T14:15:05Z</time>
      </trkpt>
      <trkpt lat="46.55272" lon="6.02598">
        <ele>948.6</ele>
        <time>2021-11-18T14:15:10Z</time>
      </trkpt>
      <trkpt lat="46.55276" lon="6.026">
        <ele>948</ele>
        <time>2021-11-18T14:15:15Z</time>
      </trkpt>
      <trkpt lat="46.55282" lon="6.02602">
        <ele>947.9</ele>
        <time>2021-11-18T14:15:20Z</time>
      </trkpt>
      <trkpt lat="46.55286" lon="6.02603">
        <ele>948.3</ele>
        <time>2021-11-18T14:15:24Z</time>
      </trkpt>
      <trkpt lat="46.55291" lon="6.02605">
        <ele>949.1</ele>
        <time>2021-11-18T14:15:28Z</time>
      </trkpt>
      <trkpt lat="46.55296" lon="6.02608">
        <ele>950</ele>
        <time>2021-11-18T14:15:34Z</time>
      </trkpt>
      <trkpt lat="46.553" lon="6.02609">
        <ele>950.2</ele>
        <time>2021-11-18T14:15:40Z</time>
      </trkpt>
      <trkpt lat="46.55305" lon="6.02613">
        <ele>950.2</ele>
        <time>2021-11-18T14:15:45Z</time>
      </trkpt>
      <trkpt lat="46.5531" lon="6.02614">
        <ele>950.1</ele>
        <time>2021-11-18T14:15:49Z</time>
      </trkpt>
      <trkpt lat="46.55315" lon="6.02616">
        <ele>950</ele>
        <time>2021-11-18T14:15:53Z</time>
      </trkpt>
      <trkpt lat="46.5532" lon="6.02617">
        <ele>949.9</ele>
        <time>2021-11-18T14:15:57Z</time>
      </trkpt>
      <trkpt lat="46.55325" lon="6.02619">
        <ele>950.3</ele>
        <time>2021-11-18T14:16:02Z</time>
      </trkpt>
      <trkpt lat="46.55331" lon="6.02619">
        <ele>951.1</ele>
        <time>2021-11-18T14:16:07Z</time>
      </trkpt>
      <trkpt lat="46.55335" lon="6.02618">
        <ele>951.9</ele>
        <time>2021-11-18T14:16:11Z</time>
      </trkpt>
      <trkpt lat="46.5534" lon="6.02615">
        <ele>951.9</ele>
        <time>2021-11-18T14:16:16Z</time>
      </trkpt>
      <trkpt lat="46.55345" lon="6.02614">
        <ele>951.2</ele>
        <time>2021-11-18T14:16:21Z</time>
      </trkpt>
      <trkpt lat="46.55349" lon="6.02613">
        <ele>950</ele>
        <time>2021-11-18T14:16:26Z</time>
      </trkpt>
      <trkpt lat="46.55354" lon="6.0261">
        <ele>948.9</ele>
        <time>2021-11-18T14:16:31Z</time>
      </trkpt>
      <trkpt lat="46.55358" lon="6.02604">
        <ele>948.2</ele>
        <time>2021-11-18T14:16:36Z</time>
      </trkpt>
      <trkpt lat="46.55362" lon="6.026">
        <ele>947.8</ele>
        <time>2021-11-18T14:16:41Z</time>
      </trkpt>
      <trkpt lat="46.55366" lon="6.02595">
        <ele>948.3</ele>
        <time>2021-11-18T14:16:46Z</time>
      </trkpt>
      <trkpt lat="46.55371" lon="6.02591">
        <ele>949.4</ele>
        <time>2021-11-18T14:16:51Z</time>
      </trkpt>
      <trkpt lat="46.55376" lon="6.02587">
        <ele>950.1</ele>
        <time>2021-11-18T14:16:56Z</time>
      </trkpt>
      <trkpt lat="46.5538" lon="6.02584">
        <ele>950.5</ele>
        <time>2021-11-18T14:17:01Z</time>
      </trkpt>
      <trkpt lat="46.55384" lon="6.02581">
        <ele>950.5</ele>
        <time>2021-11-18T14:17:07Z</time>
      </trkpt>
      <trkpt lat="46.55389" lon="6.0258">
        <ele>949.9</ele>
        <time>2021-11-18T14:17:12Z</time>
      </trkpt>
      <trkpt lat="46.55394" lon="6.02579">
        <ele>948.5</ele>
        <time>2021-11-18T14:17:18Z</time>
      </trkpt>
      <trkpt lat="46.55399" lon="6.0258">
        <ele>946.8</ele>
        <time>2021-11-18T14:17:23Z</time>
      </trkpt>
      <trkpt lat="46.55404" lon="6.02581">
        <ele>944.9</ele>
        <time>2021-11-18T14:17:29Z</time>
      </trkpt>
      <trkpt lat="46.55409" lon="6.02583">
        <ele>943.2</ele>
        <time>2021-11-18T14:17:34Z</time>
      </trkpt>
      <trkpt lat="46.55414" lon="6.02584">
        <ele>941</ele>
        <time>2021-11-18T14:17:40Z</time>
      </trkpt>
      <trkpt lat="46.55419" lon="6.02586">
        <ele>939.5</ele>
        <time>2021-11-18T14:17:46Z</time>
      </trkpt>
      <trkpt lat="46.55424" lon="6.02588">
        <ele>938.2</ele>
        <time>2021-11-18T14:17:51Z</time>
      </trkpt>
      <trkpt lat="46.55429" lon="6.02589">
        <ele>937.2</ele>
        <time>2021-11-18T14:17:56Z</time>
      </trkpt>
      <trkpt lat="46.55434" lon="6.0259">
        <ele>937</ele>
        <time>2021-11-18T14:18:00Z</time>
      </trkpt>
      <trkpt lat="46.55439" lon="6.02592">
        <ele>936.8</ele>
        <time>2021-11-18T14:18:05Z</time>
      </trkpt>
      <trkpt lat="46.55444" lon="6.02594">
        <ele>936.7</ele>
        <time>2021-11-18T14:18:10Z</time>
      </trkpt>
      <trkpt lat="46.55448" lon="6.02596">
        <ele>936.4</ele>
        <time>2021-11-18T14:18:15Z</time>
      </trkpt>
      <trkpt lat="46.55454" lon="6.02598">
        <ele>935.8</ele>
        <time>2021-11-18T14:18:20Z</time>
      </trkpt>
      <trkpt lat="46.55458" lon="6.02601">
        <ele>935.1</ele>
        <time>2021-11-18T14:18:25Z</time>
      </trkpt>
      <trkpt lat="46.55463" lon="6.02604">
        <ele>934.6</ele>
        <time>2021-11-18T14:18:30Z</time>
      </trkpt>
      <trkpt lat="46.55468" lon="6.02605">
        <ele>934</ele>
        <time>2021-11-18T14:18:35Z</time>
      </trkpt>
      <trkpt lat="46.55472" lon="6.02607">
        <ele>933.3</ele>
        <time>2021-11-18T14:18:39Z</time>
      </trkpt>
      <trkpt lat="46.55477" lon="6.02608">
        <ele>932.4</ele>
        <time>2021-11-18T14:18:43Z</time>
      </trkpt>
      <trkpt lat="46.55482" lon="6.0261">
        <ele>931.5</ele>
        <time>2021-11-18T14:18:48Z</time>
      </trkpt>
      <trkpt lat="46.55488" lon="6.0261">
        <ele>930.9</ele>
        <time>2021-11-18T14:18:53Z</time>
      </trkpt>
      <trkpt lat="46.55493" lon="6.02609">
        <ele>931</ele>
        <time>2021-11-18T14:19:00Z</time>
      </trkpt>
      <trkpt lat="46.55498" lon="6.02608">
        <ele>931.5</ele>
        <time>2021-11-18T14:19:06Z</time>
      </trkpt>
      <trkpt lat="46.55503" lon="6.02607">
        <ele>931.8</ele>
        <time>2021-11-18T14:19:11Z</time>
      </trkpt>
      <trkpt lat="46.55509" lon="6.02607">
        <ele>931.9</ele>
        <time>2021-11-18T14:19:16Z</time>
      </trkpt>
      <trkpt lat="46.55513" lon="6.02606">
        <ele>931.5</ele>
        <time>2021-11-18T14:19:20Z</time>
      </trkpt>
      <trkpt lat="46.55518" lon="6.02605">
        <ele>930.4</ele>
        <time>2021-11-18T14:19:25Z</time>
      </trkpt>
      <trkpt lat="46.55522" lon="6.02603">
        <ele>929.3</ele>
        <time>2021-11-18T14:19:30Z</time>
      </trkpt>
      <trkpt lat="46.55528" lon="6.02602">
        <ele>928.3</ele>
        <time>2021-11-18T14:19:35Z</time>
      </trkpt>
      <trkpt lat="46.55532" lon="6.02602">
        <ele>927.7</ele>
        <time>2021-11-18T14:19:40Z</time>
      </trkpt>
      <trkpt lat="46.55537" lon="6.026">
        <ele>927.6</ele>
        <time>2021-11-18T14:19:44Z</time>
      </trkpt>
      <trkpt lat="46.55541" lon="6.02598">
        <ele>928.1</ele>
        <time>2021-11-18T14:19:48Z</time>
      </trkpt>
      <trkpt lat="46.55547" lon="6.02596">
        <ele>928.9</ele>
        <time>2021-11-18T14:19:53Z</time>
      </trkpt>
      <trkpt lat="46.55551" lon="6.02593">
        <ele>929.2</ele>
        <time>2021-11-18T14:19:57Z</time>
      </trkpt>
      <trkpt lat="46.55552" lon="6.02586">
        <ele>930.9</ele>
        <time>2021-11-18T14:20:10Z</time>
      </trkpt>
      <trkpt lat="46.55553" lon="6.02579">
        <ele>930.4</ele>
        <time>2021-11-18T14:20:15Z</time>
      </trkpt>
      <trkpt lat="46.55554" lon="6.02572">
        <ele>929.5</ele>
        <time>2021-11-18T14:20:20Z</time>
      </trkpt>
      <trkpt lat="46.55553" lon="6.02565">
        <ele>928.7</ele>
        <time>2021-11-18T14:20:25Z</time>
      </trkpt>
      <trkpt lat="46.55555" lon="6.02559">
        <ele>928.7</ele>
        <time>2021-11-18T14:20:30Z</time>
      </trkpt>
      <trkpt lat="46.55557" lon="6.02552">
        <ele>928.8</ele>
        <time>2021-11-18T14:20:35Z</time>
      </trkpt>
      <trkpt lat="46.55558" lon="6.02545">
        <ele>928.3</ele>
        <time>2021-11-18T14:20:40Z</time>
      </trkpt>
      <trkpt lat="46.55559" lon="6.02538">
        <ele>927.8</ele>
        <time>2021-11-18T14:20:45Z</time>
      </trkpt>
      <trkpt lat="46.55559" lon="6.02531">
        <ele>927.3</ele>
        <time>2021-11-18T14:20:49Z</time>
      </trkpt>
      <trkpt lat="46.55559" lon="6.02524">
        <ele>926.4</ele>
        <time>2021-11-18T14:20:54Z</time>
      </trkpt>
      <trkpt lat="46.55559" lon="6.02517">
        <ele>925.3</ele>
        <time>2021-11-18T14:20:59Z</time>
      </trkpt>
      <trkpt lat="46.55561" lon="6.02511">
        <ele>925.9</ele>
        <time>2021-11-18T14:21:22Z</time>
      </trkpt>
      <trkpt lat="46.55562" lon="6.02504">
        <ele>926.5</ele>
        <time>2021-11-18T14:21:27Z</time>
      </trkpt>
      <trkpt lat="46.55561" lon="6.02496">
        <ele>926.7</ele>
        <time>2021-11-18T14:21:32Z</time>
      </trkpt>
      <trkpt lat="46.55561" lon="6.02489">
        <ele>926.7</ele>
        <time>2021-11-18T14:21:37Z</time>
      </trkpt>
      <trkpt lat="46.55561" lon="6.02481">
        <ele>926.7</ele>
        <time>2021-11-18T14:21:42Z</time>
      </trkpt>
      <trkpt lat="46.55561" lon="6.02473">
        <ele>926.4</ele>
        <time>2021-11-18T14:21:47Z</time>
      </trkpt>
      <trkpt lat="46.55562" lon="6.02466">
        <ele>926.1</ele>
        <time>2021-11-18T14:21:52Z</time>
      </trkpt>
      <trkpt lat="46.55562" lon="6.02459">
        <ele>926.3</ele>
        <time>2021-11-18T14:21:56Z</time>
      </trkpt>
      <trkpt lat="46.55564" lon="6.02452">
        <ele>926.6</ele>
        <time>2021-11-18T14:22:00Z</time>
      </trkpt>
      <trkpt lat="46.55566" lon="6.02445">
        <ele>926.9</ele>
        <time>2021-11-18T14:22:05Z</time>
      </trkpt>
      <trkpt lat="46.55568" lon="6.02439">
        <ele>927.4</ele>
        <time>2021-11-18T14:22:09Z</time>
      </trkpt>
      <trkpt lat="46.55572" lon="6.02433">
        <ele>927.9</ele>
        <time>2021-11-18T14:22:14Z</time>
      </trkpt>
      <trkpt lat="46.55575" lon="6.02428">
        <ele>928.6</ele>
        <time>2021-11-18T14:22:18Z</time>
      </trkpt>
      <trkpt lat="46.55578" lon="6.02423">
        <ele>929.1</ele>
        <time>2021-11-18T14:22:22Z</time>
      </trkpt>
      <trkpt lat="46.5558" lon="6.02417">
        <ele>929.6</ele>
        <time>2021-11-18T14:22:26Z</time>
      </trkpt>
      <trkpt lat="46.55584" lon="6.02413">
        <ele>929.7</ele>
        <time>2021-11-18T14:22:30Z</time>
      </trkpt>
      <trkpt lat="46.55589" lon="6.02411">
        <ele>929.9</ele>
        <time>2021-11-18T14:22:35Z</time>
      </trkpt>
      <trkpt lat="46.55592" lon="6.02406">
        <ele>929.8</ele>
        <time>2021-11-18T14:22:40Z</time>
      </trkpt>
      <trkpt lat="46.55595" lon="6.024">
        <ele>929</ele>
        <time>2021-11-18T14:22:45Z</time>
      </trkpt>
      <trkpt lat="46.55597" lon="6.02394">
        <ele>927.6</ele>
        <time>2021-11-18T14:22:50Z</time>
      </trkpt>
      <trkpt lat="46.556" lon="6.02387">
        <ele>926.2</ele>
        <time>2021-11-18T14:22:55Z</time>
      </trkpt>
      <trkpt lat="46.55602" lon="6.0238">
        <ele>925.4</ele>
        <time>2021-11-18T14:23:00Z</time>
      </trkpt>
      <trkpt lat="46.55604" lon="6.02373">
        <ele>924.8</ele>
        <time>2021-11-18T14:23:06Z</time>
      </trkpt>
      <trkpt lat="46.55606" lon="6.02365">
        <ele>925.2</ele>
        <time>2021-11-18T14:23:11Z</time>
      </trkpt>
      <trkpt lat="46.55608" lon="6.02359">
        <ele>925.6</ele>
        <time>2021-11-18T14:23:15Z</time>
      </trkpt>
      <trkpt lat="46.5561" lon="6.02353">
        <ele>926.2</ele>
        <time>2021-11-18T14:23:19Z</time>
      </trkpt>
      <trkpt lat="46.55613" lon="6.02346">
        <ele>926.4</ele>
        <time>2021-11-18T14:23:24Z</time>
      </trkpt>
      <trkpt lat="46.55615" lon="6.0234">
        <ele>925.7</ele>
        <time>2021-11-18T14:23:29Z</time>
      </trkpt>
      <trkpt lat="46.55618" lon="6.02334">
        <ele>925</ele>
        <time>2021-11-18T14:23:34Z</time>
      </trkpt>
      <trkpt lat="46.55621" lon="6.02329">
        <ele>924.2</ele>
        <time>2021-11-18T14:23:39Z</time>
      </trkpt>
      <trkpt lat="46.55623" lon="6.02323">
        <ele>923.9</ele>
        <time>2021-11-18T14:23:44Z</time>
      </trkpt>
      <trkpt lat="46.55625" lon="6.02317">
        <ele>923.6</ele>
        <time>2021-11-18T14:23:49Z</time>
      </trkpt>
      <trkpt lat="46.55628" lon="6.02311">
        <ele>923.7</ele>
        <time>2021-11-18T14:23:54Z</time>
      </trkpt>
      <trkpt lat="46.55632" lon="6.02307">
        <ele>924.2</ele>
        <time>2021-11-18T14:23:58Z</time>
      </trkpt>
      <trkpt lat="46.55636" lon="6.02304">
        <ele>924.4</ele>
        <time>2021-11-18T14:24:02Z</time>
      </trkpt>
      <trkpt lat="46.5564" lon="6.02299">
        <ele>924.1</ele>
        <time>2021-11-18T14:24:07Z</time>
      </trkpt>
      <trkpt lat="46.55644" lon="6.02293">
        <ele>923.7</ele>
        <time>2021-11-18T14:24:12Z</time>
      </trkpt>
      <trkpt lat="46.55648" lon="6.02288">
        <ele>923.4</ele>
        <time>2021-11-18T14:24:17Z</time>
      </trkpt>
      <trkpt lat="46.5565" lon="6.02282">
        <ele>923.6</ele>
        <time>2021-11-18T14:24:21Z</time>
      </trkpt>
      <trkpt lat="46.55653" lon="6.02277">
        <ele>923.8</ele>
        <time>2021-11-18T14:24:25Z</time>
      </trkpt>
      <trkpt lat="46.55655" lon="6.02271">
        <ele>923.8</ele>
        <time>2021-11-18T14:24:29Z</time>
      </trkpt>
      <trkpt lat="46.55659" lon="6.02266">
        <ele>924.2</ele>
        <time>2021-11-18T14:24:35Z</time>
      </trkpt>
      <trkpt lat="46.55661" lon="6.02261">
        <ele>924.2</ele>
        <time>2021-11-18T14:24:40Z</time>
      </trkpt>
      <trkpt lat="46.55664" lon="6.02255">
        <ele>924.2</ele>
        <time>2021-11-18T14:24:44Z</time>
      </trkpt>
      <trkpt lat="46.55666" lon="6.02249">
        <ele>924.2</ele>
        <time>2021-11-18T14:24:48Z</time>
      </trkpt>
      <trkpt lat="46.5567" lon="6.02243">
        <ele>924</ele>
        <time>2021-11-18T14:24:53Z</time>
      </trkpt>
      <trkpt lat="46.55674" lon="6.02239">
        <ele>923.9</ele>
        <time>2021-11-18T14:24:58Z</time>
      </trkpt>
      <trkpt lat="46.55678" lon="6.02234">
        <ele>923.9</ele>
        <time>2021-11-18T14:25:03Z</time>
      </trkpt>
      <trkpt lat="46.55681" lon="6.02229">
        <ele>923.9</ele>
        <time>2021-11-18T14:25:08Z</time>
      </trkpt>
      <trkpt lat="46.55685" lon="6.02223">
        <ele>923.9</ele>
        <time>2021-11-18T14:25:13Z</time>
      </trkpt>
      <trkpt lat="46.55689" lon="6.02219">
        <ele>923.6</ele>
        <time>2021-11-18T14:25:18Z</time>
      </trkpt>
      <trkpt lat="46.55692" lon="6.02214">
        <ele>923.1</ele>
        <time>2021-11-18T14:25:23Z</time>
      </trkpt>
      <trkpt lat="46.55697" lon="6.02211">
        <ele>922.7</ele>
        <time>2021-11-18T14:25:27Z</time>
      </trkpt>
      <trkpt lat="46.55701" lon="6.02207">
        <ele>922.1</ele>
        <time>2021-11-18T14:25:32Z</time>
      </trkpt>
      <trkpt lat="46.55704" lon="6.02201">
        <ele>922</ele>
        <time>2021-11-18T14:25:37Z</time>
      </trkpt>
      <trkpt lat="46.55709" lon="6.02198">
        <ele>922.6</ele>
        <time>2021-11-18T14:25:44Z</time>
      </trkpt>
      <trkpt lat="46.55714" lon="6.02196">
        <ele>923</ele>
        <time>2021-11-18T14:25:50Z</time>
      </trkpt>
      <trkpt lat="46.55719" lon="6.02193">
        <ele>923.4</ele>
        <time>2021-11-18T14:25:55Z</time>
      </trkpt>
    </trkseg>
  </trk>
</gpx>